<?xml version="1.0" encoding="UTF-8" standalone="no" ?>
<gpx xmlns="http://www.topografix.com/GPX/1/1" xmlns:xsi="http://www.w3.org/2001/XMLSchema-instance" xsi:schemaLocation="http://www.topografix.com/GPX/1/1 http://www.topografix.com/GPX/1/1/gpx.xsd" version="1.1" creator="VisuGPX - https://www.visugpx.com">
  <metadata>
    <name>Callian VTT 13 Septembre 2009</name>
    <desc><![CDATA[Callian VTT 13 Septembre 2009
-----------------------------------]]></desc>
  </metadata>
  <trk>
    <name><![CDATA[Callian VTT 13 Septembre 2009_1]]></name>
    <trkseg>
      <trkpt lat="43.61855" lon="6.77344">
        <ele>380.4</ele>
        <time>2009-09-13T06:50:06.544Z</time>
      </trkpt>
      <trkpt lat="43.6188" lon="6.77341">
        <ele>380</ele>
        <time>2009-09-13T06:50:07.544Z</time>
      </trkpt>
      <trkpt lat="43.61875" lon="6.77342">
        <ele>380</ele>
        <time>2009-09-13T06:50:09.544Z</time>
      </trkpt>
      <trkpt lat="43.6186" lon="6.77344">
        <ele>380.1</ele>
        <time>2009-09-13T06:50:10.544Z</time>
      </trkpt>
      <trkpt lat="43.61847" lon="6.77347">
        <ele>381</ele>
        <time>2009-09-13T06:50:12.544Z</time>
      </trkpt>
      <trkpt lat="43.61819" lon="6.77351">
        <ele>382.5</ele>
        <time>2009-09-13T06:50:13.544Z</time>
      </trkpt>
      <trkpt lat="43.61836" lon="6.77348">
        <ele>381.8</ele>
        <time>2009-09-13T06:50:14.544Z</time>
      </trkpt>
      <trkpt lat="43.61869" lon="6.77343">
        <ele>380</ele>
        <time>2009-09-13T06:50:17.544Z</time>
      </trkpt>
      <trkpt lat="43.61842" lon="6.77347">
        <ele>381.4</ele>
        <time>2009-09-13T06:50:19.544Z</time>
      </trkpt>
      <trkpt lat="43.61829" lon="6.77346">
        <ele>382.2</ele>
        <time>2009-09-13T06:50:21.544Z</time>
      </trkpt>
      <trkpt lat="43.61878" lon="6.77349">
        <ele>380</ele>
        <time>2009-09-13T06:50:39.544Z</time>
      </trkpt>
      <trkpt lat="43.61844" lon="6.77341">
        <ele>381.2</ele>
        <time>2009-09-13T06:51:00.544Z</time>
      </trkpt>
      <trkpt lat="43.61859" lon="6.77337">
        <ele>380.1</ele>
        <time>2009-09-13T06:51:11.544Z</time>
      </trkpt>
      <trkpt lat="43.6186" lon="6.77327">
        <ele>380.1</ele>
        <time>2009-09-13T06:51:13.544Z</time>
      </trkpt>
      <trkpt lat="43.61857" lon="6.77317">
        <ele>380.3</ele>
        <time>2009-09-13T06:51:15.544Z</time>
      </trkpt>
      <trkpt lat="43.61848" lon="6.77312">
        <ele>380.9</ele>
        <time>2009-09-13T06:51:17.544Z</time>
      </trkpt>
      <trkpt lat="43.61843" lon="6.77313">
        <ele>381.3</ele>
        <time>2009-09-13T06:51:18.544Z</time>
      </trkpt>
      <trkpt lat="43.61838" lon="6.77311">
        <ele>381.6</ele>
        <time>2009-09-13T06:51:19.544Z</time>
      </trkpt>
      <trkpt lat="43.61832" lon="6.77315">
        <ele>382.1</ele>
        <time>2009-09-13T06:51:20.544Z</time>
      </trkpt>
      <trkpt lat="43.61827" lon="6.77317">
        <ele>382.3</ele>
        <time>2009-09-13T06:51:21.544Z</time>
      </trkpt>
      <trkpt lat="43.61811" lon="6.77323">
        <ele>383.1</ele>
        <time>2009-09-13T06:51:23.544Z</time>
      </trkpt>
      <trkpt lat="43.61808" lon="6.7733">
        <ele>383</ele>
        <time>2009-09-13T06:51:25.544Z</time>
      </trkpt>
      <trkpt lat="43.61784" lon="6.7733">
        <ele>383.7</ele>
        <time>2009-09-13T06:51:26.544Z</time>
      </trkpt>
      <trkpt lat="43.6178" lon="6.77341">
        <ele>383.9</ele>
        <time>2009-09-13T06:51:27.544Z</time>
      </trkpt>
      <trkpt lat="43.6179" lon="6.77346">
        <ele>383.6</ele>
        <time>2009-09-13T06:51:28.544Z</time>
      </trkpt>
      <trkpt lat="43.61802" lon="6.77354">
        <ele>383.1</ele>
        <time>2009-09-13T06:51:29.544Z</time>
      </trkpt>
      <trkpt lat="43.61794" lon="6.77357">
        <ele>383.4</ele>
        <time>2009-09-13T06:51:30.544Z</time>
      </trkpt>
      <trkpt lat="43.6179" lon="6.77367">
        <ele>383.5</ele>
        <time>2009-09-13T06:51:32.544Z</time>
      </trkpt>
      <trkpt lat="43.61785" lon="6.77372">
        <ele>383.4</ele>
        <time>2009-09-13T06:51:33.544Z</time>
      </trkpt>
      <trkpt lat="43.61782" lon="6.77378">
        <ele>383.4</ele>
        <time>2009-09-13T06:51:34.544Z</time>
      </trkpt>
      <trkpt lat="43.61774" lon="6.77381">
        <ele>383.1</ele>
        <time>2009-09-13T06:51:35.544Z</time>
      </trkpt>
      <trkpt lat="43.61779" lon="6.77388">
        <ele>383</ele>
        <time>2009-09-13T06:51:36.544Z</time>
      </trkpt>
      <trkpt lat="43.61775" lon="6.77398">
        <ele>382.6</ele>
        <time>2009-09-13T06:51:38.544Z</time>
      </trkpt>
      <trkpt lat="43.6176" lon="6.77405">
        <ele>382.2</ele>
        <time>2009-09-13T06:51:40.544Z</time>
      </trkpt>
      <trkpt lat="43.61757" lon="6.77415">
        <ele>382</ele>
        <time>2009-09-13T06:51:42.544Z</time>
      </trkpt>
      <trkpt lat="43.61754" lon="6.77424">
        <ele>381.7</ele>
        <time>2009-09-13T06:51:44.544Z</time>
      </trkpt>
      <trkpt lat="43.61763" lon="6.77431">
        <ele>381.5</ele>
        <time>2009-09-13T06:51:45.544Z</time>
      </trkpt>
      <trkpt lat="43.61757" lon="6.77432">
        <ele>381.4</ele>
        <time>2009-09-13T06:51:46.544Z</time>
      </trkpt>
      <trkpt lat="43.61746" lon="6.77431">
        <ele>381.2</ele>
        <time>2009-09-13T06:51:47.544Z</time>
      </trkpt>
      <trkpt lat="43.61746" lon="6.7744">
        <ele>381</ele>
        <time>2009-09-13T06:51:50.544Z</time>
      </trkpt>
      <trkpt lat="43.61736" lon="6.77442">
        <ele>380.5</ele>
        <time>2009-09-13T06:51:51.544Z</time>
      </trkpt>
      <trkpt lat="43.61745" lon="6.77449">
        <ele>380.7</ele>
        <time>2009-09-13T06:51:52.544Z</time>
      </trkpt>
      <trkpt lat="43.61751" lon="6.77456">
        <ele>380.6</ele>
        <time>2009-09-13T06:51:53.544Z</time>
      </trkpt>
      <trkpt lat="43.61741" lon="6.77459">
        <ele>380.2</ele>
        <time>2009-09-13T06:51:54.544Z</time>
      </trkpt>
      <trkpt lat="43.61753" lon="6.77469">
        <ele>380</ele>
        <time>2009-09-13T06:51:55.544Z</time>
      </trkpt>
      <trkpt lat="43.61767" lon="6.77476">
        <ele>379.1</ele>
        <time>2009-09-13T06:51:56.544Z</time>
      </trkpt>
      <trkpt lat="43.61764" lon="6.77481">
        <ele>378.9</ele>
        <time>2009-09-13T06:51:57.544Z</time>
      </trkpt>
      <trkpt lat="43.61767" lon="6.77492">
        <ele>378</ele>
        <time>2009-09-13T06:51:59.544Z</time>
      </trkpt>
      <trkpt lat="43.61773" lon="6.77497">
        <ele>377.4</ele>
        <time>2009-09-13T06:52:00.544Z</time>
      </trkpt>
      <trkpt lat="43.61782" lon="6.77502">
        <ele>376.5</ele>
        <time>2009-09-13T06:52:01.544Z</time>
      </trkpt>
      <trkpt lat="43.61787" lon="6.77507">
        <ele>375.7</ele>
        <time>2009-09-13T06:52:02.544Z</time>
      </trkpt>
      <trkpt lat="43.61791" lon="6.77511">
        <ele>375.1</ele>
        <time>2009-09-13T06:52:03.544Z</time>
      </trkpt>
      <trkpt lat="43.61796" lon="6.77516">
        <ele>374.6</ele>
        <time>2009-09-13T06:52:04.544Z</time>
      </trkpt>
      <trkpt lat="43.61801" lon="6.77525">
        <ele>373.9</ele>
        <time>2009-09-13T06:52:06.544Z</time>
      </trkpt>
      <trkpt lat="43.61805" lon="6.7753">
        <ele>373.8</ele>
        <time>2009-09-13T06:52:07.544Z</time>
      </trkpt>
      <trkpt lat="43.6181" lon="6.77534">
        <ele>374.3</ele>
        <time>2009-09-13T06:52:08.544Z</time>
      </trkpt>
      <trkpt lat="43.61815" lon="6.77539">
        <ele>375.1</ele>
        <time>2009-09-13T06:52:09.544Z</time>
      </trkpt>
      <trkpt lat="43.6182" lon="6.77544">
        <ele>375.9</ele>
        <time>2009-09-13T06:52:10.544Z</time>
      </trkpt>
      <trkpt lat="43.61824" lon="6.77548">
        <ele>376.8</ele>
        <time>2009-09-13T06:52:11.544Z</time>
      </trkpt>
      <trkpt lat="43.61828" lon="6.77553">
        <ele>377.7</ele>
        <time>2009-09-13T06:52:12.544Z</time>
      </trkpt>
      <trkpt lat="43.61833" lon="6.77558">
        <ele>378.7</ele>
        <time>2009-09-13T06:52:13.544Z</time>
      </trkpt>
      <trkpt lat="43.61838" lon="6.77563">
        <ele>379.4</ele>
        <time>2009-09-13T06:52:14.544Z</time>
      </trkpt>
      <trkpt lat="43.61843" lon="6.77569">
        <ele>379.8</ele>
        <time>2009-09-13T06:52:15.544Z</time>
      </trkpt>
      <trkpt lat="43.61847" lon="6.77576">
        <ele>380.2</ele>
        <time>2009-09-13T06:52:16.544Z</time>
      </trkpt>
      <trkpt lat="43.61852" lon="6.77583">
        <ele>380.6</ele>
        <time>2009-09-13T06:52:17.544Z</time>
      </trkpt>
      <trkpt lat="43.61857" lon="6.77592">
        <ele>381.6</ele>
        <time>2009-09-13T06:52:18.544Z</time>
      </trkpt>
      <trkpt lat="43.61848" lon="6.77598">
        <ele>380.4</ele>
        <time>2009-09-13T06:52:19.544Z</time>
      </trkpt>
      <trkpt lat="43.61858" lon="6.77609">
        <ele>382.3</ele>
        <time>2009-09-13T06:52:20.544Z</time>
      </trkpt>
      <trkpt lat="43.61873" lon="6.77622">
        <ele>385.2</ele>
        <time>2009-09-13T06:52:21.544Z</time>
      </trkpt>
      <trkpt lat="43.61878" lon="6.77633">
        <ele>385.8</ele>
        <time>2009-09-13T06:52:22.544Z</time>
      </trkpt>
      <trkpt lat="43.61884" lon="6.77646">
        <ele>387.2</ele>
        <time>2009-09-13T06:52:23.544Z</time>
      </trkpt>
      <trkpt lat="43.61892" lon="6.77659">
        <ele>389</ele>
        <time>2009-09-13T06:52:24.544Z</time>
      </trkpt>
      <trkpt lat="43.61898" lon="6.77671">
        <ele>390.2</ele>
        <time>2009-09-13T06:52:25.544Z</time>
      </trkpt>
      <trkpt lat="43.61904" lon="6.77684">
        <ele>391.9</ele>
        <time>2009-09-13T06:52:26.544Z</time>
      </trkpt>
      <trkpt lat="43.62238" lon="6.77808">
        <ele>381.9</ele>
        <time>2009-09-13T06:52:27.544Z</time>
      </trkpt>
      <trkpt lat="43.62244" lon="6.77819">
        <ele>381.1</ele>
        <time>2009-09-13T06:52:28.544Z</time>
      </trkpt>
      <trkpt lat="43.62247" lon="6.77828">
        <ele>380.5</ele>
        <time>2009-09-13T06:52:29.544Z</time>
      </trkpt>
      <trkpt lat="43.62255" lon="6.77842">
        <ele>380.1</ele>
        <time>2009-09-13T06:52:31Z</time>
      </trkpt>
      <trkpt lat="43.62261" lon="6.7785">
        <ele>379.6</ele>
        <time>2009-09-13T06:52:32Z</time>
      </trkpt>
      <trkpt lat="43.62266" lon="6.77857">
        <ele>378.9</ele>
        <time>2009-09-13T06:52:33Z</time>
      </trkpt>
      <trkpt lat="43.6227" lon="6.77863">
        <ele>378</ele>
        <time>2009-09-13T06:52:34Z</time>
      </trkpt>
      <trkpt lat="43.62274" lon="6.7787">
        <ele>377.2</ele>
        <time>2009-09-13T06:52:36Z</time>
      </trkpt>
      <trkpt lat="43.62281" lon="6.77871">
        <ele>377</ele>
        <time>2009-09-13T06:52:38Z</time>
      </trkpt>
      <trkpt lat="43.62289" lon="6.77867">
        <ele>378</ele>
        <time>2009-09-13T06:52:40Z</time>
      </trkpt>
      <trkpt lat="43.62294" lon="6.77857">
        <ele>378.9</ele>
        <time>2009-09-13T06:52:42Z</time>
      </trkpt>
      <trkpt lat="43.62297" lon="6.77852">
        <ele>379.4</ele>
        <time>2009-09-13T06:52:43Z</time>
      </trkpt>
      <trkpt lat="43.62301" lon="6.77841">
        <ele>379.9</ele>
        <time>2009-09-13T06:52:45Z</time>
      </trkpt>
      <trkpt lat="43.62304" lon="6.7783">
        <ele>380</ele>
        <time>2009-09-13T06:52:47Z</time>
      </trkpt>
      <trkpt lat="43.62307" lon="6.77818">
        <ele>380</ele>
        <time>2009-09-13T06:52:49Z</time>
      </trkpt>
      <trkpt lat="43.62305" lon="6.77807">
        <ele>380</ele>
        <time>2009-09-13T06:52:51Z</time>
      </trkpt>
      <trkpt lat="43.62307" lon="6.77795">
        <ele>380</ele>
        <time>2009-09-13T06:52:53Z</time>
      </trkpt>
      <trkpt lat="43.62311" lon="6.77784">
        <ele>379.9</ele>
        <time>2009-09-13T06:52:55Z</time>
      </trkpt>
      <trkpt lat="43.62313" lon="6.77778">
        <ele>379.7</ele>
        <time>2009-09-13T06:52:56Z</time>
      </trkpt>
      <trkpt lat="43.62315" lon="6.77772">
        <ele>379.6</ele>
        <time>2009-09-13T06:52:57Z</time>
      </trkpt>
      <trkpt lat="43.62317" lon="6.77765">
        <ele>379.4</ele>
        <time>2009-09-13T06:52:58Z</time>
      </trkpt>
      <trkpt lat="43.62319" lon="6.77759">
        <ele>379.2</ele>
        <time>2009-09-13T06:52:59Z</time>
      </trkpt>
      <trkpt lat="43.62322" lon="6.77752">
        <ele>378.9</ele>
        <time>2009-09-13T06:53:00Z</time>
      </trkpt>
      <trkpt lat="43.62325" lon="6.77745">
        <ele>378.7</ele>
        <time>2009-09-13T06:53:01Z</time>
      </trkpt>
      <trkpt lat="43.62328" lon="6.77739">
        <ele>378.7</ele>
        <time>2009-09-13T06:53:02Z</time>
      </trkpt>
      <trkpt lat="43.62331" lon="6.77733">
        <ele>378.7</ele>
        <time>2009-09-13T06:53:03Z</time>
      </trkpt>
      <trkpt lat="43.62335" lon="6.77727">
        <ele>378.8</ele>
        <time>2009-09-13T06:53:04Z</time>
      </trkpt>
      <trkpt lat="43.62339" lon="6.77722">
        <ele>378.8</ele>
        <time>2009-09-13T06:53:05Z</time>
      </trkpt>
      <trkpt lat="43.62344" lon="6.77716">
        <ele>378.9</ele>
        <time>2009-09-13T06:53:06Z</time>
      </trkpt>
      <trkpt lat="43.62348" lon="6.7771">
        <ele>378.9</ele>
        <time>2009-09-13T06:53:07Z</time>
      </trkpt>
      <trkpt lat="43.62352" lon="6.77705">
        <ele>378.7</ele>
        <time>2009-09-13T06:53:08Z</time>
      </trkpt>
      <trkpt lat="43.62356" lon="6.77699">
        <ele>378.5</ele>
        <time>2009-09-13T06:53:09Z</time>
      </trkpt>
      <trkpt lat="43.62361" lon="6.77693">
        <ele>378.2</ele>
        <time>2009-09-13T06:53:10Z</time>
      </trkpt>
      <trkpt lat="43.62365" lon="6.77687">
        <ele>378.3</ele>
        <time>2009-09-13T06:53:11Z</time>
      </trkpt>
      <trkpt lat="43.62369" lon="6.77681">
        <ele>378.4</ele>
        <time>2009-09-13T06:53:12Z</time>
      </trkpt>
      <trkpt lat="43.62373" lon="6.77674">
        <ele>378.4</ele>
        <time>2009-09-13T06:53:13Z</time>
      </trkpt>
      <trkpt lat="43.62377" lon="6.77667">
        <ele>378.3</ele>
        <time>2009-09-13T06:53:14Z</time>
      </trkpt>
      <trkpt lat="43.6238" lon="6.7766">
        <ele>378.2</ele>
        <time>2009-09-13T06:53:15Z</time>
      </trkpt>
      <trkpt lat="43.62384" lon="6.77653">
        <ele>378.1</ele>
        <time>2009-09-13T06:53:16Z</time>
      </trkpt>
      <trkpt lat="43.62387" lon="6.77645">
        <ele>378</ele>
        <time>2009-09-13T06:53:17Z</time>
      </trkpt>
      <trkpt lat="43.6239" lon="6.77638">
        <ele>378</ele>
        <time>2009-09-13T06:53:18Z</time>
      </trkpt>
      <trkpt lat="43.62393" lon="6.7763">
        <ele>377.9</ele>
        <time>2009-09-13T06:53:19Z</time>
      </trkpt>
      <trkpt lat="43.62396" lon="6.77621">
        <ele>377.9</ele>
        <time>2009-09-13T06:53:20Z</time>
      </trkpt>
      <trkpt lat="43.62398" lon="6.77613">
        <ele>377.7</ele>
        <time>2009-09-13T06:53:21Z</time>
      </trkpt>
      <trkpt lat="43.624" lon="6.77604">
        <ele>377.4</ele>
        <time>2009-09-13T06:53:22Z</time>
      </trkpt>
      <trkpt lat="43.62402" lon="6.77595">
        <ele>377.1</ele>
        <time>2009-09-13T06:53:23Z</time>
      </trkpt>
      <trkpt lat="43.62403" lon="6.77585">
        <ele>376.9</ele>
        <time>2009-09-13T06:53:24Z</time>
      </trkpt>
      <trkpt lat="43.62404" lon="6.77576">
        <ele>376.6</ele>
        <time>2009-09-13T06:53:25Z</time>
      </trkpt>
      <trkpt lat="43.62403" lon="6.77565">
        <ele>376.3</ele>
        <time>2009-09-13T06:53:26Z</time>
      </trkpt>
      <trkpt lat="43.62402" lon="6.77555">
        <ele>376.1</ele>
        <time>2009-09-13T06:53:27Z</time>
      </trkpt>
      <trkpt lat="43.62402" lon="6.77545">
        <ele>376.3</ele>
        <time>2009-09-13T06:53:28Z</time>
      </trkpt>
      <trkpt lat="43.62401" lon="6.77535">
        <ele>376.5</ele>
        <time>2009-09-13T06:53:29Z</time>
      </trkpt>
      <trkpt lat="43.62401" lon="6.77525">
        <ele>376.6</ele>
        <time>2009-09-13T06:53:30Z</time>
      </trkpt>
      <trkpt lat="43.62402" lon="6.77514">
        <ele>376.7</ele>
        <time>2009-09-13T06:53:31Z</time>
      </trkpt>
      <trkpt lat="43.62403" lon="6.77505">
        <ele>376.9</ele>
        <time>2009-09-13T06:53:32Z</time>
      </trkpt>
      <trkpt lat="43.62404" lon="6.77495">
        <ele>377.3</ele>
        <time>2009-09-13T06:53:33Z</time>
      </trkpt>
      <trkpt lat="43.62405" lon="6.77484">
        <ele>377.8</ele>
        <time>2009-09-13T06:53:34Z</time>
      </trkpt>
      <trkpt lat="43.62406" lon="6.77475">
        <ele>378.3</ele>
        <time>2009-09-13T06:53:35Z</time>
      </trkpt>
      <trkpt lat="43.62407" lon="6.77466">
        <ele>378.7</ele>
        <time>2009-09-13T06:53:36Z</time>
      </trkpt>
      <trkpt lat="43.62408" lon="6.77458">
        <ele>378.9</ele>
        <time>2009-09-13T06:53:37Z</time>
      </trkpt>
      <trkpt lat="43.62409" lon="6.77449">
        <ele>379.1</ele>
        <time>2009-09-13T06:53:38Z</time>
      </trkpt>
      <trkpt lat="43.6241" lon="6.77441">
        <ele>379.2</ele>
        <time>2009-09-13T06:53:39Z</time>
      </trkpt>
      <trkpt lat="43.62411" lon="6.77434">
        <ele>379.4</ele>
        <time>2009-09-13T06:53:40Z</time>
      </trkpt>
      <trkpt lat="43.62413" lon="6.77426">
        <ele>379.6</ele>
        <time>2009-09-13T06:53:41Z</time>
      </trkpt>
      <trkpt lat="43.62415" lon="6.77419">
        <ele>379.8</ele>
        <time>2009-09-13T06:53:42Z</time>
      </trkpt>
      <trkpt lat="43.62416" lon="6.77413">
        <ele>379.9</ele>
        <time>2009-09-13T06:53:43Z</time>
      </trkpt>
      <trkpt lat="43.62418" lon="6.77406">
        <ele>380</ele>
        <time>2009-09-13T06:53:44Z</time>
      </trkpt>
      <trkpt lat="43.6242" lon="6.774">
        <ele>380.1</ele>
        <time>2009-09-13T06:53:45Z</time>
      </trkpt>
      <trkpt lat="43.62421" lon="6.77393">
        <ele>380.2</ele>
        <time>2009-09-13T06:53:46Z</time>
      </trkpt>
      <trkpt lat="43.62424" lon="6.77387">
        <ele>380.3</ele>
        <time>2009-09-13T06:53:47Z</time>
      </trkpt>
      <trkpt lat="43.62426" lon="6.77381">
        <ele>380.5</ele>
        <time>2009-09-13T06:53:48Z</time>
      </trkpt>
      <trkpt lat="43.62429" lon="6.77376">
        <ele>380.7</ele>
        <time>2009-09-13T06:53:49Z</time>
      </trkpt>
      <trkpt lat="43.62432" lon="6.7737">
        <ele>380.8</ele>
        <time>2009-09-13T06:53:50Z</time>
      </trkpt>
      <trkpt lat="43.62434" lon="6.77365">
        <ele>380.9</ele>
        <time>2009-09-13T06:53:51Z</time>
      </trkpt>
      <trkpt lat="43.62437" lon="6.7736">
        <ele>381</ele>
        <time>2009-09-13T06:53:52Z</time>
      </trkpt>
      <trkpt lat="43.6244" lon="6.77354">
        <ele>381</ele>
        <time>2009-09-13T06:53:53Z</time>
      </trkpt>
      <trkpt lat="43.62442" lon="6.77349">
        <ele>381</ele>
        <time>2009-09-13T06:53:54Z</time>
      </trkpt>
      <trkpt lat="43.62445" lon="6.77343">
        <ele>381</ele>
        <time>2009-09-13T06:53:55Z</time>
      </trkpt>
      <trkpt lat="43.62447" lon="6.77337">
        <ele>381.2</ele>
        <time>2009-09-13T06:53:56Z</time>
      </trkpt>
      <trkpt lat="43.6245" lon="6.77331">
        <ele>381.3</ele>
        <time>2009-09-13T06:53:57Z</time>
      </trkpt>
      <trkpt lat="43.62453" lon="6.77324">
        <ele>381.2</ele>
        <time>2009-09-13T06:53:58Z</time>
      </trkpt>
      <trkpt lat="43.62455" lon="6.77318">
        <ele>381</ele>
        <time>2009-09-13T06:53:59Z</time>
      </trkpt>
      <trkpt lat="43.62458" lon="6.77312">
        <ele>380.8</ele>
        <time>2009-09-13T06:54:00Z</time>
      </trkpt>
      <trkpt lat="43.62461" lon="6.77306">
        <ele>380.6</ele>
        <time>2009-09-13T06:54:01Z</time>
      </trkpt>
      <trkpt lat="43.62464" lon="6.773">
        <ele>380.7</ele>
        <time>2009-09-13T06:54:02Z</time>
      </trkpt>
      <trkpt lat="43.62467" lon="6.77293">
        <ele>380.7</ele>
        <time>2009-09-13T06:54:03Z</time>
      </trkpt>
      <trkpt lat="43.6247" lon="6.77287">
        <ele>380.9</ele>
        <time>2009-09-13T06:54:04Z</time>
      </trkpt>
      <trkpt lat="43.62473" lon="6.7728">
        <ele>381</ele>
        <time>2009-09-13T06:54:05Z</time>
      </trkpt>
      <trkpt lat="43.62475" lon="6.77273">
        <ele>381</ele>
        <time>2009-09-13T06:54:06Z</time>
      </trkpt>
      <trkpt lat="43.62477" lon="6.77265">
        <ele>380.9</ele>
        <time>2009-09-13T06:54:07Z</time>
      </trkpt>
      <trkpt lat="43.62478" lon="6.77258">
        <ele>380.9</ele>
        <time>2009-09-13T06:54:08Z</time>
      </trkpt>
      <trkpt lat="43.6248" lon="6.7725">
        <ele>380.9</ele>
        <time>2009-09-13T06:54:09Z</time>
      </trkpt>
      <trkpt lat="43.62482" lon="6.77243">
        <ele>380.7</ele>
        <time>2009-09-13T06:54:10Z</time>
      </trkpt>
      <trkpt lat="43.62485" lon="6.77236">
        <ele>380.6</ele>
        <time>2009-09-13T06:54:11Z</time>
      </trkpt>
      <trkpt lat="43.62487" lon="6.77229">
        <ele>380.4</ele>
        <time>2009-09-13T06:54:12Z</time>
      </trkpt>
      <trkpt lat="43.6249" lon="6.77221">
        <ele>380.2</ele>
        <time>2009-09-13T06:54:13Z</time>
      </trkpt>
      <trkpt lat="43.62493" lon="6.77213">
        <ele>380</ele>
        <time>2009-09-13T06:54:14Z</time>
      </trkpt>
      <trkpt lat="43.62497" lon="6.77205">
        <ele>379.6</ele>
        <time>2009-09-13T06:54:15Z</time>
      </trkpt>
      <trkpt lat="43.62501" lon="6.77197">
        <ele>379.3</ele>
        <time>2009-09-13T06:54:16Z</time>
      </trkpt>
      <trkpt lat="43.62506" lon="6.7719">
        <ele>379.2</ele>
        <time>2009-09-13T06:54:17Z</time>
      </trkpt>
      <trkpt lat="43.62511" lon="6.77183">
        <ele>379</ele>
        <time>2009-09-13T06:54:18Z</time>
      </trkpt>
      <trkpt lat="43.62516" lon="6.77175">
        <ele>378.7</ele>
        <time>2009-09-13T06:54:19Z</time>
      </trkpt>
      <trkpt lat="43.62521" lon="6.77168">
        <ele>378.1</ele>
        <time>2009-09-13T06:54:20Z</time>
      </trkpt>
      <trkpt lat="43.62526" lon="6.77159">
        <ele>377.7</ele>
        <time>2009-09-13T06:54:21Z</time>
      </trkpt>
      <trkpt lat="43.62529" lon="6.77149">
        <ele>377.4</ele>
        <time>2009-09-13T06:54:22Z</time>
      </trkpt>
      <trkpt lat="43.62532" lon="6.7714">
        <ele>377.2</ele>
        <time>2009-09-13T06:54:23Z</time>
      </trkpt>
      <trkpt lat="43.62535" lon="6.7713">
        <ele>377.1</ele>
        <time>2009-09-13T06:54:24Z</time>
      </trkpt>
      <trkpt lat="43.62538" lon="6.7712">
        <ele>376.9</ele>
        <time>2009-09-13T06:54:25Z</time>
      </trkpt>
      <trkpt lat="43.6254" lon="6.77109">
        <ele>376.5</ele>
        <time>2009-09-13T06:54:26Z</time>
      </trkpt>
      <trkpt lat="43.62541" lon="6.77099">
        <ele>376.3</ele>
        <time>2009-09-13T06:54:27Z</time>
      </trkpt>
      <trkpt lat="43.62543" lon="6.77089">
        <ele>376</ele>
        <time>2009-09-13T06:54:28Z</time>
      </trkpt>
      <trkpt lat="43.62545" lon="6.77079">
        <ele>375.8</ele>
        <time>2009-09-13T06:54:29Z</time>
      </trkpt>
      <trkpt lat="43.62547" lon="6.77069">
        <ele>375.8</ele>
        <time>2009-09-13T06:54:30Z</time>
      </trkpt>
      <trkpt lat="43.62549" lon="6.77059">
        <ele>375.7</ele>
        <time>2009-09-13T06:54:31Z</time>
      </trkpt>
      <trkpt lat="43.62551" lon="6.7705">
        <ele>375.9</ele>
        <time>2009-09-13T06:54:32Z</time>
      </trkpt>
      <trkpt lat="43.62553" lon="6.7704">
        <ele>376.4</ele>
        <time>2009-09-13T06:54:33Z</time>
      </trkpt>
      <trkpt lat="43.62555" lon="6.7703">
        <ele>376.9</ele>
        <time>2009-09-13T06:54:34Z</time>
      </trkpt>
      <trkpt lat="43.62558" lon="6.7702">
        <ele>377.2</ele>
        <time>2009-09-13T06:54:35Z</time>
      </trkpt>
      <trkpt lat="43.62561" lon="6.77011">
        <ele>377.4</ele>
        <time>2009-09-13T06:54:36Z</time>
      </trkpt>
      <trkpt lat="43.62564" lon="6.77002">
        <ele>377.4</ele>
        <time>2009-09-13T06:54:37Z</time>
      </trkpt>
      <trkpt lat="43.62567" lon="6.76993">
        <ele>377.4</ele>
        <time>2009-09-13T06:54:38Z</time>
      </trkpt>
      <trkpt lat="43.6257" lon="6.76985">
        <ele>377.5</ele>
        <time>2009-09-13T06:54:39Z</time>
      </trkpt>
      <trkpt lat="43.62573" lon="6.76977">
        <ele>377.7</ele>
        <time>2009-09-13T06:54:40Z</time>
      </trkpt>
      <trkpt lat="43.62576" lon="6.7697">
        <ele>378.1</ele>
        <time>2009-09-13T06:54:41Z</time>
      </trkpt>
      <trkpt lat="43.62579" lon="6.76962">
        <ele>378.8</ele>
        <time>2009-09-13T06:54:42Z</time>
      </trkpt>
      <trkpt lat="43.62582" lon="6.76956">
        <ele>379.5</ele>
        <time>2009-09-13T06:54:43Z</time>
      </trkpt>
      <trkpt lat="43.62585" lon="6.76949">
        <ele>380.1</ele>
        <time>2009-09-13T06:54:44Z</time>
      </trkpt>
      <trkpt lat="43.62588" lon="6.76943">
        <ele>380.5</ele>
        <time>2009-09-13T06:54:45Z</time>
      </trkpt>
      <trkpt lat="43.6259" lon="6.76937">
        <ele>380.7</ele>
        <time>2009-09-13T06:54:46Z</time>
      </trkpt>
      <trkpt lat="43.62595" lon="6.76926">
        <ele>380.9</ele>
        <time>2009-09-13T06:54:48Z</time>
      </trkpt>
      <trkpt lat="43.62598" lon="6.7692">
        <ele>381.2</ele>
        <time>2009-09-13T06:54:49Z</time>
      </trkpt>
      <trkpt lat="43.62602" lon="6.76909">
        <ele>381.4</ele>
        <time>2009-09-13T06:54:51Z</time>
      </trkpt>
      <trkpt lat="43.62605" lon="6.76898">
        <ele>381.7</ele>
        <time>2009-09-13T06:54:53Z</time>
      </trkpt>
      <trkpt lat="43.62608" lon="6.76887">
        <ele>382.1</ele>
        <time>2009-09-13T06:54:55Z</time>
      </trkpt>
      <trkpt lat="43.62611" lon="6.76875">
        <ele>382</ele>
        <time>2009-09-13T06:54:57Z</time>
      </trkpt>
      <trkpt lat="43.62614" lon="6.76863">
        <ele>381.8</ele>
        <time>2009-09-13T06:54:59Z</time>
      </trkpt>
      <trkpt lat="43.62616" lon="6.76857">
        <ele>381.6</ele>
        <time>2009-09-13T06:55:00Z</time>
      </trkpt>
      <trkpt lat="43.62619" lon="6.76851">
        <ele>381.6</ele>
        <time>2009-09-13T06:55:01Z</time>
      </trkpt>
      <trkpt lat="43.62621" lon="6.76845">
        <ele>381.5</ele>
        <time>2009-09-13T06:55:02Z</time>
      </trkpt>
      <trkpt lat="43.62624" lon="6.7684">
        <ele>381.4</ele>
        <time>2009-09-13T06:55:03Z</time>
      </trkpt>
      <trkpt lat="43.62627" lon="6.76834">
        <ele>381.4</ele>
        <time>2009-09-13T06:55:04Z</time>
      </trkpt>
      <trkpt lat="43.62633" lon="6.76825">
        <ele>381.4</ele>
        <time>2009-09-13T06:55:06Z</time>
      </trkpt>
      <trkpt lat="43.62638" lon="6.76816">
        <ele>381.6</ele>
        <time>2009-09-13T06:55:08Z</time>
      </trkpt>
      <trkpt lat="43.62644" lon="6.76809">
        <ele>382</ele>
        <time>2009-09-13T06:55:10Z</time>
      </trkpt>
      <trkpt lat="43.62651" lon="6.76806">
        <ele>382.4</ele>
        <time>2009-09-13T06:55:12Z</time>
      </trkpt>
      <trkpt lat="43.62659" lon="6.76804">
        <ele>382.7</ele>
        <time>2009-09-13T06:55:14Z</time>
      </trkpt>
      <trkpt lat="43.62667" lon="6.76803">
        <ele>383.1</ele>
        <time>2009-09-13T06:55:16Z</time>
      </trkpt>
      <trkpt lat="43.62675" lon="6.768">
        <ele>383.2</ele>
        <time>2009-09-13T06:55:18Z</time>
      </trkpt>
      <trkpt lat="43.62681" lon="6.76795">
        <ele>383.4</ele>
        <time>2009-09-13T06:55:20Z</time>
      </trkpt>
      <trkpt lat="43.62688" lon="6.76787">
        <ele>383.7</ele>
        <time>2009-09-13T06:55:22Z</time>
      </trkpt>
      <trkpt lat="43.62693" lon="6.7678">
        <ele>383.9</ele>
        <time>2009-09-13T06:55:24Z</time>
      </trkpt>
      <trkpt lat="43.62699" lon="6.76772">
        <ele>384.4</ele>
        <time>2009-09-13T06:55:26Z</time>
      </trkpt>
      <trkpt lat="43.62705" lon="6.76764">
        <ele>385</ele>
        <time>2009-09-13T06:55:28Z</time>
      </trkpt>
      <trkpt lat="43.62711" lon="6.76757">
        <ele>385.5</ele>
        <time>2009-09-13T06:55:30Z</time>
      </trkpt>
      <trkpt lat="43.62717" lon="6.7675">
        <ele>386</ele>
        <time>2009-09-13T06:55:32Z</time>
      </trkpt>
      <trkpt lat="43.62722" lon="6.76742">
        <ele>386.6</ele>
        <time>2009-09-13T06:55:34Z</time>
      </trkpt>
      <trkpt lat="43.62726" lon="6.76733">
        <ele>387</ele>
        <time>2009-09-13T06:55:36Z</time>
      </trkpt>
      <trkpt lat="43.62731" lon="6.76725">
        <ele>387.2</ele>
        <time>2009-09-13T06:55:38Z</time>
      </trkpt>
      <trkpt lat="43.62735" lon="6.76716">
        <ele>387.4</ele>
        <time>2009-09-13T06:55:40Z</time>
      </trkpt>
      <trkpt lat="43.6274" lon="6.76708">
        <ele>387.6</ele>
        <time>2009-09-13T06:55:42Z</time>
      </trkpt>
      <trkpt lat="43.62745" lon="6.76699">
        <ele>387.9</ele>
        <time>2009-09-13T06:55:44Z</time>
      </trkpt>
      <trkpt lat="43.6275" lon="6.7669">
        <ele>388.2</ele>
        <time>2009-09-13T06:55:46Z</time>
      </trkpt>
      <trkpt lat="43.62754" lon="6.76679">
        <ele>388</ele>
        <time>2009-09-13T06:55:48Z</time>
      </trkpt>
      <trkpt lat="43.62758" lon="6.76668">
        <ele>387.9</ele>
        <time>2009-09-13T06:55:50Z</time>
      </trkpt>
      <trkpt lat="43.62761" lon="6.76656">
        <ele>387.6</ele>
        <time>2009-09-13T06:55:52Z</time>
      </trkpt>
      <trkpt lat="43.62764" lon="6.76644">
        <ele>387.4</ele>
        <time>2009-09-13T06:55:54Z</time>
      </trkpt>
      <trkpt lat="43.62767" lon="6.76633">
        <ele>387.5</ele>
        <time>2009-09-13T06:55:56Z</time>
      </trkpt>
      <trkpt lat="43.62771" lon="6.76621">
        <ele>387.9</ele>
        <time>2009-09-13T06:55:58Z</time>
      </trkpt>
      <trkpt lat="43.62773" lon="6.76609">
        <ele>388.4</ele>
        <time>2009-09-13T06:56:00Z</time>
      </trkpt>
      <trkpt lat="43.62776" lon="6.76597">
        <ele>388.7</ele>
        <time>2009-09-13T06:56:02Z</time>
      </trkpt>
      <trkpt lat="43.62777" lon="6.7659">
        <ele>388.8</ele>
        <time>2009-09-13T06:56:03Z</time>
      </trkpt>
      <trkpt lat="43.62779" lon="6.76584">
        <ele>388.9</ele>
        <time>2009-09-13T06:56:04Z</time>
      </trkpt>
      <trkpt lat="43.6278" lon="6.76578">
        <ele>388.9</ele>
        <time>2009-09-13T06:56:05Z</time>
      </trkpt>
      <trkpt lat="43.62782" lon="6.76571">
        <ele>388.9</ele>
        <time>2009-09-13T06:56:06Z</time>
      </trkpt>
      <trkpt lat="43.62783" lon="6.76565">
        <ele>388.9</ele>
        <time>2009-09-13T06:56:07Z</time>
      </trkpt>
      <trkpt lat="43.62785" lon="6.76558">
        <ele>388.9</ele>
        <time>2009-09-13T06:56:08Z</time>
      </trkpt>
      <trkpt lat="43.62787" lon="6.76552">
        <ele>388.8</ele>
        <time>2009-09-13T06:56:09Z</time>
      </trkpt>
      <trkpt lat="43.62788" lon="6.76545">
        <ele>388.6</ele>
        <time>2009-09-13T06:56:10Z</time>
      </trkpt>
      <trkpt lat="43.6279" lon="6.76539">
        <ele>388.5</ele>
        <time>2009-09-13T06:56:11Z</time>
      </trkpt>
      <trkpt lat="43.62792" lon="6.76532">
        <ele>388.4</ele>
        <time>2009-09-13T06:56:12Z</time>
      </trkpt>
      <trkpt lat="43.62794" lon="6.76525">
        <ele>388.3</ele>
        <time>2009-09-13T06:56:13Z</time>
      </trkpt>
      <trkpt lat="43.62796" lon="6.76519">
        <ele>388.3</ele>
        <time>2009-09-13T06:56:14Z</time>
      </trkpt>
      <trkpt lat="43.62798" lon="6.76512">
        <ele>388.5</ele>
        <time>2009-09-13T06:56:15Z</time>
      </trkpt>
      <trkpt lat="43.62801" lon="6.76506">
        <ele>388.7</ele>
        <time>2009-09-13T06:56:16Z</time>
      </trkpt>
      <trkpt lat="43.62802" lon="6.76498">
        <ele>389</ele>
        <time>2009-09-13T06:56:17Z</time>
      </trkpt>
      <trkpt lat="43.62803" lon="6.76491">
        <ele>389</ele>
        <time>2009-09-13T06:56:18Z</time>
      </trkpt>
      <trkpt lat="43.62804" lon="6.76483">
        <ele>389</ele>
        <time>2009-09-13T06:56:19Z</time>
      </trkpt>
      <trkpt lat="43.62805" lon="6.76475">
        <ele>389</ele>
        <time>2009-09-13T06:56:20Z</time>
      </trkpt>
      <trkpt lat="43.62805" lon="6.76468">
        <ele>389</ele>
        <time>2009-09-13T06:56:21Z</time>
      </trkpt>
      <trkpt lat="43.62806" lon="6.7646">
        <ele>389</ele>
        <time>2009-09-13T06:56:22Z</time>
      </trkpt>
      <trkpt lat="43.62807" lon="6.76452">
        <ele>388.9</ele>
        <time>2009-09-13T06:56:23Z</time>
      </trkpt>
      <trkpt lat="43.62809" lon="6.76444">
        <ele>388.8</ele>
        <time>2009-09-13T06:56:24Z</time>
      </trkpt>
      <trkpt lat="43.62811" lon="6.76437">
        <ele>388.9</ele>
        <time>2009-09-13T06:56:25Z</time>
      </trkpt>
      <trkpt lat="43.62813" lon="6.7643">
        <ele>389</ele>
        <time>2009-09-13T06:56:26Z</time>
      </trkpt>
      <trkpt lat="43.62816" lon="6.76423">
        <ele>389</ele>
        <time>2009-09-13T06:56:27Z</time>
      </trkpt>
      <trkpt lat="43.62819" lon="6.76417">
        <ele>389</ele>
        <time>2009-09-13T06:56:28Z</time>
      </trkpt>
      <trkpt lat="43.62822" lon="6.76411">
        <ele>389.1</ele>
        <time>2009-09-13T06:56:29Z</time>
      </trkpt>
      <trkpt lat="43.62826" lon="6.76405">
        <ele>389.3</ele>
        <time>2009-09-13T06:56:30Z</time>
      </trkpt>
      <trkpt lat="43.62829" lon="6.76399">
        <ele>389.5</ele>
        <time>2009-09-13T06:56:31Z</time>
      </trkpt>
      <trkpt lat="43.62832" lon="6.76392">
        <ele>389.8</ele>
        <time>2009-09-13T06:56:32Z</time>
      </trkpt>
      <trkpt lat="43.62835" lon="6.76386">
        <ele>390</ele>
        <time>2009-09-13T06:56:33Z</time>
      </trkpt>
      <trkpt lat="43.62837" lon="6.7638">
        <ele>390.1</ele>
        <time>2009-09-13T06:56:34Z</time>
      </trkpt>
      <trkpt lat="43.6284" lon="6.76373">
        <ele>390.1</ele>
        <time>2009-09-13T06:56:35Z</time>
      </trkpt>
      <trkpt lat="43.62842" lon="6.76366">
        <ele>390.2</ele>
        <time>2009-09-13T06:56:36Z</time>
      </trkpt>
      <trkpt lat="43.62845" lon="6.76361">
        <ele>390.2</ele>
        <time>2009-09-13T06:56:37Z</time>
      </trkpt>
      <trkpt lat="43.62848" lon="6.76355">
        <ele>390.1</ele>
        <time>2009-09-13T06:56:38Z</time>
      </trkpt>
      <trkpt lat="43.62852" lon="6.76343">
        <ele>390.1</ele>
        <time>2009-09-13T06:56:40Z</time>
      </trkpt>
      <trkpt lat="43.62854" lon="6.76337">
        <ele>390.1</ele>
        <time>2009-09-13T06:56:41Z</time>
      </trkpt>
      <trkpt lat="43.62857" lon="6.76331">
        <ele>390.2</ele>
        <time>2009-09-13T06:56:42Z</time>
      </trkpt>
      <trkpt lat="43.6286" lon="6.76324">
        <ele>390.4</ele>
        <time>2009-09-13T06:56:43Z</time>
      </trkpt>
      <trkpt lat="43.62862" lon="6.76318">
        <ele>390.5</ele>
        <time>2009-09-13T06:56:44Z</time>
      </trkpt>
      <trkpt lat="43.62865" lon="6.76311">
        <ele>390.7</ele>
        <time>2009-09-13T06:56:45Z</time>
      </trkpt>
      <trkpt lat="43.62867" lon="6.76305">
        <ele>390.8</ele>
        <time>2009-09-13T06:56:46Z</time>
      </trkpt>
      <trkpt lat="43.62869" lon="6.76299">
        <ele>390.8</ele>
        <time>2009-09-13T06:56:47Z</time>
      </trkpt>
      <trkpt lat="43.62871" lon="6.76293">
        <ele>390.8</ele>
        <time>2009-09-13T06:56:48Z</time>
      </trkpt>
      <trkpt lat="43.62874" lon="6.76286">
        <ele>390.9</ele>
        <time>2009-09-13T06:56:49Z</time>
      </trkpt>
      <trkpt lat="43.62876" lon="6.76279">
        <ele>391</ele>
        <time>2009-09-13T06:56:50Z</time>
      </trkpt>
      <trkpt lat="43.62878" lon="6.76272">
        <ele>391.1</ele>
        <time>2009-09-13T06:56:51Z</time>
      </trkpt>
      <trkpt lat="43.6288" lon="6.76265">
        <ele>391.3</ele>
        <time>2009-09-13T06:56:52Z</time>
      </trkpt>
      <trkpt lat="43.62882" lon="6.76258">
        <ele>391.5</ele>
        <time>2009-09-13T06:56:53Z</time>
      </trkpt>
      <trkpt lat="43.62883" lon="6.76251">
        <ele>391.8</ele>
        <time>2009-09-13T06:56:54Z</time>
      </trkpt>
      <trkpt lat="43.62884" lon="6.76244">
        <ele>391.8</ele>
        <time>2009-09-13T06:56:55Z</time>
      </trkpt>
      <trkpt lat="43.62885" lon="6.76237">
        <ele>391.8</ele>
        <time>2009-09-13T06:56:56Z</time>
      </trkpt>
      <trkpt lat="43.62886" lon="6.7623">
        <ele>391.8</ele>
        <time>2009-09-13T06:56:57Z</time>
      </trkpt>
      <trkpt lat="43.62887" lon="6.76222">
        <ele>391.8</ele>
        <time>2009-09-13T06:56:58Z</time>
      </trkpt>
      <trkpt lat="43.62888" lon="6.76214">
        <ele>391.3</ele>
        <time>2009-09-13T06:56:59Z</time>
      </trkpt>
      <trkpt lat="43.6289" lon="6.76205">
        <ele>390.8</ele>
        <time>2009-09-13T06:57:00Z</time>
      </trkpt>
      <trkpt lat="43.62893" lon="6.76196">
        <ele>390.3</ele>
        <time>2009-09-13T06:57:01Z</time>
      </trkpt>
      <trkpt lat="43.62897" lon="6.76188">
        <ele>389.5</ele>
        <time>2009-09-13T06:57:02Z</time>
      </trkpt>
      <trkpt lat="43.62902" lon="6.76181">
        <ele>389</ele>
        <time>2009-09-13T06:57:03Z</time>
      </trkpt>
      <trkpt lat="43.62908" lon="6.76175">
        <ele>388.8</ele>
        <time>2009-09-13T06:57:04Z</time>
      </trkpt>
      <trkpt lat="43.62913" lon="6.76171">
        <ele>388.9</ele>
        <time>2009-09-13T06:57:05Z</time>
      </trkpt>
      <trkpt lat="43.62921" lon="6.76169">
        <ele>389.3</ele>
        <time>2009-09-13T06:57:06Z</time>
      </trkpt>
      <trkpt lat="43.62928" lon="6.76168">
        <ele>389.5</ele>
        <time>2009-09-13T06:57:07Z</time>
      </trkpt>
      <trkpt lat="43.62935" lon="6.76167">
        <ele>389.7</ele>
        <time>2009-09-13T06:57:08Z</time>
      </trkpt>
      <trkpt lat="43.62942" lon="6.76164">
        <ele>389.8</ele>
        <time>2009-09-13T06:57:09Z</time>
      </trkpt>
      <trkpt lat="43.62947" lon="6.7616">
        <ele>389.7</ele>
        <time>2009-09-13T06:57:10Z</time>
      </trkpt>
      <trkpt lat="43.62951" lon="6.76154">
        <ele>389.5</ele>
        <time>2009-09-13T06:57:11Z</time>
      </trkpt>
      <trkpt lat="43.62954" lon="6.76147">
        <ele>389.3</ele>
        <time>2009-09-13T06:57:12Z</time>
      </trkpt>
      <trkpt lat="43.62957" lon="6.76138">
        <ele>389</ele>
        <time>2009-09-13T06:57:13Z</time>
      </trkpt>
      <trkpt lat="43.6296" lon="6.76129">
        <ele>388.8</ele>
        <time>2009-09-13T06:57:14Z</time>
      </trkpt>
      <trkpt lat="43.62962" lon="6.7612">
        <ele>388.7</ele>
        <time>2009-09-13T06:57:15Z</time>
      </trkpt>
      <trkpt lat="43.62964" lon="6.7611">
        <ele>388.7</ele>
        <time>2009-09-13T06:57:16Z</time>
      </trkpt>
      <trkpt lat="43.62965" lon="6.76101">
        <ele>388.7</ele>
        <time>2009-09-13T06:57:17Z</time>
      </trkpt>
      <trkpt lat="43.62966" lon="6.76092">
        <ele>388.8</ele>
        <time>2009-09-13T06:57:18Z</time>
      </trkpt>
      <trkpt lat="43.62967" lon="6.76083">
        <ele>388.8</ele>
        <time>2009-09-13T06:57:19Z</time>
      </trkpt>
      <trkpt lat="43.62968" lon="6.76073">
        <ele>389.2</ele>
        <time>2009-09-13T06:57:20Z</time>
      </trkpt>
      <trkpt lat="43.62969" lon="6.76064">
        <ele>389.6</ele>
        <time>2009-09-13T06:57:21Z</time>
      </trkpt>
      <trkpt lat="43.6297" lon="6.76055">
        <ele>389.9</ele>
        <time>2009-09-13T06:57:22Z</time>
      </trkpt>
      <trkpt lat="43.62971" lon="6.76046">
        <ele>390</ele>
        <time>2009-09-13T06:57:23Z</time>
      </trkpt>
      <trkpt lat="43.62973" lon="6.76038">
        <ele>390</ele>
        <time>2009-09-13T06:57:24Z</time>
      </trkpt>
      <trkpt lat="43.62975" lon="6.76029">
        <ele>389.9</ele>
        <time>2009-09-13T06:57:25Z</time>
      </trkpt>
      <trkpt lat="43.62976" lon="6.76021">
        <ele>390.1</ele>
        <time>2009-09-13T06:57:26Z</time>
      </trkpt>
      <trkpt lat="43.62978" lon="6.76013">
        <ele>390.3</ele>
        <time>2009-09-13T06:57:27Z</time>
      </trkpt>
      <trkpt lat="43.62979" lon="6.76005">
        <ele>390.6</ele>
        <time>2009-09-13T06:57:28Z</time>
      </trkpt>
      <trkpt lat="43.62981" lon="6.75997">
        <ele>390.7</ele>
        <time>2009-09-13T06:57:29Z</time>
      </trkpt>
      <trkpt lat="43.62982" lon="6.7599">
        <ele>390.8</ele>
        <time>2009-09-13T06:57:30Z</time>
      </trkpt>
      <trkpt lat="43.62983" lon="6.75982">
        <ele>390.9</ele>
        <time>2009-09-13T06:57:31Z</time>
      </trkpt>
      <trkpt lat="43.62984" lon="6.75975">
        <ele>391</ele>
        <time>2009-09-13T06:57:32Z</time>
      </trkpt>
      <trkpt lat="43.62985" lon="6.75968">
        <ele>391</ele>
        <time>2009-09-13T06:57:33Z</time>
      </trkpt>
      <trkpt lat="43.62986" lon="6.75961">
        <ele>391</ele>
        <time>2009-09-13T06:57:34Z</time>
      </trkpt>
      <trkpt lat="43.62987" lon="6.75954">
        <ele>391</ele>
        <time>2009-09-13T06:57:35Z</time>
      </trkpt>
      <trkpt lat="43.62988" lon="6.75947">
        <ele>391</ele>
        <time>2009-09-13T06:57:36Z</time>
      </trkpt>
      <trkpt lat="43.62989" lon="6.75941">
        <ele>391</ele>
        <time>2009-09-13T06:57:37Z</time>
      </trkpt>
      <trkpt lat="43.62991" lon="6.75934">
        <ele>391</ele>
        <time>2009-09-13T06:57:38Z</time>
      </trkpt>
      <trkpt lat="43.62992" lon="6.75928">
        <ele>391</ele>
        <time>2009-09-13T06:57:39Z</time>
      </trkpt>
      <trkpt lat="43.62993" lon="6.75921">
        <ele>391</ele>
        <time>2009-09-13T06:57:40Z</time>
      </trkpt>
      <trkpt lat="43.62994" lon="6.75909">
        <ele>391.3</ele>
        <time>2009-09-13T06:57:42Z</time>
      </trkpt>
      <trkpt lat="43.62996" lon="6.75899">
        <ele>391.8</ele>
        <time>2009-09-13T06:57:44Z</time>
      </trkpt>
      <trkpt lat="43.62997" lon="6.75889">
        <ele>392.1</ele>
        <time>2009-09-13T06:57:46Z</time>
      </trkpt>
      <trkpt lat="43.62998" lon="6.75881">
        <ele>392.4</ele>
        <time>2009-09-13T06:57:48Z</time>
      </trkpt>
      <trkpt lat="43.62997" lon="6.75873">
        <ele>392.7</ele>
        <time>2009-09-13T06:57:50Z</time>
      </trkpt>
      <trkpt lat="43.62997" lon="6.75865">
        <ele>393.1</ele>
        <time>2009-09-13T06:57:52Z</time>
      </trkpt>
      <trkpt lat="43.62998" lon="6.75856">
        <ele>393.3</ele>
        <time>2009-09-13T06:57:54Z</time>
      </trkpt>
      <trkpt lat="43.63" lon="6.75846">
        <ele>393.5</ele>
        <time>2009-09-13T06:57:56Z</time>
      </trkpt>
      <trkpt lat="43.63002" lon="6.75836">
        <ele>393.8</ele>
        <time>2009-09-13T06:57:58Z</time>
      </trkpt>
      <trkpt lat="43.63004" lon="6.75827">
        <ele>394.2</ele>
        <time>2009-09-13T06:58:00Z</time>
      </trkpt>
      <trkpt lat="43.63007" lon="6.75817">
        <ele>394.6</ele>
        <time>2009-09-13T06:58:02Z</time>
      </trkpt>
      <trkpt lat="43.63011" lon="6.75809">
        <ele>395</ele>
        <time>2009-09-13T06:58:04Z</time>
      </trkpt>
      <trkpt lat="43.63014" lon="6.758">
        <ele>395.4</ele>
        <time>2009-09-13T06:58:06Z</time>
      </trkpt>
      <trkpt lat="43.63017" lon="6.7579">
        <ele>395.9</ele>
        <time>2009-09-13T06:58:08Z</time>
      </trkpt>
      <trkpt lat="43.6302" lon="6.75781">
        <ele>396.3</ele>
        <time>2009-09-13T06:58:10Z</time>
      </trkpt>
      <trkpt lat="43.63023" lon="6.75772">
        <ele>396.7</ele>
        <time>2009-09-13T06:58:12Z</time>
      </trkpt>
      <trkpt lat="43.63027" lon="6.75763">
        <ele>397.2</ele>
        <time>2009-09-13T06:58:14Z</time>
      </trkpt>
      <trkpt lat="43.6303" lon="6.75754">
        <ele>397.6</ele>
        <time>2009-09-13T06:58:16Z</time>
      </trkpt>
      <trkpt lat="43.63034" lon="6.75745">
        <ele>398.1</ele>
        <time>2009-09-13T06:58:18Z</time>
      </trkpt>
      <trkpt lat="43.63036" lon="6.75736">
        <ele>398.8</ele>
        <time>2009-09-13T06:58:20Z</time>
      </trkpt>
      <trkpt lat="43.63039" lon="6.75727">
        <ele>399.3</ele>
        <time>2009-09-13T06:58:22Z</time>
      </trkpt>
      <trkpt lat="43.63042" lon="6.75719">
        <ele>399.7</ele>
        <time>2009-09-13T06:58:24Z</time>
      </trkpt>
      <trkpt lat="43.63044" lon="6.7571">
        <ele>400</ele>
        <time>2009-09-13T06:58:26Z</time>
      </trkpt>
      <trkpt lat="43.63046" lon="6.75701">
        <ele>400.4</ele>
        <time>2009-09-13T06:58:28Z</time>
      </trkpt>
      <trkpt lat="43.63048" lon="6.75692">
        <ele>400.7</ele>
        <time>2009-09-13T06:58:30Z</time>
      </trkpt>
      <trkpt lat="43.63052" lon="6.75685">
        <ele>401</ele>
        <time>2009-09-13T06:58:32Z</time>
      </trkpt>
      <trkpt lat="43.63056" lon="6.75677">
        <ele>401.2</ele>
        <time>2009-09-13T06:58:34Z</time>
      </trkpt>
      <trkpt lat="43.6306" lon="6.7567">
        <ele>401.4</ele>
        <time>2009-09-13T06:58:36Z</time>
      </trkpt>
      <trkpt lat="43.63066" lon="6.75662">
        <ele>401.3</ele>
        <time>2009-09-13T06:58:38Z</time>
      </trkpt>
      <trkpt lat="43.63072" lon="6.75655">
        <ele>401.1</ele>
        <time>2009-09-13T06:58:40Z</time>
      </trkpt>
      <trkpt lat="43.63078" lon="6.75646">
        <ele>401</ele>
        <time>2009-09-13T06:58:42Z</time>
      </trkpt>
      <trkpt lat="43.63081" lon="6.7564">
        <ele>401</ele>
        <time>2009-09-13T06:58:43Z</time>
      </trkpt>
      <trkpt lat="43.63085" lon="6.75635">
        <ele>400.9</ele>
        <time>2009-09-13T06:58:44Z</time>
      </trkpt>
      <trkpt lat="43.63088" lon="6.75629">
        <ele>400.7</ele>
        <time>2009-09-13T06:58:45Z</time>
      </trkpt>
      <trkpt lat="43.63092" lon="6.75623">
        <ele>400.6</ele>
        <time>2009-09-13T06:58:46Z</time>
      </trkpt>
      <trkpt lat="43.63096" lon="6.75618">
        <ele>400.5</ele>
        <time>2009-09-13T06:58:47Z</time>
      </trkpt>
      <trkpt lat="43.631" lon="6.75613">
        <ele>400.4</ele>
        <time>2009-09-13T06:58:48Z</time>
      </trkpt>
      <trkpt lat="43.63104" lon="6.75609">
        <ele>400.2</ele>
        <time>2009-09-13T06:58:49Z</time>
      </trkpt>
      <trkpt lat="43.63109" lon="6.75605">
        <ele>400.1</ele>
        <time>2009-09-13T06:58:50Z</time>
      </trkpt>
      <trkpt lat="43.63113" lon="6.75601">
        <ele>400</ele>
        <time>2009-09-13T06:58:51Z</time>
      </trkpt>
      <trkpt lat="43.63118" lon="6.75598">
        <ele>400.1</ele>
        <time>2009-09-13T06:58:52Z</time>
      </trkpt>
      <trkpt lat="43.63123" lon="6.75595">
        <ele>400.3</ele>
        <time>2009-09-13T06:58:53Z</time>
      </trkpt>
      <trkpt lat="43.63128" lon="6.75592">
        <ele>400.4</ele>
        <time>2009-09-13T06:58:54Z</time>
      </trkpt>
      <trkpt lat="43.63133" lon="6.75589">
        <ele>400.6</ele>
        <time>2009-09-13T06:58:55Z</time>
      </trkpt>
      <trkpt lat="43.63138" lon="6.75587">
        <ele>400.9</ele>
        <time>2009-09-13T06:58:56Z</time>
      </trkpt>
      <trkpt lat="43.63143" lon="6.75583">
        <ele>401</ele>
        <time>2009-09-13T06:58:57Z</time>
      </trkpt>
      <trkpt lat="43.63148" lon="6.7558">
        <ele>401</ele>
        <time>2009-09-13T06:58:58Z</time>
      </trkpt>
      <trkpt lat="43.63152" lon="6.75577">
        <ele>401.1</ele>
        <time>2009-09-13T06:58:59Z</time>
      </trkpt>
      <trkpt lat="43.63156" lon="6.75573">
        <ele>401.2</ele>
        <time>2009-09-13T06:59:00Z</time>
      </trkpt>
      <trkpt lat="43.6316" lon="6.75568">
        <ele>401.4</ele>
        <time>2009-09-13T06:59:01Z</time>
      </trkpt>
      <trkpt lat="43.63163" lon="6.75563">
        <ele>401.6</ele>
        <time>2009-09-13T06:59:02Z</time>
      </trkpt>
      <trkpt lat="43.63166" lon="6.75557">
        <ele>401.9</ele>
        <time>2009-09-13T06:59:03Z</time>
      </trkpt>
      <trkpt lat="43.63168" lon="6.75551">
        <ele>401.8</ele>
        <time>2009-09-13T06:59:04Z</time>
      </trkpt>
      <trkpt lat="43.63169" lon="6.75544">
        <ele>401.6</ele>
        <time>2009-09-13T06:59:05Z</time>
      </trkpt>
      <trkpt lat="43.63169" lon="6.75538">
        <ele>401.4</ele>
        <time>2009-09-13T06:59:06Z</time>
      </trkpt>
      <trkpt lat="43.63169" lon="6.75531">
        <ele>401.2</ele>
        <time>2009-09-13T06:59:07Z</time>
      </trkpt>
      <trkpt lat="43.63169" lon="6.75524">
        <ele>401.1</ele>
        <time>2009-09-13T06:59:08Z</time>
      </trkpt>
      <trkpt lat="43.63169" lon="6.75517">
        <ele>401.1</ele>
        <time>2009-09-13T06:59:09Z</time>
      </trkpt>
      <trkpt lat="43.6317" lon="6.7551">
        <ele>401</ele>
        <time>2009-09-13T06:59:10Z</time>
      </trkpt>
      <trkpt lat="43.63171" lon="6.75503">
        <ele>401</ele>
        <time>2009-09-13T06:59:11Z</time>
      </trkpt>
      <trkpt lat="43.63174" lon="6.75496">
        <ele>400.7</ele>
        <time>2009-09-13T06:59:12Z</time>
      </trkpt>
      <trkpt lat="43.63178" lon="6.75489">
        <ele>400.4</ele>
        <time>2009-09-13T06:59:13Z</time>
      </trkpt>
      <trkpt lat="43.63182" lon="6.75482">
        <ele>400.1</ele>
        <time>2009-09-13T06:59:14Z</time>
      </trkpt>
      <trkpt lat="43.63186" lon="6.75476">
        <ele>399.9</ele>
        <time>2009-09-13T06:59:15Z</time>
      </trkpt>
      <trkpt lat="43.6319" lon="6.7547">
        <ele>399.7</ele>
        <time>2009-09-13T06:59:16Z</time>
      </trkpt>
      <trkpt lat="43.63195" lon="6.75464">
        <ele>399.2</ele>
        <time>2009-09-13T06:59:17Z</time>
      </trkpt>
      <trkpt lat="43.632" lon="6.75459">
        <ele>398.8</ele>
        <time>2009-09-13T06:59:18Z</time>
      </trkpt>
      <trkpt lat="43.63204" lon="6.75453">
        <ele>398.5</ele>
        <time>2009-09-13T06:59:19Z</time>
      </trkpt>
      <trkpt lat="43.63209" lon="6.75447">
        <ele>398.2</ele>
        <time>2009-09-13T06:59:20Z</time>
      </trkpt>
      <trkpt lat="43.63214" lon="6.7544">
        <ele>398.3</ele>
        <time>2009-09-13T06:59:21Z</time>
      </trkpt>
      <trkpt lat="43.63218" lon="6.75434">
        <ele>398.4</ele>
        <time>2009-09-13T06:59:22Z</time>
      </trkpt>
      <trkpt lat="43.63222" lon="6.75428">
        <ele>398.4</ele>
        <time>2009-09-13T06:59:23Z</time>
      </trkpt>
      <trkpt lat="43.63226" lon="6.75421">
        <ele>398.4</ele>
        <time>2009-09-13T06:59:24Z</time>
      </trkpt>
      <trkpt lat="43.63231" lon="6.75412">
        <ele>398.6</ele>
        <time>2009-09-13T06:59:25Z</time>
      </trkpt>
      <trkpt lat="43.63235" lon="6.75403">
        <ele>398.7</ele>
        <time>2009-09-13T06:59:26Z</time>
      </trkpt>
      <trkpt lat="43.63239" lon="6.75394">
        <ele>398.7</ele>
        <time>2009-09-13T06:59:27Z</time>
      </trkpt>
      <trkpt lat="43.63242" lon="6.75387">
        <ele>398.7</ele>
        <time>2009-09-13T06:59:28Z</time>
      </trkpt>
      <trkpt lat="43.63245" lon="6.75379">
        <ele>398.8</ele>
        <time>2009-09-13T06:59:29Z</time>
      </trkpt>
      <trkpt lat="43.63248" lon="6.75371">
        <ele>398.9</ele>
        <time>2009-09-13T06:59:30Z</time>
      </trkpt>
      <trkpt lat="43.63252" lon="6.75364">
        <ele>399</ele>
        <time>2009-09-13T06:59:31Z</time>
      </trkpt>
      <trkpt lat="43.63255" lon="6.75356">
        <ele>398.8</ele>
        <time>2009-09-13T06:59:32Z</time>
      </trkpt>
      <trkpt lat="43.63257" lon="6.75348">
        <ele>398.7</ele>
        <time>2009-09-13T06:59:33Z</time>
      </trkpt>
      <trkpt lat="43.63261" lon="6.75339">
        <ele>398.5</ele>
        <time>2009-09-13T06:59:34Z</time>
      </trkpt>
      <trkpt lat="43.63264" lon="6.75331">
        <ele>398.4</ele>
        <time>2009-09-13T06:59:35Z</time>
      </trkpt>
      <trkpt lat="43.63266" lon="6.75323">
        <ele>398.4</ele>
        <time>2009-09-13T06:59:36Z</time>
      </trkpt>
      <trkpt lat="43.63269" lon="6.75314">
        <ele>398.2</ele>
        <time>2009-09-13T06:59:37Z</time>
      </trkpt>
      <trkpt lat="43.63273" lon="6.75306">
        <ele>398</ele>
        <time>2009-09-13T06:59:38Z</time>
      </trkpt>
      <trkpt lat="43.63276" lon="6.75298">
        <ele>398</ele>
        <time>2009-09-13T06:59:39Z</time>
      </trkpt>
      <trkpt lat="43.63279" lon="6.75291">
        <ele>398</ele>
        <time>2009-09-13T06:59:40Z</time>
      </trkpt>
      <trkpt lat="43.63283" lon="6.75283">
        <ele>397.8</ele>
        <time>2009-09-13T06:59:41Z</time>
      </trkpt>
      <trkpt lat="43.63288" lon="6.75276">
        <ele>397.6</ele>
        <time>2009-09-13T06:59:42Z</time>
      </trkpt>
      <trkpt lat="43.63293" lon="6.7527">
        <ele>397.3</ele>
        <time>2009-09-13T06:59:43Z</time>
      </trkpt>
      <trkpt lat="43.63298" lon="6.75263">
        <ele>397.1</ele>
        <time>2009-09-13T06:59:44Z</time>
      </trkpt>
      <trkpt lat="43.63303" lon="6.75256">
        <ele>397</ele>
        <time>2009-09-13T06:59:45Z</time>
      </trkpt>
      <trkpt lat="43.63308" lon="6.7525">
        <ele>396.9</ele>
        <time>2009-09-13T06:59:46Z</time>
      </trkpt>
      <trkpt lat="43.63313" lon="6.75242">
        <ele>396.4</ele>
        <time>2009-09-13T06:59:47Z</time>
      </trkpt>
      <trkpt lat="43.6332" lon="6.75233">
        <ele>395.9</ele>
        <time>2009-09-13T06:59:48Z</time>
      </trkpt>
      <trkpt lat="43.63325" lon="6.75225">
        <ele>395.4</ele>
        <time>2009-09-13T06:59:49Z</time>
      </trkpt>
      <trkpt lat="43.63331" lon="6.75217">
        <ele>394.9</ele>
        <time>2009-09-13T06:59:50Z</time>
      </trkpt>
      <trkpt lat="43.63336" lon="6.7521">
        <ele>394.6</ele>
        <time>2009-09-13T06:59:51Z</time>
      </trkpt>
      <trkpt lat="43.63341" lon="6.75203">
        <ele>394.3</ele>
        <time>2009-09-13T06:59:52Z</time>
      </trkpt>
      <trkpt lat="43.63346" lon="6.75196">
        <ele>394.1</ele>
        <time>2009-09-13T06:59:53Z</time>
      </trkpt>
      <trkpt lat="43.63352" lon="6.75188">
        <ele>393.9</ele>
        <time>2009-09-13T06:59:54Z</time>
      </trkpt>
      <trkpt lat="43.63356" lon="6.75179">
        <ele>393.5</ele>
        <time>2009-09-13T06:59:55Z</time>
      </trkpt>
      <trkpt lat="43.6336" lon="6.7517">
        <ele>393.1</ele>
        <time>2009-09-13T06:59:56Z</time>
      </trkpt>
      <trkpt lat="43.63364" lon="6.7516">
        <ele>393.1</ele>
        <time>2009-09-13T06:59:57Z</time>
      </trkpt>
      <trkpt lat="43.63367" lon="6.7515">
        <ele>393.1</ele>
        <time>2009-09-13T06:59:58Z</time>
      </trkpt>
      <trkpt lat="43.6337" lon="6.7514">
        <ele>393</ele>
        <time>2009-09-13T06:59:59Z</time>
      </trkpt>
      <trkpt lat="43.63373" lon="6.7513">
        <ele>392.8</ele>
        <time>2009-09-13T07:00:00Z</time>
      </trkpt>
      <trkpt lat="43.63375" lon="6.75121">
        <ele>392.7</ele>
        <time>2009-09-13T07:00:01Z</time>
      </trkpt>
      <trkpt lat="43.63377" lon="6.75113">
        <ele>392.6</ele>
        <time>2009-09-13T07:00:02Z</time>
      </trkpt>
      <trkpt lat="43.6338" lon="6.75104">
        <ele>392.5</ele>
        <time>2009-09-13T07:00:03Z</time>
      </trkpt>
      <trkpt lat="43.63384" lon="6.75095">
        <ele>392.3</ele>
        <time>2009-09-13T07:00:04Z</time>
      </trkpt>
      <trkpt lat="43.63386" lon="6.75086">
        <ele>392.1</ele>
        <time>2009-09-13T07:00:05Z</time>
      </trkpt>
      <trkpt lat="43.6339" lon="6.75077">
        <ele>391.8</ele>
        <time>2009-09-13T07:00:06Z</time>
      </trkpt>
      <trkpt lat="43.63393" lon="6.75068">
        <ele>391.5</ele>
        <time>2009-09-13T07:00:07Z</time>
      </trkpt>
      <trkpt lat="43.63397" lon="6.75059">
        <ele>391.2</ele>
        <time>2009-09-13T07:00:08Z</time>
      </trkpt>
      <trkpt lat="43.634" lon="6.7505">
        <ele>390.8</ele>
        <time>2009-09-13T07:00:09Z</time>
      </trkpt>
      <trkpt lat="43.63404" lon="6.7504">
        <ele>390.4</ele>
        <time>2009-09-13T07:00:10Z</time>
      </trkpt>
      <trkpt lat="43.63407" lon="6.7503">
        <ele>390.1</ele>
        <time>2009-09-13T07:00:11Z</time>
      </trkpt>
      <trkpt lat="43.6341" lon="6.7502">
        <ele>389.8</ele>
        <time>2009-09-13T07:00:12Z</time>
      </trkpt>
      <trkpt lat="43.63414" lon="6.7501">
        <ele>389.4</ele>
        <time>2009-09-13T07:00:13Z</time>
      </trkpt>
      <trkpt lat="43.63417" lon="6.75">
        <ele>389</ele>
        <time>2009-09-13T07:00:14Z</time>
      </trkpt>
      <trkpt lat="43.63421" lon="6.7499">
        <ele>388.8</ele>
        <time>2009-09-13T07:00:15Z</time>
      </trkpt>
      <trkpt lat="43.63425" lon="6.7498">
        <ele>388.6</ele>
        <time>2009-09-13T07:00:16Z</time>
      </trkpt>
      <trkpt lat="43.63428" lon="6.74969">
        <ele>388.4</ele>
        <time>2009-09-13T07:00:17Z</time>
      </trkpt>
      <trkpt lat="43.63432" lon="6.74959">
        <ele>388.3</ele>
        <time>2009-09-13T07:00:18Z</time>
      </trkpt>
      <trkpt lat="43.63435" lon="6.74949">
        <ele>388.1</ele>
        <time>2009-09-13T07:00:19Z</time>
      </trkpt>
      <trkpt lat="43.63438" lon="6.74939">
        <ele>387.7</ele>
        <time>2009-09-13T07:00:20Z</time>
      </trkpt>
      <trkpt lat="43.63441" lon="6.7493">
        <ele>387</ele>
        <time>2009-09-13T07:00:21Z</time>
      </trkpt>
      <trkpt lat="43.63444" lon="6.74923">
        <ele>386.4</ele>
        <time>2009-09-13T07:00:22Z</time>
      </trkpt>
      <trkpt lat="43.63447" lon="6.74916">
        <ele>386.1</ele>
        <time>2009-09-13T07:00:23Z</time>
      </trkpt>
      <trkpt lat="43.6345" lon="6.74907">
        <ele>385.8</ele>
        <time>2009-09-13T07:00:25Z</time>
      </trkpt>
      <trkpt lat="43.63449" lon="6.74898">
        <ele>385.4</ele>
        <time>2009-09-13T07:00:28Z</time>
      </trkpt>
      <trkpt lat="43.63443" lon="6.74893">
        <ele>385.2</ele>
        <time>2009-09-13T07:00:30Z</time>
      </trkpt>
      <trkpt lat="43.63435" lon="6.74889">
        <ele>385.4</ele>
        <time>2009-09-13T07:00:32Z</time>
      </trkpt>
      <trkpt lat="43.6343" lon="6.74888">
        <ele>385.5</ele>
        <time>2009-09-13T07:00:33Z</time>
      </trkpt>
      <trkpt lat="43.63421" lon="6.74886">
        <ele>385.9</ele>
        <time>2009-09-13T07:00:35Z</time>
      </trkpt>
      <trkpt lat="43.63416" lon="6.74885">
        <ele>386</ele>
        <time>2009-09-13T07:00:36Z</time>
      </trkpt>
      <trkpt lat="43.63411" lon="6.74884">
        <ele>386.4</ele>
        <time>2009-09-13T07:00:37Z</time>
      </trkpt>
      <trkpt lat="43.63405" lon="6.74884">
        <ele>386.7</ele>
        <time>2009-09-13T07:00:38Z</time>
      </trkpt>
      <trkpt lat="43.63401" lon="6.74884">
        <ele>387</ele>
        <time>2009-09-13T07:00:39Z</time>
      </trkpt>
      <trkpt lat="43.63391" lon="6.74883">
        <ele>387.6</ele>
        <time>2009-09-13T07:00:41Z</time>
      </trkpt>
      <trkpt lat="43.63386" lon="6.74883">
        <ele>387.9</ele>
        <time>2009-09-13T07:00:42Z</time>
      </trkpt>
      <trkpt lat="43.63381" lon="6.74882">
        <ele>388.2</ele>
        <time>2009-09-13T07:00:43Z</time>
      </trkpt>
      <trkpt lat="43.63377" lon="6.74881">
        <ele>388.5</ele>
        <time>2009-09-13T07:00:44Z</time>
      </trkpt>
      <trkpt lat="43.63368" lon="6.74881">
        <ele>389.1</ele>
        <time>2009-09-13T07:00:46Z</time>
      </trkpt>
      <trkpt lat="43.63362" lon="6.74881">
        <ele>389.4</ele>
        <time>2009-09-13T07:00:47Z</time>
      </trkpt>
      <trkpt lat="43.63353" lon="6.74882">
        <ele>389.8</ele>
        <time>2009-09-13T07:00:49Z</time>
      </trkpt>
      <trkpt lat="43.63345" lon="6.74883">
        <ele>390.1</ele>
        <time>2009-09-13T07:00:51Z</time>
      </trkpt>
      <trkpt lat="43.63338" lon="6.74885">
        <ele>390.6</ele>
        <time>2009-09-13T07:00:53Z</time>
      </trkpt>
      <trkpt lat="43.63332" lon="6.74888">
        <ele>390.9</ele>
        <time>2009-09-13T07:00:54Z</time>
      </trkpt>
      <trkpt lat="43.63326" lon="6.7489">
        <ele>391</ele>
        <time>2009-09-13T07:00:55Z</time>
      </trkpt>
      <trkpt lat="43.6332" lon="6.74892">
        <ele>391.2</ele>
        <time>2009-09-13T07:00:56Z</time>
      </trkpt>
      <trkpt lat="43.63314" lon="6.74895">
        <ele>391.4</ele>
        <time>2009-09-13T07:00:57Z</time>
      </trkpt>
      <trkpt lat="43.63305" lon="6.74899">
        <ele>391.7</ele>
        <time>2009-09-13T07:00:59Z</time>
      </trkpt>
      <trkpt lat="43.633" lon="6.74901">
        <ele>392</ele>
        <time>2009-09-13T07:01:00Z</time>
      </trkpt>
      <trkpt lat="43.63295" lon="6.74902">
        <ele>392.4</ele>
        <time>2009-09-13T07:01:01Z</time>
      </trkpt>
      <trkpt lat="43.6329" lon="6.74904">
        <ele>392.7</ele>
        <time>2009-09-13T07:01:02Z</time>
      </trkpt>
      <trkpt lat="43.63285" lon="6.74906">
        <ele>392.9</ele>
        <time>2009-09-13T07:01:03Z</time>
      </trkpt>
      <trkpt lat="43.6328" lon="6.74907">
        <ele>393.2</ele>
        <time>2009-09-13T07:01:04Z</time>
      </trkpt>
      <trkpt lat="43.63275" lon="6.74908">
        <ele>393.4</ele>
        <time>2009-09-13T07:01:05Z</time>
      </trkpt>
      <trkpt lat="43.63266" lon="6.74909">
        <ele>393.9</ele>
        <time>2009-09-13T07:01:07Z</time>
      </trkpt>
      <trkpt lat="43.63258" lon="6.7491">
        <ele>394.2</ele>
        <time>2009-09-13T07:01:09Z</time>
      </trkpt>
      <trkpt lat="43.63249" lon="6.74911">
        <ele>394.6</ele>
        <time>2009-09-13T07:01:11Z</time>
      </trkpt>
      <trkpt lat="43.63241" lon="6.74912">
        <ele>395</ele>
        <time>2009-09-13T07:01:13Z</time>
      </trkpt>
      <trkpt lat="43.63232" lon="6.74913">
        <ele>395.4</ele>
        <time>2009-09-13T07:01:15Z</time>
      </trkpt>
      <trkpt lat="43.63224" lon="6.74914">
        <ele>395.7</ele>
        <time>2009-09-13T07:01:17Z</time>
      </trkpt>
      <trkpt lat="43.63216" lon="6.74915">
        <ele>396.1</ele>
        <time>2009-09-13T07:01:19Z</time>
      </trkpt>
      <trkpt lat="43.63209" lon="6.74916">
        <ele>396.4</ele>
        <time>2009-09-13T07:01:21Z</time>
      </trkpt>
      <trkpt lat="43.63202" lon="6.74917">
        <ele>396.8</ele>
        <time>2009-09-13T07:01:23Z</time>
      </trkpt>
      <trkpt lat="43.63197" lon="6.74918">
        <ele>397</ele>
        <time>2009-09-13T07:01:25Z</time>
      </trkpt>
      <trkpt lat="43.63189" lon="6.74919">
        <ele>397.5</ele>
        <time>2009-09-13T07:01:27Z</time>
      </trkpt>
      <trkpt lat="43.63181" lon="6.74919">
        <ele>398.1</ele>
        <time>2009-09-13T07:01:29Z</time>
      </trkpt>
      <trkpt lat="43.63174" lon="6.74921">
        <ele>398.7</ele>
        <time>2009-09-13T07:01:31Z</time>
      </trkpt>
      <trkpt lat="43.63167" lon="6.74922">
        <ele>399.2</ele>
        <time>2009-09-13T07:01:33Z</time>
      </trkpt>
      <trkpt lat="43.63161" lon="6.74924">
        <ele>399.7</ele>
        <time>2009-09-13T07:01:35Z</time>
      </trkpt>
      <trkpt lat="43.63154" lon="6.74925">
        <ele>400.2</ele>
        <time>2009-09-13T07:01:37Z</time>
      </trkpt>
      <trkpt lat="43.63147" lon="6.74926">
        <ele>400.8</ele>
        <time>2009-09-13T07:01:39Z</time>
      </trkpt>
      <trkpt lat="43.6314" lon="6.74928">
        <ele>401.3</ele>
        <time>2009-09-13T07:01:41Z</time>
      </trkpt>
      <trkpt lat="43.63133" lon="6.7493">
        <ele>401.6</ele>
        <time>2009-09-13T07:01:43Z</time>
      </trkpt>
      <trkpt lat="43.63126" lon="6.74933">
        <ele>401.9</ele>
        <time>2009-09-13T07:01:45Z</time>
      </trkpt>
      <trkpt lat="43.63119" lon="6.74937">
        <ele>402.3</ele>
        <time>2009-09-13T07:01:47Z</time>
      </trkpt>
      <trkpt lat="43.63113" lon="6.74941">
        <ele>402.7</ele>
        <time>2009-09-13T07:01:49Z</time>
      </trkpt>
      <trkpt lat="43.63106" lon="6.74945">
        <ele>402.8</ele>
        <time>2009-09-13T07:01:51Z</time>
      </trkpt>
      <trkpt lat="43.63099" lon="6.74951">
        <ele>402.9</ele>
        <time>2009-09-13T07:01:53Z</time>
      </trkpt>
      <trkpt lat="43.63092" lon="6.74957">
        <ele>403.1</ele>
        <time>2009-09-13T07:01:55Z</time>
      </trkpt>
      <trkpt lat="43.63086" lon="6.74963">
        <ele>403.4</ele>
        <time>2009-09-13T07:01:57Z</time>
      </trkpt>
      <trkpt lat="43.63079" lon="6.7497">
        <ele>403.5</ele>
        <time>2009-09-13T07:01:59Z</time>
      </trkpt>
      <trkpt lat="43.63072" lon="6.74976">
        <ele>403.4</ele>
        <time>2009-09-13T07:02:01Z</time>
      </trkpt>
      <trkpt lat="43.63064" lon="6.74982">
        <ele>403.2</ele>
        <time>2009-09-13T07:02:03Z</time>
      </trkpt>
      <trkpt lat="43.6306" lon="6.74985">
        <ele>403.2</ele>
        <time>2009-09-13T07:02:04Z</time>
      </trkpt>
      <trkpt lat="43.63051" lon="6.74991">
        <ele>403.3</ele>
        <time>2009-09-13T07:02:06Z</time>
      </trkpt>
      <trkpt lat="43.63043" lon="6.74995">
        <ele>403.7</ele>
        <time>2009-09-13T07:02:08Z</time>
      </trkpt>
      <trkpt lat="43.63035" lon="6.75">
        <ele>404</ele>
        <time>2009-09-13T07:02:10Z</time>
      </trkpt>
      <trkpt lat="43.63028" lon="6.75005">
        <ele>404.2</ele>
        <time>2009-09-13T07:02:12Z</time>
      </trkpt>
      <trkpt lat="43.63021" lon="6.7501">
        <ele>404.3</ele>
        <time>2009-09-13T07:02:14Z</time>
      </trkpt>
      <trkpt lat="43.63012" lon="6.75014">
        <ele>404.5</ele>
        <time>2009-09-13T07:02:16Z</time>
      </trkpt>
      <trkpt lat="43.63004" lon="6.75017">
        <ele>404.6</ele>
        <time>2009-09-13T07:02:18Z</time>
      </trkpt>
      <trkpt lat="43.62997" lon="6.75021">
        <ele>405.1</ele>
        <time>2009-09-13T07:02:20Z</time>
      </trkpt>
      <trkpt lat="43.62993" lon="6.75024">
        <ele>405.6</ele>
        <time>2009-09-13T07:02:22Z</time>
      </trkpt>
      <trkpt lat="43.62988" lon="6.75018">
        <ele>405.9</ele>
        <time>2009-09-13T07:02:25Z</time>
      </trkpt>
      <trkpt lat="43.62985" lon="6.75011">
        <ele>406</ele>
        <time>2009-09-13T07:02:27Z</time>
      </trkpt>
      <trkpt lat="43.62981" lon="6.75005">
        <ele>406.3</ele>
        <time>2009-09-13T07:02:29Z</time>
      </trkpt>
      <trkpt lat="43.62976" lon="6.74998">
        <ele>406.4</ele>
        <time>2009-09-13T07:02:31Z</time>
      </trkpt>
      <trkpt lat="43.62971" lon="6.74991">
        <ele>406.4</ele>
        <time>2009-09-13T07:02:33Z</time>
      </trkpt>
      <trkpt lat="43.62968" lon="6.74986">
        <ele>406.4</ele>
        <time>2009-09-13T07:02:34Z</time>
      </trkpt>
      <trkpt lat="43.62964" lon="6.74981">
        <ele>406.4</ele>
        <time>2009-09-13T07:02:35Z</time>
      </trkpt>
      <trkpt lat="43.62961" lon="6.74975">
        <ele>406.3</ele>
        <time>2009-09-13T07:02:36Z</time>
      </trkpt>
      <trkpt lat="43.62959" lon="6.74968">
        <ele>406.2</ele>
        <time>2009-09-13T07:02:37Z</time>
      </trkpt>
      <trkpt lat="43.62957" lon="6.74962">
        <ele>405.9</ele>
        <time>2009-09-13T07:02:38Z</time>
      </trkpt>
      <trkpt lat="43.62954" lon="6.74955">
        <ele>405.7</ele>
        <time>2009-09-13T07:02:39Z</time>
      </trkpt>
      <trkpt lat="43.62953" lon="6.74948">
        <ele>405.4</ele>
        <time>2009-09-13T07:02:40Z</time>
      </trkpt>
      <trkpt lat="43.62951" lon="6.74941">
        <ele>405.1</ele>
        <time>2009-09-13T07:02:41Z</time>
      </trkpt>
      <trkpt lat="43.62951" lon="6.74934">
        <ele>405</ele>
        <time>2009-09-13T07:02:42Z</time>
      </trkpt>
      <trkpt lat="43.6295" lon="6.74927">
        <ele>404.8</ele>
        <time>2009-09-13T07:02:43Z</time>
      </trkpt>
      <trkpt lat="43.6295" lon="6.7492">
        <ele>404.5</ele>
        <time>2009-09-13T07:02:44Z</time>
      </trkpt>
      <trkpt lat="43.62951" lon="6.74913">
        <ele>404.4</ele>
        <time>2009-09-13T07:02:45Z</time>
      </trkpt>
      <trkpt lat="43.62952" lon="6.74905">
        <ele>404.5</ele>
        <time>2009-09-13T07:02:46Z</time>
      </trkpt>
      <trkpt lat="43.62952" lon="6.74898">
        <ele>404.6</ele>
        <time>2009-09-13T07:02:47Z</time>
      </trkpt>
      <trkpt lat="43.62953" lon="6.74891">
        <ele>404.8</ele>
        <time>2009-09-13T07:02:48Z</time>
      </trkpt>
      <trkpt lat="43.62954" lon="6.74885">
        <ele>404.9</ele>
        <time>2009-09-13T07:02:49Z</time>
      </trkpt>
      <trkpt lat="43.62955" lon="6.74877">
        <ele>404.9</ele>
        <time>2009-09-13T07:02:50Z</time>
      </trkpt>
      <trkpt lat="43.62956" lon="6.7487">
        <ele>405</ele>
        <time>2009-09-13T07:02:51Z</time>
      </trkpt>
      <trkpt lat="43.62958" lon="6.74863">
        <ele>405</ele>
        <time>2009-09-13T07:02:52Z</time>
      </trkpt>
      <trkpt lat="43.62959" lon="6.74856">
        <ele>404.9</ele>
        <time>2009-09-13T07:02:53Z</time>
      </trkpt>
      <trkpt lat="43.62961" lon="6.74849">
        <ele>404.8</ele>
        <time>2009-09-13T07:02:54Z</time>
      </trkpt>
      <trkpt lat="43.62962" lon="6.74843">
        <ele>404.7</ele>
        <time>2009-09-13T07:02:55Z</time>
      </trkpt>
      <trkpt lat="43.62962" lon="6.74836">
        <ele>404.7</ele>
        <time>2009-09-13T07:02:56Z</time>
      </trkpt>
      <trkpt lat="43.6296" lon="6.74828">
        <ele>404.6</ele>
        <time>2009-09-13T07:02:57Z</time>
      </trkpt>
      <trkpt lat="43.62961" lon="6.7482">
        <ele>404.1</ele>
        <time>2009-09-13T07:02:58Z</time>
      </trkpt>
      <trkpt lat="43.6296" lon="6.74812">
        <ele>403.8</ele>
        <time>2009-09-13T07:02:59Z</time>
      </trkpt>
      <trkpt lat="43.62955" lon="6.74806">
        <ele>403.7</ele>
        <time>2009-09-13T07:03:00Z</time>
      </trkpt>
      <trkpt lat="43.62949" lon="6.748">
        <ele>403.4</ele>
        <time>2009-09-13T07:03:01Z</time>
      </trkpt>
      <trkpt lat="43.62943" lon="6.74794">
        <ele>403.1</ele>
        <time>2009-09-13T07:03:02Z</time>
      </trkpt>
      <trkpt lat="43.62937" lon="6.74785">
        <ele>402.5</ele>
        <time>2009-09-13T07:03:03Z</time>
      </trkpt>
      <trkpt lat="43.62933" lon="6.74778">
        <ele>402</ele>
        <time>2009-09-13T07:03:04Z</time>
      </trkpt>
      <trkpt lat="43.62932" lon="6.74771">
        <ele>401.8</ele>
        <time>2009-09-13T07:03:05Z</time>
      </trkpt>
      <trkpt lat="43.62929" lon="6.74765">
        <ele>401.5</ele>
        <time>2009-09-13T07:03:06Z</time>
      </trkpt>
      <trkpt lat="43.62925" lon="6.74759">
        <ele>401.3</ele>
        <time>2009-09-13T07:03:07Z</time>
      </trkpt>
      <trkpt lat="43.62913" lon="6.74756">
        <ele>401</ele>
        <time>2009-09-13T07:03:08Z</time>
      </trkpt>
      <trkpt lat="43.629" lon="6.74751">
        <ele>400.4</ele>
        <time>2009-09-13T07:03:09Z</time>
      </trkpt>
      <trkpt lat="43.62889" lon="6.74746">
        <ele>399.7</ele>
        <time>2009-09-13T07:03:10Z</time>
      </trkpt>
      <trkpt lat="43.62881" lon="6.74741">
        <ele>399.3</ele>
        <time>2009-09-13T07:03:11Z</time>
      </trkpt>
      <trkpt lat="43.62871" lon="6.74732">
        <ele>398.7</ele>
        <time>2009-09-13T07:03:12Z</time>
      </trkpt>
      <trkpt lat="43.62862" lon="6.74726">
        <ele>398.2</ele>
        <time>2009-09-13T07:03:13Z</time>
      </trkpt>
      <trkpt lat="43.62855" lon="6.74718">
        <ele>398.1</ele>
        <time>2009-09-13T07:03:14Z</time>
      </trkpt>
      <trkpt lat="43.62848" lon="6.7471">
        <ele>398.2</ele>
        <time>2009-09-13T07:03:15Z</time>
      </trkpt>
      <trkpt lat="43.62843" lon="6.74703">
        <ele>398.4</ele>
        <time>2009-09-13T07:03:16Z</time>
      </trkpt>
      <trkpt lat="43.62841" lon="6.74696">
        <ele>398.5</ele>
        <time>2009-09-13T07:03:17Z</time>
      </trkpt>
      <trkpt lat="43.62832" lon="6.74683">
        <ele>399.6</ele>
        <time>2009-09-13T07:03:19Z</time>
      </trkpt>
      <trkpt lat="43.62829" lon="6.74676">
        <ele>400.1</ele>
        <time>2009-09-13T07:03:20Z</time>
      </trkpt>
      <trkpt lat="43.62829" lon="6.74669">
        <ele>400.3</ele>
        <time>2009-09-13T07:03:21Z</time>
      </trkpt>
      <trkpt lat="43.62835" lon="6.74658">
        <ele>400.4</ele>
        <time>2009-09-13T07:03:23Z</time>
      </trkpt>
      <trkpt lat="43.62839" lon="6.74653">
        <ele>400.3</ele>
        <time>2009-09-13T07:03:24Z</time>
      </trkpt>
      <trkpt lat="43.62842" lon="6.74647">
        <ele>400.2</ele>
        <time>2009-09-13T07:03:25Z</time>
      </trkpt>
      <trkpt lat="43.62845" lon="6.74642">
        <ele>400.1</ele>
        <time>2009-09-13T07:03:26Z</time>
      </trkpt>
      <trkpt lat="43.62848" lon="6.74636">
        <ele>400</ele>
        <time>2009-09-13T07:03:27Z</time>
      </trkpt>
      <trkpt lat="43.62851" lon="6.74631">
        <ele>399.9</ele>
        <time>2009-09-13T07:03:28Z</time>
      </trkpt>
      <trkpt lat="43.62856" lon="6.74621">
        <ele>399.9</ele>
        <time>2009-09-13T07:03:30Z</time>
      </trkpt>
      <trkpt lat="43.62856" lon="6.7461">
        <ele>400.6</ele>
        <time>2009-09-13T07:03:32Z</time>
      </trkpt>
      <trkpt lat="43.62853" lon="6.74604">
        <ele>401.2</ele>
        <time>2009-09-13T07:03:34Z</time>
      </trkpt>
      <trkpt lat="43.62846" lon="6.74601">
        <ele>402</ele>
        <time>2009-09-13T07:03:36Z</time>
      </trkpt>
      <trkpt lat="43.62841" lon="6.74595">
        <ele>402.7</ele>
        <time>2009-09-13T07:03:39Z</time>
      </trkpt>
      <trkpt lat="43.62832" lon="6.7458">
        <ele>404.1</ele>
        <time>2009-09-13T07:06:33Z</time>
      </trkpt>
      <trkpt lat="43.62828" lon="6.74584">
        <ele>404.5</ele>
        <time>2009-09-13T07:06:41Z</time>
      </trkpt>
      <trkpt lat="43.62829" lon="6.74591">
        <ele>404.1</ele>
        <time>2009-09-13T07:07:16Z</time>
      </trkpt>
      <trkpt lat="43.62836" lon="6.74575">
        <ele>403.8</ele>
        <time>2009-09-13T07:07:46Z</time>
      </trkpt>
      <trkpt lat="43.62824" lon="6.74587">
        <ele>404.8</ele>
        <time>2009-09-13T07:09:15Z</time>
      </trkpt>
      <trkpt lat="43.62821" lon="6.74591">
        <ele>404.8</ele>
        <time>2009-09-13T07:09:21Z</time>
      </trkpt>
      <trkpt lat="43.62816" lon="6.74594">
        <ele>405</ele>
        <time>2009-09-13T07:09:31Z</time>
      </trkpt>
      <trkpt lat="43.62837" lon="6.74589">
        <ele>403.4</ele>
        <time>2009-09-13T07:20:50Z</time>
      </trkpt>
      <trkpt lat="43.62853" lon="6.74615">
        <ele>400.7</ele>
        <time>2009-09-13T07:21:28Z</time>
      </trkpt>
      <trkpt lat="43.6285" lon="6.74624">
        <ele>400.5</ele>
        <time>2009-09-13T07:21:30Z</time>
      </trkpt>
      <trkpt lat="43.6284" lon="6.74642">
        <ele>400.9</ele>
        <time>2009-09-13T07:21:34Z</time>
      </trkpt>
      <trkpt lat="43.6283" lon="6.74657">
        <ele>401</ele>
        <time>2009-09-13T07:21:38Z</time>
      </trkpt>
      <trkpt lat="43.62826" lon="6.74664">
        <ele>400.9</ele>
        <time>2009-09-13T07:21:40Z</time>
      </trkpt>
      <trkpt lat="43.62823" lon="6.74672">
        <ele>401</ele>
        <time>2009-09-13T07:21:42Z</time>
      </trkpt>
      <trkpt lat="43.62823" lon="6.74681">
        <ele>400.6</ele>
        <time>2009-09-13T07:21:44Z</time>
      </trkpt>
      <trkpt lat="43.62828" lon="6.74691">
        <ele>399.7</ele>
        <time>2009-09-13T07:21:46Z</time>
      </trkpt>
      <trkpt lat="43.62831" lon="6.74696">
        <ele>399.2</ele>
        <time>2009-09-13T07:21:47Z</time>
      </trkpt>
      <trkpt lat="43.62835" lon="6.74701">
        <ele>398.9</ele>
        <time>2009-09-13T07:21:48Z</time>
      </trkpt>
      <trkpt lat="43.62838" lon="6.74706">
        <ele>398.7</ele>
        <time>2009-09-13T07:21:49Z</time>
      </trkpt>
      <trkpt lat="43.62842" lon="6.74711">
        <ele>398.6</ele>
        <time>2009-09-13T07:21:50Z</time>
      </trkpt>
      <trkpt lat="43.62846" lon="6.74716">
        <ele>398.5</ele>
        <time>2009-09-13T07:21:51Z</time>
      </trkpt>
      <trkpt lat="43.6285" lon="6.74721">
        <ele>398.4</ele>
        <time>2009-09-13T07:21:52Z</time>
      </trkpt>
      <trkpt lat="43.62854" lon="6.74725">
        <ele>398.4</ele>
        <time>2009-09-13T07:21:53Z</time>
      </trkpt>
      <trkpt lat="43.62862" lon="6.74733">
        <ele>398.7</ele>
        <time>2009-09-13T07:21:55Z</time>
      </trkpt>
      <trkpt lat="43.62869" lon="6.7474">
        <ele>399.3</ele>
        <time>2009-09-13T07:21:57Z</time>
      </trkpt>
      <trkpt lat="43.62876" lon="6.74747">
        <ele>399.8</ele>
        <time>2009-09-13T07:21:59Z</time>
      </trkpt>
      <trkpt lat="43.62882" lon="6.74753">
        <ele>400.1</ele>
        <time>2009-09-13T07:22:01Z</time>
      </trkpt>
      <trkpt lat="43.62888" lon="6.74758">
        <ele>400.3</ele>
        <time>2009-09-13T07:22:03Z</time>
      </trkpt>
      <trkpt lat="43.62894" lon="6.74763">
        <ele>400.6</ele>
        <time>2009-09-13T07:22:05Z</time>
      </trkpt>
      <trkpt lat="43.629" lon="6.74765">
        <ele>400.9</ele>
        <time>2009-09-13T07:22:07Z</time>
      </trkpt>
      <trkpt lat="43.62906" lon="6.74768">
        <ele>401.3</ele>
        <time>2009-09-13T07:22:09Z</time>
      </trkpt>
      <trkpt lat="43.62911" lon="6.74772">
        <ele>401.6</ele>
        <time>2009-09-13T07:22:11Z</time>
      </trkpt>
      <trkpt lat="43.62916" lon="6.74775">
        <ele>401.9</ele>
        <time>2009-09-13T07:22:13Z</time>
      </trkpt>
      <trkpt lat="43.62921" lon="6.74779">
        <ele>402.1</ele>
        <time>2009-09-13T07:22:15Z</time>
      </trkpt>
      <trkpt lat="43.62926" lon="6.74783">
        <ele>402.4</ele>
        <time>2009-09-13T07:22:17Z</time>
      </trkpt>
      <trkpt lat="43.6293" lon="6.74787">
        <ele>402.6</ele>
        <time>2009-09-13T07:22:19Z</time>
      </trkpt>
      <trkpt lat="43.62934" lon="6.74791">
        <ele>403</ele>
        <time>2009-09-13T07:22:21Z</time>
      </trkpt>
      <trkpt lat="43.62939" lon="6.74798">
        <ele>403.4</ele>
        <time>2009-09-13T07:22:24Z</time>
      </trkpt>
      <trkpt lat="43.62942" lon="6.74802">
        <ele>403.7</ele>
        <time>2009-09-13T07:22:26Z</time>
      </trkpt>
      <trkpt lat="43.62947" lon="6.74808">
        <ele>404.1</ele>
        <time>2009-09-13T07:22:29Z</time>
      </trkpt>
      <trkpt lat="43.62951" lon="6.74813">
        <ele>404.2</ele>
        <time>2009-09-13T07:22:32Z</time>
      </trkpt>
      <trkpt lat="43.62955" lon="6.74817">
        <ele>404.3</ele>
        <time>2009-09-13T07:22:36Z</time>
      </trkpt>
      <trkpt lat="43.62965" lon="6.74824">
        <ele>404.1</ele>
        <time>2009-09-13T07:23:19Z</time>
      </trkpt>
      <trkpt lat="43.6297" lon="6.74821">
        <ele>403.7</ele>
        <time>2009-09-13T07:23:21Z</time>
      </trkpt>
      <trkpt lat="43.62976" lon="6.74816">
        <ele>403.3</ele>
        <time>2009-09-13T07:23:23Z</time>
      </trkpt>
      <trkpt lat="43.62982" lon="6.74809">
        <ele>403</ele>
        <time>2009-09-13T07:23:25Z</time>
      </trkpt>
      <trkpt lat="43.6299" lon="6.74802">
        <ele>402.8</ele>
        <time>2009-09-13T07:23:27Z</time>
      </trkpt>
      <trkpt lat="43.62994" lon="6.74795">
        <ele>402.5</ele>
        <time>2009-09-13T07:23:28Z</time>
      </trkpt>
      <trkpt lat="43.62998" lon="6.74787">
        <ele>402.3</ele>
        <time>2009-09-13T07:23:29Z</time>
      </trkpt>
      <trkpt lat="43.63001" lon="6.74783">
        <ele>402.1</ele>
        <time>2009-09-13T07:23:30Z</time>
      </trkpt>
      <trkpt lat="43.63006" lon="6.74778">
        <ele>401.8</ele>
        <time>2009-09-13T07:23:31Z</time>
      </trkpt>
      <trkpt lat="43.6301" lon="6.74771">
        <ele>401.4</ele>
        <time>2009-09-13T07:23:32Z</time>
      </trkpt>
      <trkpt lat="43.63015" lon="6.74765">
        <ele>401</ele>
        <time>2009-09-13T07:23:33Z</time>
      </trkpt>
      <trkpt lat="43.6302" lon="6.74758">
        <ele>400.6</ele>
        <time>2009-09-13T07:23:34Z</time>
      </trkpt>
      <trkpt lat="43.63025" lon="6.74751">
        <ele>400.1</ele>
        <time>2009-09-13T07:23:35Z</time>
      </trkpt>
      <trkpt lat="43.6303" lon="6.74744">
        <ele>399.6</ele>
        <time>2009-09-13T07:23:36Z</time>
      </trkpt>
      <trkpt lat="43.63035" lon="6.74737">
        <ele>399.2</ele>
        <time>2009-09-13T07:23:37Z</time>
      </trkpt>
      <trkpt lat="43.63041" lon="6.7473">
        <ele>398.9</ele>
        <time>2009-09-13T07:23:38Z</time>
      </trkpt>
      <trkpt lat="43.63047" lon="6.74723">
        <ele>398.7</ele>
        <time>2009-09-13T07:23:39Z</time>
      </trkpt>
      <trkpt lat="43.63052" lon="6.74715">
        <ele>398.4</ele>
        <time>2009-09-13T07:23:40Z</time>
      </trkpt>
      <trkpt lat="43.63057" lon="6.74708">
        <ele>398.1</ele>
        <time>2009-09-13T07:23:41Z</time>
      </trkpt>
      <trkpt lat="43.63063" lon="6.747">
        <ele>398.1</ele>
        <time>2009-09-13T07:23:42Z</time>
      </trkpt>
      <trkpt lat="43.63068" lon="6.74692">
        <ele>398.3</ele>
        <time>2009-09-13T07:23:43Z</time>
      </trkpt>
      <trkpt lat="43.63072" lon="6.74685">
        <ele>399</ele>
        <time>2009-09-13T07:23:44Z</time>
      </trkpt>
      <trkpt lat="43.63077" lon="6.74678">
        <ele>399.7</ele>
        <time>2009-09-13T07:23:45Z</time>
      </trkpt>
      <trkpt lat="43.63081" lon="6.74671">
        <ele>400.5</ele>
        <time>2009-09-13T07:23:46Z</time>
      </trkpt>
      <trkpt lat="43.63084" lon="6.74665">
        <ele>401</ele>
        <time>2009-09-13T07:23:47Z</time>
      </trkpt>
      <trkpt lat="43.63088" lon="6.74658">
        <ele>401.2</ele>
        <time>2009-09-13T07:23:48Z</time>
      </trkpt>
      <trkpt lat="43.63092" lon="6.74648">
        <ele>401.5</ele>
        <time>2009-09-13T07:23:50Z</time>
      </trkpt>
      <trkpt lat="43.63096" lon="6.74641">
        <ele>401.9</ele>
        <time>2009-09-13T07:23:52Z</time>
      </trkpt>
      <trkpt lat="43.63101" lon="6.74635">
        <ele>402.3</ele>
        <time>2009-09-13T07:23:54Z</time>
      </trkpt>
      <trkpt lat="43.63107" lon="6.7463">
        <ele>402.7</ele>
        <time>2009-09-13T07:23:56Z</time>
      </trkpt>
      <trkpt lat="43.63114" lon="6.74625">
        <ele>403</ele>
        <time>2009-09-13T07:23:58Z</time>
      </trkpt>
      <trkpt lat="43.63122" lon="6.74621">
        <ele>403</ele>
        <time>2009-09-13T07:24:00Z</time>
      </trkpt>
      <trkpt lat="43.63126" lon="6.74619">
        <ele>403</ele>
        <time>2009-09-13T07:24:01Z</time>
      </trkpt>
      <trkpt lat="43.63136" lon="6.74618">
        <ele>403</ele>
        <time>2009-09-13T07:24:03Z</time>
      </trkpt>
      <trkpt lat="43.63141" lon="6.74616">
        <ele>402.9</ele>
        <time>2009-09-13T07:24:04Z</time>
      </trkpt>
      <trkpt lat="43.63146" lon="6.74615">
        <ele>402.8</ele>
        <time>2009-09-13T07:24:05Z</time>
      </trkpt>
      <trkpt lat="43.63151" lon="6.74614">
        <ele>402.6</ele>
        <time>2009-09-13T07:24:06Z</time>
      </trkpt>
      <trkpt lat="43.63157" lon="6.74613">
        <ele>402.4</ele>
        <time>2009-09-13T07:24:07Z</time>
      </trkpt>
      <trkpt lat="43.63163" lon="6.74612">
        <ele>402.2</ele>
        <time>2009-09-13T07:24:08Z</time>
      </trkpt>
      <trkpt lat="43.6317" lon="6.74612">
        <ele>401.9</ele>
        <time>2009-09-13T07:24:09Z</time>
      </trkpt>
      <trkpt lat="43.63177" lon="6.74611">
        <ele>401.6</ele>
        <time>2009-09-13T07:24:10Z</time>
      </trkpt>
      <trkpt lat="43.63186" lon="6.74608">
        <ele>401.3</ele>
        <time>2009-09-13T07:24:11Z</time>
      </trkpt>
      <trkpt lat="43.63194" lon="6.74607">
        <ele>401</ele>
        <time>2009-09-13T07:24:12Z</time>
      </trkpt>
      <trkpt lat="43.63201" lon="6.74605">
        <ele>400.9</ele>
        <time>2009-09-13T07:24:13Z</time>
      </trkpt>
      <trkpt lat="43.63208" lon="6.74602">
        <ele>400.8</ele>
        <time>2009-09-13T07:24:14Z</time>
      </trkpt>
      <trkpt lat="43.63215" lon="6.74597">
        <ele>400.6</ele>
        <time>2009-09-13T07:24:15Z</time>
      </trkpt>
      <trkpt lat="43.63221" lon="6.74592">
        <ele>400.3</ele>
        <time>2009-09-13T07:24:16Z</time>
      </trkpt>
      <trkpt lat="43.63227" lon="6.74585">
        <ele>399.7</ele>
        <time>2009-09-13T07:24:17Z</time>
      </trkpt>
      <trkpt lat="43.63233" lon="6.74577">
        <ele>399</ele>
        <time>2009-09-13T07:24:18Z</time>
      </trkpt>
      <trkpt lat="43.63239" lon="6.74569">
        <ele>398.3</ele>
        <time>2009-09-13T07:24:19Z</time>
      </trkpt>
      <trkpt lat="43.63245" lon="6.74562">
        <ele>397.6</ele>
        <time>2009-09-13T07:24:20Z</time>
      </trkpt>
      <trkpt lat="43.63252" lon="6.74553">
        <ele>396.8</ele>
        <time>2009-09-13T07:24:21Z</time>
      </trkpt>
      <trkpt lat="43.6326" lon="6.74548">
        <ele>396</ele>
        <time>2009-09-13T07:24:22Z</time>
      </trkpt>
      <trkpt lat="43.63268" lon="6.74546">
        <ele>395.3</ele>
        <time>2009-09-13T07:24:23Z</time>
      </trkpt>
      <trkpt lat="43.63277" lon="6.74545">
        <ele>394.7</ele>
        <time>2009-09-13T07:24:24Z</time>
      </trkpt>
      <trkpt lat="43.63286" lon="6.74545">
        <ele>394.2</ele>
        <time>2009-09-13T07:24:25Z</time>
      </trkpt>
      <trkpt lat="43.63294" lon="6.74545">
        <ele>393.7</ele>
        <time>2009-09-13T07:24:26Z</time>
      </trkpt>
      <trkpt lat="43.63303" lon="6.74545">
        <ele>393.1</ele>
        <time>2009-09-13T07:24:27Z</time>
      </trkpt>
      <trkpt lat="43.63312" lon="6.74544">
        <ele>392.8</ele>
        <time>2009-09-13T07:24:28Z</time>
      </trkpt>
      <trkpt lat="43.63321" lon="6.74543">
        <ele>392.5</ele>
        <time>2009-09-13T07:24:29Z</time>
      </trkpt>
      <trkpt lat="43.6333" lon="6.74543">
        <ele>392.2</ele>
        <time>2009-09-13T07:24:30Z</time>
      </trkpt>
      <trkpt lat="43.63339" lon="6.74542">
        <ele>391.7</ele>
        <time>2009-09-13T07:24:31Z</time>
      </trkpt>
      <trkpt lat="43.63348" lon="6.74541">
        <ele>391.2</ele>
        <time>2009-09-13T07:24:32Z</time>
      </trkpt>
      <trkpt lat="43.63356" lon="6.74541">
        <ele>390.8</ele>
        <time>2009-09-13T07:24:33Z</time>
      </trkpt>
      <trkpt lat="43.63365" lon="6.74541">
        <ele>390.5</ele>
        <time>2009-09-13T07:24:34Z</time>
      </trkpt>
      <trkpt lat="43.63372" lon="6.74542">
        <ele>390.3</ele>
        <time>2009-09-13T07:24:35Z</time>
      </trkpt>
      <trkpt lat="43.63378" lon="6.74543">
        <ele>390.2</ele>
        <time>2009-09-13T07:24:36Z</time>
      </trkpt>
      <trkpt lat="43.63383" lon="6.74543">
        <ele>390.1</ele>
        <time>2009-09-13T07:24:37Z</time>
      </trkpt>
      <trkpt lat="43.6339" lon="6.74538">
        <ele>390</ele>
        <time>2009-09-13T07:24:39Z</time>
      </trkpt>
      <trkpt lat="43.63394" lon="6.7453">
        <ele>390</ele>
        <time>2009-09-13T07:24:41Z</time>
      </trkpt>
      <trkpt lat="43.634" lon="6.74529">
        <ele>390</ele>
        <time>2009-09-13T07:24:44Z</time>
      </trkpt>
      <trkpt lat="43.63405" lon="6.74533">
        <ele>389.9</ele>
        <time>2009-09-13T07:24:46Z</time>
      </trkpt>
      <trkpt lat="43.63411" lon="6.74538">
        <ele>389.7</ele>
        <time>2009-09-13T07:24:48Z</time>
      </trkpt>
      <trkpt lat="43.63418" lon="6.74543">
        <ele>389.4</ele>
        <time>2009-09-13T07:24:50Z</time>
      </trkpt>
      <trkpt lat="43.63424" lon="6.74549">
        <ele>389.2</ele>
        <time>2009-09-13T07:24:52Z</time>
      </trkpt>
      <trkpt lat="43.63431" lon="6.74555">
        <ele>389</ele>
        <time>2009-09-13T07:24:54Z</time>
      </trkpt>
      <trkpt lat="43.63439" lon="6.74563">
        <ele>388.8</ele>
        <time>2009-09-13T07:24:56Z</time>
      </trkpt>
      <trkpt lat="43.63443" lon="6.74567">
        <ele>388.6</ele>
        <time>2009-09-13T07:24:57Z</time>
      </trkpt>
      <trkpt lat="43.63447" lon="6.74571">
        <ele>388.4</ele>
        <time>2009-09-13T07:24:58Z</time>
      </trkpt>
      <trkpt lat="43.63451" lon="6.74576">
        <ele>388.1</ele>
        <time>2009-09-13T07:24:59Z</time>
      </trkpt>
      <trkpt lat="43.63454" lon="6.7458">
        <ele>387.8</ele>
        <time>2009-09-13T07:25:00Z</time>
      </trkpt>
      <trkpt lat="43.63459" lon="6.7459">
        <ele>387.5</ele>
        <time>2009-09-13T07:25:02Z</time>
      </trkpt>
      <trkpt lat="43.6346" lon="6.74599">
        <ele>387.5</ele>
        <time>2009-09-13T07:25:04Z</time>
      </trkpt>
      <trkpt lat="43.63462" lon="6.74605">
        <ele>387.4</ele>
        <time>2009-09-13T07:25:06Z</time>
      </trkpt>
      <trkpt lat="43.63465" lon="6.74611">
        <ele>387.3</ele>
        <time>2009-09-13T07:25:08Z</time>
      </trkpt>
      <trkpt lat="43.63465" lon="6.7462">
        <ele>387.3</ele>
        <time>2009-09-13T07:25:10Z</time>
      </trkpt>
      <trkpt lat="43.63464" lon="6.7463">
        <ele>387.3</ele>
        <time>2009-09-13T07:25:12Z</time>
      </trkpt>
      <trkpt lat="43.63464" lon="6.7464">
        <ele>387.3</ele>
        <time>2009-09-13T07:25:14Z</time>
      </trkpt>
      <trkpt lat="43.63464" lon="6.7465">
        <ele>387.2</ele>
        <time>2009-09-13T07:25:16Z</time>
      </trkpt>
      <trkpt lat="43.63463" lon="6.7466">
        <ele>387.1</ele>
        <time>2009-09-13T07:25:18Z</time>
      </trkpt>
      <trkpt lat="43.6346" lon="6.7467">
        <ele>386.9</ele>
        <time>2009-09-13T07:25:20Z</time>
      </trkpt>
      <trkpt lat="43.63454" lon="6.7468">
        <ele>386.5</ele>
        <time>2009-09-13T07:25:22Z</time>
      </trkpt>
      <trkpt lat="43.63449" lon="6.7469">
        <ele>386.2</ele>
        <time>2009-09-13T07:25:24Z</time>
      </trkpt>
      <trkpt lat="43.63445" lon="6.74697">
        <ele>386</ele>
        <time>2009-09-13T07:25:26Z</time>
      </trkpt>
      <trkpt lat="43.63443" lon="6.74703">
        <ele>386.1</ele>
        <time>2009-09-13T07:25:30Z</time>
      </trkpt>
      <trkpt lat="43.63458" lon="6.7468">
        <ele>386.5</ele>
        <time>2009-09-13T07:25:47Z</time>
      </trkpt>
      <trkpt lat="43.63464" lon="6.74677">
        <ele>386.6</ele>
        <time>2009-09-13T07:25:49Z</time>
      </trkpt>
      <trkpt lat="43.63469" lon="6.74675">
        <ele>386.7</ele>
        <time>2009-09-13T07:25:51Z</time>
      </trkpt>
      <trkpt lat="43.63475" lon="6.74675">
        <ele>386.7</ele>
        <time>2009-09-13T07:25:53Z</time>
      </trkpt>
      <trkpt lat="43.6348" lon="6.74678">
        <ele>386.6</ele>
        <time>2009-09-13T07:25:55Z</time>
      </trkpt>
      <trkpt lat="43.63484" lon="6.74685">
        <ele>386.3</ele>
        <time>2009-09-13T07:25:57Z</time>
      </trkpt>
      <trkpt lat="43.63489" lon="6.74696">
        <ele>385.9</ele>
        <time>2009-09-13T07:25:59Z</time>
      </trkpt>
      <trkpt lat="43.63491" lon="6.74702">
        <ele>385.6</ele>
        <time>2009-09-13T07:26:00Z</time>
      </trkpt>
      <trkpt lat="43.63494" lon="6.74709">
        <ele>385.1</ele>
        <time>2009-09-13T07:26:01Z</time>
      </trkpt>
      <trkpt lat="43.63497" lon="6.74715">
        <ele>384.6</ele>
        <time>2009-09-13T07:26:02Z</time>
      </trkpt>
      <trkpt lat="43.635" lon="6.74722">
        <ele>384.1</ele>
        <time>2009-09-13T07:26:03Z</time>
      </trkpt>
      <trkpt lat="43.63503" lon="6.74728">
        <ele>383.9</ele>
        <time>2009-09-13T07:26:04Z</time>
      </trkpt>
      <trkpt lat="43.63509" lon="6.74737">
        <ele>383.6</ele>
        <time>2009-09-13T07:26:06Z</time>
      </trkpt>
      <trkpt lat="43.63512" lon="6.74742">
        <ele>383.4</ele>
        <time>2009-09-13T07:26:07Z</time>
      </trkpt>
      <trkpt lat="43.63516" lon="6.74749">
        <ele>383.1</ele>
        <time>2009-09-13T07:26:08Z</time>
      </trkpt>
      <trkpt lat="43.6352" lon="6.74755">
        <ele>382.7</ele>
        <time>2009-09-13T07:26:09Z</time>
      </trkpt>
      <trkpt lat="43.63525" lon="6.74762">
        <ele>382.2</ele>
        <time>2009-09-13T07:26:10Z</time>
      </trkpt>
      <trkpt lat="43.63529" lon="6.74769">
        <ele>381.6</ele>
        <time>2009-09-13T07:26:11Z</time>
      </trkpt>
      <trkpt lat="43.63533" lon="6.74775">
        <ele>381.2</ele>
        <time>2009-09-13T07:26:12Z</time>
      </trkpt>
      <trkpt lat="43.63539" lon="6.74781">
        <ele>381.1</ele>
        <time>2009-09-13T07:26:13Z</time>
      </trkpt>
      <trkpt lat="43.63543" lon="6.74785">
        <ele>381.3</ele>
        <time>2009-09-13T07:26:14Z</time>
      </trkpt>
      <trkpt lat="43.63547" lon="6.74789">
        <ele>381.4</ele>
        <time>2009-09-13T07:26:15Z</time>
      </trkpt>
      <trkpt lat="43.63556" lon="6.74792">
        <ele>381.5</ele>
        <time>2009-09-13T07:26:17Z</time>
      </trkpt>
      <trkpt lat="43.63561" lon="6.74793">
        <ele>381.6</ele>
        <time>2009-09-13T07:26:18Z</time>
      </trkpt>
      <trkpt lat="43.63565" lon="6.74795">
        <ele>381.7</ele>
        <time>2009-09-13T07:26:19Z</time>
      </trkpt>
      <trkpt lat="43.63574" lon="6.74796">
        <ele>381.8</ele>
        <time>2009-09-13T07:26:21Z</time>
      </trkpt>
      <trkpt lat="43.63581" lon="6.74797">
        <ele>382</ele>
        <time>2009-09-13T07:26:23Z</time>
      </trkpt>
      <trkpt lat="43.63586" lon="6.748">
        <ele>382.5</ele>
        <time>2009-09-13T07:26:25Z</time>
      </trkpt>
      <trkpt lat="43.6359" lon="6.74805">
        <ele>383.4</ele>
        <time>2009-09-13T07:26:28Z</time>
      </trkpt>
      <trkpt lat="43.63591" lon="6.74812">
        <ele>384</ele>
        <time>2009-09-13T07:26:33Z</time>
      </trkpt>
      <trkpt lat="43.63601" lon="6.74814">
        <ele>384.9</ele>
        <time>2009-09-13T07:26:54Z</time>
      </trkpt>
      <trkpt lat="43.63597" lon="6.74817">
        <ele>384.8</ele>
        <time>2009-09-13T07:27:04Z</time>
      </trkpt>
      <trkpt lat="43.63592" lon="6.74819">
        <ele>384.5</ele>
        <time>2009-09-13T07:27:19Z</time>
      </trkpt>
      <trkpt lat="43.63596" lon="6.74809">
        <ele>384.2</ele>
        <time>2009-09-13T07:27:57Z</time>
      </trkpt>
      <trkpt lat="43.63595" lon="6.74824">
        <ele>385.2</ele>
        <time>2009-09-13T07:28:26Z</time>
      </trkpt>
      <trkpt lat="43.63607" lon="6.74816">
        <ele>385.5</ele>
        <time>2009-09-13T07:28:36Z</time>
      </trkpt>
      <trkpt lat="43.63612" lon="6.74815">
        <ele>385.7</ele>
        <time>2009-09-13T07:28:38Z</time>
      </trkpt>
      <trkpt lat="43.63618" lon="6.74814">
        <ele>385.8</ele>
        <time>2009-09-13T07:28:40Z</time>
      </trkpt>
      <trkpt lat="43.63623" lon="6.74812">
        <ele>385.8</ele>
        <time>2009-09-13T07:28:42Z</time>
      </trkpt>
      <trkpt lat="43.6363" lon="6.7481">
        <ele>385.9</ele>
        <time>2009-09-13T07:28:44Z</time>
      </trkpt>
      <trkpt lat="43.63636" lon="6.74808">
        <ele>386</ele>
        <time>2009-09-13T07:28:46Z</time>
      </trkpt>
      <trkpt lat="43.63643" lon="6.74806">
        <ele>386.2</ele>
        <time>2009-09-13T07:28:48Z</time>
      </trkpt>
      <trkpt lat="43.6365" lon="6.74804">
        <ele>386.3</ele>
        <time>2009-09-13T07:28:50Z</time>
      </trkpt>
      <trkpt lat="43.63658" lon="6.74802">
        <ele>386.5</ele>
        <time>2009-09-13T07:28:52Z</time>
      </trkpt>
      <trkpt lat="43.63666" lon="6.74799">
        <ele>386.7</ele>
        <time>2009-09-13T07:28:54Z</time>
      </trkpt>
      <trkpt lat="43.63674" lon="6.74797">
        <ele>386.9</ele>
        <time>2009-09-13T07:28:56Z</time>
      </trkpt>
      <trkpt lat="43.63683" lon="6.74796">
        <ele>387</ele>
        <time>2009-09-13T07:28:58Z</time>
      </trkpt>
      <trkpt lat="43.63692" lon="6.74794">
        <ele>387.1</ele>
        <time>2009-09-13T07:29:00Z</time>
      </trkpt>
      <trkpt lat="43.63701" lon="6.74793">
        <ele>387.2</ele>
        <time>2009-09-13T07:29:02Z</time>
      </trkpt>
      <trkpt lat="43.63705" lon="6.74793">
        <ele>387.2</ele>
        <time>2009-09-13T07:29:03Z</time>
      </trkpt>
      <trkpt lat="43.6371" lon="6.74792">
        <ele>387.3</ele>
        <time>2009-09-13T07:29:04Z</time>
      </trkpt>
      <trkpt lat="43.63715" lon="6.74792">
        <ele>387.4</ele>
        <time>2009-09-13T07:29:05Z</time>
      </trkpt>
      <trkpt lat="43.6372" lon="6.74791">
        <ele>387.4</ele>
        <time>2009-09-13T07:29:06Z</time>
      </trkpt>
      <trkpt lat="43.63725" lon="6.74791">
        <ele>387.6</ele>
        <time>2009-09-13T07:29:07Z</time>
      </trkpt>
      <trkpt lat="43.6373" lon="6.7479">
        <ele>387.7</ele>
        <time>2009-09-13T07:29:08Z</time>
      </trkpt>
      <trkpt lat="43.63734" lon="6.7479">
        <ele>387.9</ele>
        <time>2009-09-13T07:29:09Z</time>
      </trkpt>
      <trkpt lat="43.63739" lon="6.74789">
        <ele>388</ele>
        <time>2009-09-13T07:29:10Z</time>
      </trkpt>
      <trkpt lat="43.63744" lon="6.74788">
        <ele>388.2</ele>
        <time>2009-09-13T07:29:11Z</time>
      </trkpt>
      <trkpt lat="43.63749" lon="6.74787">
        <ele>388.3</ele>
        <time>2009-09-13T07:29:12Z</time>
      </trkpt>
      <trkpt lat="43.63754" lon="6.74787">
        <ele>388.6</ele>
        <time>2009-09-13T07:29:13Z</time>
      </trkpt>
      <trkpt lat="43.63763" lon="6.74784">
        <ele>389.1</ele>
        <time>2009-09-13T07:29:15Z</time>
      </trkpt>
      <trkpt lat="43.63772" lon="6.74782">
        <ele>389.7</ele>
        <time>2009-09-13T07:29:17Z</time>
      </trkpt>
      <trkpt lat="43.6378" lon="6.74779">
        <ele>390.1</ele>
        <time>2009-09-13T07:29:19Z</time>
      </trkpt>
      <trkpt lat="43.63788" lon="6.74777">
        <ele>390.3</ele>
        <time>2009-09-13T07:29:21Z</time>
      </trkpt>
      <trkpt lat="43.63797" lon="6.74775">
        <ele>390.6</ele>
        <time>2009-09-13T07:29:23Z</time>
      </trkpt>
      <trkpt lat="43.63806" lon="6.74772">
        <ele>390.8</ele>
        <time>2009-09-13T07:29:25Z</time>
      </trkpt>
      <trkpt lat="43.6381" lon="6.7477">
        <ele>390.8</ele>
        <time>2009-09-13T07:29:26Z</time>
      </trkpt>
      <trkpt lat="43.63815" lon="6.74768">
        <ele>390.9</ele>
        <time>2009-09-13T07:29:27Z</time>
      </trkpt>
      <trkpt lat="43.63819" lon="6.74766">
        <ele>390.8</ele>
        <time>2009-09-13T07:29:28Z</time>
      </trkpt>
      <trkpt lat="43.63823" lon="6.74763">
        <ele>390.7</ele>
        <time>2009-09-13T07:29:29Z</time>
      </trkpt>
      <trkpt lat="43.63828" lon="6.74761">
        <ele>390.7</ele>
        <time>2009-09-13T07:29:30Z</time>
      </trkpt>
      <trkpt lat="43.63833" lon="6.7476">
        <ele>390.7</ele>
        <time>2009-09-13T07:29:31Z</time>
      </trkpt>
      <trkpt lat="43.63838" lon="6.74758">
        <ele>390.4</ele>
        <time>2009-09-13T07:29:32Z</time>
      </trkpt>
      <trkpt lat="43.63843" lon="6.74757">
        <ele>390.1</ele>
        <time>2009-09-13T07:29:33Z</time>
      </trkpt>
      <trkpt lat="43.63852" lon="6.74756">
        <ele>389.6</ele>
        <time>2009-09-13T07:29:35Z</time>
      </trkpt>
      <trkpt lat="43.63857" lon="6.74756">
        <ele>389.4</ele>
        <time>2009-09-13T07:29:36Z</time>
      </trkpt>
      <trkpt lat="43.63863" lon="6.74755">
        <ele>389.1</ele>
        <time>2009-09-13T07:29:37Z</time>
      </trkpt>
      <trkpt lat="43.63869" lon="6.74754">
        <ele>388.8</ele>
        <time>2009-09-13T07:29:38Z</time>
      </trkpt>
      <trkpt lat="43.63875" lon="6.74752">
        <ele>388.6</ele>
        <time>2009-09-13T07:29:39Z</time>
      </trkpt>
      <trkpt lat="43.63881" lon="6.74751">
        <ele>388.3</ele>
        <time>2009-09-13T07:29:40Z</time>
      </trkpt>
      <trkpt lat="43.63887" lon="6.7475">
        <ele>388.1</ele>
        <time>2009-09-13T07:29:41Z</time>
      </trkpt>
      <trkpt lat="43.63893" lon="6.74749">
        <ele>387.7</ele>
        <time>2009-09-13T07:29:42Z</time>
      </trkpt>
      <trkpt lat="43.639" lon="6.74747">
        <ele>387.2</ele>
        <time>2009-09-13T07:29:43Z</time>
      </trkpt>
      <trkpt lat="43.63908" lon="6.74745">
        <ele>386.8</ele>
        <time>2009-09-13T07:29:44Z</time>
      </trkpt>
      <trkpt lat="43.63915" lon="6.74743">
        <ele>386.3</ele>
        <time>2009-09-13T07:29:45Z</time>
      </trkpt>
      <trkpt lat="43.63924" lon="6.74741">
        <ele>385.9</ele>
        <time>2009-09-13T07:29:46Z</time>
      </trkpt>
      <trkpt lat="43.63933" lon="6.74738">
        <ele>385.5</ele>
        <time>2009-09-13T07:29:47Z</time>
      </trkpt>
      <trkpt lat="43.63942" lon="6.74736">
        <ele>385.2</ele>
        <time>2009-09-13T07:29:48Z</time>
      </trkpt>
      <trkpt lat="43.6395" lon="6.74733">
        <ele>384.8</ele>
        <time>2009-09-13T07:29:49Z</time>
      </trkpt>
      <trkpt lat="43.63958" lon="6.74729">
        <ele>384.5</ele>
        <time>2009-09-13T07:29:50Z</time>
      </trkpt>
      <trkpt lat="43.63967" lon="6.74726">
        <ele>384.2</ele>
        <time>2009-09-13T07:29:51Z</time>
      </trkpt>
      <trkpt lat="43.63974" lon="6.74723">
        <ele>383.8</ele>
        <time>2009-09-13T07:29:52Z</time>
      </trkpt>
      <trkpt lat="43.63982" lon="6.74719">
        <ele>383.5</ele>
        <time>2009-09-13T07:29:53Z</time>
      </trkpt>
      <trkpt lat="43.6399" lon="6.74716">
        <ele>383.1</ele>
        <time>2009-09-13T07:29:54Z</time>
      </trkpt>
      <trkpt lat="43.63998" lon="6.74713">
        <ele>382.5</ele>
        <time>2009-09-13T07:29:55Z</time>
      </trkpt>
      <trkpt lat="43.64007" lon="6.7471">
        <ele>381.8</ele>
        <time>2009-09-13T07:29:56Z</time>
      </trkpt>
      <trkpt lat="43.64016" lon="6.74706">
        <ele>381.1</ele>
        <time>2009-09-13T07:29:57Z</time>
      </trkpt>
      <trkpt lat="43.64023" lon="6.74702">
        <ele>380.5</ele>
        <time>2009-09-13T07:29:58Z</time>
      </trkpt>
      <trkpt lat="43.64031" lon="6.74698">
        <ele>380.2</ele>
        <time>2009-09-13T07:29:59Z</time>
      </trkpt>
      <trkpt lat="43.64039" lon="6.74694">
        <ele>380.8</ele>
        <time>2009-09-13T07:30:00Z</time>
      </trkpt>
      <trkpt lat="43.64045" lon="6.74688">
        <ele>381.2</ele>
        <time>2009-09-13T07:30:01Z</time>
      </trkpt>
      <trkpt lat="43.64051" lon="6.74683">
        <ele>381.4</ele>
        <time>2009-09-13T07:30:02Z</time>
      </trkpt>
      <trkpt lat="43.64057" lon="6.74678">
        <ele>381.5</ele>
        <time>2009-09-13T07:30:03Z</time>
      </trkpt>
      <trkpt lat="43.64062" lon="6.74673">
        <ele>382.1</ele>
        <time>2009-09-13T07:30:04Z</time>
      </trkpt>
      <trkpt lat="43.64067" lon="6.74668">
        <ele>382.7</ele>
        <time>2009-09-13T07:30:05Z</time>
      </trkpt>
      <trkpt lat="43.64073" lon="6.74663">
        <ele>383.3</ele>
        <time>2009-09-13T07:30:06Z</time>
      </trkpt>
      <trkpt lat="43.64078" lon="6.74659">
        <ele>384</ele>
        <time>2009-09-13T07:30:07Z</time>
      </trkpt>
      <trkpt lat="43.64084" lon="6.74654">
        <ele>384.6</ele>
        <time>2009-09-13T07:30:08Z</time>
      </trkpt>
      <trkpt lat="43.64088" lon="6.7465">
        <ele>385</ele>
        <time>2009-09-13T07:30:09Z</time>
      </trkpt>
      <trkpt lat="43.64093" lon="6.74646">
        <ele>385.5</ele>
        <time>2009-09-13T07:30:10Z</time>
      </trkpt>
      <trkpt lat="43.64097" lon="6.74642">
        <ele>386.1</ele>
        <time>2009-09-13T07:30:11Z</time>
      </trkpt>
      <trkpt lat="43.64102" lon="6.74637">
        <ele>386.6</ele>
        <time>2009-09-13T07:30:12Z</time>
      </trkpt>
      <trkpt lat="43.64106" lon="6.74633">
        <ele>387.1</ele>
        <time>2009-09-13T07:30:13Z</time>
      </trkpt>
      <trkpt lat="43.6411" lon="6.7463">
        <ele>387.5</ele>
        <time>2009-09-13T07:30:14Z</time>
      </trkpt>
      <trkpt lat="43.64117" lon="6.74624">
        <ele>388.1</ele>
        <time>2009-09-13T07:30:16Z</time>
      </trkpt>
      <trkpt lat="43.64125" lon="6.74619">
        <ele>388.8</ele>
        <time>2009-09-13T07:30:18Z</time>
      </trkpt>
      <trkpt lat="43.64132" lon="6.74615">
        <ele>389.4</ele>
        <time>2009-09-13T07:30:20Z</time>
      </trkpt>
      <trkpt lat="43.64139" lon="6.74611">
        <ele>390</ele>
        <time>2009-09-13T07:30:22Z</time>
      </trkpt>
      <trkpt lat="43.64146" lon="6.74609">
        <ele>391</ele>
        <time>2009-09-13T07:30:24Z</time>
      </trkpt>
      <trkpt lat="43.64153" lon="6.74606">
        <ele>391.9</ele>
        <time>2009-09-13T07:30:26Z</time>
      </trkpt>
      <trkpt lat="43.6416" lon="6.74603">
        <ele>392.8</ele>
        <time>2009-09-13T07:30:28Z</time>
      </trkpt>
      <trkpt lat="43.64167" lon="6.74599">
        <ele>393.5</ele>
        <time>2009-09-13T07:30:30Z</time>
      </trkpt>
      <trkpt lat="43.64173" lon="6.74595">
        <ele>394</ele>
        <time>2009-09-13T07:30:32Z</time>
      </trkpt>
      <trkpt lat="43.64178" lon="6.7459">
        <ele>394.4</ele>
        <time>2009-09-13T07:30:34Z</time>
      </trkpt>
      <trkpt lat="43.64183" lon="6.74585">
        <ele>394.8</ele>
        <time>2009-09-13T07:30:36Z</time>
      </trkpt>
      <trkpt lat="43.64188" lon="6.74579">
        <ele>395.2</ele>
        <time>2009-09-13T07:30:38Z</time>
      </trkpt>
      <trkpt lat="43.64193" lon="6.74573">
        <ele>395.5</ele>
        <time>2009-09-13T07:30:40Z</time>
      </trkpt>
      <trkpt lat="43.64198" lon="6.74566">
        <ele>395.6</ele>
        <time>2009-09-13T07:30:42Z</time>
      </trkpt>
      <trkpt lat="43.64203" lon="6.7456">
        <ele>395.8</ele>
        <time>2009-09-13T07:30:44Z</time>
      </trkpt>
      <trkpt lat="43.64208" lon="6.74554">
        <ele>396</ele>
        <time>2009-09-13T07:30:46Z</time>
      </trkpt>
      <trkpt lat="43.64215" lon="6.74547">
        <ele>396.2</ele>
        <time>2009-09-13T07:30:48Z</time>
      </trkpt>
      <trkpt lat="43.64221" lon="6.7454">
        <ele>396.4</ele>
        <time>2009-09-13T07:30:50Z</time>
      </trkpt>
      <trkpt lat="43.64228" lon="6.74534">
        <ele>396.4</ele>
        <time>2009-09-13T07:30:52Z</time>
      </trkpt>
      <trkpt lat="43.64235" lon="6.74529">
        <ele>396.5</ele>
        <time>2009-09-13T07:30:54Z</time>
      </trkpt>
      <trkpt lat="43.64241" lon="6.74524">
        <ele>396.7</ele>
        <time>2009-09-13T07:30:56Z</time>
      </trkpt>
      <trkpt lat="43.64248" lon="6.74524">
        <ele>396.9</ele>
        <time>2009-09-13T07:30:58Z</time>
      </trkpt>
      <trkpt lat="43.64255" lon="6.7453">
        <ele>397</ele>
        <time>2009-09-13T07:31:00Z</time>
      </trkpt>
      <trkpt lat="43.64259" lon="6.74539">
        <ele>397</ele>
        <time>2009-09-13T07:31:02Z</time>
      </trkpt>
      <trkpt lat="43.64263" lon="6.74548">
        <ele>397</ele>
        <time>2009-09-13T07:31:04Z</time>
      </trkpt>
      <trkpt lat="43.64267" lon="6.74555">
        <ele>397</ele>
        <time>2009-09-13T07:31:06Z</time>
      </trkpt>
      <trkpt lat="43.64271" lon="6.74564">
        <ele>397.3</ele>
        <time>2009-09-13T07:31:08Z</time>
      </trkpt>
      <trkpt lat="43.64276" lon="6.74573">
        <ele>397.6</ele>
        <time>2009-09-13T07:31:10Z</time>
      </trkpt>
      <trkpt lat="43.6428" lon="6.74582">
        <ele>397.9</ele>
        <time>2009-09-13T07:31:12Z</time>
      </trkpt>
      <trkpt lat="43.64283" lon="6.74591">
        <ele>398.1</ele>
        <time>2009-09-13T07:31:14Z</time>
      </trkpt>
      <trkpt lat="43.64287" lon="6.74599">
        <ele>398.2</ele>
        <time>2009-09-13T07:31:16Z</time>
      </trkpt>
      <trkpt lat="43.6429" lon="6.74607">
        <ele>398.4</ele>
        <time>2009-09-13T07:31:18Z</time>
      </trkpt>
      <trkpt lat="43.64293" lon="6.74616">
        <ele>398.4</ele>
        <time>2009-09-13T07:31:20Z</time>
      </trkpt>
      <trkpt lat="43.64296" lon="6.74624">
        <ele>398.3</ele>
        <time>2009-09-13T07:31:22Z</time>
      </trkpt>
      <trkpt lat="43.64299" lon="6.74632">
        <ele>398.2</ele>
        <time>2009-09-13T07:31:24Z</time>
      </trkpt>
      <trkpt lat="43.64303" lon="6.74638">
        <ele>398.1</ele>
        <time>2009-09-13T07:31:26Z</time>
      </trkpt>
      <trkpt lat="43.64307" lon="6.74648">
        <ele>397.9</ele>
        <time>2009-09-13T07:31:28Z</time>
      </trkpt>
      <trkpt lat="43.6431" lon="6.74657">
        <ele>397.7</ele>
        <time>2009-09-13T07:31:30Z</time>
      </trkpt>
      <trkpt lat="43.64314" lon="6.74666">
        <ele>397.4</ele>
        <time>2009-09-13T07:31:32Z</time>
      </trkpt>
      <trkpt lat="43.64318" lon="6.74672">
        <ele>397.1</ele>
        <time>2009-09-13T07:31:33Z</time>
      </trkpt>
      <trkpt lat="43.64322" lon="6.74679">
        <ele>396.9</ele>
        <time>2009-09-13T07:31:34Z</time>
      </trkpt>
      <trkpt lat="43.64325" lon="6.74687">
        <ele>396.6</ele>
        <time>2009-09-13T07:31:35Z</time>
      </trkpt>
      <trkpt lat="43.64328" lon="6.74694">
        <ele>396.4</ele>
        <time>2009-09-13T07:31:36Z</time>
      </trkpt>
      <trkpt lat="43.64332" lon="6.74701">
        <ele>396.1</ele>
        <time>2009-09-13T07:31:37Z</time>
      </trkpt>
      <trkpt lat="43.64336" lon="6.74707">
        <ele>396</ele>
        <time>2009-09-13T07:31:38Z</time>
      </trkpt>
      <trkpt lat="43.64339" lon="6.74714">
        <ele>395.9</ele>
        <time>2009-09-13T07:31:39Z</time>
      </trkpt>
      <trkpt lat="43.64343" lon="6.74721">
        <ele>396</ele>
        <time>2009-09-13T07:31:40Z</time>
      </trkpt>
      <trkpt lat="43.64346" lon="6.74727">
        <ele>396.1</ele>
        <time>2009-09-13T07:31:41Z</time>
      </trkpt>
      <trkpt lat="43.64349" lon="6.74732">
        <ele>396.2</ele>
        <time>2009-09-13T07:31:42Z</time>
      </trkpt>
      <trkpt lat="43.64352" lon="6.74737">
        <ele>396.2</ele>
        <time>2009-09-13T07:31:43Z</time>
      </trkpt>
      <trkpt lat="43.64355" lon="6.74743">
        <ele>396.2</ele>
        <time>2009-09-13T07:31:44Z</time>
      </trkpt>
      <trkpt lat="43.64358" lon="6.74748">
        <ele>396.1</ele>
        <time>2009-09-13T07:31:45Z</time>
      </trkpt>
      <trkpt lat="43.64361" lon="6.74754">
        <ele>396.1</ele>
        <time>2009-09-13T07:31:46Z</time>
      </trkpt>
      <trkpt lat="43.64367" lon="6.74763">
        <ele>396.6</ele>
        <time>2009-09-13T07:31:48Z</time>
      </trkpt>
      <trkpt lat="43.64372" lon="6.74774">
        <ele>396.9</ele>
        <time>2009-09-13T07:31:50Z</time>
      </trkpt>
      <trkpt lat="43.64375" lon="6.74779">
        <ele>397</ele>
        <time>2009-09-13T07:31:51Z</time>
      </trkpt>
      <trkpt lat="43.6438" lon="6.74789">
        <ele>397.1</ele>
        <time>2009-09-13T07:31:53Z</time>
      </trkpt>
      <trkpt lat="43.64386" lon="6.74799">
        <ele>397.1</ele>
        <time>2009-09-13T07:31:55Z</time>
      </trkpt>
      <trkpt lat="43.64391" lon="6.74808">
        <ele>397</ele>
        <time>2009-09-13T07:31:57Z</time>
      </trkpt>
      <trkpt lat="43.64397" lon="6.74817">
        <ele>397</ele>
        <time>2009-09-13T07:31:59Z</time>
      </trkpt>
      <trkpt lat="43.64403" lon="6.74825">
        <ele>397</ele>
        <time>2009-09-13T07:32:01Z</time>
      </trkpt>
      <trkpt lat="43.64406" lon="6.7483">
        <ele>397</ele>
        <time>2009-09-13T07:32:02Z</time>
      </trkpt>
      <trkpt lat="43.64409" lon="6.74836">
        <ele>397</ele>
        <time>2009-09-13T07:32:03Z</time>
      </trkpt>
      <trkpt lat="43.64413" lon="6.74847">
        <ele>397</ele>
        <time>2009-09-13T07:32:05Z</time>
      </trkpt>
      <trkpt lat="43.64416" lon="6.74853">
        <ele>397</ele>
        <time>2009-09-13T07:32:06Z</time>
      </trkpt>
      <trkpt lat="43.64417" lon="6.7486">
        <ele>397</ele>
        <time>2009-09-13T07:32:07Z</time>
      </trkpt>
      <trkpt lat="43.64417" lon="6.74867">
        <ele>397</ele>
        <time>2009-09-13T07:32:08Z</time>
      </trkpt>
      <trkpt lat="43.64415" lon="6.74873">
        <ele>397</ele>
        <time>2009-09-13T07:32:09Z</time>
      </trkpt>
      <trkpt lat="43.64411" lon="6.74877">
        <ele>397</ele>
        <time>2009-09-13T07:32:10Z</time>
      </trkpt>
      <trkpt lat="43.64406" lon="6.74881">
        <ele>397</ele>
        <time>2009-09-13T07:32:11Z</time>
      </trkpt>
      <trkpt lat="43.64401" lon="6.74884">
        <ele>397</ele>
        <time>2009-09-13T07:32:12Z</time>
      </trkpt>
      <trkpt lat="43.64396" lon="6.74886">
        <ele>397</ele>
        <time>2009-09-13T07:32:13Z</time>
      </trkpt>
      <trkpt lat="43.6439" lon="6.74888">
        <ele>397</ele>
        <time>2009-09-13T07:32:14Z</time>
      </trkpt>
      <trkpt lat="43.64386" lon="6.7489">
        <ele>397</ele>
        <time>2009-09-13T07:32:15Z</time>
      </trkpt>
      <trkpt lat="43.64381" lon="6.74893">
        <ele>396.9</ele>
        <time>2009-09-13T07:32:16Z</time>
      </trkpt>
      <trkpt lat="43.64376" lon="6.74903">
        <ele>396.5</ele>
        <time>2009-09-13T07:32:18Z</time>
      </trkpt>
      <trkpt lat="43.64375" lon="6.7491">
        <ele>396.3</ele>
        <time>2009-09-13T07:32:19Z</time>
      </trkpt>
      <trkpt lat="43.64374" lon="6.74917">
        <ele>396</ele>
        <time>2009-09-13T07:32:20Z</time>
      </trkpt>
      <trkpt lat="43.64373" lon="6.74925">
        <ele>396</ele>
        <time>2009-09-13T07:32:21Z</time>
      </trkpt>
      <trkpt lat="43.64372" lon="6.74933">
        <ele>396</ele>
        <time>2009-09-13T07:32:22Z</time>
      </trkpt>
      <trkpt lat="43.6437" lon="6.74941">
        <ele>396</ele>
        <time>2009-09-13T07:32:23Z</time>
      </trkpt>
      <trkpt lat="43.64368" lon="6.74949">
        <ele>395.8</ele>
        <time>2009-09-13T07:32:24Z</time>
      </trkpt>
      <trkpt lat="43.64367" lon="6.74957">
        <ele>395.6</ele>
        <time>2009-09-13T07:32:25Z</time>
      </trkpt>
      <trkpt lat="43.64365" lon="6.74965">
        <ele>395.3</ele>
        <time>2009-09-13T07:32:26Z</time>
      </trkpt>
      <trkpt lat="43.64364" lon="6.74972">
        <ele>395</ele>
        <time>2009-09-13T07:32:27Z</time>
      </trkpt>
      <trkpt lat="43.64363" lon="6.7498">
        <ele>394.8</ele>
        <time>2009-09-13T07:32:28Z</time>
      </trkpt>
      <trkpt lat="43.64361" lon="6.74986">
        <ele>394.5</ele>
        <time>2009-09-13T07:32:29Z</time>
      </trkpt>
      <trkpt lat="43.64355" lon="6.74995">
        <ele>394.4</ele>
        <time>2009-09-13T07:32:31Z</time>
      </trkpt>
      <trkpt lat="43.6435" lon="6.75002">
        <ele>394.4</ele>
        <time>2009-09-13T07:32:33Z</time>
      </trkpt>
      <trkpt lat="43.64342" lon="6.75008">
        <ele>394.5</ele>
        <time>2009-09-13T07:32:35Z</time>
      </trkpt>
      <trkpt lat="43.64334" lon="6.75013">
        <ele>394.5</ele>
        <time>2009-09-13T07:32:37Z</time>
      </trkpt>
      <trkpt lat="43.64329" lon="6.75016">
        <ele>394.4</ele>
        <time>2009-09-13T07:32:38Z</time>
      </trkpt>
      <trkpt lat="43.64321" lon="6.75021">
        <ele>394.3</ele>
        <time>2009-09-13T07:32:40Z</time>
      </trkpt>
      <trkpt lat="43.64314" lon="6.75025">
        <ele>394.1</ele>
        <time>2009-09-13T07:32:42Z</time>
      </trkpt>
      <trkpt lat="43.64308" lon="6.75028">
        <ele>394</ele>
        <time>2009-09-13T07:32:44Z</time>
      </trkpt>
      <trkpt lat="43.64302" lon="6.7503">
        <ele>394</ele>
        <time>2009-09-13T07:32:46Z</time>
      </trkpt>
      <trkpt lat="43.64296" lon="6.75033">
        <ele>394.1</ele>
        <time>2009-09-13T07:32:48Z</time>
      </trkpt>
      <trkpt lat="43.64289" lon="6.75034">
        <ele>394.3</ele>
        <time>2009-09-13T07:32:50Z</time>
      </trkpt>
      <trkpt lat="43.64282" lon="6.75036">
        <ele>394.3</ele>
        <time>2009-09-13T07:32:52Z</time>
      </trkpt>
      <trkpt lat="43.64275" lon="6.7504">
        <ele>394.1</ele>
        <time>2009-09-13T07:32:54Z</time>
      </trkpt>
      <trkpt lat="43.6427" lon="6.75049">
        <ele>393.5</ele>
        <time>2009-09-13T07:32:56Z</time>
      </trkpt>
      <trkpt lat="43.64267" lon="6.75056">
        <ele>393</ele>
        <time>2009-09-13T07:32:57Z</time>
      </trkpt>
      <trkpt lat="43.64261" lon="6.75068">
        <ele>391.8</ele>
        <time>2009-09-13T07:32:58Z</time>
      </trkpt>
      <trkpt lat="43.64257" lon="6.75078">
        <ele>390.8</ele>
        <time>2009-09-13T07:32:59Z</time>
      </trkpt>
      <trkpt lat="43.64254" lon="6.75088">
        <ele>390.1</ele>
        <time>2009-09-13T07:33:00Z</time>
      </trkpt>
      <trkpt lat="43.64251" lon="6.75098">
        <ele>390</ele>
        <time>2009-09-13T07:33:01Z</time>
      </trkpt>
      <trkpt lat="43.64248" lon="6.75106">
        <ele>389.9</ele>
        <time>2009-09-13T07:33:02Z</time>
      </trkpt>
      <trkpt lat="43.64246" lon="6.75114">
        <ele>389.9</ele>
        <time>2009-09-13T07:33:03Z</time>
      </trkpt>
      <trkpt lat="43.64244" lon="6.75121">
        <ele>389.9</ele>
        <time>2009-09-13T07:33:04Z</time>
      </trkpt>
      <trkpt lat="43.64243" lon="6.75128">
        <ele>389.9</ele>
        <time>2009-09-13T07:33:05Z</time>
      </trkpt>
      <trkpt lat="43.64242" lon="6.75135">
        <ele>390</ele>
        <time>2009-09-13T07:33:06Z</time>
      </trkpt>
      <trkpt lat="43.6424" lon="6.75146">
        <ele>390.5</ele>
        <time>2009-09-13T07:33:08Z</time>
      </trkpt>
      <trkpt lat="43.64237" lon="6.75156">
        <ele>391.3</ele>
        <time>2009-09-13T07:33:10Z</time>
      </trkpt>
      <trkpt lat="43.64233" lon="6.75165">
        <ele>391.9</ele>
        <time>2009-09-13T07:33:12Z</time>
      </trkpt>
      <trkpt lat="43.64229" lon="6.75172">
        <ele>392.4</ele>
        <time>2009-09-13T07:33:14Z</time>
      </trkpt>
      <trkpt lat="43.64227" lon="6.7518">
        <ele>393</ele>
        <time>2009-09-13T07:33:16Z</time>
      </trkpt>
      <trkpt lat="43.64224" lon="6.75187">
        <ele>393.5</ele>
        <time>2009-09-13T07:33:18Z</time>
      </trkpt>
      <trkpt lat="43.64223" lon="6.75194">
        <ele>394</ele>
        <time>2009-09-13T07:33:20Z</time>
      </trkpt>
      <trkpt lat="43.6422" lon="6.75201">
        <ele>394.5</ele>
        <time>2009-09-13T07:33:22Z</time>
      </trkpt>
      <trkpt lat="43.64216" lon="6.75205">
        <ele>394.8</ele>
        <time>2009-09-13T07:33:24Z</time>
      </trkpt>
      <trkpt lat="43.64211" lon="6.75206">
        <ele>395</ele>
        <time>2009-09-13T07:33:26Z</time>
      </trkpt>
      <trkpt lat="43.64206" lon="6.75209">
        <ele>395.4</ele>
        <time>2009-09-13T07:33:28Z</time>
      </trkpt>
      <trkpt lat="43.642" lon="6.75214">
        <ele>395.9</ele>
        <time>2009-09-13T07:33:30Z</time>
      </trkpt>
      <trkpt lat="43.64198" lon="6.75222">
        <ele>396.8</ele>
        <time>2009-09-13T07:33:33Z</time>
      </trkpt>
      <trkpt lat="43.64199" lon="6.75229">
        <ele>397.1</ele>
        <time>2009-09-13T07:33:36Z</time>
      </trkpt>
      <trkpt lat="43.64201" lon="6.75237">
        <ele>397.4</ele>
        <time>2009-09-13T07:33:39Z</time>
      </trkpt>
      <trkpt lat="43.64204" lon="6.75244">
        <ele>397.7</ele>
        <time>2009-09-13T07:33:42Z</time>
      </trkpt>
      <trkpt lat="43.64206" lon="6.7525">
        <ele>398</ele>
        <time>2009-09-13T07:33:44Z</time>
      </trkpt>
      <trkpt lat="43.64209" lon="6.75258">
        <ele>398.4</ele>
        <time>2009-09-13T07:33:46Z</time>
      </trkpt>
      <trkpt lat="43.64211" lon="6.75265">
        <ele>398.8</ele>
        <time>2009-09-13T07:33:48Z</time>
      </trkpt>
      <trkpt lat="43.64213" lon="6.75272">
        <ele>399.1</ele>
        <time>2009-09-13T07:33:50Z</time>
      </trkpt>
      <trkpt lat="43.64215" lon="6.75278">
        <ele>399.3</ele>
        <time>2009-09-13T07:33:52Z</time>
      </trkpt>
      <trkpt lat="43.64217" lon="6.75287">
        <ele>399.2</ele>
        <time>2009-09-13T07:33:55Z</time>
      </trkpt>
      <trkpt lat="43.64219" lon="6.75296">
        <ele>399.1</ele>
        <time>2009-09-13T07:33:58Z</time>
      </trkpt>
      <trkpt lat="43.64222" lon="6.75304">
        <ele>399</ele>
        <time>2009-09-13T07:34:00Z</time>
      </trkpt>
      <trkpt lat="43.64226" lon="6.75314">
        <ele>398.6</ele>
        <time>2009-09-13T07:34:02Z</time>
      </trkpt>
      <trkpt lat="43.64229" lon="6.75322">
        <ele>398.2</ele>
        <time>2009-09-13T07:34:04Z</time>
      </trkpt>
      <trkpt lat="43.64232" lon="6.75331">
        <ele>397.7</ele>
        <time>2009-09-13T07:34:06Z</time>
      </trkpt>
      <trkpt lat="43.64237" lon="6.75341">
        <ele>397.3</ele>
        <time>2009-09-13T07:34:08Z</time>
      </trkpt>
      <trkpt lat="43.64241" lon="6.75352">
        <ele>397.1</ele>
        <time>2009-09-13T07:34:10Z</time>
      </trkpt>
      <trkpt lat="43.64246" lon="6.75364">
        <ele>396.9</ele>
        <time>2009-09-13T07:34:12Z</time>
      </trkpt>
      <trkpt lat="43.64251" lon="6.75374">
        <ele>396.5</ele>
        <time>2009-09-13T07:34:14Z</time>
      </trkpt>
      <trkpt lat="43.64253" lon="6.7538">
        <ele>396.3</ele>
        <time>2009-09-13T07:34:15Z</time>
      </trkpt>
      <trkpt lat="43.64256" lon="6.75387">
        <ele>396.1</ele>
        <time>2009-09-13T07:34:16Z</time>
      </trkpt>
      <trkpt lat="43.64259" lon="6.75393">
        <ele>395.9</ele>
        <time>2009-09-13T07:34:17Z</time>
      </trkpt>
      <trkpt lat="43.64262" lon="6.75399">
        <ele>395.6</ele>
        <time>2009-09-13T07:34:18Z</time>
      </trkpt>
      <trkpt lat="43.64265" lon="6.75406">
        <ele>395.4</ele>
        <time>2009-09-13T07:34:19Z</time>
      </trkpt>
      <trkpt lat="43.64268" lon="6.75413">
        <ele>395.1</ele>
        <time>2009-09-13T07:34:20Z</time>
      </trkpt>
      <trkpt lat="43.64271" lon="6.7542">
        <ele>394.9</ele>
        <time>2009-09-13T07:34:21Z</time>
      </trkpt>
      <trkpt lat="43.64276" lon="6.75424">
        <ele>394.7</ele>
        <time>2009-09-13T07:34:22Z</time>
      </trkpt>
      <trkpt lat="43.64282" lon="6.75427">
        <ele>394.6</ele>
        <time>2009-09-13T07:34:23Z</time>
      </trkpt>
      <trkpt lat="43.64288" lon="6.75428">
        <ele>394.6</ele>
        <time>2009-09-13T07:34:24Z</time>
      </trkpt>
      <trkpt lat="43.64294" lon="6.75428">
        <ele>394.6</ele>
        <time>2009-09-13T07:34:25Z</time>
      </trkpt>
      <trkpt lat="43.643" lon="6.75427">
        <ele>394.6</ele>
        <time>2009-09-13T07:34:26Z</time>
      </trkpt>
      <trkpt lat="43.64305" lon="6.75427">
        <ele>394.6</ele>
        <time>2009-09-13T07:34:27Z</time>
      </trkpt>
      <trkpt lat="43.6431" lon="6.75427">
        <ele>394.7</ele>
        <time>2009-09-13T07:34:28Z</time>
      </trkpt>
      <trkpt lat="43.64316" lon="6.75428">
        <ele>394.8</ele>
        <time>2009-09-13T07:34:29Z</time>
      </trkpt>
      <trkpt lat="43.64321" lon="6.75429">
        <ele>394.8</ele>
        <time>2009-09-13T07:34:30Z</time>
      </trkpt>
      <trkpt lat="43.64326" lon="6.75432">
        <ele>394.8</ele>
        <time>2009-09-13T07:34:31Z</time>
      </trkpt>
      <trkpt lat="43.64331" lon="6.75435">
        <ele>394.7</ele>
        <time>2009-09-13T07:34:32Z</time>
      </trkpt>
      <trkpt lat="43.64336" lon="6.7544">
        <ele>394.3</ele>
        <time>2009-09-13T07:34:33Z</time>
      </trkpt>
      <trkpt lat="43.6434" lon="6.75445">
        <ele>394</ele>
        <time>2009-09-13T07:34:34Z</time>
      </trkpt>
      <trkpt lat="43.64344" lon="6.75451">
        <ele>393.9</ele>
        <time>2009-09-13T07:34:35Z</time>
      </trkpt>
      <trkpt lat="43.64349" lon="6.75457">
        <ele>393.8</ele>
        <time>2009-09-13T07:34:36Z</time>
      </trkpt>
      <trkpt lat="43.64353" lon="6.75462">
        <ele>393.8</ele>
        <time>2009-09-13T07:34:37Z</time>
      </trkpt>
      <trkpt lat="43.64357" lon="6.75468">
        <ele>393.9</ele>
        <time>2009-09-13T07:34:38Z</time>
      </trkpt>
      <trkpt lat="43.64361" lon="6.75474">
        <ele>393.9</ele>
        <time>2009-09-13T07:34:39Z</time>
      </trkpt>
      <trkpt lat="43.64365" lon="6.7548">
        <ele>393.8</ele>
        <time>2009-09-13T07:34:40Z</time>
      </trkpt>
      <trkpt lat="43.64369" lon="6.75487">
        <ele>393.8</ele>
        <time>2009-09-13T07:34:41Z</time>
      </trkpt>
      <trkpt lat="43.64372" lon="6.75493">
        <ele>393.8</ele>
        <time>2009-09-13T07:34:42Z</time>
      </trkpt>
      <trkpt lat="43.64376" lon="6.75498">
        <ele>394</ele>
        <time>2009-09-13T07:34:43Z</time>
      </trkpt>
      <trkpt lat="43.64379" lon="6.75504">
        <ele>394.3</ele>
        <time>2009-09-13T07:34:44Z</time>
      </trkpt>
      <trkpt lat="43.64382" lon="6.75509">
        <ele>394.6</ele>
        <time>2009-09-13T07:34:45Z</time>
      </trkpt>
      <trkpt lat="43.64385" lon="6.75518">
        <ele>395.2</ele>
        <time>2009-09-13T07:34:47Z</time>
      </trkpt>
      <trkpt lat="43.64387" lon="6.75526">
        <ele>395.7</ele>
        <time>2009-09-13T07:34:49Z</time>
      </trkpt>
      <trkpt lat="43.64389" lon="6.75535">
        <ele>396.2</ele>
        <time>2009-09-13T07:34:51Z</time>
      </trkpt>
      <trkpt lat="43.64391" lon="6.75545">
        <ele>396.7</ele>
        <time>2009-09-13T07:34:53Z</time>
      </trkpt>
      <trkpt lat="43.64393" lon="6.75555">
        <ele>397.1</ele>
        <time>2009-09-13T07:34:55Z</time>
      </trkpt>
      <trkpt lat="43.64394" lon="6.75564">
        <ele>396.8</ele>
        <time>2009-09-13T07:34:57Z</time>
      </trkpt>
      <trkpt lat="43.64397" lon="6.75575">
        <ele>396.4</ele>
        <time>2009-09-13T07:34:59Z</time>
      </trkpt>
      <trkpt lat="43.644" lon="6.75586">
        <ele>395.9</ele>
        <time>2009-09-13T07:35:01Z</time>
      </trkpt>
      <trkpt lat="43.64402" lon="6.75591">
        <ele>395.7</ele>
        <time>2009-09-13T07:35:02Z</time>
      </trkpt>
      <trkpt lat="43.64404" lon="6.75598">
        <ele>395.5</ele>
        <time>2009-09-13T07:35:03Z</time>
      </trkpt>
      <trkpt lat="43.64407" lon="6.75605">
        <ele>395.5</ele>
        <time>2009-09-13T07:35:04Z</time>
      </trkpt>
      <trkpt lat="43.64409" lon="6.75611">
        <ele>395.5</ele>
        <time>2009-09-13T07:35:05Z</time>
      </trkpt>
      <trkpt lat="43.64411" lon="6.75617">
        <ele>395.4</ele>
        <time>2009-09-13T07:35:06Z</time>
      </trkpt>
      <trkpt lat="43.64414" lon="6.75624">
        <ele>395.3</ele>
        <time>2009-09-13T07:35:07Z</time>
      </trkpt>
      <trkpt lat="43.64416" lon="6.75631">
        <ele>395.2</ele>
        <time>2009-09-13T07:35:08Z</time>
      </trkpt>
      <trkpt lat="43.64418" lon="6.75638">
        <ele>395.1</ele>
        <time>2009-09-13T07:35:09Z</time>
      </trkpt>
      <trkpt lat="43.64421" lon="6.75643">
        <ele>395.3</ele>
        <time>2009-09-13T07:35:10Z</time>
      </trkpt>
      <trkpt lat="43.64426" lon="6.75653">
        <ele>396</ele>
        <time>2009-09-13T07:35:12Z</time>
      </trkpt>
      <trkpt lat="43.64431" lon="6.75662">
        <ele>396.8</ele>
        <time>2009-09-13T07:35:14Z</time>
      </trkpt>
      <trkpt lat="43.64435" lon="6.7567">
        <ele>397.3</ele>
        <time>2009-09-13T07:35:16Z</time>
      </trkpt>
      <trkpt lat="43.64436" lon="6.75679">
        <ele>397.4</ele>
        <time>2009-09-13T07:35:18Z</time>
      </trkpt>
      <trkpt lat="43.64435" lon="6.75689">
        <ele>397.3</ele>
        <time>2009-09-13T07:35:20Z</time>
      </trkpt>
      <trkpt lat="43.64434" lon="6.757">
        <ele>397.2</ele>
        <time>2009-09-13T07:35:22Z</time>
      </trkpt>
      <trkpt lat="43.64432" lon="6.75712">
        <ele>397.1</ele>
        <time>2009-09-13T07:35:24Z</time>
      </trkpt>
      <trkpt lat="43.64431" lon="6.75726">
        <ele>397</ele>
        <time>2009-09-13T07:35:26Z</time>
      </trkpt>
      <trkpt lat="43.64431" lon="6.75733">
        <ele>396.8</ele>
        <time>2009-09-13T07:35:27Z</time>
      </trkpt>
      <trkpt lat="43.6443" lon="6.75741">
        <ele>396.6</ele>
        <time>2009-09-13T07:35:28Z</time>
      </trkpt>
      <trkpt lat="43.64429" lon="6.75749">
        <ele>396.4</ele>
        <time>2009-09-13T07:35:29Z</time>
      </trkpt>
      <trkpt lat="43.64428" lon="6.75756">
        <ele>396.2</ele>
        <time>2009-09-13T07:35:30Z</time>
      </trkpt>
      <trkpt lat="43.64427" lon="6.75762">
        <ele>395.8</ele>
        <time>2009-09-13T07:35:31Z</time>
      </trkpt>
      <trkpt lat="43.64427" lon="6.75774">
        <ele>395.2</ele>
        <time>2009-09-13T07:35:33Z</time>
      </trkpt>
      <trkpt lat="43.64425" lon="6.75782">
        <ele>395.1</ele>
        <time>2009-09-13T07:35:35Z</time>
      </trkpt>
      <trkpt lat="43.6442" lon="6.75788">
        <ele>395</ele>
        <time>2009-09-13T07:35:38Z</time>
      </trkpt>
      <trkpt lat="43.64415" lon="6.75791">
        <ele>394.8</ele>
        <time>2009-09-13T07:35:40Z</time>
      </trkpt>
      <trkpt lat="43.64411" lon="6.75794">
        <ele>394.7</ele>
        <time>2009-09-13T07:35:42Z</time>
      </trkpt>
      <trkpt lat="43.64409" lon="6.75802">
        <ele>395</ele>
        <time>2009-09-13T07:35:45Z</time>
      </trkpt>
      <trkpt lat="43.64412" lon="6.75811">
        <ele>395.8</ele>
        <time>2009-09-13T07:35:51Z</time>
      </trkpt>
      <trkpt lat="43.64411" lon="6.7582">
        <ele>396.4</ele>
        <time>2009-09-13T07:35:55Z</time>
      </trkpt>
      <trkpt lat="43.64408" lon="6.75827">
        <ele>396.6</ele>
        <time>2009-09-13T07:35:58Z</time>
      </trkpt>
      <trkpt lat="43.64408" lon="6.75835">
        <ele>397.1</ele>
        <time>2009-09-13T07:36:01Z</time>
      </trkpt>
      <trkpt lat="43.64408" lon="6.75844">
        <ele>397.5</ele>
        <time>2009-09-13T07:36:04Z</time>
      </trkpt>
      <trkpt lat="43.64409" lon="6.75853">
        <ele>397.9</ele>
        <time>2009-09-13T07:36:07Z</time>
      </trkpt>
      <trkpt lat="43.64412" lon="6.7586">
        <ele>398.4</ele>
        <time>2009-09-13T07:36:09Z</time>
      </trkpt>
      <trkpt lat="43.64415" lon="6.75866">
        <ele>398.6</ele>
        <time>2009-09-13T07:36:11Z</time>
      </trkpt>
      <trkpt lat="43.64417" lon="6.75872">
        <ele>398.6</ele>
        <time>2009-09-13T07:36:13Z</time>
      </trkpt>
      <trkpt lat="43.64419" lon="6.75879">
        <ele>398.5</ele>
        <time>2009-09-13T07:36:15Z</time>
      </trkpt>
      <trkpt lat="43.64423" lon="6.75886">
        <ele>398.5</ele>
        <time>2009-09-13T07:36:18Z</time>
      </trkpt>
      <trkpt lat="43.64428" lon="6.75892">
        <ele>398.8</ele>
        <time>2009-09-13T07:36:21Z</time>
      </trkpt>
      <trkpt lat="43.64432" lon="6.75895">
        <ele>399.1</ele>
        <time>2009-09-13T07:36:23Z</time>
      </trkpt>
      <trkpt lat="43.64439" lon="6.75896">
        <ele>399.6</ele>
        <time>2009-09-13T07:36:26Z</time>
      </trkpt>
      <trkpt lat="43.64445" lon="6.75896">
        <ele>400</ele>
        <time>2009-09-13T07:36:28Z</time>
      </trkpt>
      <trkpt lat="43.64451" lon="6.75897">
        <ele>400</ele>
        <time>2009-09-13T07:36:30Z</time>
      </trkpt>
      <trkpt lat="43.64456" lon="6.75897">
        <ele>400</ele>
        <time>2009-09-13T07:36:32Z</time>
      </trkpt>
      <trkpt lat="43.64462" lon="6.75897">
        <ele>400</ele>
        <time>2009-09-13T07:36:34Z</time>
      </trkpt>
      <trkpt lat="43.64467" lon="6.75896">
        <ele>400</ele>
        <time>2009-09-13T07:36:36Z</time>
      </trkpt>
      <trkpt lat="43.64473" lon="6.75895">
        <ele>400</ele>
        <time>2009-09-13T07:36:38Z</time>
      </trkpt>
      <trkpt lat="43.64479" lon="6.75897">
        <ele>400.3</ele>
        <time>2009-09-13T07:36:40Z</time>
      </trkpt>
      <trkpt lat="43.64484" lon="6.75899">
        <ele>400.6</ele>
        <time>2009-09-13T07:36:45Z</time>
      </trkpt>
      <trkpt lat="43.64489" lon="6.75902">
        <ele>400.9</ele>
        <time>2009-09-13T07:36:48Z</time>
      </trkpt>
      <trkpt lat="43.64491" lon="6.75908">
        <ele>401.1</ele>
        <time>2009-09-13T07:36:50Z</time>
      </trkpt>
      <trkpt lat="43.64493" lon="6.75914">
        <ele>401.4</ele>
        <time>2009-09-13T07:36:52Z</time>
      </trkpt>
      <trkpt lat="43.64496" lon="6.75922">
        <ele>401.7</ele>
        <time>2009-09-13T07:36:55Z</time>
      </trkpt>
      <trkpt lat="43.64496" lon="6.75929">
        <ele>401.7</ele>
        <time>2009-09-13T07:36:59Z</time>
      </trkpt>
      <trkpt lat="43.64502" lon="6.75932">
        <ele>402.1</ele>
        <time>2009-09-13T07:37:06Z</time>
      </trkpt>
      <trkpt lat="43.64507" lon="6.75928">
        <ele>402.5</ele>
        <time>2009-09-13T07:37:10Z</time>
      </trkpt>
      <trkpt lat="43.64512" lon="6.75931">
        <ele>402.9</ele>
        <time>2009-09-13T07:37:14Z</time>
      </trkpt>
      <trkpt lat="43.64515" lon="6.75939">
        <ele>403.1</ele>
        <time>2009-09-13T07:37:17Z</time>
      </trkpt>
      <trkpt lat="43.64518" lon="6.75944">
        <ele>403.3</ele>
        <time>2009-09-13T07:37:19Z</time>
      </trkpt>
      <trkpt lat="43.64523" lon="6.75948">
        <ele>403.5</ele>
        <time>2009-09-13T07:37:21Z</time>
      </trkpt>
      <trkpt lat="43.64527" lon="6.7595">
        <ele>403.7</ele>
        <time>2009-09-13T07:37:23Z</time>
      </trkpt>
      <trkpt lat="43.6453" lon="6.75955">
        <ele>403.7</ele>
        <time>2009-09-13T07:37:25Z</time>
      </trkpt>
      <trkpt lat="43.64531" lon="6.75963">
        <ele>403.5</ele>
        <time>2009-09-13T07:37:27Z</time>
      </trkpt>
      <trkpt lat="43.6453" lon="6.75971">
        <ele>403.2</ele>
        <time>2009-09-13T07:37:29Z</time>
      </trkpt>
      <trkpt lat="43.64526" lon="6.75978">
        <ele>403.1</ele>
        <time>2009-09-13T07:37:31Z</time>
      </trkpt>
      <trkpt lat="43.64523" lon="6.75986">
        <ele>403.2</ele>
        <time>2009-09-13T07:37:33Z</time>
      </trkpt>
      <trkpt lat="43.64522" lon="6.75994">
        <ele>403.4</ele>
        <time>2009-09-13T07:37:35Z</time>
      </trkpt>
      <trkpt lat="43.64526" lon="6.76">
        <ele>403.8</ele>
        <time>2009-09-13T07:37:37Z</time>
      </trkpt>
      <trkpt lat="43.64533" lon="6.76002">
        <ele>404.2</ele>
        <time>2009-09-13T07:38:15Z</time>
      </trkpt>
      <trkpt lat="43.64539" lon="6.76001">
        <ele>404.4</ele>
        <time>2009-09-13T07:38:18Z</time>
      </trkpt>
      <trkpt lat="43.64543" lon="6.76004">
        <ele>404.5</ele>
        <time>2009-09-13T07:38:20Z</time>
      </trkpt>
      <trkpt lat="43.64548" lon="6.76007">
        <ele>404.7</ele>
        <time>2009-09-13T07:38:22Z</time>
      </trkpt>
      <trkpt lat="43.64552" lon="6.76009">
        <ele>404.9</ele>
        <time>2009-09-13T07:38:24Z</time>
      </trkpt>
      <trkpt lat="43.64556" lon="6.76014">
        <ele>405</ele>
        <time>2009-09-13T07:38:26Z</time>
      </trkpt>
      <trkpt lat="43.64562" lon="6.76015">
        <ele>405.4</ele>
        <time>2009-09-13T07:38:28Z</time>
      </trkpt>
      <trkpt lat="43.64568" lon="6.76016">
        <ele>405.9</ele>
        <time>2009-09-13T07:38:30Z</time>
      </trkpt>
      <trkpt lat="43.64574" lon="6.76019">
        <ele>406.4</ele>
        <time>2009-09-13T07:38:32Z</time>
      </trkpt>
      <trkpt lat="43.64581" lon="6.76021">
        <ele>406.8</ele>
        <time>2009-09-13T07:38:34Z</time>
      </trkpt>
      <trkpt lat="43.64587" lon="6.76022">
        <ele>407.2</ele>
        <time>2009-09-13T07:38:36Z</time>
      </trkpt>
      <trkpt lat="43.64592" lon="6.76026">
        <ele>407.6</ele>
        <time>2009-09-13T07:38:38Z</time>
      </trkpt>
      <trkpt lat="43.64597" lon="6.76033">
        <ele>408</ele>
        <time>2009-09-13T07:38:40Z</time>
      </trkpt>
      <trkpt lat="43.646" lon="6.76038">
        <ele>408.5</ele>
        <time>2009-09-13T07:38:42Z</time>
      </trkpt>
      <trkpt lat="43.64605" lon="6.76043">
        <ele>409</ele>
        <time>2009-09-13T07:38:44Z</time>
      </trkpt>
      <trkpt lat="43.64609" lon="6.76047">
        <ele>409.5</ele>
        <time>2009-09-13T07:38:46Z</time>
      </trkpt>
      <trkpt lat="43.64614" lon="6.7605">
        <ele>410.1</ele>
        <time>2009-09-13T07:38:48Z</time>
      </trkpt>
      <trkpt lat="43.6462" lon="6.76052">
        <ele>410.8</ele>
        <time>2009-09-13T07:38:51Z</time>
      </trkpt>
      <trkpt lat="43.64624" lon="6.76055">
        <ele>411.4</ele>
        <time>2009-09-13T07:38:53Z</time>
      </trkpt>
      <trkpt lat="43.64629" lon="6.76058">
        <ele>411.9</ele>
        <time>2009-09-13T07:38:56Z</time>
      </trkpt>
      <trkpt lat="43.64631" lon="6.76064">
        <ele>412.1</ele>
        <time>2009-09-13T07:39:22Z</time>
      </trkpt>
      <trkpt lat="43.64636" lon="6.76064">
        <ele>412.7</ele>
        <time>2009-09-13T07:40:27Z</time>
      </trkpt>
      <trkpt lat="43.64641" lon="6.76067">
        <ele>413.2</ele>
        <time>2009-09-13T07:40:32Z</time>
      </trkpt>
      <trkpt lat="43.64646" lon="6.7607">
        <ele>413.5</ele>
        <time>2009-09-13T07:40:36Z</time>
      </trkpt>
      <trkpt lat="43.6465" lon="6.76074">
        <ele>413.8</ele>
        <time>2009-09-13T07:40:40Z</time>
      </trkpt>
      <trkpt lat="43.64654" lon="6.76079">
        <ele>414.1</ele>
        <time>2009-09-13T07:40:44Z</time>
      </trkpt>
      <trkpt lat="43.64657" lon="6.76084">
        <ele>414.3</ele>
        <time>2009-09-13T07:40:47Z</time>
      </trkpt>
      <trkpt lat="43.6466" lon="6.7609">
        <ele>414.5</ele>
        <time>2009-09-13T07:40:51Z</time>
      </trkpt>
      <trkpt lat="43.64663" lon="6.76096">
        <ele>414.7</ele>
        <time>2009-09-13T07:40:56Z</time>
      </trkpt>
      <trkpt lat="43.64666" lon="6.76103">
        <ele>415</ele>
        <time>2009-09-13T07:41:00Z</time>
      </trkpt>
      <trkpt lat="43.64668" lon="6.76109">
        <ele>415.2</ele>
        <time>2009-09-13T07:41:03Z</time>
      </trkpt>
      <trkpt lat="43.6467" lon="6.76118">
        <ele>415.5</ele>
        <time>2009-09-13T07:41:07Z</time>
      </trkpt>
      <trkpt lat="43.64671" lon="6.76127">
        <ele>415.7</ele>
        <time>2009-09-13T07:41:10Z</time>
      </trkpt>
      <trkpt lat="43.64671" lon="6.76134">
        <ele>416</ele>
        <time>2009-09-13T07:41:12Z</time>
      </trkpt>
      <trkpt lat="43.64671" lon="6.76141">
        <ele>416.1</ele>
        <time>2009-09-13T07:41:14Z</time>
      </trkpt>
      <trkpt lat="43.64671" lon="6.76147">
        <ele>416.3</ele>
        <time>2009-09-13T07:41:16Z</time>
      </trkpt>
      <trkpt lat="43.64671" lon="6.76155">
        <ele>416.5</ele>
        <time>2009-09-13T07:41:19Z</time>
      </trkpt>
      <trkpt lat="43.64672" lon="6.76163">
        <ele>416.8</ele>
        <time>2009-09-13T07:41:22Z</time>
      </trkpt>
      <trkpt lat="43.64672" lon="6.76171">
        <ele>417</ele>
        <time>2009-09-13T07:41:25Z</time>
      </trkpt>
      <trkpt lat="43.64674" lon="6.7618">
        <ele>417.3</ele>
        <time>2009-09-13T07:41:28Z</time>
      </trkpt>
      <trkpt lat="43.64676" lon="6.76187">
        <ele>417.6</ele>
        <time>2009-09-13T07:41:30Z</time>
      </trkpt>
      <trkpt lat="43.64678" lon="6.76193">
        <ele>418</ele>
        <time>2009-09-13T07:41:32Z</time>
      </trkpt>
      <trkpt lat="43.6468" lon="6.76202">
        <ele>418.3</ele>
        <time>2009-09-13T07:41:35Z</time>
      </trkpt>
      <trkpt lat="43.64684" lon="6.76208">
        <ele>418.7</ele>
        <time>2009-09-13T07:41:39Z</time>
      </trkpt>
      <trkpt lat="43.64687" lon="6.76214">
        <ele>418.8</ele>
        <time>2009-09-13T07:41:42Z</time>
      </trkpt>
      <trkpt lat="43.64691" lon="6.7622">
        <ele>418.9</ele>
        <time>2009-09-13T07:41:45Z</time>
      </trkpt>
      <trkpt lat="43.64694" lon="6.76225">
        <ele>419.1</ele>
        <time>2009-09-13T07:41:48Z</time>
      </trkpt>
      <trkpt lat="43.64699" lon="6.76229">
        <ele>420</ele>
        <time>2009-09-13T07:41:53Z</time>
      </trkpt>
      <trkpt lat="43.64705" lon="6.76232">
        <ele>421</ele>
        <time>2009-09-13T07:41:57Z</time>
      </trkpt>
      <trkpt lat="43.64709" lon="6.76236">
        <ele>421.8</ele>
        <time>2009-09-13T07:42:00Z</time>
      </trkpt>
      <trkpt lat="43.64713" lon="6.76239">
        <ele>422.6</ele>
        <time>2009-09-13T07:42:03Z</time>
      </trkpt>
      <trkpt lat="43.64718" lon="6.76244">
        <ele>423.3</ele>
        <time>2009-09-13T07:42:06Z</time>
      </trkpt>
      <trkpt lat="43.64722" lon="6.76249">
        <ele>423.9</ele>
        <time>2009-09-13T07:42:09Z</time>
      </trkpt>
      <trkpt lat="43.64725" lon="6.76254">
        <ele>424.6</ele>
        <time>2009-09-13T07:42:12Z</time>
      </trkpt>
      <trkpt lat="43.64727" lon="6.76261">
        <ele>425.3</ele>
        <time>2009-09-13T07:42:15Z</time>
      </trkpt>
      <trkpt lat="43.64727" lon="6.7627">
        <ele>426</ele>
        <time>2009-09-13T07:42:19Z</time>
      </trkpt>
      <trkpt lat="43.64727" lon="6.76279">
        <ele>426.6</ele>
        <time>2009-09-13T07:42:22Z</time>
      </trkpt>
      <trkpt lat="43.64727" lon="6.76288">
        <ele>426.8</ele>
        <time>2009-09-13T07:42:25Z</time>
      </trkpt>
      <trkpt lat="43.64727" lon="6.76296">
        <ele>427.1</ele>
        <time>2009-09-13T07:42:28Z</time>
      </trkpt>
      <trkpt lat="43.64727" lon="6.76304">
        <ele>427.3</ele>
        <time>2009-09-13T07:42:31Z</time>
      </trkpt>
      <trkpt lat="43.64728" lon="6.76313">
        <ele>427.7</ele>
        <time>2009-09-13T07:42:34Z</time>
      </trkpt>
      <trkpt lat="43.64729" lon="6.76321">
        <ele>428.1</ele>
        <time>2009-09-13T07:42:37Z</time>
      </trkpt>
      <trkpt lat="43.64728" lon="6.76329">
        <ele>428.5</ele>
        <time>2009-09-13T07:42:40Z</time>
      </trkpt>
      <trkpt lat="43.64727" lon="6.76337">
        <ele>428.8</ele>
        <time>2009-09-13T07:42:43Z</time>
      </trkpt>
      <trkpt lat="43.64727" lon="6.76346">
        <ele>429.4</ele>
        <time>2009-09-13T07:42:46Z</time>
      </trkpt>
      <trkpt lat="43.64726" lon="6.76355">
        <ele>429.9</ele>
        <time>2009-09-13T07:42:49Z</time>
      </trkpt>
      <trkpt lat="43.64724" lon="6.76362">
        <ele>430.3</ele>
        <time>2009-09-13T07:42:52Z</time>
      </trkpt>
      <trkpt lat="43.64722" lon="6.76371">
        <ele>431</ele>
        <time>2009-09-13T07:42:55Z</time>
      </trkpt>
      <trkpt lat="43.6472" lon="6.76378">
        <ele>431.5</ele>
        <time>2009-09-13T07:42:58Z</time>
      </trkpt>
      <trkpt lat="43.64718" lon="6.76385">
        <ele>432</ele>
        <time>2009-09-13T07:43:01Z</time>
      </trkpt>
      <trkpt lat="43.64715" lon="6.76392">
        <ele>432.1</ele>
        <time>2009-09-13T07:43:04Z</time>
      </trkpt>
      <trkpt lat="43.64712" lon="6.76399">
        <ele>432.2</ele>
        <time>2009-09-13T07:43:07Z</time>
      </trkpt>
      <trkpt lat="43.6471" lon="6.76408">
        <ele>432.6</ele>
        <time>2009-09-13T07:43:10Z</time>
      </trkpt>
      <trkpt lat="43.64708" lon="6.76417">
        <ele>432.9</ele>
        <time>2009-09-13T07:43:13Z</time>
      </trkpt>
      <trkpt lat="43.64707" lon="6.76424">
        <ele>433.4</ele>
        <time>2009-09-13T07:43:15Z</time>
      </trkpt>
      <trkpt lat="43.64706" lon="6.76433">
        <ele>434</ele>
        <time>2009-09-13T07:43:18Z</time>
      </trkpt>
      <trkpt lat="43.64706" lon="6.76441">
        <ele>434.7</ele>
        <time>2009-09-13T07:43:21Z</time>
      </trkpt>
      <trkpt lat="43.64705" lon="6.76448">
        <ele>435.2</ele>
        <time>2009-09-13T07:43:24Z</time>
      </trkpt>
      <trkpt lat="43.64706" lon="6.76455">
        <ele>435.8</ele>
        <time>2009-09-13T07:43:27Z</time>
      </trkpt>
      <trkpt lat="43.64705" lon="6.76463">
        <ele>436.2</ele>
        <time>2009-09-13T07:43:30Z</time>
      </trkpt>
      <trkpt lat="43.64705" lon="6.76472">
        <ele>436.9</ele>
        <time>2009-09-13T07:43:33Z</time>
      </trkpt>
      <trkpt lat="43.64704" lon="6.76478">
        <ele>437.3</ele>
        <time>2009-09-13T07:43:35Z</time>
      </trkpt>
      <trkpt lat="43.64703" lon="6.76487">
        <ele>437.8</ele>
        <time>2009-09-13T07:43:38Z</time>
      </trkpt>
      <trkpt lat="43.647" lon="6.76496">
        <ele>437.9</ele>
        <time>2009-09-13T07:43:41Z</time>
      </trkpt>
      <trkpt lat="43.64697" lon="6.76503">
        <ele>437.8</ele>
        <time>2009-09-13T07:43:44Z</time>
      </trkpt>
      <trkpt lat="43.64695" lon="6.76509">
        <ele>437.9</ele>
        <time>2009-09-13T07:43:46Z</time>
      </trkpt>
      <trkpt lat="43.64694" lon="6.76515">
        <ele>437.9</ele>
        <time>2009-09-13T07:43:48Z</time>
      </trkpt>
      <trkpt lat="43.64691" lon="6.76523">
        <ele>438.1</ele>
        <time>2009-09-13T07:43:51Z</time>
      </trkpt>
      <trkpt lat="43.6469" lon="6.7653">
        <ele>438.3</ele>
        <time>2009-09-13T07:43:53Z</time>
      </trkpt>
      <trkpt lat="43.64688" lon="6.76536">
        <ele>438.7</ele>
        <time>2009-09-13T07:43:55Z</time>
      </trkpt>
      <trkpt lat="43.64688" lon="6.76546">
        <ele>439.5</ele>
        <time>2009-09-13T07:43:58Z</time>
      </trkpt>
      <trkpt lat="43.64687" lon="6.76554">
        <ele>440.1</ele>
        <time>2009-09-13T07:44:01Z</time>
      </trkpt>
      <trkpt lat="43.64686" lon="6.76563">
        <ele>440.6</ele>
        <time>2009-09-13T07:44:04Z</time>
      </trkpt>
      <trkpt lat="43.64684" lon="6.76571">
        <ele>440.9</ele>
        <time>2009-09-13T07:44:07Z</time>
      </trkpt>
      <trkpt lat="43.64683" lon="6.7658">
        <ele>441.3</ele>
        <time>2009-09-13T07:44:10Z</time>
      </trkpt>
      <trkpt lat="43.64683" lon="6.76589">
        <ele>441.6</ele>
        <time>2009-09-13T07:44:13Z</time>
      </trkpt>
      <trkpt lat="43.64682" lon="6.76598">
        <ele>441.8</ele>
        <time>2009-09-13T07:44:16Z</time>
      </trkpt>
      <trkpt lat="43.6468" lon="6.76607">
        <ele>441.7</ele>
        <time>2009-09-13T07:44:19Z</time>
      </trkpt>
      <trkpt lat="43.64678" lon="6.76616">
        <ele>441.5</ele>
        <time>2009-09-13T07:44:22Z</time>
      </trkpt>
      <trkpt lat="43.64677" lon="6.76623">
        <ele>441.2</ele>
        <time>2009-09-13T07:44:24Z</time>
      </trkpt>
      <trkpt lat="43.64676" lon="6.76631">
        <ele>440.9</ele>
        <time>2009-09-13T07:44:26Z</time>
      </trkpt>
      <trkpt lat="43.64675" lon="6.76638">
        <ele>440.6</ele>
        <time>2009-09-13T07:44:28Z</time>
      </trkpt>
      <trkpt lat="43.64674" lon="6.76645">
        <ele>440.4</ele>
        <time>2009-09-13T07:44:30Z</time>
      </trkpt>
      <trkpt lat="43.64675" lon="6.76654">
        <ele>440.4</ele>
        <time>2009-09-13T07:44:32Z</time>
      </trkpt>
      <trkpt lat="43.64677" lon="6.76662">
        <ele>440.4</ele>
        <time>2009-09-13T07:44:34Z</time>
      </trkpt>
      <trkpt lat="43.6468" lon="6.76669">
        <ele>440.4</ele>
        <time>2009-09-13T07:44:36Z</time>
      </trkpt>
      <trkpt lat="43.64684" lon="6.76676">
        <ele>440.5</ele>
        <time>2009-09-13T07:44:38Z</time>
      </trkpt>
      <trkpt lat="43.6469" lon="6.76682">
        <ele>440.7</ele>
        <time>2009-09-13T07:44:40Z</time>
      </trkpt>
      <trkpt lat="43.64696" lon="6.76687">
        <ele>441.1</ele>
        <time>2009-09-13T07:44:42Z</time>
      </trkpt>
      <trkpt lat="43.64702" lon="6.76692">
        <ele>441.3</ele>
        <time>2009-09-13T07:44:44Z</time>
      </trkpt>
      <trkpt lat="43.64708" lon="6.76697">
        <ele>441.4</ele>
        <time>2009-09-13T07:44:46Z</time>
      </trkpt>
      <trkpt lat="43.64714" lon="6.76701">
        <ele>441.4</ele>
        <time>2009-09-13T07:44:48Z</time>
      </trkpt>
      <trkpt lat="43.64719" lon="6.76705">
        <ele>441.5</ele>
        <time>2009-09-13T07:44:50Z</time>
      </trkpt>
      <trkpt lat="43.64724" lon="6.76709">
        <ele>441.7</ele>
        <time>2009-09-13T07:44:52Z</time>
      </trkpt>
      <trkpt lat="43.64729" lon="6.76712">
        <ele>442.1</ele>
        <time>2009-09-13T07:44:54Z</time>
      </trkpt>
      <trkpt lat="43.64735" lon="6.76715">
        <ele>442.6</ele>
        <time>2009-09-13T07:44:57Z</time>
      </trkpt>
      <trkpt lat="43.64741" lon="6.76718">
        <ele>443.1</ele>
        <time>2009-09-13T07:45:00Z</time>
      </trkpt>
      <trkpt lat="43.64746" lon="6.76721">
        <ele>443.6</ele>
        <time>2009-09-13T07:45:03Z</time>
      </trkpt>
      <trkpt lat="43.64751" lon="6.76722">
        <ele>444.1</ele>
        <time>2009-09-13T07:45:06Z</time>
      </trkpt>
      <trkpt lat="43.64756" lon="6.76724">
        <ele>444.8</ele>
        <time>2009-09-13T07:45:09Z</time>
      </trkpt>
      <trkpt lat="43.64761" lon="6.76728">
        <ele>445.5</ele>
        <time>2009-09-13T07:45:14Z</time>
      </trkpt>
      <trkpt lat="43.64764" lon="6.76734">
        <ele>446.4</ele>
        <time>2009-09-13T07:45:17Z</time>
      </trkpt>
      <trkpt lat="43.64766" lon="6.76743">
        <ele>447.3</ele>
        <time>2009-09-13T07:45:20Z</time>
      </trkpt>
      <trkpt lat="43.64767" lon="6.7675">
        <ele>448.1</ele>
        <time>2009-09-13T07:45:22Z</time>
      </trkpt>
      <trkpt lat="43.64768" lon="6.76757">
        <ele>448.9</ele>
        <time>2009-09-13T07:45:24Z</time>
      </trkpt>
      <trkpt lat="43.64769" lon="6.76763">
        <ele>449.5</ele>
        <time>2009-09-13T07:45:26Z</time>
      </trkpt>
      <trkpt lat="43.6477" lon="6.7677">
        <ele>450.2</ele>
        <time>2009-09-13T07:45:28Z</time>
      </trkpt>
      <trkpt lat="43.64771" lon="6.76779">
        <ele>451.1</ele>
        <time>2009-09-13T07:45:31Z</time>
      </trkpt>
      <trkpt lat="43.64774" lon="6.76787">
        <ele>451.7</ele>
        <time>2009-09-13T07:45:34Z</time>
      </trkpt>
      <trkpt lat="43.64777" lon="6.76795">
        <ele>452.6</ele>
        <time>2009-09-13T07:45:37Z</time>
      </trkpt>
      <trkpt lat="43.64781" lon="6.76802">
        <ele>453.3</ele>
        <time>2009-09-13T07:45:40Z</time>
      </trkpt>
      <trkpt lat="43.64784" lon="6.7681">
        <ele>454</ele>
        <time>2009-09-13T07:45:43Z</time>
      </trkpt>
      <trkpt lat="43.64787" lon="6.76818">
        <ele>454.6</ele>
        <time>2009-09-13T07:45:46Z</time>
      </trkpt>
      <trkpt lat="43.64788" lon="6.76826">
        <ele>454.9</ele>
        <time>2009-09-13T07:45:49Z</time>
      </trkpt>
      <trkpt lat="43.64788" lon="6.76834">
        <ele>455.1</ele>
        <time>2009-09-13T07:45:52Z</time>
      </trkpt>
      <trkpt lat="43.6479" lon="6.76842">
        <ele>455.1</ele>
        <time>2009-09-13T07:45:55Z</time>
      </trkpt>
      <trkpt lat="43.64792" lon="6.76848">
        <ele>455.3</ele>
        <time>2009-09-13T07:45:57Z</time>
      </trkpt>
      <trkpt lat="43.64795" lon="6.76856">
        <ele>455.5</ele>
        <time>2009-09-13T07:46:00Z</time>
      </trkpt>
      <trkpt lat="43.64798" lon="6.76864">
        <ele>455.9</ele>
        <time>2009-09-13T07:46:03Z</time>
      </trkpt>
      <trkpt lat="43.64801" lon="6.76869">
        <ele>456.3</ele>
        <time>2009-09-13T07:46:05Z</time>
      </trkpt>
      <trkpt lat="43.64803" lon="6.76874">
        <ele>456.7</ele>
        <time>2009-09-13T07:46:07Z</time>
      </trkpt>
      <trkpt lat="43.64807" lon="6.7688">
        <ele>457.2</ele>
        <time>2009-09-13T07:46:09Z</time>
      </trkpt>
      <trkpt lat="43.64811" lon="6.76885">
        <ele>457.8</ele>
        <time>2009-09-13T07:46:12Z</time>
      </trkpt>
      <trkpt lat="43.64815" lon="6.76889">
        <ele>458.4</ele>
        <time>2009-09-13T07:46:14Z</time>
      </trkpt>
      <trkpt lat="43.64821" lon="6.76892">
        <ele>459.3</ele>
        <time>2009-09-13T07:46:17Z</time>
      </trkpt>
      <trkpt lat="43.64827" lon="6.76894">
        <ele>460.2</ele>
        <time>2009-09-13T07:46:20Z</time>
      </trkpt>
      <trkpt lat="43.64832" lon="6.76892">
        <ele>460.9</ele>
        <time>2009-09-13T07:46:23Z</time>
      </trkpt>
      <trkpt lat="43.64836" lon="6.76889">
        <ele>461.4</ele>
        <time>2009-09-13T07:46:26Z</time>
      </trkpt>
      <trkpt lat="43.64842" lon="6.76886">
        <ele>462.1</ele>
        <time>2009-09-13T07:46:30Z</time>
      </trkpt>
      <trkpt lat="43.64846" lon="6.76883">
        <ele>462.7</ele>
        <time>2009-09-13T07:46:33Z</time>
      </trkpt>
      <trkpt lat="43.64851" lon="6.76881">
        <ele>463.4</ele>
        <time>2009-09-13T07:46:36Z</time>
      </trkpt>
      <trkpt lat="43.64856" lon="6.76878">
        <ele>463.9</ele>
        <time>2009-09-13T07:46:39Z</time>
      </trkpt>
      <trkpt lat="43.64861" lon="6.76876">
        <ele>464.5</ele>
        <time>2009-09-13T07:46:42Z</time>
      </trkpt>
      <trkpt lat="43.64866" lon="6.76873">
        <ele>465.1</ele>
        <time>2009-09-13T07:46:45Z</time>
      </trkpt>
      <trkpt lat="43.64872" lon="6.76871">
        <ele>465.8</ele>
        <time>2009-09-13T07:46:48Z</time>
      </trkpt>
      <trkpt lat="43.64877" lon="6.76868">
        <ele>466.5</ele>
        <time>2009-09-13T07:46:51Z</time>
      </trkpt>
      <trkpt lat="43.64882" lon="6.76865">
        <ele>467.1</ele>
        <time>2009-09-13T07:46:54Z</time>
      </trkpt>
      <trkpt lat="43.64887" lon="6.76862">
        <ele>467.7</ele>
        <time>2009-09-13T07:46:57Z</time>
      </trkpt>
      <trkpt lat="43.64892" lon="6.76858">
        <ele>468.3</ele>
        <time>2009-09-13T07:47:01Z</time>
      </trkpt>
      <trkpt lat="43.64896" lon="6.76854">
        <ele>468.8</ele>
        <time>2009-09-13T07:47:04Z</time>
      </trkpt>
      <trkpt lat="43.64901" lon="6.76849">
        <ele>469.2</ele>
        <time>2009-09-13T07:47:07Z</time>
      </trkpt>
      <trkpt lat="43.64905" lon="6.76844">
        <ele>469.7</ele>
        <time>2009-09-13T07:47:10Z</time>
      </trkpt>
      <trkpt lat="43.6491" lon="6.76841">
        <ele>470.3</ele>
        <time>2009-09-13T07:47:13Z</time>
      </trkpt>
      <trkpt lat="43.64915" lon="6.76836">
        <ele>470.9</ele>
        <time>2009-09-13T07:47:16Z</time>
      </trkpt>
      <trkpt lat="43.6492" lon="6.76833">
        <ele>471.6</ele>
        <time>2009-09-13T07:47:19Z</time>
      </trkpt>
      <trkpt lat="43.64926" lon="6.76829">
        <ele>472.4</ele>
        <time>2009-09-13T07:47:22Z</time>
      </trkpt>
      <trkpt lat="43.64931" lon="6.76825">
        <ele>473</ele>
        <time>2009-09-13T07:47:25Z</time>
      </trkpt>
      <trkpt lat="43.64936" lon="6.7682">
        <ele>473.6</ele>
        <time>2009-09-13T07:47:28Z</time>
      </trkpt>
      <trkpt lat="43.64942" lon="6.76816">
        <ele>474.3</ele>
        <time>2009-09-13T07:47:31Z</time>
      </trkpt>
      <trkpt lat="43.64948" lon="6.76811">
        <ele>475</ele>
        <time>2009-09-13T07:47:34Z</time>
      </trkpt>
      <trkpt lat="43.64953" lon="6.76806">
        <ele>475.6</ele>
        <time>2009-09-13T07:47:37Z</time>
      </trkpt>
      <trkpt lat="43.64958" lon="6.76803">
        <ele>476.2</ele>
        <time>2009-09-13T07:47:40Z</time>
      </trkpt>
      <trkpt lat="43.64963" lon="6.76799">
        <ele>476.8</ele>
        <time>2009-09-13T07:47:43Z</time>
      </trkpt>
      <trkpt lat="43.64967" lon="6.76797">
        <ele>477.5</ele>
        <time>2009-09-13T07:47:46Z</time>
      </trkpt>
      <trkpt lat="43.64973" lon="6.76794">
        <ele>478.3</ele>
        <time>2009-09-13T07:47:50Z</time>
      </trkpt>
      <trkpt lat="43.64979" lon="6.76791">
        <ele>479.1</ele>
        <time>2009-09-13T07:47:54Z</time>
      </trkpt>
      <trkpt lat="43.64985" lon="6.76788">
        <ele>479.9</ele>
        <time>2009-09-13T07:47:58Z</time>
      </trkpt>
      <trkpt lat="43.6499" lon="6.76786">
        <ele>480.4</ele>
        <time>2009-09-13T07:48:01Z</time>
      </trkpt>
      <trkpt lat="43.64994" lon="6.76783">
        <ele>480.8</ele>
        <time>2009-09-13T07:48:04Z</time>
      </trkpt>
      <trkpt lat="43.65" lon="6.76781">
        <ele>481.4</ele>
        <time>2009-09-13T07:48:08Z</time>
      </trkpt>
      <trkpt lat="43.65006" lon="6.76778">
        <ele>482.2</ele>
        <time>2009-09-13T07:48:12Z</time>
      </trkpt>
      <trkpt lat="43.65011" lon="6.76774">
        <ele>483.3</ele>
        <time>2009-09-13T07:48:16Z</time>
      </trkpt>
      <trkpt lat="43.65015" lon="6.76771">
        <ele>484.2</ele>
        <time>2009-09-13T07:48:19Z</time>
      </trkpt>
      <trkpt lat="43.6502" lon="6.76768">
        <ele>485</ele>
        <time>2009-09-13T07:48:22Z</time>
      </trkpt>
      <trkpt lat="43.65024" lon="6.76764">
        <ele>485.7</ele>
        <time>2009-09-13T07:48:25Z</time>
      </trkpt>
      <trkpt lat="43.65028" lon="6.76762">
        <ele>486.5</ele>
        <time>2009-09-13T07:48:29Z</time>
      </trkpt>
      <trkpt lat="43.65033" lon="6.76762">
        <ele>487.1</ele>
        <time>2009-09-13T07:48:45Z</time>
      </trkpt>
      <trkpt lat="43.65032" lon="6.76754">
        <ele>486.8</ele>
        <time>2009-09-13T07:49:28Z</time>
      </trkpt>
      <trkpt lat="43.65031" lon="6.76746">
        <ele>486.8</ele>
        <time>2009-09-13T07:49:32Z</time>
      </trkpt>
      <trkpt lat="43.6503" lon="6.7674">
        <ele>487.1</ele>
        <time>2009-09-13T07:49:35Z</time>
      </trkpt>
      <trkpt lat="43.65029" lon="6.76733">
        <ele>487.4</ele>
        <time>2009-09-13T07:49:38Z</time>
      </trkpt>
      <trkpt lat="43.65028" lon="6.76726">
        <ele>487.8</ele>
        <time>2009-09-13T07:49:42Z</time>
      </trkpt>
      <trkpt lat="43.65027" lon="6.76717">
        <ele>488.4</ele>
        <time>2009-09-13T07:49:45Z</time>
      </trkpt>
      <trkpt lat="43.65026" lon="6.7671">
        <ele>489.1</ele>
        <time>2009-09-13T07:49:48Z</time>
      </trkpt>
      <trkpt lat="43.65024" lon="6.76701">
        <ele>489.9</ele>
        <time>2009-09-13T07:49:51Z</time>
      </trkpt>
      <trkpt lat="43.65021" lon="6.76694">
        <ele>490.3</ele>
        <time>2009-09-13T07:49:54Z</time>
      </trkpt>
      <trkpt lat="43.65017" lon="6.7669">
        <ele>490.6</ele>
        <time>2009-09-13T07:49:57Z</time>
      </trkpt>
      <trkpt lat="43.65012" lon="6.76686">
        <ele>490.8</ele>
        <time>2009-09-13T07:50:00Z</time>
      </trkpt>
      <trkpt lat="43.65008" lon="6.76681">
        <ele>490.9</ele>
        <time>2009-09-13T07:50:03Z</time>
      </trkpt>
      <trkpt lat="43.65002" lon="6.76677">
        <ele>490.7</ele>
        <time>2009-09-13T07:50:06Z</time>
      </trkpt>
      <trkpt lat="43.64997" lon="6.76674">
        <ele>490.8</ele>
        <time>2009-09-13T07:50:08Z</time>
      </trkpt>
      <trkpt lat="43.64992" lon="6.7667">
        <ele>490.9</ele>
        <time>2009-09-13T07:50:10Z</time>
      </trkpt>
      <trkpt lat="43.64987" lon="6.76665">
        <ele>491.3</ele>
        <time>2009-09-13T07:50:12Z</time>
      </trkpt>
      <trkpt lat="43.64983" lon="6.7666">
        <ele>491.4</ele>
        <time>2009-09-13T07:50:14Z</time>
      </trkpt>
      <trkpt lat="43.64978" lon="6.76655">
        <ele>491.5</ele>
        <time>2009-09-13T07:50:16Z</time>
      </trkpt>
      <trkpt lat="43.64974" lon="6.76648">
        <ele>491.5</ele>
        <time>2009-09-13T07:50:18Z</time>
      </trkpt>
      <trkpt lat="43.6497" lon="6.76641">
        <ele>491.4</ele>
        <time>2009-09-13T07:50:20Z</time>
      </trkpt>
      <trkpt lat="43.64967" lon="6.76631">
        <ele>491.6</ele>
        <time>2009-09-13T07:50:22Z</time>
      </trkpt>
      <trkpt lat="43.64964" lon="6.76621">
        <ele>491.8</ele>
        <time>2009-09-13T07:50:24Z</time>
      </trkpt>
      <trkpt lat="43.64962" lon="6.7661">
        <ele>492.2</ele>
        <time>2009-09-13T07:50:26Z</time>
      </trkpt>
      <trkpt lat="43.64962" lon="6.76599">
        <ele>492.1</ele>
        <time>2009-09-13T07:50:28Z</time>
      </trkpt>
      <trkpt lat="43.64963" lon="6.76591">
        <ele>492.3</ele>
        <time>2009-09-13T07:50:30Z</time>
      </trkpt>
      <trkpt lat="43.64967" lon="6.76585">
        <ele>493</ele>
        <time>2009-09-13T07:50:32Z</time>
      </trkpt>
      <trkpt lat="43.64971" lon="6.76583">
        <ele>493.8</ele>
        <time>2009-09-13T07:50:34Z</time>
      </trkpt>
      <trkpt lat="43.64977" lon="6.76582">
        <ele>494.7</ele>
        <time>2009-09-13T07:50:37Z</time>
      </trkpt>
      <trkpt lat="43.64983" lon="6.76583">
        <ele>495.5</ele>
        <time>2009-09-13T07:50:40Z</time>
      </trkpt>
      <trkpt lat="43.64988" lon="6.76584">
        <ele>496.2</ele>
        <time>2009-09-13T07:50:43Z</time>
      </trkpt>
      <trkpt lat="43.64993" lon="6.76585">
        <ele>497</ele>
        <time>2009-09-13T07:50:46Z</time>
      </trkpt>
      <trkpt lat="43.64999" lon="6.76586">
        <ele>497.8</ele>
        <time>2009-09-13T07:50:49Z</time>
      </trkpt>
      <trkpt lat="43.65005" lon="6.76585">
        <ele>498.5</ele>
        <time>2009-09-13T07:50:52Z</time>
      </trkpt>
      <trkpt lat="43.65009" lon="6.76582">
        <ele>499</ele>
        <time>2009-09-13T07:50:55Z</time>
      </trkpt>
      <trkpt lat="43.65013" lon="6.76578">
        <ele>499.2</ele>
        <time>2009-09-13T07:50:58Z</time>
      </trkpt>
      <trkpt lat="43.65018" lon="6.76574">
        <ele>499.6</ele>
        <time>2009-09-13T07:51:02Z</time>
      </trkpt>
      <trkpt lat="43.65023" lon="6.7657">
        <ele>500</ele>
        <time>2009-09-13T07:51:05Z</time>
      </trkpt>
      <trkpt lat="43.65028" lon="6.76567">
        <ele>500.4</ele>
        <time>2009-09-13T07:51:08Z</time>
      </trkpt>
      <trkpt lat="43.65034" lon="6.76563">
        <ele>500.6</ele>
        <time>2009-09-13T07:51:11Z</time>
      </trkpt>
      <trkpt lat="43.65038" lon="6.7656">
        <ele>500.8</ele>
        <time>2009-09-13T07:51:13Z</time>
      </trkpt>
      <trkpt lat="43.65042" lon="6.76557">
        <ele>501.1</ele>
        <time>2009-09-13T07:51:15Z</time>
      </trkpt>
      <trkpt lat="43.65047" lon="6.76554">
        <ele>501.3</ele>
        <time>2009-09-13T07:51:17Z</time>
      </trkpt>
      <trkpt lat="43.65051" lon="6.76551">
        <ele>501.5</ele>
        <time>2009-09-13T07:51:19Z</time>
      </trkpt>
      <trkpt lat="43.65056" lon="6.76547">
        <ele>501.7</ele>
        <time>2009-09-13T07:51:21Z</time>
      </trkpt>
      <trkpt lat="43.6506" lon="6.76544">
        <ele>501.8</ele>
        <time>2009-09-13T07:51:23Z</time>
      </trkpt>
      <trkpt lat="43.65065" lon="6.76542">
        <ele>502</ele>
        <time>2009-09-13T07:51:25Z</time>
      </trkpt>
      <trkpt lat="43.6507" lon="6.76542">
        <ele>502.3</ele>
        <time>2009-09-13T07:51:27Z</time>
      </trkpt>
      <trkpt lat="43.65075" lon="6.76543">
        <ele>502.6</ele>
        <time>2009-09-13T07:51:29Z</time>
      </trkpt>
      <trkpt lat="43.6508" lon="6.76544">
        <ele>502.8</ele>
        <time>2009-09-13T07:51:31Z</time>
      </trkpt>
      <trkpt lat="43.65086" lon="6.76543">
        <ele>503.2</ele>
        <time>2009-09-13T07:51:33Z</time>
      </trkpt>
      <trkpt lat="43.6509" lon="6.76541">
        <ele>503.5</ele>
        <time>2009-09-13T07:51:35Z</time>
      </trkpt>
      <trkpt lat="43.65095" lon="6.76538">
        <ele>503.8</ele>
        <time>2009-09-13T07:51:37Z</time>
      </trkpt>
      <trkpt lat="43.65099" lon="6.76535">
        <ele>504.1</ele>
        <time>2009-09-13T07:51:39Z</time>
      </trkpt>
      <trkpt lat="43.65104" lon="6.76533">
        <ele>504.5</ele>
        <time>2009-09-13T07:51:41Z</time>
      </trkpt>
      <trkpt lat="43.65109" lon="6.7653">
        <ele>504.8</ele>
        <time>2009-09-13T07:51:43Z</time>
      </trkpt>
      <trkpt lat="43.65114" lon="6.76527">
        <ele>505.2</ele>
        <time>2009-09-13T07:51:45Z</time>
      </trkpt>
      <trkpt lat="43.65118" lon="6.76525">
        <ele>505.6</ele>
        <time>2009-09-13T07:51:47Z</time>
      </trkpt>
      <trkpt lat="43.65123" lon="6.76522">
        <ele>506</ele>
        <time>2009-09-13T07:51:49Z</time>
      </trkpt>
      <trkpt lat="43.65128" lon="6.7652">
        <ele>506.5</ele>
        <time>2009-09-13T07:51:51Z</time>
      </trkpt>
      <trkpt lat="43.65134" lon="6.76516">
        <ele>507.1</ele>
        <time>2009-09-13T07:51:54Z</time>
      </trkpt>
      <trkpt lat="43.6514" lon="6.76513">
        <ele>507.5</ele>
        <time>2009-09-13T07:51:57Z</time>
      </trkpt>
      <trkpt lat="43.65146" lon="6.7651">
        <ele>507.7</ele>
        <time>2009-09-13T07:52:00Z</time>
      </trkpt>
      <trkpt lat="43.65152" lon="6.76506">
        <ele>508</ele>
        <time>2009-09-13T07:52:03Z</time>
      </trkpt>
      <trkpt lat="43.65157" lon="6.76501">
        <ele>508.6</ele>
        <time>2009-09-13T07:52:06Z</time>
      </trkpt>
      <trkpt lat="43.65162" lon="6.76495">
        <ele>509.2</ele>
        <time>2009-09-13T07:52:09Z</time>
      </trkpt>
      <trkpt lat="43.65166" lon="6.76488">
        <ele>509.8</ele>
        <time>2009-09-13T07:52:12Z</time>
      </trkpt>
      <trkpt lat="43.65169" lon="6.76481">
        <ele>510.4</ele>
        <time>2009-09-13T07:52:15Z</time>
      </trkpt>
      <trkpt lat="43.65172" lon="6.76474">
        <ele>510.9</ele>
        <time>2009-09-13T07:52:18Z</time>
      </trkpt>
      <trkpt lat="43.65174" lon="6.76468">
        <ele>511.5</ele>
        <time>2009-09-13T07:52:21Z</time>
      </trkpt>
      <trkpt lat="43.65177" lon="6.76461">
        <ele>512.2</ele>
        <time>2009-09-13T07:52:25Z</time>
      </trkpt>
      <trkpt lat="43.65179" lon="6.76455">
        <ele>512.9</ele>
        <time>2009-09-13T07:52:29Z</time>
      </trkpt>
      <trkpt lat="43.65182" lon="6.76448">
        <ele>513.7</ele>
        <time>2009-09-13T07:52:33Z</time>
      </trkpt>
      <trkpt lat="43.65183" lon="6.7644">
        <ele>514.5</ele>
        <time>2009-09-13T07:52:37Z</time>
      </trkpt>
      <trkpt lat="43.65186" lon="6.76432">
        <ele>515.3</ele>
        <time>2009-09-13T07:52:41Z</time>
      </trkpt>
      <trkpt lat="43.65188" lon="6.76426">
        <ele>516</ele>
        <time>2009-09-13T07:52:45Z</time>
      </trkpt>
      <trkpt lat="43.6519" lon="6.76419">
        <ele>516.7</ele>
        <time>2009-09-13T07:52:49Z</time>
      </trkpt>
      <trkpt lat="43.65193" lon="6.76412">
        <ele>517.7</ele>
        <time>2009-09-13T07:52:53Z</time>
      </trkpt>
      <trkpt lat="43.65196" lon="6.76405">
        <ele>518.6</ele>
        <time>2009-09-13T07:52:57Z</time>
      </trkpt>
      <trkpt lat="43.652" lon="6.764">
        <ele>519.2</ele>
        <time>2009-09-13T07:53:01Z</time>
      </trkpt>
      <trkpt lat="43.65203" lon="6.76394">
        <ele>520</ele>
        <time>2009-09-13T07:53:20Z</time>
      </trkpt>
      <trkpt lat="43.65206" lon="6.76388">
        <ele>520.6</ele>
        <time>2009-09-13T07:53:25Z</time>
      </trkpt>
      <trkpt lat="43.65211" lon="6.76385">
        <ele>520.8</ele>
        <time>2009-09-13T07:53:29Z</time>
      </trkpt>
      <trkpt lat="43.65215" lon="6.76383">
        <ele>520.9</ele>
        <time>2009-09-13T07:55:24Z</time>
      </trkpt>
      <trkpt lat="43.6522" lon="6.76383">
        <ele>520.7</ele>
        <time>2009-09-13T07:55:28Z</time>
      </trkpt>
      <trkpt lat="43.65224" lon="6.7639">
        <ele>519.8</ele>
        <time>2009-09-13T07:55:30Z</time>
      </trkpt>
      <trkpt lat="43.65226" lon="6.76402">
        <ele>517.8</ele>
        <time>2009-09-13T07:55:32Z</time>
      </trkpt>
      <trkpt lat="43.65228" lon="6.76409">
        <ele>516.7</ele>
        <time>2009-09-13T07:55:33Z</time>
      </trkpt>
      <trkpt lat="43.6523" lon="6.76417">
        <ele>515.5</ele>
        <time>2009-09-13T07:55:34Z</time>
      </trkpt>
      <trkpt lat="43.65232" lon="6.76424">
        <ele>514.5</ele>
        <time>2009-09-13T07:55:35Z</time>
      </trkpt>
      <trkpt lat="43.65234" lon="6.76434">
        <ele>513</ele>
        <time>2009-09-13T07:55:37Z</time>
      </trkpt>
      <trkpt lat="43.65238" lon="6.76444">
        <ele>511.4</ele>
        <time>2009-09-13T07:55:39Z</time>
      </trkpt>
      <trkpt lat="43.65242" lon="6.76448">
        <ele>510.5</ele>
        <time>2009-09-13T07:55:40Z</time>
      </trkpt>
      <trkpt lat="43.65247" lon="6.76452">
        <ele>509.5</ele>
        <time>2009-09-13T07:55:41Z</time>
      </trkpt>
      <trkpt lat="43.65252" lon="6.76455">
        <ele>508.8</ele>
        <time>2009-09-13T07:55:42Z</time>
      </trkpt>
      <trkpt lat="43.65257" lon="6.76457">
        <ele>508.3</ele>
        <time>2009-09-13T07:55:43Z</time>
      </trkpt>
      <trkpt lat="43.65264" lon="6.76457">
        <ele>507.9</ele>
        <time>2009-09-13T07:55:45Z</time>
      </trkpt>
      <trkpt lat="43.65269" lon="6.76456">
        <ele>507.7</ele>
        <time>2009-09-13T07:55:48Z</time>
      </trkpt>
      <trkpt lat="43.65273" lon="6.76455">
        <ele>507.5</ele>
        <time>2009-09-13T07:55:50Z</time>
      </trkpt>
      <trkpt lat="43.65279" lon="6.76453">
        <ele>507.3</ele>
        <time>2009-09-13T07:55:52Z</time>
      </trkpt>
      <trkpt lat="43.65286" lon="6.76451">
        <ele>507.1</ele>
        <time>2009-09-13T07:55:54Z</time>
      </trkpt>
      <trkpt lat="43.65293" lon="6.76447">
        <ele>506.8</ele>
        <time>2009-09-13T07:55:56Z</time>
      </trkpt>
      <trkpt lat="43.65299" lon="6.76442">
        <ele>506.6</ele>
        <time>2009-09-13T07:55:58Z</time>
      </trkpt>
      <trkpt lat="43.65304" lon="6.76439">
        <ele>506.5</ele>
        <time>2009-09-13T07:56:06Z</time>
      </trkpt>
      <trkpt lat="43.6531" lon="6.76438">
        <ele>506.2</ele>
        <time>2009-09-13T07:56:08Z</time>
      </trkpt>
      <trkpt lat="43.65316" lon="6.76434">
        <ele>505.9</ele>
        <time>2009-09-13T07:56:10Z</time>
      </trkpt>
      <trkpt lat="43.65323" lon="6.7643">
        <ele>505.4</ele>
        <time>2009-09-13T07:56:12Z</time>
      </trkpt>
      <trkpt lat="43.6533" lon="6.76425">
        <ele>505.1</ele>
        <time>2009-09-13T07:56:14Z</time>
      </trkpt>
      <trkpt lat="43.65337" lon="6.76422">
        <ele>504.4</ele>
        <time>2009-09-13T07:56:16Z</time>
      </trkpt>
      <trkpt lat="43.65342" lon="6.76421">
        <ele>503.8</ele>
        <time>2009-09-13T07:56:17Z</time>
      </trkpt>
      <trkpt lat="43.65347" lon="6.76421">
        <ele>503.3</ele>
        <time>2009-09-13T07:56:18Z</time>
      </trkpt>
      <trkpt lat="43.65352" lon="6.76421">
        <ele>502.7</ele>
        <time>2009-09-13T07:56:19Z</time>
      </trkpt>
      <trkpt lat="43.65357" lon="6.7642">
        <ele>502.1</ele>
        <time>2009-09-13T07:56:20Z</time>
      </trkpt>
      <trkpt lat="43.65363" lon="6.7642">
        <ele>501.4</ele>
        <time>2009-09-13T07:56:21Z</time>
      </trkpt>
      <trkpt lat="43.65368" lon="6.76419">
        <ele>500.5</ele>
        <time>2009-09-13T07:56:22Z</time>
      </trkpt>
      <trkpt lat="43.65373" lon="6.76418">
        <ele>499.7</ele>
        <time>2009-09-13T07:56:23Z</time>
      </trkpt>
      <trkpt lat="43.65378" lon="6.76417">
        <ele>498.9</ele>
        <time>2009-09-13T07:56:24Z</time>
      </trkpt>
      <trkpt lat="43.65384" lon="6.76415">
        <ele>498.2</ele>
        <time>2009-09-13T07:56:25Z</time>
      </trkpt>
      <trkpt lat="43.6539" lon="6.76413">
        <ele>497.5</ele>
        <time>2009-09-13T07:56:26Z</time>
      </trkpt>
      <trkpt lat="43.65397" lon="6.76411">
        <ele>496.7</ele>
        <time>2009-09-13T07:56:27Z</time>
      </trkpt>
      <trkpt lat="43.65404" lon="6.76409">
        <ele>495.9</ele>
        <time>2009-09-13T07:56:28Z</time>
      </trkpt>
      <trkpt lat="43.6541" lon="6.76405">
        <ele>495.4</ele>
        <time>2009-09-13T07:56:29Z</time>
      </trkpt>
      <trkpt lat="43.65417" lon="6.76401">
        <ele>494.8</ele>
        <time>2009-09-13T07:56:30Z</time>
      </trkpt>
      <trkpt lat="43.65423" lon="6.76398">
        <ele>494.1</ele>
        <time>2009-09-13T07:56:31Z</time>
      </trkpt>
      <trkpt lat="43.65429" lon="6.76393">
        <ele>493.5</ele>
        <time>2009-09-13T07:56:32Z</time>
      </trkpt>
      <trkpt lat="43.65435" lon="6.76389">
        <ele>493.1</ele>
        <time>2009-09-13T07:56:33Z</time>
      </trkpt>
      <trkpt lat="43.65442" lon="6.76384">
        <ele>492.8</ele>
        <time>2009-09-13T07:56:34Z</time>
      </trkpt>
      <trkpt lat="43.65448" lon="6.76379">
        <ele>492.2</ele>
        <time>2009-09-13T07:56:35Z</time>
      </trkpt>
      <trkpt lat="43.65454" lon="6.76375">
        <ele>491.3</ele>
        <time>2009-09-13T07:56:36Z</time>
      </trkpt>
      <trkpt lat="43.65461" lon="6.76371">
        <ele>490.4</ele>
        <time>2009-09-13T07:56:37Z</time>
      </trkpt>
      <trkpt lat="43.65466" lon="6.76366">
        <ele>489.7</ele>
        <time>2009-09-13T07:56:38Z</time>
      </trkpt>
      <trkpt lat="43.65472" lon="6.76361">
        <ele>489.1</ele>
        <time>2009-09-13T07:56:39Z</time>
      </trkpt>
      <trkpt lat="43.65477" lon="6.76355">
        <ele>488.7</ele>
        <time>2009-09-13T07:56:40Z</time>
      </trkpt>
      <trkpt lat="43.65482" lon="6.7635">
        <ele>488.3</ele>
        <time>2009-09-13T07:56:41Z</time>
      </trkpt>
      <trkpt lat="43.65487" lon="6.76344">
        <ele>487.9</ele>
        <time>2009-09-13T07:56:42Z</time>
      </trkpt>
      <trkpt lat="43.65491" lon="6.76337">
        <ele>487.5</ele>
        <time>2009-09-13T07:56:43Z</time>
      </trkpt>
      <trkpt lat="43.65496" lon="6.76331">
        <ele>486.9</ele>
        <time>2009-09-13T07:56:44Z</time>
      </trkpt>
      <trkpt lat="43.65501" lon="6.76324">
        <ele>486.2</ele>
        <time>2009-09-13T07:56:45Z</time>
      </trkpt>
      <trkpt lat="43.65506" lon="6.76316">
        <ele>486</ele>
        <time>2009-09-13T07:56:46Z</time>
      </trkpt>
      <trkpt lat="43.65511" lon="6.76309">
        <ele>485.8</ele>
        <time>2009-09-13T07:56:47Z</time>
      </trkpt>
      <trkpt lat="43.65516" lon="6.76302">
        <ele>485.3</ele>
        <time>2009-09-13T07:56:48Z</time>
      </trkpt>
      <trkpt lat="43.65522" lon="6.76295">
        <ele>484.7</ele>
        <time>2009-09-13T07:56:49Z</time>
      </trkpt>
      <trkpt lat="43.65527" lon="6.76288">
        <ele>484.3</ele>
        <time>2009-09-13T07:56:50Z</time>
      </trkpt>
      <trkpt lat="43.65532" lon="6.76281">
        <ele>483.9</ele>
        <time>2009-09-13T07:56:51Z</time>
      </trkpt>
      <trkpt lat="43.65536" lon="6.76273">
        <ele>483.9</ele>
        <time>2009-09-13T07:56:52Z</time>
      </trkpt>
      <trkpt lat="43.65541" lon="6.76266">
        <ele>483.9</ele>
        <time>2009-09-13T07:56:53Z</time>
      </trkpt>
      <trkpt lat="43.65545" lon="6.76259">
        <ele>483.8</ele>
        <time>2009-09-13T07:56:54Z</time>
      </trkpt>
      <trkpt lat="43.6555" lon="6.76252">
        <ele>483.3</ele>
        <time>2009-09-13T07:56:55Z</time>
      </trkpt>
      <trkpt lat="43.65555" lon="6.76246">
        <ele>482.9</ele>
        <time>2009-09-13T07:56:56Z</time>
      </trkpt>
      <trkpt lat="43.6556" lon="6.7624">
        <ele>482.5</ele>
        <time>2009-09-13T07:56:57Z</time>
      </trkpt>
      <trkpt lat="43.65565" lon="6.76234">
        <ele>481.8</ele>
        <time>2009-09-13T07:56:58Z</time>
      </trkpt>
      <trkpt lat="43.6557" lon="6.76228">
        <ele>481</ele>
        <time>2009-09-13T07:56:59Z</time>
      </trkpt>
      <trkpt lat="43.65576" lon="6.76222">
        <ele>480.1</ele>
        <time>2009-09-13T07:57:00Z</time>
      </trkpt>
      <trkpt lat="43.65581" lon="6.76216">
        <ele>479.4</ele>
        <time>2009-09-13T07:57:01Z</time>
      </trkpt>
      <trkpt lat="43.65587" lon="6.7621">
        <ele>478.8</ele>
        <time>2009-09-13T07:57:02Z</time>
      </trkpt>
      <trkpt lat="43.65593" lon="6.76204">
        <ele>478.1</ele>
        <time>2009-09-13T07:57:03Z</time>
      </trkpt>
      <trkpt lat="43.65598" lon="6.76198">
        <ele>477.3</ele>
        <time>2009-09-13T07:57:04Z</time>
      </trkpt>
      <trkpt lat="43.65603" lon="6.76193">
        <ele>476.4</ele>
        <time>2009-09-13T07:57:05Z</time>
      </trkpt>
      <trkpt lat="43.65608" lon="6.76187">
        <ele>475.7</ele>
        <time>2009-09-13T07:57:06Z</time>
      </trkpt>
      <trkpt lat="43.65612" lon="6.76181">
        <ele>475.2</ele>
        <time>2009-09-13T07:57:07Z</time>
      </trkpt>
      <trkpt lat="43.65616" lon="6.76175">
        <ele>474.9</ele>
        <time>2009-09-13T07:57:08Z</time>
      </trkpt>
      <trkpt lat="43.6562" lon="6.76168">
        <ele>474.7</ele>
        <time>2009-09-13T07:57:09Z</time>
      </trkpt>
      <trkpt lat="43.65624" lon="6.76161">
        <ele>474.2</ele>
        <time>2009-09-13T07:57:10Z</time>
      </trkpt>
      <trkpt lat="43.65628" lon="6.76154">
        <ele>473.5</ele>
        <time>2009-09-13T07:57:11Z</time>
      </trkpt>
      <trkpt lat="43.65631" lon="6.76146">
        <ele>472.9</ele>
        <time>2009-09-13T07:57:12Z</time>
      </trkpt>
      <trkpt lat="43.65634" lon="6.76138">
        <ele>472.4</ele>
        <time>2009-09-13T07:57:13Z</time>
      </trkpt>
      <trkpt lat="43.65637" lon="6.7613">
        <ele>472.2</ele>
        <time>2009-09-13T07:57:14Z</time>
      </trkpt>
      <trkpt lat="43.65639" lon="6.76122">
        <ele>472.2</ele>
        <time>2009-09-13T07:57:15Z</time>
      </trkpt>
      <trkpt lat="43.65641" lon="6.76114">
        <ele>472.3</ele>
        <time>2009-09-13T07:57:16Z</time>
      </trkpt>
      <trkpt lat="43.65643" lon="6.76106">
        <ele>472.1</ele>
        <time>2009-09-13T07:57:17Z</time>
      </trkpt>
      <trkpt lat="43.65645" lon="6.76099">
        <ele>471.8</ele>
        <time>2009-09-13T07:57:18Z</time>
      </trkpt>
      <trkpt lat="43.65647" lon="6.76092">
        <ele>471.6</ele>
        <time>2009-09-13T07:57:19Z</time>
      </trkpt>
      <trkpt lat="43.65649" lon="6.76084">
        <ele>471.5</ele>
        <time>2009-09-13T07:57:20Z</time>
      </trkpt>
      <trkpt lat="43.6565" lon="6.76077">
        <ele>471.4</ele>
        <time>2009-09-13T07:57:21Z</time>
      </trkpt>
      <trkpt lat="43.65651" lon="6.76069">
        <ele>471.4</ele>
        <time>2009-09-13T07:57:22Z</time>
      </trkpt>
      <trkpt lat="43.65651" lon="6.76062">
        <ele>471.3</ele>
        <time>2009-09-13T07:57:23Z</time>
      </trkpt>
      <trkpt lat="43.65652" lon="6.76054">
        <ele>471.2</ele>
        <time>2009-09-13T07:57:24Z</time>
      </trkpt>
      <trkpt lat="43.65654" lon="6.76045">
        <ele>471</ele>
        <time>2009-09-13T07:57:25Z</time>
      </trkpt>
      <trkpt lat="43.65655" lon="6.76037">
        <ele>470.7</ele>
        <time>2009-09-13T07:57:26Z</time>
      </trkpt>
      <trkpt lat="43.65658" lon="6.76027">
        <ele>470.3</ele>
        <time>2009-09-13T07:57:27Z</time>
      </trkpt>
      <trkpt lat="43.6566" lon="6.76018">
        <ele>470</ele>
        <time>2009-09-13T07:57:28Z</time>
      </trkpt>
      <trkpt lat="43.65662" lon="6.76009">
        <ele>469.8</ele>
        <time>2009-09-13T07:57:29Z</time>
      </trkpt>
      <trkpt lat="43.65664" lon="6.75999">
        <ele>469.6</ele>
        <time>2009-09-13T07:57:30Z</time>
      </trkpt>
      <trkpt lat="43.65667" lon="6.7599">
        <ele>469</ele>
        <time>2009-09-13T07:57:31Z</time>
      </trkpt>
      <trkpt lat="43.6567" lon="6.75981">
        <ele>468.3</ele>
        <time>2009-09-13T07:57:32Z</time>
      </trkpt>
      <trkpt lat="43.65674" lon="6.75972">
        <ele>467.6</ele>
        <time>2009-09-13T07:57:33Z</time>
      </trkpt>
      <trkpt lat="43.65678" lon="6.75964">
        <ele>466.8</ele>
        <time>2009-09-13T07:57:34Z</time>
      </trkpt>
      <trkpt lat="43.65683" lon="6.75955">
        <ele>466.2</ele>
        <time>2009-09-13T07:57:35Z</time>
      </trkpt>
      <trkpt lat="43.65687" lon="6.75946">
        <ele>465.8</ele>
        <time>2009-09-13T07:57:36Z</time>
      </trkpt>
      <trkpt lat="43.65691" lon="6.75937">
        <ele>465.7</ele>
        <time>2009-09-13T07:57:37Z</time>
      </trkpt>
      <trkpt lat="43.65695" lon="6.75928">
        <ele>465.6</ele>
        <time>2009-09-13T07:57:38Z</time>
      </trkpt>
      <trkpt lat="43.65698" lon="6.7592">
        <ele>465.6</ele>
        <time>2009-09-13T07:57:39Z</time>
      </trkpt>
      <trkpt lat="43.65701" lon="6.75913">
        <ele>465.7</ele>
        <time>2009-09-13T07:57:40Z</time>
      </trkpt>
      <trkpt lat="43.65704" lon="6.75906">
        <ele>465.7</ele>
        <time>2009-09-13T07:57:41Z</time>
      </trkpt>
      <trkpt lat="43.65706" lon="6.759">
        <ele>465.8</ele>
        <time>2009-09-13T07:57:42Z</time>
      </trkpt>
      <trkpt lat="43.65709" lon="6.75894">
        <ele>465.8</ele>
        <time>2009-09-13T07:57:43Z</time>
      </trkpt>
      <trkpt lat="43.65712" lon="6.75883">
        <ele>465.8</ele>
        <time>2009-09-13T07:57:45Z</time>
      </trkpt>
      <trkpt lat="43.65717" lon="6.75873">
        <ele>465.5</ele>
        <time>2009-09-13T07:57:47Z</time>
      </trkpt>
      <trkpt lat="43.65722" lon="6.75863">
        <ele>465.1</ele>
        <time>2009-09-13T07:57:49Z</time>
      </trkpt>
      <trkpt lat="43.65727" lon="6.75853">
        <ele>464.9</ele>
        <time>2009-09-13T07:57:51Z</time>
      </trkpt>
      <trkpt lat="43.65731" lon="6.75845">
        <ele>464.8</ele>
        <time>2009-09-13T07:57:53Z</time>
      </trkpt>
      <trkpt lat="43.65727" lon="6.75841">
        <ele>465.3</ele>
        <time>2009-09-13T07:58:13Z</time>
      </trkpt>
      <trkpt lat="43.65715" lon="6.75889">
        <ele>465.5</ele>
        <time>2009-09-13T07:59:44Z</time>
      </trkpt>
      <trkpt lat="43.65723" lon="6.7587">
        <ele>465</ele>
        <time>2009-09-13T08:02:01Z</time>
      </trkpt>
      <trkpt lat="43.65727" lon="6.7586">
        <ele>464.7</ele>
        <time>2009-09-13T08:02:04Z</time>
      </trkpt>
      <trkpt lat="43.65732" lon="6.75836">
        <ele>464.9</ele>
        <time>2009-09-13T08:02:10Z</time>
      </trkpt>
      <trkpt lat="43.65733" lon="6.75828">
        <ele>464.8</ele>
        <time>2009-09-13T08:02:12Z</time>
      </trkpt>
      <trkpt lat="43.65734" lon="6.75821">
        <ele>464.7</ele>
        <time>2009-09-13T08:02:14Z</time>
      </trkpt>
      <trkpt lat="43.65734" lon="6.75814">
        <ele>464.7</ele>
        <time>2009-09-13T08:02:16Z</time>
      </trkpt>
      <trkpt lat="43.65735" lon="6.75805">
        <ele>464.6</ele>
        <time>2009-09-13T08:02:18Z</time>
      </trkpt>
      <trkpt lat="43.65736" lon="6.75795">
        <ele>464.6</ele>
        <time>2009-09-13T08:02:20Z</time>
      </trkpt>
      <trkpt lat="43.65736" lon="6.75785">
        <ele>464.5</ele>
        <time>2009-09-13T08:02:22Z</time>
      </trkpt>
      <trkpt lat="43.65735" lon="6.75774">
        <ele>464.6</ele>
        <time>2009-09-13T08:02:24Z</time>
      </trkpt>
      <trkpt lat="43.65734" lon="6.75764">
        <ele>464.7</ele>
        <time>2009-09-13T08:02:26Z</time>
      </trkpt>
      <trkpt lat="43.65732" lon="6.75754">
        <ele>464.9</ele>
        <time>2009-09-13T08:02:28Z</time>
      </trkpt>
      <trkpt lat="43.65731" lon="6.75744">
        <ele>465.1</ele>
        <time>2009-09-13T08:02:30Z</time>
      </trkpt>
      <trkpt lat="43.6573" lon="6.75735">
        <ele>465.2</ele>
        <time>2009-09-13T08:02:32Z</time>
      </trkpt>
      <trkpt lat="43.65728" lon="6.75727">
        <ele>465.4</ele>
        <time>2009-09-13T08:02:34Z</time>
      </trkpt>
      <trkpt lat="43.65727" lon="6.7572">
        <ele>465.5</ele>
        <time>2009-09-13T08:02:36Z</time>
      </trkpt>
      <trkpt lat="43.65725" lon="6.75712">
        <ele>465.7</ele>
        <time>2009-09-13T08:02:38Z</time>
      </trkpt>
      <trkpt lat="43.65724" lon="6.75703">
        <ele>465.8</ele>
        <time>2009-09-13T08:02:40Z</time>
      </trkpt>
      <trkpt lat="43.65725" lon="6.75695">
        <ele>465.8</ele>
        <time>2009-09-13T08:02:42Z</time>
      </trkpt>
      <trkpt lat="43.65725" lon="6.75687">
        <ele>466</ele>
        <time>2009-09-13T08:02:44Z</time>
      </trkpt>
      <trkpt lat="43.65725" lon="6.75679">
        <ele>466.3</ele>
        <time>2009-09-13T08:02:46Z</time>
      </trkpt>
      <trkpt lat="43.65726" lon="6.7567">
        <ele>466.4</ele>
        <time>2009-09-13T08:02:48Z</time>
      </trkpt>
      <trkpt lat="43.65727" lon="6.75662">
        <ele>466.4</ele>
        <time>2009-09-13T08:02:50Z</time>
      </trkpt>
      <trkpt lat="43.65727" lon="6.75654">
        <ele>466.3</ele>
        <time>2009-09-13T08:02:52Z</time>
      </trkpt>
      <trkpt lat="43.65728" lon="6.75645">
        <ele>466.2</ele>
        <time>2009-09-13T08:02:54Z</time>
      </trkpt>
      <trkpt lat="43.65728" lon="6.75637">
        <ele>466.1</ele>
        <time>2009-09-13T08:02:56Z</time>
      </trkpt>
      <trkpt lat="43.65728" lon="6.7563">
        <ele>466.2</ele>
        <time>2009-09-13T08:02:58Z</time>
      </trkpt>
      <trkpt lat="43.65727" lon="6.75621">
        <ele>466.3</ele>
        <time>2009-09-13T08:03:00Z</time>
      </trkpt>
      <trkpt lat="43.65727" lon="6.75613">
        <ele>466.4</ele>
        <time>2009-09-13T08:03:02Z</time>
      </trkpt>
      <trkpt lat="43.65727" lon="6.75605">
        <ele>466.4</ele>
        <time>2009-09-13T08:03:04Z</time>
      </trkpt>
      <trkpt lat="43.65726" lon="6.75598">
        <ele>466.5</ele>
        <time>2009-09-13T08:03:06Z</time>
      </trkpt>
      <trkpt lat="43.65726" lon="6.7559">
        <ele>466.6</ele>
        <time>2009-09-13T08:03:08Z</time>
      </trkpt>
      <trkpt lat="43.65725" lon="6.75582">
        <ele>466.7</ele>
        <time>2009-09-13T08:03:10Z</time>
      </trkpt>
      <trkpt lat="43.65723" lon="6.75574">
        <ele>467</ele>
        <time>2009-09-13T08:03:12Z</time>
      </trkpt>
      <trkpt lat="43.65721" lon="6.75567">
        <ele>467.2</ele>
        <time>2009-09-13T08:03:14Z</time>
      </trkpt>
      <trkpt lat="43.6572" lon="6.7556">
        <ele>467.4</ele>
        <time>2009-09-13T08:03:16Z</time>
      </trkpt>
      <trkpt lat="43.6572" lon="6.75553">
        <ele>467.6</ele>
        <time>2009-09-13T08:03:18Z</time>
      </trkpt>
      <trkpt lat="43.65719" lon="6.75546">
        <ele>467.9</ele>
        <time>2009-09-13T08:03:20Z</time>
      </trkpt>
      <trkpt lat="43.65718" lon="6.75538">
        <ele>468.3</ele>
        <time>2009-09-13T08:03:22Z</time>
      </trkpt>
      <trkpt lat="43.65718" lon="6.75531">
        <ele>468.6</ele>
        <time>2009-09-13T08:03:24Z</time>
      </trkpt>
      <trkpt lat="43.65717" lon="6.75523">
        <ele>468.7</ele>
        <time>2009-09-13T08:03:26Z</time>
      </trkpt>
      <trkpt lat="43.65717" lon="6.75514">
        <ele>468.8</ele>
        <time>2009-09-13T08:03:28Z</time>
      </trkpt>
      <trkpt lat="43.65716" lon="6.75506">
        <ele>468.9</ele>
        <time>2009-09-13T08:03:30Z</time>
      </trkpt>
      <trkpt lat="43.65715" lon="6.75497">
        <ele>469.1</ele>
        <time>2009-09-13T08:03:32Z</time>
      </trkpt>
      <trkpt lat="43.65715" lon="6.75489">
        <ele>469.5</ele>
        <time>2009-09-13T08:03:34Z</time>
      </trkpt>
      <trkpt lat="43.65714" lon="6.7548">
        <ele>469.9</ele>
        <time>2009-09-13T08:03:36Z</time>
      </trkpt>
      <trkpt lat="43.65714" lon="6.75472">
        <ele>470.2</ele>
        <time>2009-09-13T08:03:38Z</time>
      </trkpt>
      <trkpt lat="43.65715" lon="6.75463">
        <ele>470.3</ele>
        <time>2009-09-13T08:03:40Z</time>
      </trkpt>
      <trkpt lat="43.65715" lon="6.75454">
        <ele>470.5</ele>
        <time>2009-09-13T08:03:42Z</time>
      </trkpt>
      <trkpt lat="43.65715" lon="6.75446">
        <ele>470.7</ele>
        <time>2009-09-13T08:03:44Z</time>
      </trkpt>
      <trkpt lat="43.65715" lon="6.7544">
        <ele>471</ele>
        <time>2009-09-13T08:03:46Z</time>
      </trkpt>
      <trkpt lat="43.65715" lon="6.75432">
        <ele>471.2</ele>
        <time>2009-09-13T08:03:49Z</time>
      </trkpt>
      <trkpt lat="43.65716" lon="6.75424">
        <ele>471.4</ele>
        <time>2009-09-13T08:03:58Z</time>
      </trkpt>
      <trkpt lat="43.65717" lon="6.75415">
        <ele>471.6</ele>
        <time>2009-09-13T08:04:01Z</time>
      </trkpt>
      <trkpt lat="43.65717" lon="6.75407">
        <ele>471.6</ele>
        <time>2009-09-13T08:04:03Z</time>
      </trkpt>
      <trkpt lat="43.65718" lon="6.75398">
        <ele>471.5</ele>
        <time>2009-09-13T08:04:05Z</time>
      </trkpt>
      <trkpt lat="43.65718" lon="6.75389">
        <ele>471.4</ele>
        <time>2009-09-13T08:04:07Z</time>
      </trkpt>
      <trkpt lat="43.65719" lon="6.75379">
        <ele>471.3</ele>
        <time>2009-09-13T08:04:09Z</time>
      </trkpt>
      <trkpt lat="43.65719" lon="6.75369">
        <ele>471.3</ele>
        <time>2009-09-13T08:04:11Z</time>
      </trkpt>
      <trkpt lat="43.65719" lon="6.75359">
        <ele>471.2</ele>
        <time>2009-09-13T08:04:13Z</time>
      </trkpt>
      <trkpt lat="43.65719" lon="6.75348">
        <ele>471.2</ele>
        <time>2009-09-13T08:04:15Z</time>
      </trkpt>
      <trkpt lat="43.65719" lon="6.75337">
        <ele>471.2</ele>
        <time>2009-09-13T08:04:17Z</time>
      </trkpt>
      <trkpt lat="43.65718" lon="6.75326">
        <ele>471</ele>
        <time>2009-09-13T08:04:19Z</time>
      </trkpt>
      <trkpt lat="43.65716" lon="6.75316">
        <ele>470.8</ele>
        <time>2009-09-13T08:04:21Z</time>
      </trkpt>
      <trkpt lat="43.65712" lon="6.75305">
        <ele>470.7</ele>
        <time>2009-09-13T08:04:23Z</time>
      </trkpt>
      <trkpt lat="43.65708" lon="6.75294">
        <ele>470.8</ele>
        <time>2009-09-13T08:04:25Z</time>
      </trkpt>
      <trkpt lat="43.65706" lon="6.75288">
        <ele>470.8</ele>
        <time>2009-09-13T08:04:26Z</time>
      </trkpt>
      <trkpt lat="43.65704" lon="6.75282">
        <ele>470.7</ele>
        <time>2009-09-13T08:04:27Z</time>
      </trkpt>
      <trkpt lat="43.65703" lon="6.75275">
        <ele>470.6</ele>
        <time>2009-09-13T08:04:28Z</time>
      </trkpt>
      <trkpt lat="43.65702" lon="6.75269">
        <ele>470.3</ele>
        <time>2009-09-13T08:04:29Z</time>
      </trkpt>
      <trkpt lat="43.65702" lon="6.75261">
        <ele>470</ele>
        <time>2009-09-13T08:04:30Z</time>
      </trkpt>
      <trkpt lat="43.65702" lon="6.75254">
        <ele>469.7</ele>
        <time>2009-09-13T08:04:31Z</time>
      </trkpt>
      <trkpt lat="43.65704" lon="6.75248">
        <ele>469.4</ele>
        <time>2009-09-13T08:04:32Z</time>
      </trkpt>
      <trkpt lat="43.65706" lon="6.75242">
        <ele>469.4</ele>
        <time>2009-09-13T08:04:33Z</time>
      </trkpt>
      <trkpt lat="43.6571" lon="6.75237">
        <ele>469.4</ele>
        <time>2009-09-13T08:04:34Z</time>
      </trkpt>
      <trkpt lat="43.65713" lon="6.75233">
        <ele>469.3</ele>
        <time>2009-09-13T08:04:35Z</time>
      </trkpt>
      <trkpt lat="43.65717" lon="6.75228">
        <ele>469.2</ele>
        <time>2009-09-13T08:04:36Z</time>
      </trkpt>
      <trkpt lat="43.6572" lon="6.75223">
        <ele>469.1</ele>
        <time>2009-09-13T08:04:37Z</time>
      </trkpt>
      <trkpt lat="43.65724" lon="6.75218">
        <ele>468.9</ele>
        <time>2009-09-13T08:04:38Z</time>
      </trkpt>
      <trkpt lat="43.65727" lon="6.75212">
        <ele>468.6</ele>
        <time>2009-09-13T08:04:39Z</time>
      </trkpt>
      <trkpt lat="43.6573" lon="6.75206">
        <ele>468.4</ele>
        <time>2009-09-13T08:04:40Z</time>
      </trkpt>
      <trkpt lat="43.65733" lon="6.75199">
        <ele>468.2</ele>
        <time>2009-09-13T08:04:41Z</time>
      </trkpt>
      <trkpt lat="43.65736" lon="6.75193">
        <ele>468</ele>
        <time>2009-09-13T08:04:42Z</time>
      </trkpt>
      <trkpt lat="43.65738" lon="6.75186">
        <ele>467.7</ele>
        <time>2009-09-13T08:04:43Z</time>
      </trkpt>
      <trkpt lat="43.6574" lon="6.75179">
        <ele>467.3</ele>
        <time>2009-09-13T08:04:44Z</time>
      </trkpt>
      <trkpt lat="43.65742" lon="6.75172">
        <ele>467</ele>
        <time>2009-09-13T08:04:45Z</time>
      </trkpt>
      <trkpt lat="43.65743" lon="6.75165">
        <ele>466.7</ele>
        <time>2009-09-13T08:04:46Z</time>
      </trkpt>
      <trkpt lat="43.65743" lon="6.75157">
        <ele>466.4</ele>
        <time>2009-09-13T08:04:47Z</time>
      </trkpt>
      <trkpt lat="43.65742" lon="6.7515">
        <ele>466.2</ele>
        <time>2009-09-13T08:04:48Z</time>
      </trkpt>
      <trkpt lat="43.65741" lon="6.75142">
        <ele>466.1</ele>
        <time>2009-09-13T08:04:49Z</time>
      </trkpt>
      <trkpt lat="43.6574" lon="6.75135">
        <ele>466.1</ele>
        <time>2009-09-13T08:04:50Z</time>
      </trkpt>
      <trkpt lat="43.65739" lon="6.75127">
        <ele>466.2</ele>
        <time>2009-09-13T08:04:51Z</time>
      </trkpt>
      <trkpt lat="43.65738" lon="6.75119">
        <ele>466.3</ele>
        <time>2009-09-13T08:04:52Z</time>
      </trkpt>
      <trkpt lat="43.65739" lon="6.75111">
        <ele>466.2</ele>
        <time>2009-09-13T08:04:53Z</time>
      </trkpt>
      <trkpt lat="43.65739" lon="6.75103">
        <ele>466.2</ele>
        <time>2009-09-13T08:04:54Z</time>
      </trkpt>
      <trkpt lat="43.6574" lon="6.75096">
        <ele>466.1</ele>
        <time>2009-09-13T08:04:55Z</time>
      </trkpt>
      <trkpt lat="43.65741" lon="6.75088">
        <ele>466</ele>
        <time>2009-09-13T08:04:56Z</time>
      </trkpt>
      <trkpt lat="43.65741" lon="6.75081">
        <ele>465.9</ele>
        <time>2009-09-13T08:04:57Z</time>
      </trkpt>
      <trkpt lat="43.65741" lon="6.75074">
        <ele>465.7</ele>
        <time>2009-09-13T08:04:58Z</time>
      </trkpt>
      <trkpt lat="43.65741" lon="6.75066">
        <ele>465.5</ele>
        <time>2009-09-13T08:04:59Z</time>
      </trkpt>
      <trkpt lat="43.65742" lon="6.75059">
        <ele>465.3</ele>
        <time>2009-09-13T08:05:00Z</time>
      </trkpt>
      <trkpt lat="43.65742" lon="6.75052">
        <ele>465.3</ele>
        <time>2009-09-13T08:05:01Z</time>
      </trkpt>
      <trkpt lat="43.65744" lon="6.75045">
        <ele>465.4</ele>
        <time>2009-09-13T08:05:02Z</time>
      </trkpt>
      <trkpt lat="43.65746" lon="6.75038">
        <ele>465.4</ele>
        <time>2009-09-13T08:05:03Z</time>
      </trkpt>
      <trkpt lat="43.65748" lon="6.75032">
        <ele>465.2</ele>
        <time>2009-09-13T08:05:04Z</time>
      </trkpt>
      <trkpt lat="43.65751" lon="6.75027">
        <ele>465</ele>
        <time>2009-09-13T08:05:05Z</time>
      </trkpt>
      <trkpt lat="43.65754" lon="6.75021">
        <ele>465</ele>
        <time>2009-09-13T08:05:06Z</time>
      </trkpt>
      <trkpt lat="43.65759" lon="6.75012">
        <ele>465</ele>
        <time>2009-09-13T08:05:08Z</time>
      </trkpt>
      <trkpt lat="43.65765" lon="6.75002">
        <ele>464.8</ele>
        <time>2009-09-13T08:05:10Z</time>
      </trkpt>
      <trkpt lat="43.65769" lon="6.74994">
        <ele>464.6</ele>
        <time>2009-09-13T08:05:12Z</time>
      </trkpt>
      <trkpt lat="43.65774" lon="6.74988">
        <ele>464.4</ele>
        <time>2009-09-13T08:05:14Z</time>
      </trkpt>
      <trkpt lat="43.65779" lon="6.74981">
        <ele>464.3</ele>
        <time>2009-09-13T08:05:16Z</time>
      </trkpt>
      <trkpt lat="43.65784" lon="6.74974">
        <ele>464</ele>
        <time>2009-09-13T08:05:18Z</time>
      </trkpt>
      <trkpt lat="43.6579" lon="6.74966">
        <ele>463.4</ele>
        <time>2009-09-13T08:05:20Z</time>
      </trkpt>
      <trkpt lat="43.65794" lon="6.74962">
        <ele>463</ele>
        <time>2009-09-13T08:05:21Z</time>
      </trkpt>
      <trkpt lat="43.65798" lon="6.74958">
        <ele>462.7</ele>
        <time>2009-09-13T08:05:22Z</time>
      </trkpt>
      <trkpt lat="43.65801" lon="6.74953">
        <ele>462.3</ele>
        <time>2009-09-13T08:05:23Z</time>
      </trkpt>
      <trkpt lat="43.65805" lon="6.74949">
        <ele>462</ele>
        <time>2009-09-13T08:05:24Z</time>
      </trkpt>
      <trkpt lat="43.65808" lon="6.74944">
        <ele>461.8</ele>
        <time>2009-09-13T08:05:25Z</time>
      </trkpt>
      <trkpt lat="43.65812" lon="6.74939">
        <ele>461.9</ele>
        <time>2009-09-13T08:05:26Z</time>
      </trkpt>
      <trkpt lat="43.65816" lon="6.74934">
        <ele>461.9</ele>
        <time>2009-09-13T08:05:27Z</time>
      </trkpt>
      <trkpt lat="43.65819" lon="6.74928">
        <ele>461.9</ele>
        <time>2009-09-13T08:05:28Z</time>
      </trkpt>
      <trkpt lat="43.65822" lon="6.74923">
        <ele>462</ele>
        <time>2009-09-13T08:05:29Z</time>
      </trkpt>
      <trkpt lat="43.65824" lon="6.74916">
        <ele>462</ele>
        <time>2009-09-13T08:05:30Z</time>
      </trkpt>
      <trkpt lat="43.65827" lon="6.7491">
        <ele>462</ele>
        <time>2009-09-13T08:05:31Z</time>
      </trkpt>
      <trkpt lat="43.65828" lon="6.74903">
        <ele>462</ele>
        <time>2009-09-13T08:05:32Z</time>
      </trkpt>
      <trkpt lat="43.6583" lon="6.74897">
        <ele>462.1</ele>
        <time>2009-09-13T08:05:33Z</time>
      </trkpt>
      <trkpt lat="43.65831" lon="6.7489">
        <ele>462.2</ele>
        <time>2009-09-13T08:05:34Z</time>
      </trkpt>
      <trkpt lat="43.65833" lon="6.74879">
        <ele>462.4</ele>
        <time>2009-09-13T08:05:36Z</time>
      </trkpt>
      <trkpt lat="43.65836" lon="6.74867">
        <ele>462.6</ele>
        <time>2009-09-13T08:05:38Z</time>
      </trkpt>
      <trkpt lat="43.65839" lon="6.74855">
        <ele>462.8</ele>
        <time>2009-09-13T08:05:40Z</time>
      </trkpt>
      <trkpt lat="43.65842" lon="6.74843">
        <ele>463</ele>
        <time>2009-09-13T08:05:42Z</time>
      </trkpt>
      <trkpt lat="43.65843" lon="6.74837">
        <ele>463.1</ele>
        <time>2009-09-13T08:05:43Z</time>
      </trkpt>
      <trkpt lat="43.65845" lon="6.74831">
        <ele>463.2</ele>
        <time>2009-09-13T08:05:44Z</time>
      </trkpt>
      <trkpt lat="43.65846" lon="6.74825">
        <ele>463.2</ele>
        <time>2009-09-13T08:05:45Z</time>
      </trkpt>
      <trkpt lat="43.65847" lon="6.74818">
        <ele>463.3</ele>
        <time>2009-09-13T08:05:46Z</time>
      </trkpt>
      <trkpt lat="43.65848" lon="6.74812">
        <ele>463.3</ele>
        <time>2009-09-13T08:05:47Z</time>
      </trkpt>
      <trkpt lat="43.65849" lon="6.74805">
        <ele>463.4</ele>
        <time>2009-09-13T08:05:48Z</time>
      </trkpt>
      <trkpt lat="43.6585" lon="6.74793">
        <ele>463.6</ele>
        <time>2009-09-13T08:05:50Z</time>
      </trkpt>
      <trkpt lat="43.6585" lon="6.74781">
        <ele>463.8</ele>
        <time>2009-09-13T08:05:52Z</time>
      </trkpt>
      <trkpt lat="43.65849" lon="6.74769">
        <ele>463.9</ele>
        <time>2009-09-13T08:05:54Z</time>
      </trkpt>
      <trkpt lat="43.65849" lon="6.74757">
        <ele>463.9</ele>
        <time>2009-09-13T08:05:56Z</time>
      </trkpt>
      <trkpt lat="43.65848" lon="6.74746">
        <ele>464.1</ele>
        <time>2009-09-13T08:05:58Z</time>
      </trkpt>
      <trkpt lat="43.65847" lon="6.74735">
        <ele>464.3</ele>
        <time>2009-09-13T08:06:00Z</time>
      </trkpt>
      <trkpt lat="43.65845" lon="6.74724">
        <ele>464.5</ele>
        <time>2009-09-13T08:06:02Z</time>
      </trkpt>
      <trkpt lat="43.65843" lon="6.74714">
        <ele>465</ele>
        <time>2009-09-13T08:06:04Z</time>
      </trkpt>
      <trkpt lat="43.65841" lon="6.74703">
        <ele>465.4</ele>
        <time>2009-09-13T08:06:06Z</time>
      </trkpt>
      <trkpt lat="43.65839" lon="6.74693">
        <ele>465.9</ele>
        <time>2009-09-13T08:06:08Z</time>
      </trkpt>
      <trkpt lat="43.65838" lon="6.74683">
        <ele>466.3</ele>
        <time>2009-09-13T08:06:10Z</time>
      </trkpt>
      <trkpt lat="43.65838" lon="6.74672">
        <ele>466.6</ele>
        <time>2009-09-13T08:06:12Z</time>
      </trkpt>
      <trkpt lat="43.6584" lon="6.74662">
        <ele>466.9</ele>
        <time>2009-09-13T08:06:14Z</time>
      </trkpt>
      <trkpt lat="43.65843" lon="6.74653">
        <ele>467.2</ele>
        <time>2009-09-13T08:06:16Z</time>
      </trkpt>
      <trkpt lat="43.65845" lon="6.74643">
        <ele>467.4</ele>
        <time>2009-09-13T08:06:18Z</time>
      </trkpt>
      <trkpt lat="43.65847" lon="6.74633">
        <ele>467.8</ele>
        <time>2009-09-13T08:06:20Z</time>
      </trkpt>
      <trkpt lat="43.65849" lon="6.74622">
        <ele>468.4</ele>
        <time>2009-09-13T08:06:22Z</time>
      </trkpt>
      <trkpt lat="43.65852" lon="6.74613">
        <ele>468.9</ele>
        <time>2009-09-13T08:06:24Z</time>
      </trkpt>
      <trkpt lat="43.65853" lon="6.74603">
        <ele>469</ele>
        <time>2009-09-13T08:06:26Z</time>
      </trkpt>
      <trkpt lat="43.65855" lon="6.74593">
        <ele>469</ele>
        <time>2009-09-13T08:06:28Z</time>
      </trkpt>
      <trkpt lat="43.65857" lon="6.74584">
        <ele>469</ele>
        <time>2009-09-13T08:06:30Z</time>
      </trkpt>
      <trkpt lat="43.65859" lon="6.74574">
        <ele>469</ele>
        <time>2009-09-13T08:06:32Z</time>
      </trkpt>
      <trkpt lat="43.65861" lon="6.74564">
        <ele>469</ele>
        <time>2009-09-13T08:06:34Z</time>
      </trkpt>
      <trkpt lat="43.65862" lon="6.74556">
        <ele>469</ele>
        <time>2009-09-13T08:06:36Z</time>
      </trkpt>
      <trkpt lat="43.65863" lon="6.74547">
        <ele>469</ele>
        <time>2009-09-13T08:06:38Z</time>
      </trkpt>
      <trkpt lat="43.65865" lon="6.74538">
        <ele>469</ele>
        <time>2009-09-13T08:06:40Z</time>
      </trkpt>
      <trkpt lat="43.65866" lon="6.74528">
        <ele>469</ele>
        <time>2009-09-13T08:06:42Z</time>
      </trkpt>
      <trkpt lat="43.65867" lon="6.74519">
        <ele>469.2</ele>
        <time>2009-09-13T08:06:44Z</time>
      </trkpt>
      <trkpt lat="43.65868" lon="6.7451">
        <ele>469.5</ele>
        <time>2009-09-13T08:06:46Z</time>
      </trkpt>
      <trkpt lat="43.65869" lon="6.74501">
        <ele>469.7</ele>
        <time>2009-09-13T08:06:48Z</time>
      </trkpt>
      <trkpt lat="43.65869" lon="6.74492">
        <ele>470</ele>
        <time>2009-09-13T08:06:50Z</time>
      </trkpt>
      <trkpt lat="43.65871" lon="6.74482">
        <ele>470.3</ele>
        <time>2009-09-13T08:06:52Z</time>
      </trkpt>
      <trkpt lat="43.65874" lon="6.74474">
        <ele>470.5</ele>
        <time>2009-09-13T08:06:54Z</time>
      </trkpt>
      <trkpt lat="43.65878" lon="6.74467">
        <ele>470.7</ele>
        <time>2009-09-13T08:06:56Z</time>
      </trkpt>
      <trkpt lat="43.65881" lon="6.7446">
        <ele>470.9</ele>
        <time>2009-09-13T08:06:58Z</time>
      </trkpt>
      <trkpt lat="43.65883" lon="6.74452">
        <ele>471.1</ele>
        <time>2009-09-13T08:07:00Z</time>
      </trkpt>
      <trkpt lat="43.65886" lon="6.74444">
        <ele>471.2</ele>
        <time>2009-09-13T08:07:02Z</time>
      </trkpt>
      <trkpt lat="43.65888" lon="6.74436">
        <ele>471.4</ele>
        <time>2009-09-13T08:07:04Z</time>
      </trkpt>
      <trkpt lat="43.6589" lon="6.74428">
        <ele>471.5</ele>
        <time>2009-09-13T08:07:06Z</time>
      </trkpt>
      <trkpt lat="43.65893" lon="6.7442">
        <ele>471.6</ele>
        <time>2009-09-13T08:07:08Z</time>
      </trkpt>
      <trkpt lat="43.65897" lon="6.74413">
        <ele>471.6</ele>
        <time>2009-09-13T08:07:10Z</time>
      </trkpt>
      <trkpt lat="43.659" lon="6.74406">
        <ele>471.6</ele>
        <time>2009-09-13T08:07:12Z</time>
      </trkpt>
      <trkpt lat="43.65904" lon="6.74399">
        <ele>471.6</ele>
        <time>2009-09-13T08:07:14Z</time>
      </trkpt>
      <trkpt lat="43.65908" lon="6.74392">
        <ele>471.5</ele>
        <time>2009-09-13T08:07:16Z</time>
      </trkpt>
      <trkpt lat="43.65912" lon="6.74384">
        <ele>471.6</ele>
        <time>2009-09-13T08:07:18Z</time>
      </trkpt>
      <trkpt lat="43.65915" lon="6.74376">
        <ele>471.7</ele>
        <time>2009-09-13T08:07:20Z</time>
      </trkpt>
      <trkpt lat="43.65917" lon="6.74367">
        <ele>471.8</ele>
        <time>2009-09-13T08:07:22Z</time>
      </trkpt>
      <trkpt lat="43.65919" lon="6.74358">
        <ele>472</ele>
        <time>2009-09-13T08:07:24Z</time>
      </trkpt>
      <trkpt lat="43.65921" lon="6.7435">
        <ele>472.2</ele>
        <time>2009-09-13T08:07:26Z</time>
      </trkpt>
      <trkpt lat="43.65923" lon="6.74342">
        <ele>472.5</ele>
        <time>2009-09-13T08:07:28Z</time>
      </trkpt>
      <trkpt lat="43.65925" lon="6.74333">
        <ele>472.7</ele>
        <time>2009-09-13T08:07:30Z</time>
      </trkpt>
      <trkpt lat="43.65925" lon="6.74325">
        <ele>473.3</ele>
        <time>2009-09-13T08:07:32Z</time>
      </trkpt>
      <trkpt lat="43.65926" lon="6.74316">
        <ele>473.9</ele>
        <time>2009-09-13T08:07:34Z</time>
      </trkpt>
      <trkpt lat="43.65926" lon="6.74308">
        <ele>474.5</ele>
        <time>2009-09-13T08:07:36Z</time>
      </trkpt>
      <trkpt lat="43.65926" lon="6.743">
        <ele>474.9</ele>
        <time>2009-09-13T08:07:38Z</time>
      </trkpt>
      <trkpt lat="43.65926" lon="6.74291">
        <ele>475.2</ele>
        <time>2009-09-13T08:07:40Z</time>
      </trkpt>
      <trkpt lat="43.65925" lon="6.74283">
        <ele>475.5</ele>
        <time>2009-09-13T08:07:42Z</time>
      </trkpt>
      <trkpt lat="43.65924" lon="6.74276">
        <ele>475.8</ele>
        <time>2009-09-13T08:07:44Z</time>
      </trkpt>
      <trkpt lat="43.65923" lon="6.74268">
        <ele>476.1</ele>
        <time>2009-09-13T08:07:46Z</time>
      </trkpt>
      <trkpt lat="43.65922" lon="6.7426">
        <ele>476.3</ele>
        <time>2009-09-13T08:07:48Z</time>
      </trkpt>
      <trkpt lat="43.6592" lon="6.74252">
        <ele>476.7</ele>
        <time>2009-09-13T08:07:50Z</time>
      </trkpt>
      <trkpt lat="43.65919" lon="6.74244">
        <ele>476.8</ele>
        <time>2009-09-13T08:07:52Z</time>
      </trkpt>
      <trkpt lat="43.65919" lon="6.74236">
        <ele>476.9</ele>
        <time>2009-09-13T08:07:54Z</time>
      </trkpt>
      <trkpt lat="43.65918" lon="6.74228">
        <ele>476.9</ele>
        <time>2009-09-13T08:07:56Z</time>
      </trkpt>
      <trkpt lat="43.65918" lon="6.7422">
        <ele>477</ele>
        <time>2009-09-13T08:07:58Z</time>
      </trkpt>
      <trkpt lat="43.65917" lon="6.74213">
        <ele>477</ele>
        <time>2009-09-13T08:08:00Z</time>
      </trkpt>
      <trkpt lat="43.65917" lon="6.74206">
        <ele>477</ele>
        <time>2009-09-13T08:08:02Z</time>
      </trkpt>
      <trkpt lat="43.65916" lon="6.74198">
        <ele>477.1</ele>
        <time>2009-09-13T08:08:04Z</time>
      </trkpt>
      <trkpt lat="43.65914" lon="6.7419">
        <ele>477.2</ele>
        <time>2009-09-13T08:08:06Z</time>
      </trkpt>
      <trkpt lat="43.65913" lon="6.74182">
        <ele>477.3</ele>
        <time>2009-09-13T08:08:08Z</time>
      </trkpt>
      <trkpt lat="43.65911" lon="6.74174">
        <ele>477.3</ele>
        <time>2009-09-13T08:08:10Z</time>
      </trkpt>
      <trkpt lat="43.65909" lon="6.74166">
        <ele>477.3</ele>
        <time>2009-09-13T08:08:12Z</time>
      </trkpt>
      <trkpt lat="43.65906" lon="6.74159">
        <ele>477.2</ele>
        <time>2009-09-13T08:08:14Z</time>
      </trkpt>
      <trkpt lat="43.65901" lon="6.74153">
        <ele>477.3</ele>
        <time>2009-09-13T08:08:16Z</time>
      </trkpt>
      <trkpt lat="43.65897" lon="6.74148">
        <ele>477.5</ele>
        <time>2009-09-13T08:08:18Z</time>
      </trkpt>
      <trkpt lat="43.65892" lon="6.74143">
        <ele>477.8</ele>
        <time>2009-09-13T08:08:20Z</time>
      </trkpt>
      <trkpt lat="43.65887" lon="6.74137">
        <ele>478.1</ele>
        <time>2009-09-13T08:08:22Z</time>
      </trkpt>
      <trkpt lat="43.65883" lon="6.7413">
        <ele>478.1</ele>
        <time>2009-09-13T08:08:24Z</time>
      </trkpt>
      <trkpt lat="43.65878" lon="6.74123">
        <ele>478</ele>
        <time>2009-09-13T08:08:26Z</time>
      </trkpt>
      <trkpt lat="43.65873" lon="6.74116">
        <ele>477.8</ele>
        <time>2009-09-13T08:08:28Z</time>
      </trkpt>
      <trkpt lat="43.65868" lon="6.74109">
        <ele>477.7</ele>
        <time>2009-09-13T08:08:30Z</time>
      </trkpt>
      <trkpt lat="43.65863" lon="6.74102">
        <ele>477.9</ele>
        <time>2009-09-13T08:08:32Z</time>
      </trkpt>
      <trkpt lat="43.65857" lon="6.74095">
        <ele>478.2</ele>
        <time>2009-09-13T08:08:34Z</time>
      </trkpt>
      <trkpt lat="43.65851" lon="6.74088">
        <ele>478.4</ele>
        <time>2009-09-13T08:08:36Z</time>
      </trkpt>
      <trkpt lat="43.65846" lon="6.7408">
        <ele>478.4</ele>
        <time>2009-09-13T08:08:38Z</time>
      </trkpt>
      <trkpt lat="43.65841" lon="6.74073">
        <ele>478.4</ele>
        <time>2009-09-13T08:08:40Z</time>
      </trkpt>
      <trkpt lat="43.65835" lon="6.74066">
        <ele>478.3</ele>
        <time>2009-09-13T08:08:42Z</time>
      </trkpt>
      <trkpt lat="43.65829" lon="6.74059">
        <ele>478.3</ele>
        <time>2009-09-13T08:08:44Z</time>
      </trkpt>
      <trkpt lat="43.65823" lon="6.74051">
        <ele>478.5</ele>
        <time>2009-09-13T08:08:46Z</time>
      </trkpt>
      <trkpt lat="43.65817" lon="6.74045">
        <ele>478.7</ele>
        <time>2009-09-13T08:08:48Z</time>
      </trkpt>
      <trkpt lat="43.65811" lon="6.74039">
        <ele>478.9</ele>
        <time>2009-09-13T08:08:50Z</time>
      </trkpt>
      <trkpt lat="43.65806" lon="6.74033">
        <ele>479</ele>
        <time>2009-09-13T08:08:52Z</time>
      </trkpt>
      <trkpt lat="43.65801" lon="6.74025">
        <ele>479.2</ele>
        <time>2009-09-13T08:08:54Z</time>
      </trkpt>
      <trkpt lat="43.65797" lon="6.74016">
        <ele>479.3</ele>
        <time>2009-09-13T08:08:56Z</time>
      </trkpt>
      <trkpt lat="43.65793" lon="6.74007">
        <ele>479.5</ele>
        <time>2009-09-13T08:08:58Z</time>
      </trkpt>
      <trkpt lat="43.65789" lon="6.73999">
        <ele>479.6</ele>
        <time>2009-09-13T08:09:00Z</time>
      </trkpt>
      <trkpt lat="43.65784" lon="6.73991">
        <ele>479.8</ele>
        <time>2009-09-13T08:09:02Z</time>
      </trkpt>
      <trkpt lat="43.65778" lon="6.73985">
        <ele>480</ele>
        <time>2009-09-13T08:09:04Z</time>
      </trkpt>
      <trkpt lat="43.65773" lon="6.73979">
        <ele>480.4</ele>
        <time>2009-09-13T08:09:06Z</time>
      </trkpt>
      <trkpt lat="43.65768" lon="6.73973">
        <ele>480.8</ele>
        <time>2009-09-13T08:09:08Z</time>
      </trkpt>
      <trkpt lat="43.65763" lon="6.73968">
        <ele>481</ele>
        <time>2009-09-13T08:09:10Z</time>
      </trkpt>
      <trkpt lat="43.65758" lon="6.73963">
        <ele>481.2</ele>
        <time>2009-09-13T08:09:12Z</time>
      </trkpt>
      <trkpt lat="43.65753" lon="6.73958">
        <ele>481.3</ele>
        <time>2009-09-13T08:09:14Z</time>
      </trkpt>
      <trkpt lat="43.65749" lon="6.73952">
        <ele>481.4</ele>
        <time>2009-09-13T08:09:16Z</time>
      </trkpt>
      <trkpt lat="43.65745" lon="6.73945">
        <ele>481.6</ele>
        <time>2009-09-13T08:09:18Z</time>
      </trkpt>
      <trkpt lat="43.65742" lon="6.73938">
        <ele>481.8</ele>
        <time>2009-09-13T08:09:20Z</time>
      </trkpt>
      <trkpt lat="43.6574" lon="6.73929">
        <ele>481.9</ele>
        <time>2009-09-13T08:09:22Z</time>
      </trkpt>
      <trkpt lat="43.65738" lon="6.7392">
        <ele>481.9</ele>
        <time>2009-09-13T08:09:24Z</time>
      </trkpt>
      <trkpt lat="43.65737" lon="6.7391">
        <ele>481.9</ele>
        <time>2009-09-13T08:09:26Z</time>
      </trkpt>
      <trkpt lat="43.65736" lon="6.73901">
        <ele>482</ele>
        <time>2009-09-13T08:09:28Z</time>
      </trkpt>
      <trkpt lat="43.65733" lon="6.73892">
        <ele>482.2</ele>
        <time>2009-09-13T08:09:30Z</time>
      </trkpt>
      <trkpt lat="43.65729" lon="6.73886">
        <ele>482.4</ele>
        <time>2009-09-13T08:09:32Z</time>
      </trkpt>
      <trkpt lat="43.65724" lon="6.73881">
        <ele>482.6</ele>
        <time>2009-09-13T08:09:34Z</time>
      </trkpt>
      <trkpt lat="43.65718" lon="6.73878">
        <ele>482.7</ele>
        <time>2009-09-13T08:09:36Z</time>
      </trkpt>
      <trkpt lat="43.65713" lon="6.73875">
        <ele>482.9</ele>
        <time>2009-09-13T08:09:38Z</time>
      </trkpt>
      <trkpt lat="43.65706" lon="6.73873">
        <ele>483</ele>
        <time>2009-09-13T08:09:40Z</time>
      </trkpt>
      <trkpt lat="43.657" lon="6.73869">
        <ele>483.1</ele>
        <time>2009-09-13T08:09:42Z</time>
      </trkpt>
      <trkpt lat="43.65693" lon="6.73864">
        <ele>483.2</ele>
        <time>2009-09-13T08:09:44Z</time>
      </trkpt>
      <trkpt lat="43.65687" lon="6.73858">
        <ele>483.2</ele>
        <time>2009-09-13T08:09:46Z</time>
      </trkpt>
      <trkpt lat="43.6568" lon="6.73852">
        <ele>483.2</ele>
        <time>2009-09-13T08:09:48Z</time>
      </trkpt>
      <trkpt lat="43.65675" lon="6.73845">
        <ele>483.1</ele>
        <time>2009-09-13T08:09:50Z</time>
      </trkpt>
      <trkpt lat="43.65669" lon="6.73839">
        <ele>483.1</ele>
        <time>2009-09-13T08:09:52Z</time>
      </trkpt>
      <trkpt lat="43.65663" lon="6.73831">
        <ele>483.1</ele>
        <time>2009-09-13T08:09:54Z</time>
      </trkpt>
      <trkpt lat="43.65657" lon="6.73824">
        <ele>483</ele>
        <time>2009-09-13T08:09:56Z</time>
      </trkpt>
      <trkpt lat="43.65652" lon="6.73816">
        <ele>482.9</ele>
        <time>2009-09-13T08:09:58Z</time>
      </trkpt>
      <trkpt lat="43.65647" lon="6.73807">
        <ele>482.7</ele>
        <time>2009-09-13T08:10:00Z</time>
      </trkpt>
      <trkpt lat="43.65643" lon="6.73798">
        <ele>483.1</ele>
        <time>2009-09-13T08:10:02Z</time>
      </trkpt>
      <trkpt lat="43.65639" lon="6.73789">
        <ele>483.6</ele>
        <time>2009-09-13T08:10:04Z</time>
      </trkpt>
      <trkpt lat="43.65636" lon="6.7378">
        <ele>484.1</ele>
        <time>2009-09-13T08:10:06Z</time>
      </trkpt>
      <trkpt lat="43.65632" lon="6.73772">
        <ele>484.2</ele>
        <time>2009-09-13T08:10:08Z</time>
      </trkpt>
      <trkpt lat="43.65627" lon="6.73765">
        <ele>484.2</ele>
        <time>2009-09-13T08:10:10Z</time>
      </trkpt>
      <trkpt lat="43.65622" lon="6.73758">
        <ele>484.1</ele>
        <time>2009-09-13T08:10:12Z</time>
      </trkpt>
      <trkpt lat="43.65615" lon="6.73753">
        <ele>484</ele>
        <time>2009-09-13T08:10:14Z</time>
      </trkpt>
      <trkpt lat="43.65609" lon="6.73747">
        <ele>484.1</ele>
        <time>2009-09-13T08:10:16Z</time>
      </trkpt>
      <trkpt lat="43.65603" lon="6.73742">
        <ele>484.3</ele>
        <time>2009-09-13T08:10:18Z</time>
      </trkpt>
      <trkpt lat="43.65597" lon="6.73737">
        <ele>484.6</ele>
        <time>2009-09-13T08:10:20Z</time>
      </trkpt>
      <trkpt lat="43.65591" lon="6.73732">
        <ele>484.8</ele>
        <time>2009-09-13T08:10:22Z</time>
      </trkpt>
      <trkpt lat="43.65585" lon="6.73727">
        <ele>485.1</ele>
        <time>2009-09-13T08:10:24Z</time>
      </trkpt>
      <trkpt lat="43.65578" lon="6.73724">
        <ele>485.5</ele>
        <time>2009-09-13T08:10:26Z</time>
      </trkpt>
      <trkpt lat="43.65571" lon="6.73721">
        <ele>485.8</ele>
        <time>2009-09-13T08:10:28Z</time>
      </trkpt>
      <trkpt lat="43.65564" lon="6.73719">
        <ele>486.2</ele>
        <time>2009-09-13T08:10:30Z</time>
      </trkpt>
      <trkpt lat="43.65558" lon="6.73717">
        <ele>486.6</ele>
        <time>2009-09-13T08:10:32Z</time>
      </trkpt>
      <trkpt lat="43.65552" lon="6.73716">
        <ele>487</ele>
        <time>2009-09-13T08:10:34Z</time>
      </trkpt>
      <trkpt lat="43.65547" lon="6.73716">
        <ele>487.4</ele>
        <time>2009-09-13T08:10:36Z</time>
      </trkpt>
      <trkpt lat="43.6554" lon="6.73716">
        <ele>487.9</ele>
        <time>2009-09-13T08:10:39Z</time>
      </trkpt>
      <trkpt lat="43.65535" lon="6.73716">
        <ele>488.2</ele>
        <time>2009-09-13T08:10:41Z</time>
      </trkpt>
      <trkpt lat="43.65529" lon="6.73718">
        <ele>488.8</ele>
        <time>2009-09-13T08:10:44Z</time>
      </trkpt>
      <trkpt lat="43.65522" lon="6.7372">
        <ele>489.3</ele>
        <time>2009-09-13T08:10:47Z</time>
      </trkpt>
      <trkpt lat="43.65517" lon="6.7372">
        <ele>489.7</ele>
        <time>2009-09-13T08:10:49Z</time>
      </trkpt>
      <trkpt lat="43.65513" lon="6.7372">
        <ele>490.1</ele>
        <time>2009-09-13T08:10:51Z</time>
      </trkpt>
      <trkpt lat="43.65508" lon="6.73719">
        <ele>490.4</ele>
        <time>2009-09-13T08:10:53Z</time>
      </trkpt>
      <trkpt lat="43.65503" lon="6.73717">
        <ele>490.8</ele>
        <time>2009-09-13T08:10:55Z</time>
      </trkpt>
      <trkpt lat="43.65499" lon="6.73714">
        <ele>491.1</ele>
        <time>2009-09-13T08:10:57Z</time>
      </trkpt>
      <trkpt lat="43.65495" lon="6.7371">
        <ele>491.4</ele>
        <time>2009-09-13T08:10:59Z</time>
      </trkpt>
      <trkpt lat="43.65491" lon="6.73706">
        <ele>491.6</ele>
        <time>2009-09-13T08:11:01Z</time>
      </trkpt>
      <trkpt lat="43.65486" lon="6.737">
        <ele>491.7</ele>
        <time>2009-09-13T08:11:04Z</time>
      </trkpt>
      <trkpt lat="43.65482" lon="6.73695">
        <ele>491.7</ele>
        <time>2009-09-13T08:11:06Z</time>
      </trkpt>
      <trkpt lat="43.65478" lon="6.7369">
        <ele>491.6</ele>
        <time>2009-09-13T08:11:08Z</time>
      </trkpt>
      <trkpt lat="43.65474" lon="6.73685">
        <ele>491.6</ele>
        <time>2009-09-13T08:11:10Z</time>
      </trkpt>
      <trkpt lat="43.65471" lon="6.73679">
        <ele>491.6</ele>
        <time>2009-09-13T08:11:12Z</time>
      </trkpt>
      <trkpt lat="43.65467" lon="6.73673">
        <ele>491.8</ele>
        <time>2009-09-13T08:11:14Z</time>
      </trkpt>
      <trkpt lat="43.65462" lon="6.73668">
        <ele>492.1</ele>
        <time>2009-09-13T08:11:16Z</time>
      </trkpt>
      <trkpt lat="43.65459" lon="6.73663">
        <ele>492.3</ele>
        <time>2009-09-13T08:11:18Z</time>
      </trkpt>
      <trkpt lat="43.65455" lon="6.73657">
        <ele>492.5</ele>
        <time>2009-09-13T08:11:20Z</time>
      </trkpt>
      <trkpt lat="43.65451" lon="6.7365">
        <ele>492.7</ele>
        <time>2009-09-13T08:11:22Z</time>
      </trkpt>
      <trkpt lat="43.65447" lon="6.73643">
        <ele>492.9</ele>
        <time>2009-09-13T08:11:24Z</time>
      </trkpt>
      <trkpt lat="43.65442" lon="6.73636">
        <ele>493</ele>
        <time>2009-09-13T08:11:26Z</time>
      </trkpt>
      <trkpt lat="43.65439" lon="6.73632">
        <ele>492.9</ele>
        <time>2009-09-13T08:11:29Z</time>
      </trkpt>
      <trkpt lat="43.65427" lon="6.73638">
        <ele>493.6</ele>
        <time>2009-09-13T08:13:14Z</time>
      </trkpt>
      <trkpt lat="43.65431" lon="6.73636">
        <ele>493.4</ele>
        <time>2009-09-13T08:13:46Z</time>
      </trkpt>
      <trkpt lat="43.65429" lon="6.73629">
        <ele>493.2</ele>
        <time>2009-09-13T08:13:52Z</time>
      </trkpt>
      <trkpt lat="43.65427" lon="6.73623">
        <ele>493.1</ele>
        <time>2009-09-13T08:13:55Z</time>
      </trkpt>
      <trkpt lat="43.65424" lon="6.73618">
        <ele>493</ele>
        <time>2009-09-13T08:13:58Z</time>
      </trkpt>
      <trkpt lat="43.65421" lon="6.73612">
        <ele>492.9</ele>
        <time>2009-09-13T08:14:01Z</time>
      </trkpt>
      <trkpt lat="43.65418" lon="6.73606">
        <ele>493.1</ele>
        <time>2009-09-13T08:14:03Z</time>
      </trkpt>
      <trkpt lat="43.65416" lon="6.73599">
        <ele>493.4</ele>
        <time>2009-09-13T08:14:05Z</time>
      </trkpt>
      <trkpt lat="43.65413" lon="6.73594">
        <ele>493.5</ele>
        <time>2009-09-13T08:14:07Z</time>
      </trkpt>
      <trkpt lat="43.65409" lon="6.73588">
        <ele>493.4</ele>
        <time>2009-09-13T08:14:09Z</time>
      </trkpt>
      <trkpt lat="43.65404" lon="6.73585">
        <ele>493.1</ele>
        <time>2009-09-13T08:14:11Z</time>
      </trkpt>
      <trkpt lat="43.654" lon="6.73581">
        <ele>492.8</ele>
        <time>2009-09-13T08:14:13Z</time>
      </trkpt>
      <trkpt lat="43.65394" lon="6.73576">
        <ele>492.4</ele>
        <time>2009-09-13T08:14:15Z</time>
      </trkpt>
      <trkpt lat="43.65388" lon="6.73571">
        <ele>492</ele>
        <time>2009-09-13T08:14:17Z</time>
      </trkpt>
      <trkpt lat="43.65383" lon="6.73567">
        <ele>491.8</ele>
        <time>2009-09-13T08:14:19Z</time>
      </trkpt>
      <trkpt lat="43.6538" lon="6.7356">
        <ele>491.7</ele>
        <time>2009-09-13T08:14:21Z</time>
      </trkpt>
      <trkpt lat="43.65378" lon="6.7355">
        <ele>491.4</ele>
        <time>2009-09-13T08:14:23Z</time>
      </trkpt>
      <trkpt lat="43.65376" lon="6.73536">
        <ele>490.9</ele>
        <time>2009-09-13T08:14:25Z</time>
      </trkpt>
      <trkpt lat="43.65375" lon="6.73528">
        <ele>490.5</ele>
        <time>2009-09-13T08:14:26Z</time>
      </trkpt>
      <trkpt lat="43.65374" lon="6.7352">
        <ele>490.3</ele>
        <time>2009-09-13T08:14:27Z</time>
      </trkpt>
      <trkpt lat="43.65373" lon="6.73512">
        <ele>489.9</ele>
        <time>2009-09-13T08:14:28Z</time>
      </trkpt>
      <trkpt lat="43.65371" lon="6.73504">
        <ele>489.6</ele>
        <time>2009-09-13T08:14:29Z</time>
      </trkpt>
      <trkpt lat="43.65371" lon="6.73497">
        <ele>489.4</ele>
        <time>2009-09-13T08:14:30Z</time>
      </trkpt>
      <trkpt lat="43.65371" lon="6.73489">
        <ele>489.4</ele>
        <time>2009-09-13T08:14:31Z</time>
      </trkpt>
      <trkpt lat="43.65374" lon="6.73478">
        <ele>489.9</ele>
        <time>2009-09-13T08:14:33Z</time>
      </trkpt>
      <trkpt lat="43.65375" lon="6.73469">
        <ele>490</ele>
        <time>2009-09-13T08:14:35Z</time>
      </trkpt>
      <trkpt lat="43.65377" lon="6.73461">
        <ele>490.4</ele>
        <time>2009-09-13T08:14:38Z</time>
      </trkpt>
      <trkpt lat="43.6538" lon="6.73456">
        <ele>491</ele>
        <time>2009-09-13T08:14:42Z</time>
      </trkpt>
      <trkpt lat="43.65383" lon="6.73451">
        <ele>491.4</ele>
        <time>2009-09-13T08:14:45Z</time>
      </trkpt>
      <trkpt lat="43.65387" lon="6.73445">
        <ele>491.8</ele>
        <time>2009-09-13T08:14:49Z</time>
      </trkpt>
      <trkpt lat="43.65391" lon="6.73439">
        <ele>492.2</ele>
        <time>2009-09-13T08:14:52Z</time>
      </trkpt>
      <trkpt lat="43.65396" lon="6.73433">
        <ele>492.7</ele>
        <time>2009-09-13T08:14:55Z</time>
      </trkpt>
      <trkpt lat="43.654" lon="6.73426">
        <ele>493.2</ele>
        <time>2009-09-13T08:14:58Z</time>
      </trkpt>
      <trkpt lat="43.65404" lon="6.7342">
        <ele>493.6</ele>
        <time>2009-09-13T08:15:01Z</time>
      </trkpt>
      <trkpt lat="43.65409" lon="6.73416">
        <ele>494.2</ele>
        <time>2009-09-13T08:15:04Z</time>
      </trkpt>
      <trkpt lat="43.65413" lon="6.73411">
        <ele>494.8</ele>
        <time>2009-09-13T08:15:07Z</time>
      </trkpt>
      <trkpt lat="43.65417" lon="6.73408">
        <ele>495.4</ele>
        <time>2009-09-13T08:15:12Z</time>
      </trkpt>
      <trkpt lat="43.65421" lon="6.73403">
        <ele>496</ele>
        <time>2009-09-13T08:15:15Z</time>
      </trkpt>
      <trkpt lat="43.65426" lon="6.73399">
        <ele>496.5</ele>
        <time>2009-09-13T08:15:19Z</time>
      </trkpt>
      <trkpt lat="43.6543" lon="6.73396">
        <ele>497</ele>
        <time>2009-09-13T08:15:22Z</time>
      </trkpt>
      <trkpt lat="43.65435" lon="6.73392">
        <ele>497.3</ele>
        <time>2009-09-13T08:15:25Z</time>
      </trkpt>
      <trkpt lat="43.65441" lon="6.7339">
        <ele>497.8</ele>
        <time>2009-09-13T08:15:28Z</time>
      </trkpt>
      <trkpt lat="43.65446" lon="6.73389">
        <ele>498.1</ele>
        <time>2009-09-13T08:15:31Z</time>
      </trkpt>
      <trkpt lat="43.6545" lon="6.73385">
        <ele>498.3</ele>
        <time>2009-09-13T08:15:33Z</time>
      </trkpt>
      <trkpt lat="43.65453" lon="6.73378">
        <ele>498.7</ele>
        <time>2009-09-13T08:15:37Z</time>
      </trkpt>
      <trkpt lat="43.65457" lon="6.73374">
        <ele>499</ele>
        <time>2009-09-13T08:15:39Z</time>
      </trkpt>
      <trkpt lat="43.65462" lon="6.7337">
        <ele>499.3</ele>
        <time>2009-09-13T08:15:42Z</time>
      </trkpt>
      <trkpt lat="43.65466" lon="6.73364">
        <ele>499.7</ele>
        <time>2009-09-13T08:15:45Z</time>
      </trkpt>
      <trkpt lat="43.65468" lon="6.73358">
        <ele>499.9</ele>
        <time>2009-09-13T08:15:47Z</time>
      </trkpt>
      <trkpt lat="43.65471" lon="6.73351">
        <ele>500.3</ele>
        <time>2009-09-13T08:15:49Z</time>
      </trkpt>
      <trkpt lat="43.65474" lon="6.73345">
        <ele>500.6</ele>
        <time>2009-09-13T08:15:52Z</time>
      </trkpt>
      <trkpt lat="43.65475" lon="6.73338">
        <ele>500.8</ele>
        <time>2009-09-13T08:15:55Z</time>
      </trkpt>
      <trkpt lat="43.65471" lon="6.73335">
        <ele>500.8</ele>
        <time>2009-09-13T08:15:59Z</time>
      </trkpt>
      <trkpt lat="43.65466" lon="6.73331">
        <ele>500.6</ele>
        <time>2009-09-13T08:16:03Z</time>
      </trkpt>
      <trkpt lat="43.65461" lon="6.73325">
        <ele>500.1</ele>
        <time>2009-09-13T08:16:18Z</time>
      </trkpt>
      <trkpt lat="43.65458" lon="6.73319">
        <ele>499.7</ele>
        <time>2009-09-13T08:16:21Z</time>
      </trkpt>
      <trkpt lat="43.65457" lon="6.73312">
        <ele>499.5</ele>
        <time>2009-09-13T08:17:31Z</time>
      </trkpt>
      <trkpt lat="43.65456" lon="6.73305">
        <ele>499.3</ele>
        <time>2009-09-13T08:17:33Z</time>
      </trkpt>
      <trkpt lat="43.65451" lon="6.73299">
        <ele>499</ele>
        <time>2009-09-13T08:17:36Z</time>
      </trkpt>
      <trkpt lat="43.65446" lon="6.733">
        <ele>498.3</ele>
        <time>2009-09-13T08:17:38Z</time>
      </trkpt>
      <trkpt lat="43.65439" lon="6.73302">
        <ele>497.8</ele>
        <time>2009-09-13T08:17:40Z</time>
      </trkpt>
      <trkpt lat="43.65435" lon="6.73304">
        <ele>497.4</ele>
        <time>2009-09-13T08:17:42Z</time>
      </trkpt>
      <trkpt lat="43.65432" lon="6.73298">
        <ele>497.5</ele>
        <time>2009-09-13T08:17:46Z</time>
      </trkpt>
      <trkpt lat="43.65432" lon="6.73292">
        <ele>497.8</ele>
        <time>2009-09-13T08:17:48Z</time>
      </trkpt>
      <trkpt lat="43.65431" lon="6.73284">
        <ele>498.2</ele>
        <time>2009-09-13T08:17:50Z</time>
      </trkpt>
      <trkpt lat="43.65428" lon="6.73277">
        <ele>498.4</ele>
        <time>2009-09-13T08:17:52Z</time>
      </trkpt>
      <trkpt lat="43.65426" lon="6.7327">
        <ele>498.6</ele>
        <time>2009-09-13T08:17:54Z</time>
      </trkpt>
      <trkpt lat="43.65425" lon="6.73262">
        <ele>498.6</ele>
        <time>2009-09-13T08:17:56Z</time>
      </trkpt>
      <trkpt lat="43.65423" lon="6.73255">
        <ele>498.6</ele>
        <time>2009-09-13T08:17:58Z</time>
      </trkpt>
      <trkpt lat="43.65421" lon="6.73247">
        <ele>498.4</ele>
        <time>2009-09-13T08:18:01Z</time>
      </trkpt>
      <trkpt lat="43.65418" lon="6.73241">
        <ele>498.1</ele>
        <time>2009-09-13T08:18:04Z</time>
      </trkpt>
      <trkpt lat="43.65416" lon="6.73227">
        <ele>498</ele>
        <time>2009-09-13T08:18:26Z</time>
      </trkpt>
      <trkpt lat="43.65417" lon="6.73218">
        <ele>497.9</ele>
        <time>2009-09-13T08:18:29Z</time>
      </trkpt>
      <trkpt lat="43.65419" lon="6.73211">
        <ele>497.8</ele>
        <time>2009-09-13T08:18:31Z</time>
      </trkpt>
      <trkpt lat="43.65421" lon="6.73204">
        <ele>497.7</ele>
        <time>2009-09-13T08:18:33Z</time>
      </trkpt>
      <trkpt lat="43.65424" lon="6.73196">
        <ele>497.8</ele>
        <time>2009-09-13T08:18:35Z</time>
      </trkpt>
      <trkpt lat="43.65427" lon="6.73188">
        <ele>497.4</ele>
        <time>2009-09-13T08:18:37Z</time>
      </trkpt>
      <trkpt lat="43.65432" lon="6.7318">
        <ele>497.1</ele>
        <time>2009-09-13T08:18:39Z</time>
      </trkpt>
      <trkpt lat="43.65437" lon="6.73171">
        <ele>497</ele>
        <time>2009-09-13T08:18:41Z</time>
      </trkpt>
      <trkpt lat="43.65441" lon="6.73161">
        <ele>496.9</ele>
        <time>2009-09-13T08:18:43Z</time>
      </trkpt>
      <trkpt lat="43.65444" lon="6.73151">
        <ele>496.8</ele>
        <time>2009-09-13T08:18:45Z</time>
      </trkpt>
      <trkpt lat="43.65448" lon="6.7314">
        <ele>496.7</ele>
        <time>2009-09-13T08:18:47Z</time>
      </trkpt>
      <trkpt lat="43.65451" lon="6.7313">
        <ele>496.6</ele>
        <time>2009-09-13T08:18:49Z</time>
      </trkpt>
      <trkpt lat="43.65454" lon="6.73118">
        <ele>496.4</ele>
        <time>2009-09-13T08:18:51Z</time>
      </trkpt>
      <trkpt lat="43.65455" lon="6.73112">
        <ele>496.3</ele>
        <time>2009-09-13T08:18:52Z</time>
      </trkpt>
      <trkpt lat="43.65456" lon="6.73105">
        <ele>496.3</ele>
        <time>2009-09-13T08:18:53Z</time>
      </trkpt>
      <trkpt lat="43.65457" lon="6.73098">
        <ele>496.4</ele>
        <time>2009-09-13T08:18:54Z</time>
      </trkpt>
      <trkpt lat="43.65457" lon="6.7309">
        <ele>496.3</ele>
        <time>2009-09-13T08:18:55Z</time>
      </trkpt>
      <trkpt lat="43.65458" lon="6.73083">
        <ele>496.3</ele>
        <time>2009-09-13T08:18:56Z</time>
      </trkpt>
      <trkpt lat="43.65458" lon="6.73077">
        <ele>496.3</ele>
        <time>2009-09-13T08:18:57Z</time>
      </trkpt>
      <trkpt lat="43.65459" lon="6.7307">
        <ele>496.3</ele>
        <time>2009-09-13T08:18:58Z</time>
      </trkpt>
      <trkpt lat="43.6546" lon="6.73064">
        <ele>496.3</ele>
        <time>2009-09-13T08:18:59Z</time>
      </trkpt>
      <trkpt lat="43.65463" lon="6.73052">
        <ele>496.4</ele>
        <time>2009-09-13T08:19:01Z</time>
      </trkpt>
      <trkpt lat="43.65466" lon="6.73041">
        <ele>496.4</ele>
        <time>2009-09-13T08:19:03Z</time>
      </trkpt>
      <trkpt lat="43.65469" lon="6.73029">
        <ele>496.3</ele>
        <time>2009-09-13T08:19:05Z</time>
      </trkpt>
      <trkpt lat="43.65471" lon="6.73018">
        <ele>496.3</ele>
        <time>2009-09-13T08:19:07Z</time>
      </trkpt>
      <trkpt lat="43.65473" lon="6.73007">
        <ele>496.3</ele>
        <time>2009-09-13T08:19:09Z</time>
      </trkpt>
      <trkpt lat="43.65475" lon="6.72996">
        <ele>496.2</ele>
        <time>2009-09-13T08:19:11Z</time>
      </trkpt>
      <trkpt lat="43.65479" lon="6.72985">
        <ele>495.9</ele>
        <time>2009-09-13T08:19:13Z</time>
      </trkpt>
      <trkpt lat="43.65481" lon="6.72979">
        <ele>495.9</ele>
        <time>2009-09-13T08:19:14Z</time>
      </trkpt>
      <trkpt lat="43.65483" lon="6.72974">
        <ele>495.9</ele>
        <time>2009-09-13T08:19:15Z</time>
      </trkpt>
      <trkpt lat="43.65486" lon="6.72968">
        <ele>495.7</ele>
        <time>2009-09-13T08:19:16Z</time>
      </trkpt>
      <trkpt lat="43.65489" lon="6.72962">
        <ele>495.3</ele>
        <time>2009-09-13T08:19:17Z</time>
      </trkpt>
      <trkpt lat="43.65492" lon="6.72956">
        <ele>495.1</ele>
        <time>2009-09-13T08:19:18Z</time>
      </trkpt>
      <trkpt lat="43.65495" lon="6.7295">
        <ele>494.8</ele>
        <time>2009-09-13T08:19:19Z</time>
      </trkpt>
      <trkpt lat="43.65498" lon="6.72945">
        <ele>494.6</ele>
        <time>2009-09-13T08:19:20Z</time>
      </trkpt>
      <trkpt lat="43.65501" lon="6.72938">
        <ele>494.8</ele>
        <time>2009-09-13T08:19:21Z</time>
      </trkpt>
      <trkpt lat="43.65504" lon="6.72932">
        <ele>494.8</ele>
        <time>2009-09-13T08:19:22Z</time>
      </trkpt>
      <trkpt lat="43.65506" lon="6.72924">
        <ele>494.8</ele>
        <time>2009-09-13T08:19:23Z</time>
      </trkpt>
      <trkpt lat="43.65507" lon="6.72917">
        <ele>494.4</ele>
        <time>2009-09-13T08:19:24Z</time>
      </trkpt>
      <trkpt lat="43.65508" lon="6.7291">
        <ele>494.9</ele>
        <time>2009-09-13T08:19:25Z</time>
      </trkpt>
      <trkpt lat="43.65508" lon="6.72902">
        <ele>495.2</ele>
        <time>2009-09-13T08:19:26Z</time>
      </trkpt>
      <trkpt lat="43.65508" lon="6.72895">
        <ele>495.3</ele>
        <time>2009-09-13T08:19:27Z</time>
      </trkpt>
      <trkpt lat="43.65507" lon="6.72888">
        <ele>495.4</ele>
        <time>2009-09-13T08:19:28Z</time>
      </trkpt>
      <trkpt lat="43.65505" lon="6.72876">
        <ele>495.6</ele>
        <time>2009-09-13T08:19:30Z</time>
      </trkpt>
      <trkpt lat="43.65504" lon="6.72866">
        <ele>495.9</ele>
        <time>2009-09-13T08:19:32Z</time>
      </trkpt>
      <trkpt lat="43.65501" lon="6.72856">
        <ele>495.8</ele>
        <time>2009-09-13T08:19:34Z</time>
      </trkpt>
      <trkpt lat="43.65498" lon="6.72845">
        <ele>495.5</ele>
        <time>2009-09-13T08:19:36Z</time>
      </trkpt>
      <trkpt lat="43.65494" lon="6.72836">
        <ele>494.9</ele>
        <time>2009-09-13T08:19:38Z</time>
      </trkpt>
      <trkpt lat="43.65492" lon="6.7283">
        <ele>494.7</ele>
        <time>2009-09-13T08:19:39Z</time>
      </trkpt>
      <trkpt lat="43.65491" lon="6.72823">
        <ele>494.7</ele>
        <time>2009-09-13T08:19:40Z</time>
      </trkpt>
      <trkpt lat="43.6549" lon="6.72817">
        <ele>494.8</ele>
        <time>2009-09-13T08:19:41Z</time>
      </trkpt>
      <trkpt lat="43.65489" lon="6.7281">
        <ele>495</ele>
        <time>2009-09-13T08:19:42Z</time>
      </trkpt>
      <trkpt lat="43.65488" lon="6.72803">
        <ele>495.1</ele>
        <time>2009-09-13T08:19:43Z</time>
      </trkpt>
      <trkpt lat="43.65486" lon="6.72797">
        <ele>495.1</ele>
        <time>2009-09-13T08:19:44Z</time>
      </trkpt>
      <trkpt lat="43.65484" lon="6.7279">
        <ele>494.7</ele>
        <time>2009-09-13T08:19:45Z</time>
      </trkpt>
      <trkpt lat="43.65482" lon="6.72783">
        <ele>494.1</ele>
        <time>2009-09-13T08:19:46Z</time>
      </trkpt>
      <trkpt lat="43.65479" lon="6.72777">
        <ele>493.6</ele>
        <time>2009-09-13T08:19:47Z</time>
      </trkpt>
      <trkpt lat="43.65477" lon="6.72771">
        <ele>493.6</ele>
        <time>2009-09-13T08:19:48Z</time>
      </trkpt>
      <trkpt lat="43.65474" lon="6.72765">
        <ele>493.7</ele>
        <time>2009-09-13T08:19:49Z</time>
      </trkpt>
      <trkpt lat="43.65472" lon="6.72758">
        <ele>493.7</ele>
        <time>2009-09-13T08:19:50Z</time>
      </trkpt>
      <trkpt lat="43.6547" lon="6.72752">
        <ele>494</ele>
        <time>2009-09-13T08:19:51Z</time>
      </trkpt>
      <trkpt lat="43.65468" lon="6.72745">
        <ele>494.2</ele>
        <time>2009-09-13T08:19:52Z</time>
      </trkpt>
      <trkpt lat="43.65465" lon="6.72734">
        <ele>494.4</ele>
        <time>2009-09-13T08:19:54Z</time>
      </trkpt>
      <trkpt lat="43.65461" lon="6.72724">
        <ele>494.2</ele>
        <time>2009-09-13T08:19:56Z</time>
      </trkpt>
      <trkpt lat="43.65458" lon="6.72714">
        <ele>494.3</ele>
        <time>2009-09-13T08:19:58Z</time>
      </trkpt>
      <trkpt lat="43.65454" lon="6.72704">
        <ele>494.3</ele>
        <time>2009-09-13T08:20:00Z</time>
      </trkpt>
      <trkpt lat="43.65452" lon="6.72697">
        <ele>494.4</ele>
        <time>2009-09-13T08:20:01Z</time>
      </trkpt>
      <trkpt lat="43.6545" lon="6.7269">
        <ele>494.3</ele>
        <time>2009-09-13T08:20:02Z</time>
      </trkpt>
      <trkpt lat="43.65448" lon="6.72683">
        <ele>494.1</ele>
        <time>2009-09-13T08:20:03Z</time>
      </trkpt>
      <trkpt lat="43.65446" lon="6.72676">
        <ele>493.9</ele>
        <time>2009-09-13T08:20:04Z</time>
      </trkpt>
      <trkpt lat="43.65444" lon="6.72668">
        <ele>493.7</ele>
        <time>2009-09-13T08:20:05Z</time>
      </trkpt>
      <trkpt lat="43.65442" lon="6.7266">
        <ele>493.5</ele>
        <time>2009-09-13T08:20:06Z</time>
      </trkpt>
      <trkpt lat="43.65439" lon="6.72652">
        <ele>493.3</ele>
        <time>2009-09-13T08:20:07Z</time>
      </trkpt>
      <trkpt lat="43.65437" lon="6.72646">
        <ele>493.1</ele>
        <time>2009-09-13T08:20:08Z</time>
      </trkpt>
      <trkpt lat="43.65435" lon="6.72639">
        <ele>493</ele>
        <time>2009-09-13T08:20:09Z</time>
      </trkpt>
      <trkpt lat="43.65433" lon="6.72633">
        <ele>493.3</ele>
        <time>2009-09-13T08:20:10Z</time>
      </trkpt>
      <trkpt lat="43.65431" lon="6.72627">
        <ele>493.5</ele>
        <time>2009-09-13T08:20:11Z</time>
      </trkpt>
      <trkpt lat="43.65427" lon="6.72616">
        <ele>494.1</ele>
        <time>2009-09-13T08:20:13Z</time>
      </trkpt>
      <trkpt lat="43.65423" lon="6.72607">
        <ele>494.3</ele>
        <time>2009-09-13T08:20:15Z</time>
      </trkpt>
      <trkpt lat="43.6542" lon="6.72597">
        <ele>494.4</ele>
        <time>2009-09-13T08:20:17Z</time>
      </trkpt>
      <trkpt lat="43.65417" lon="6.72588">
        <ele>494.5</ele>
        <time>2009-09-13T08:20:19Z</time>
      </trkpt>
      <trkpt lat="43.65415" lon="6.72579">
        <ele>494.6</ele>
        <time>2009-09-13T08:20:21Z</time>
      </trkpt>
      <trkpt lat="43.65414" lon="6.72568">
        <ele>494.2</ele>
        <time>2009-09-13T08:20:23Z</time>
      </trkpt>
      <trkpt lat="43.65413" lon="6.72557">
        <ele>493.9</ele>
        <time>2009-09-13T08:20:25Z</time>
      </trkpt>
      <trkpt lat="43.65412" lon="6.72544">
        <ele>493.7</ele>
        <time>2009-09-13T08:20:27Z</time>
      </trkpt>
      <trkpt lat="43.65412" lon="6.72531">
        <ele>493.5</ele>
        <time>2009-09-13T08:20:29Z</time>
      </trkpt>
      <trkpt lat="43.65412" lon="6.7252">
        <ele>493.2</ele>
        <time>2009-09-13T08:20:31Z</time>
      </trkpt>
      <trkpt lat="43.65412" lon="6.7251">
        <ele>493</ele>
        <time>2009-09-13T08:20:33Z</time>
      </trkpt>
      <trkpt lat="43.65412" lon="6.72504">
        <ele>492.8</ele>
        <time>2009-09-13T08:20:35Z</time>
      </trkpt>
      <trkpt lat="43.65413" lon="6.72497">
        <ele>492.7</ele>
        <time>2009-09-13T08:20:40Z</time>
      </trkpt>
      <trkpt lat="43.65417" lon="6.72493">
        <ele>493.7</ele>
        <time>2009-09-13T08:21:11Z</time>
      </trkpt>
      <trkpt lat="43.65418" lon="6.72485">
        <ele>494</ele>
        <time>2009-09-13T08:21:13Z</time>
      </trkpt>
      <trkpt lat="43.6542" lon="6.72474">
        <ele>494.4</ele>
        <time>2009-09-13T08:21:15Z</time>
      </trkpt>
      <trkpt lat="43.65421" lon="6.72462">
        <ele>494.1</ele>
        <time>2009-09-13T08:21:17Z</time>
      </trkpt>
      <trkpt lat="43.6542" lon="6.72455">
        <ele>493.6</ele>
        <time>2009-09-13T08:21:18Z</time>
      </trkpt>
      <trkpt lat="43.6542" lon="6.72448">
        <ele>493.2</ele>
        <time>2009-09-13T08:21:19Z</time>
      </trkpt>
      <trkpt lat="43.65419" lon="6.72442">
        <ele>492.9</ele>
        <time>2009-09-13T08:21:20Z</time>
      </trkpt>
      <trkpt lat="43.65417" lon="6.72435">
        <ele>492.9</ele>
        <time>2009-09-13T08:21:21Z</time>
      </trkpt>
      <trkpt lat="43.65416" lon="6.72428">
        <ele>492.9</ele>
        <time>2009-09-13T08:21:22Z</time>
      </trkpt>
      <trkpt lat="43.65414" lon="6.72422">
        <ele>492.8</ele>
        <time>2009-09-13T08:21:23Z</time>
      </trkpt>
      <trkpt lat="43.65412" lon="6.72416">
        <ele>492.8</ele>
        <time>2009-09-13T08:21:24Z</time>
      </trkpt>
      <trkpt lat="43.6541" lon="6.72409">
        <ele>492.7</ele>
        <time>2009-09-13T08:21:25Z</time>
      </trkpt>
      <trkpt lat="43.65407" lon="6.72402">
        <ele>492.7</ele>
        <time>2009-09-13T08:21:26Z</time>
      </trkpt>
      <trkpt lat="43.65405" lon="6.72395">
        <ele>492.8</ele>
        <time>2009-09-13T08:21:27Z</time>
      </trkpt>
      <trkpt lat="43.65402" lon="6.72388">
        <ele>492.9</ele>
        <time>2009-09-13T08:21:28Z</time>
      </trkpt>
      <trkpt lat="43.65399" lon="6.72382">
        <ele>492.9</ele>
        <time>2009-09-13T08:21:29Z</time>
      </trkpt>
      <trkpt lat="43.65395" lon="6.72377">
        <ele>492.6</ele>
        <time>2009-09-13T08:21:30Z</time>
      </trkpt>
      <trkpt lat="43.65391" lon="6.72372">
        <ele>492.3</ele>
        <time>2009-09-13T08:21:31Z</time>
      </trkpt>
      <trkpt lat="43.65387" lon="6.72368">
        <ele>492</ele>
        <time>2009-09-13T08:21:32Z</time>
      </trkpt>
      <trkpt lat="43.65384" lon="6.72364">
        <ele>492.1</ele>
        <time>2009-09-13T08:21:33Z</time>
      </trkpt>
      <trkpt lat="43.6538" lon="6.72359">
        <ele>492.3</ele>
        <time>2009-09-13T08:21:34Z</time>
      </trkpt>
      <trkpt lat="43.65377" lon="6.72354">
        <ele>492.6</ele>
        <time>2009-09-13T08:21:35Z</time>
      </trkpt>
      <trkpt lat="43.65375" lon="6.72349">
        <ele>492.8</ele>
        <time>2009-09-13T08:21:36Z</time>
      </trkpt>
      <trkpt lat="43.65372" lon="6.72343">
        <ele>492.9</ele>
        <time>2009-09-13T08:21:37Z</time>
      </trkpt>
      <trkpt lat="43.65369" lon="6.72338">
        <ele>493</ele>
        <time>2009-09-13T08:21:38Z</time>
      </trkpt>
      <trkpt lat="43.65366" lon="6.72333">
        <ele>492.9</ele>
        <time>2009-09-13T08:21:39Z</time>
      </trkpt>
      <trkpt lat="43.65362" lon="6.72327">
        <ele>492.6</ele>
        <time>2009-09-13T08:21:40Z</time>
      </trkpt>
      <trkpt lat="43.65359" lon="6.72322">
        <ele>492.4</ele>
        <time>2009-09-13T08:21:41Z</time>
      </trkpt>
      <trkpt lat="43.65356" lon="6.72316">
        <ele>492.3</ele>
        <time>2009-09-13T08:21:42Z</time>
      </trkpt>
      <trkpt lat="43.65353" lon="6.72311">
        <ele>492.1</ele>
        <time>2009-09-13T08:21:43Z</time>
      </trkpt>
      <trkpt lat="43.6535" lon="6.72305">
        <ele>492</ele>
        <time>2009-09-13T08:21:44Z</time>
      </trkpt>
      <trkpt lat="43.65347" lon="6.723">
        <ele>492</ele>
        <time>2009-09-13T08:21:45Z</time>
      </trkpt>
      <trkpt lat="43.65345" lon="6.72294">
        <ele>492</ele>
        <time>2009-09-13T08:21:46Z</time>
      </trkpt>
      <trkpt lat="43.65342" lon="6.72288">
        <ele>492.1</ele>
        <time>2009-09-13T08:21:47Z</time>
      </trkpt>
      <trkpt lat="43.6534" lon="6.72281">
        <ele>492.1</ele>
        <time>2009-09-13T08:21:48Z</time>
      </trkpt>
      <trkpt lat="43.65338" lon="6.72275">
        <ele>492.2</ele>
        <time>2009-09-13T08:21:49Z</time>
      </trkpt>
      <trkpt lat="43.65336" lon="6.72269">
        <ele>492.1</ele>
        <time>2009-09-13T08:21:50Z</time>
      </trkpt>
      <trkpt lat="43.65333" lon="6.72263">
        <ele>492.1</ele>
        <time>2009-09-13T08:21:51Z</time>
      </trkpt>
      <trkpt lat="43.65331" lon="6.72257">
        <ele>492</ele>
        <time>2009-09-13T08:21:52Z</time>
      </trkpt>
      <trkpt lat="43.65328" lon="6.72251">
        <ele>492</ele>
        <time>2009-09-13T08:21:53Z</time>
      </trkpt>
      <trkpt lat="43.65326" lon="6.72245">
        <ele>491.9</ele>
        <time>2009-09-13T08:21:54Z</time>
      </trkpt>
      <trkpt lat="43.65324" lon="6.72239">
        <ele>491.8</ele>
        <time>2009-09-13T08:21:55Z</time>
      </trkpt>
      <trkpt lat="43.65321" lon="6.72234">
        <ele>491.7</ele>
        <time>2009-09-13T08:21:56Z</time>
      </trkpt>
      <trkpt lat="43.65319" lon="6.72227">
        <ele>491.7</ele>
        <time>2009-09-13T08:21:57Z</time>
      </trkpt>
      <trkpt lat="43.65317" lon="6.72221">
        <ele>491.7</ele>
        <time>2009-09-13T08:21:58Z</time>
      </trkpt>
      <trkpt lat="43.65315" lon="6.72215">
        <ele>491.9</ele>
        <time>2009-09-13T08:21:59Z</time>
      </trkpt>
      <trkpt lat="43.65312" lon="6.72208">
        <ele>492</ele>
        <time>2009-09-13T08:22:00Z</time>
      </trkpt>
      <trkpt lat="43.65311" lon="6.72201">
        <ele>492.2</ele>
        <time>2009-09-13T08:22:01Z</time>
      </trkpt>
      <trkpt lat="43.65309" lon="6.72195">
        <ele>492.4</ele>
        <time>2009-09-13T08:22:02Z</time>
      </trkpt>
      <trkpt lat="43.65308" lon="6.72189">
        <ele>492.3</ele>
        <time>2009-09-13T08:22:03Z</time>
      </trkpt>
      <trkpt lat="43.65306" lon="6.72182">
        <ele>492.1</ele>
        <time>2009-09-13T08:22:04Z</time>
      </trkpt>
      <trkpt lat="43.65305" lon="6.72176">
        <ele>491.9</ele>
        <time>2009-09-13T08:22:05Z</time>
      </trkpt>
      <trkpt lat="43.65304" lon="6.72169">
        <ele>491.7</ele>
        <time>2009-09-13T08:22:06Z</time>
      </trkpt>
      <trkpt lat="43.65302" lon="6.72161">
        <ele>491.5</ele>
        <time>2009-09-13T08:22:07Z</time>
      </trkpt>
      <trkpt lat="43.65301" lon="6.72154">
        <ele>491.3</ele>
        <time>2009-09-13T08:22:08Z</time>
      </trkpt>
      <trkpt lat="43.653" lon="6.72147">
        <ele>491.1</ele>
        <time>2009-09-13T08:22:09Z</time>
      </trkpt>
      <trkpt lat="43.653" lon="6.7214">
        <ele>490.9</ele>
        <time>2009-09-13T08:22:10Z</time>
      </trkpt>
      <trkpt lat="43.65299" lon="6.72133">
        <ele>490.9</ele>
        <time>2009-09-13T08:22:11Z</time>
      </trkpt>
      <trkpt lat="43.65298" lon="6.72125">
        <ele>490.9</ele>
        <time>2009-09-13T08:22:12Z</time>
      </trkpt>
      <trkpt lat="43.65297" lon="6.72118">
        <ele>490.7</ele>
        <time>2009-09-13T08:22:13Z</time>
      </trkpt>
      <trkpt lat="43.65297" lon="6.7211">
        <ele>490.7</ele>
        <time>2009-09-13T08:22:14Z</time>
      </trkpt>
      <trkpt lat="43.65297" lon="6.72103">
        <ele>490.3</ele>
        <time>2009-09-13T08:22:15Z</time>
      </trkpt>
      <trkpt lat="43.65298" lon="6.72095">
        <ele>490.1</ele>
        <time>2009-09-13T08:22:16Z</time>
      </trkpt>
      <trkpt lat="43.65299" lon="6.72088">
        <ele>489.9</ele>
        <time>2009-09-13T08:22:17Z</time>
      </trkpt>
      <trkpt lat="43.65301" lon="6.72081">
        <ele>489.8</ele>
        <time>2009-09-13T08:22:18Z</time>
      </trkpt>
      <trkpt lat="43.65302" lon="6.72073">
        <ele>489.9</ele>
        <time>2009-09-13T08:22:19Z</time>
      </trkpt>
      <trkpt lat="43.65304" lon="6.72066">
        <ele>490</ele>
        <time>2009-09-13T08:22:20Z</time>
      </trkpt>
      <trkpt lat="43.65306" lon="6.72059">
        <ele>490.2</ele>
        <time>2009-09-13T08:22:21Z</time>
      </trkpt>
      <trkpt lat="43.65308" lon="6.72052">
        <ele>490.2</ele>
        <time>2009-09-13T08:22:22Z</time>
      </trkpt>
      <trkpt lat="43.6531" lon="6.72046">
        <ele>490.2</ele>
        <time>2009-09-13T08:22:23Z</time>
      </trkpt>
      <trkpt lat="43.65313" lon="6.72039">
        <ele>490.2</ele>
        <time>2009-09-13T08:22:24Z</time>
      </trkpt>
      <trkpt lat="43.65315" lon="6.72033">
        <ele>490.2</ele>
        <time>2009-09-13T08:22:25Z</time>
      </trkpt>
      <trkpt lat="43.65318" lon="6.72027">
        <ele>490.1</ele>
        <time>2009-09-13T08:22:26Z</time>
      </trkpt>
      <trkpt lat="43.65321" lon="6.72022">
        <ele>489.4</ele>
        <time>2009-09-13T08:22:27Z</time>
      </trkpt>
      <trkpt lat="43.65324" lon="6.72016">
        <ele>488.8</ele>
        <time>2009-09-13T08:22:28Z</time>
      </trkpt>
      <trkpt lat="43.65328" lon="6.7201">
        <ele>488.2</ele>
        <time>2009-09-13T08:22:29Z</time>
      </trkpt>
      <trkpt lat="43.65332" lon="6.72004">
        <ele>487.6</ele>
        <time>2009-09-13T08:22:30Z</time>
      </trkpt>
      <trkpt lat="43.65335" lon="6.71997">
        <ele>487.4</ele>
        <time>2009-09-13T08:22:31Z</time>
      </trkpt>
      <trkpt lat="43.65336" lon="6.71989">
        <ele>487.9</ele>
        <time>2009-09-13T08:22:32Z</time>
      </trkpt>
      <trkpt lat="43.65336" lon="6.71981">
        <ele>488.2</ele>
        <time>2009-09-13T08:22:33Z</time>
      </trkpt>
      <trkpt lat="43.65335" lon="6.71974">
        <ele>488.2</ele>
        <time>2009-09-13T08:22:34Z</time>
      </trkpt>
      <trkpt lat="43.65332" lon="6.71969">
        <ele>488.8</ele>
        <time>2009-09-13T08:22:35Z</time>
      </trkpt>
      <trkpt lat="43.65327" lon="6.71966">
        <ele>489.3</ele>
        <time>2009-09-13T08:22:36Z</time>
      </trkpt>
      <trkpt lat="43.65321" lon="6.71965">
        <ele>489</ele>
        <time>2009-09-13T08:22:37Z</time>
      </trkpt>
      <trkpt lat="43.65315" lon="6.71965">
        <ele>488.5</ele>
        <time>2009-09-13T08:22:38Z</time>
      </trkpt>
      <trkpt lat="43.65309" lon="6.71963">
        <ele>488.3</ele>
        <time>2009-09-13T08:22:39Z</time>
      </trkpt>
      <trkpt lat="43.65304" lon="6.71962">
        <ele>488</ele>
        <time>2009-09-13T08:22:40Z</time>
      </trkpt>
      <trkpt lat="43.65299" lon="6.71961">
        <ele>487.9</ele>
        <time>2009-09-13T08:22:41Z</time>
      </trkpt>
      <trkpt lat="43.65293" lon="6.7196">
        <ele>487.6</ele>
        <time>2009-09-13T08:22:42Z</time>
      </trkpt>
      <trkpt lat="43.65288" lon="6.71959">
        <ele>487.5</ele>
        <time>2009-09-13T08:22:43Z</time>
      </trkpt>
      <trkpt lat="43.65283" lon="6.71957">
        <ele>487.5</ele>
        <time>2009-09-13T08:22:44Z</time>
      </trkpt>
      <trkpt lat="43.65278" lon="6.71954">
        <ele>487.7</ele>
        <time>2009-09-13T08:22:45Z</time>
      </trkpt>
      <trkpt lat="43.65273" lon="6.7195">
        <ele>487.8</ele>
        <time>2009-09-13T08:22:46Z</time>
      </trkpt>
      <trkpt lat="43.65269" lon="6.71946">
        <ele>488.1</ele>
        <time>2009-09-13T08:22:47Z</time>
      </trkpt>
      <trkpt lat="43.65266" lon="6.71942">
        <ele>488.2</ele>
        <time>2009-09-13T08:22:48Z</time>
      </trkpt>
      <trkpt lat="43.65262" lon="6.71937">
        <ele>488.4</ele>
        <time>2009-09-13T08:22:49Z</time>
      </trkpt>
      <trkpt lat="43.65256" lon="6.71927">
        <ele>488.8</ele>
        <time>2009-09-13T08:22:51Z</time>
      </trkpt>
      <trkpt lat="43.65253" lon="6.71916">
        <ele>489.6</ele>
        <time>2009-09-13T08:22:53Z</time>
      </trkpt>
      <trkpt lat="43.65252" lon="6.7191">
        <ele>489.4</ele>
        <time>2009-09-13T08:22:54Z</time>
      </trkpt>
      <trkpt lat="43.65251" lon="6.71903">
        <ele>489.2</ele>
        <time>2009-09-13T08:22:55Z</time>
      </trkpt>
      <trkpt lat="43.6525" lon="6.7189">
        <ele>489.1</ele>
        <time>2009-09-13T08:22:57Z</time>
      </trkpt>
      <trkpt lat="43.6525" lon="6.71884">
        <ele>489.1</ele>
        <time>2009-09-13T08:22:58Z</time>
      </trkpt>
      <trkpt lat="43.6525" lon="6.71877">
        <ele>489.1</ele>
        <time>2009-09-13T08:22:59Z</time>
      </trkpt>
      <trkpt lat="43.6525" lon="6.71869">
        <ele>489</ele>
        <time>2009-09-13T08:23:00Z</time>
      </trkpt>
      <trkpt lat="43.6525" lon="6.71861">
        <ele>488.9</ele>
        <time>2009-09-13T08:23:01Z</time>
      </trkpt>
      <trkpt lat="43.65249" lon="6.71854">
        <ele>488.4</ele>
        <time>2009-09-13T08:23:02Z</time>
      </trkpt>
      <trkpt lat="43.65249" lon="6.71846">
        <ele>488</ele>
        <time>2009-09-13T08:23:03Z</time>
      </trkpt>
      <trkpt lat="43.65248" lon="6.71839">
        <ele>487.5</ele>
        <time>2009-09-13T08:23:04Z</time>
      </trkpt>
      <trkpt lat="43.65248" lon="6.71832">
        <ele>487.1</ele>
        <time>2009-09-13T08:23:05Z</time>
      </trkpt>
      <trkpt lat="43.65247" lon="6.71824">
        <ele>487</ele>
        <time>2009-09-13T08:23:06Z</time>
      </trkpt>
      <trkpt lat="43.65248" lon="6.71817">
        <ele>487</ele>
        <time>2009-09-13T08:23:07Z</time>
      </trkpt>
      <trkpt lat="43.65248" lon="6.7181">
        <ele>487.2</ele>
        <time>2009-09-13T08:23:08Z</time>
      </trkpt>
      <trkpt lat="43.65249" lon="6.71803">
        <ele>487.3</ele>
        <time>2009-09-13T08:23:09Z</time>
      </trkpt>
      <trkpt lat="43.65249" lon="6.71796">
        <ele>487.4</ele>
        <time>2009-09-13T08:23:10Z</time>
      </trkpt>
      <trkpt lat="43.6525" lon="6.71789">
        <ele>487.5</ele>
        <time>2009-09-13T08:23:11Z</time>
      </trkpt>
      <trkpt lat="43.65251" lon="6.71781">
        <ele>487.3</ele>
        <time>2009-09-13T08:23:12Z</time>
      </trkpt>
      <trkpt lat="43.65251" lon="6.71774">
        <ele>487.4</ele>
        <time>2009-09-13T08:23:13Z</time>
      </trkpt>
      <trkpt lat="43.65252" lon="6.71768">
        <ele>487.8</ele>
        <time>2009-09-13T08:23:14Z</time>
      </trkpt>
      <trkpt lat="43.65253" lon="6.71761">
        <ele>488.2</ele>
        <time>2009-09-13T08:23:15Z</time>
      </trkpt>
      <trkpt lat="43.65254" lon="6.71755">
        <ele>488.6</ele>
        <time>2009-09-13T08:23:16Z</time>
      </trkpt>
      <trkpt lat="43.65256" lon="6.71743">
        <ele>488.9</ele>
        <time>2009-09-13T08:23:18Z</time>
      </trkpt>
      <trkpt lat="43.65259" lon="6.71732">
        <ele>488.9</ele>
        <time>2009-09-13T08:23:20Z</time>
      </trkpt>
      <trkpt lat="43.65261" lon="6.71721">
        <ele>488.9</ele>
        <time>2009-09-13T08:23:22Z</time>
      </trkpt>
      <trkpt lat="43.65263" lon="6.7171">
        <ele>488.8</ele>
        <time>2009-09-13T08:23:24Z</time>
      </trkpt>
      <trkpt lat="43.65265" lon="6.71699">
        <ele>488.6</ele>
        <time>2009-09-13T08:23:26Z</time>
      </trkpt>
      <trkpt lat="43.65266" lon="6.71687">
        <ele>488.9</ele>
        <time>2009-09-13T08:23:28Z</time>
      </trkpt>
      <trkpt lat="43.65265" lon="6.71675">
        <ele>489.1</ele>
        <time>2009-09-13T08:23:30Z</time>
      </trkpt>
      <trkpt lat="43.65264" lon="6.71663">
        <ele>489.1</ele>
        <time>2009-09-13T08:23:32Z</time>
      </trkpt>
      <trkpt lat="43.65263" lon="6.7165">
        <ele>489.3</ele>
        <time>2009-09-13T08:23:34Z</time>
      </trkpt>
      <trkpt lat="43.65262" lon="6.71638">
        <ele>489.4</ele>
        <time>2009-09-13T08:23:36Z</time>
      </trkpt>
      <trkpt lat="43.65262" lon="6.71626">
        <ele>489.1</ele>
        <time>2009-09-13T08:23:38Z</time>
      </trkpt>
      <trkpt lat="43.65261" lon="6.71619">
        <ele>489.1</ele>
        <time>2009-09-13T08:23:39Z</time>
      </trkpt>
      <trkpt lat="43.65261" lon="6.71606">
        <ele>488.8</ele>
        <time>2009-09-13T08:23:41Z</time>
      </trkpt>
      <trkpt lat="43.65261" lon="6.716">
        <ele>488.7</ele>
        <time>2009-09-13T08:23:42Z</time>
      </trkpt>
      <trkpt lat="43.6526" lon="6.71593">
        <ele>488.5</ele>
        <time>2009-09-13T08:23:43Z</time>
      </trkpt>
      <trkpt lat="43.65261" lon="6.71586">
        <ele>488.4</ele>
        <time>2009-09-13T08:23:44Z</time>
      </trkpt>
      <trkpt lat="43.65261" lon="6.71579">
        <ele>488.4</ele>
        <time>2009-09-13T08:23:45Z</time>
      </trkpt>
      <trkpt lat="43.65261" lon="6.71572">
        <ele>488.4</ele>
        <time>2009-09-13T08:23:46Z</time>
      </trkpt>
      <trkpt lat="43.65261" lon="6.71564">
        <ele>488.3</ele>
        <time>2009-09-13T08:23:47Z</time>
      </trkpt>
      <trkpt lat="43.65262" lon="6.71557">
        <ele>488.3</ele>
        <time>2009-09-13T08:23:48Z</time>
      </trkpt>
      <trkpt lat="43.65262" lon="6.7155">
        <ele>488.3</ele>
        <time>2009-09-13T08:23:49Z</time>
      </trkpt>
      <trkpt lat="43.65262" lon="6.71542">
        <ele>488.2</ele>
        <time>2009-09-13T08:23:50Z</time>
      </trkpt>
      <trkpt lat="43.65262" lon="6.71535">
        <ele>488.2</ele>
        <time>2009-09-13T08:23:51Z</time>
      </trkpt>
      <trkpt lat="43.65262" lon="6.71527">
        <ele>488</ele>
        <time>2009-09-13T08:23:52Z</time>
      </trkpt>
      <trkpt lat="43.65262" lon="6.71519">
        <ele>488</ele>
        <time>2009-09-13T08:23:53Z</time>
      </trkpt>
      <trkpt lat="43.65261" lon="6.71512">
        <ele>487.8</ele>
        <time>2009-09-13T08:23:54Z</time>
      </trkpt>
      <trkpt lat="43.6526" lon="6.71504">
        <ele>487.7</ele>
        <time>2009-09-13T08:23:55Z</time>
      </trkpt>
      <trkpt lat="43.65258" lon="6.71497">
        <ele>487.5</ele>
        <time>2009-09-13T08:23:56Z</time>
      </trkpt>
      <trkpt lat="43.65257" lon="6.71489">
        <ele>487.4</ele>
        <time>2009-09-13T08:23:57Z</time>
      </trkpt>
      <trkpt lat="43.65255" lon="6.71482">
        <ele>487.1</ele>
        <time>2009-09-13T08:23:58Z</time>
      </trkpt>
      <trkpt lat="43.65254" lon="6.71475">
        <ele>486.8</ele>
        <time>2009-09-13T08:23:59Z</time>
      </trkpt>
      <trkpt lat="43.65251" lon="6.71467">
        <ele>486.7</ele>
        <time>2009-09-13T08:24:00Z</time>
      </trkpt>
      <trkpt lat="43.65249" lon="6.7146">
        <ele>486.7</ele>
        <time>2009-09-13T08:24:01Z</time>
      </trkpt>
      <trkpt lat="43.65247" lon="6.71453">
        <ele>486.8</ele>
        <time>2009-09-13T08:24:02Z</time>
      </trkpt>
      <trkpt lat="43.65246" lon="6.71446">
        <ele>486.9</ele>
        <time>2009-09-13T08:24:03Z</time>
      </trkpt>
      <trkpt lat="43.65244" lon="6.71438">
        <ele>487</ele>
        <time>2009-09-13T08:24:04Z</time>
      </trkpt>
      <trkpt lat="43.65242" lon="6.71431">
        <ele>487.1</ele>
        <time>2009-09-13T08:24:05Z</time>
      </trkpt>
      <trkpt lat="43.65241" lon="6.71423">
        <ele>487.3</ele>
        <time>2009-09-13T08:24:06Z</time>
      </trkpt>
      <trkpt lat="43.6524" lon="6.71415">
        <ele>487.5</ele>
        <time>2009-09-13T08:24:07Z</time>
      </trkpt>
      <trkpt lat="43.65239" lon="6.71407">
        <ele>487.3</ele>
        <time>2009-09-13T08:24:08Z</time>
      </trkpt>
      <trkpt lat="43.65237" lon="6.71399">
        <ele>487.2</ele>
        <time>2009-09-13T08:24:09Z</time>
      </trkpt>
      <trkpt lat="43.65236" lon="6.71391">
        <ele>487</ele>
        <time>2009-09-13T08:24:10Z</time>
      </trkpt>
      <trkpt lat="43.65235" lon="6.71383">
        <ele>486.9</ele>
        <time>2009-09-13T08:24:11Z</time>
      </trkpt>
      <trkpt lat="43.65234" lon="6.71375">
        <ele>486.8</ele>
        <time>2009-09-13T08:24:12Z</time>
      </trkpt>
      <trkpt lat="43.65232" lon="6.71366">
        <ele>486.7</ele>
        <time>2009-09-13T08:24:13Z</time>
      </trkpt>
      <trkpt lat="43.65231" lon="6.71357">
        <ele>486.7</ele>
        <time>2009-09-13T08:24:14Z</time>
      </trkpt>
      <trkpt lat="43.65229" lon="6.71349">
        <ele>486.8</ele>
        <time>2009-09-13T08:24:15Z</time>
      </trkpt>
      <trkpt lat="43.65228" lon="6.71341">
        <ele>486.9</ele>
        <time>2009-09-13T08:24:16Z</time>
      </trkpt>
      <trkpt lat="43.65226" lon="6.71333">
        <ele>486.9</ele>
        <time>2009-09-13T08:24:17Z</time>
      </trkpt>
      <trkpt lat="43.65225" lon="6.71325">
        <ele>486.9</ele>
        <time>2009-09-13T08:24:18Z</time>
      </trkpt>
      <trkpt lat="43.65223" lon="6.71318">
        <ele>486.8</ele>
        <time>2009-09-13T08:24:19Z</time>
      </trkpt>
      <trkpt lat="43.65222" lon="6.71304">
        <ele>487</ele>
        <time>2009-09-13T08:24:21Z</time>
      </trkpt>
      <trkpt lat="43.65221" lon="6.71297">
        <ele>486.8</ele>
        <time>2009-09-13T08:24:22Z</time>
      </trkpt>
      <trkpt lat="43.65221" lon="6.71289">
        <ele>486.7</ele>
        <time>2009-09-13T08:24:23Z</time>
      </trkpt>
      <trkpt lat="43.6522" lon="6.71281">
        <ele>486.5</ele>
        <time>2009-09-13T08:24:24Z</time>
      </trkpt>
      <trkpt lat="43.65219" lon="6.71273">
        <ele>486.3</ele>
        <time>2009-09-13T08:24:25Z</time>
      </trkpt>
      <trkpt lat="43.65219" lon="6.71265">
        <ele>486.2</ele>
        <time>2009-09-13T08:24:26Z</time>
      </trkpt>
      <trkpt lat="43.65219" lon="6.71257">
        <ele>486.1</ele>
        <time>2009-09-13T08:24:27Z</time>
      </trkpt>
      <trkpt lat="43.65219" lon="6.71249">
        <ele>486</ele>
        <time>2009-09-13T08:24:28Z</time>
      </trkpt>
      <trkpt lat="43.65219" lon="6.71242">
        <ele>486</ele>
        <time>2009-09-13T08:24:29Z</time>
      </trkpt>
      <trkpt lat="43.65219" lon="6.71235">
        <ele>486</ele>
        <time>2009-09-13T08:24:30Z</time>
      </trkpt>
      <trkpt lat="43.65219" lon="6.71228">
        <ele>486.1</ele>
        <time>2009-09-13T08:24:31Z</time>
      </trkpt>
      <trkpt lat="43.65219" lon="6.71221">
        <ele>486.1</ele>
        <time>2009-09-13T08:24:32Z</time>
      </trkpt>
      <trkpt lat="43.6522" lon="6.71214">
        <ele>485.9</ele>
        <time>2009-09-13T08:24:33Z</time>
      </trkpt>
      <trkpt lat="43.6522" lon="6.71207">
        <ele>485.8</ele>
        <time>2009-09-13T08:24:34Z</time>
      </trkpt>
      <trkpt lat="43.65221" lon="6.71201">
        <ele>485.8</ele>
        <time>2009-09-13T08:24:35Z</time>
      </trkpt>
      <trkpt lat="43.65221" lon="6.71194">
        <ele>485.7</ele>
        <time>2009-09-13T08:24:36Z</time>
      </trkpt>
      <trkpt lat="43.65222" lon="6.71187">
        <ele>485.6</ele>
        <time>2009-09-13T08:24:37Z</time>
      </trkpt>
      <trkpt lat="43.65223" lon="6.7118">
        <ele>485.7</ele>
        <time>2009-09-13T08:24:38Z</time>
      </trkpt>
      <trkpt lat="43.65223" lon="6.71173">
        <ele>485.5</ele>
        <time>2009-09-13T08:24:39Z</time>
      </trkpt>
      <trkpt lat="43.65223" lon="6.71166">
        <ele>485.3</ele>
        <time>2009-09-13T08:24:40Z</time>
      </trkpt>
      <trkpt lat="43.65223" lon="6.71159">
        <ele>485.1</ele>
        <time>2009-09-13T08:24:41Z</time>
      </trkpt>
      <trkpt lat="43.65222" lon="6.71152">
        <ele>484.8</ele>
        <time>2009-09-13T08:24:42Z</time>
      </trkpt>
      <trkpt lat="43.65221" lon="6.71145">
        <ele>484.6</ele>
        <time>2009-09-13T08:24:43Z</time>
      </trkpt>
      <trkpt lat="43.6522" lon="6.71139">
        <ele>484.4</ele>
        <time>2009-09-13T08:24:44Z</time>
      </trkpt>
      <trkpt lat="43.65221" lon="6.71127">
        <ele>485</ele>
        <time>2009-09-13T08:24:46Z</time>
      </trkpt>
      <trkpt lat="43.6522" lon="6.7112">
        <ele>485.2</ele>
        <time>2009-09-13T08:24:47Z</time>
      </trkpt>
      <trkpt lat="43.6522" lon="6.71113">
        <ele>485.2</ele>
        <time>2009-09-13T08:24:48Z</time>
      </trkpt>
      <trkpt lat="43.65218" lon="6.71101">
        <ele>485.6</ele>
        <time>2009-09-13T08:24:50Z</time>
      </trkpt>
      <trkpt lat="43.65216" lon="6.71095">
        <ele>485.6</ele>
        <time>2009-09-13T08:24:51Z</time>
      </trkpt>
      <trkpt lat="43.65213" lon="6.71083">
        <ele>485.7</ele>
        <time>2009-09-13T08:24:53Z</time>
      </trkpt>
      <trkpt lat="43.65211" lon="6.71077">
        <ele>485.7</ele>
        <time>2009-09-13T08:24:54Z</time>
      </trkpt>
      <trkpt lat="43.65209" lon="6.7107">
        <ele>485.5</ele>
        <time>2009-09-13T08:24:55Z</time>
      </trkpt>
      <trkpt lat="43.65206" lon="6.71064">
        <ele>485.3</ele>
        <time>2009-09-13T08:24:56Z</time>
      </trkpt>
      <trkpt lat="43.65204" lon="6.71058">
        <ele>485.1</ele>
        <time>2009-09-13T08:24:57Z</time>
      </trkpt>
      <trkpt lat="43.65201" lon="6.71051">
        <ele>485.1</ele>
        <time>2009-09-13T08:24:58Z</time>
      </trkpt>
      <trkpt lat="43.65199" lon="6.71044">
        <ele>485.2</ele>
        <time>2009-09-13T08:24:59Z</time>
      </trkpt>
      <trkpt lat="43.65196" lon="6.71038">
        <ele>485.3</ele>
        <time>2009-09-13T08:25:00Z</time>
      </trkpt>
      <trkpt lat="43.65194" lon="6.71032">
        <ele>485.4</ele>
        <time>2009-09-13T08:25:01Z</time>
      </trkpt>
      <trkpt lat="43.65191" lon="6.7102">
        <ele>485.4</ele>
        <time>2009-09-13T08:25:03Z</time>
      </trkpt>
      <trkpt lat="43.6519" lon="6.71013">
        <ele>485.3</ele>
        <time>2009-09-13T08:25:04Z</time>
      </trkpt>
      <trkpt lat="43.65189" lon="6.71006">
        <ele>485.3</ele>
        <time>2009-09-13T08:25:05Z</time>
      </trkpt>
      <trkpt lat="43.65188" lon="6.70999">
        <ele>485.4</ele>
        <time>2009-09-13T08:25:06Z</time>
      </trkpt>
      <trkpt lat="43.65187" lon="6.70993">
        <ele>485.4</ele>
        <time>2009-09-13T08:25:07Z</time>
      </trkpt>
      <trkpt lat="43.65186" lon="6.70985">
        <ele>485.4</ele>
        <time>2009-09-13T08:25:08Z</time>
      </trkpt>
      <trkpt lat="43.65185" lon="6.70977">
        <ele>485.5</ele>
        <time>2009-09-13T08:25:09Z</time>
      </trkpt>
      <trkpt lat="43.65184" lon="6.70969">
        <ele>485.5</ele>
        <time>2009-09-13T08:25:10Z</time>
      </trkpt>
      <trkpt lat="43.65184" lon="6.7096">
        <ele>485.5</ele>
        <time>2009-09-13T08:25:11Z</time>
      </trkpt>
      <trkpt lat="43.65184" lon="6.70952">
        <ele>485.5</ele>
        <time>2009-09-13T08:25:12Z</time>
      </trkpt>
      <trkpt lat="43.65183" lon="6.70944">
        <ele>485.6</ele>
        <time>2009-09-13T08:25:13Z</time>
      </trkpt>
      <trkpt lat="43.65183" lon="6.70936">
        <ele>485.5</ele>
        <time>2009-09-13T08:25:14Z</time>
      </trkpt>
      <trkpt lat="43.65182" lon="6.70927">
        <ele>485.2</ele>
        <time>2009-09-13T08:25:15Z</time>
      </trkpt>
      <trkpt lat="43.65181" lon="6.70919">
        <ele>485</ele>
        <time>2009-09-13T08:25:16Z</time>
      </trkpt>
      <trkpt lat="43.65179" lon="6.70912">
        <ele>484.5</ele>
        <time>2009-09-13T08:25:17Z</time>
      </trkpt>
      <trkpt lat="43.65177" lon="6.70905">
        <ele>484</ele>
        <time>2009-09-13T08:25:18Z</time>
      </trkpt>
      <trkpt lat="43.65173" lon="6.70893">
        <ele>483</ele>
        <time>2009-09-13T08:25:20Z</time>
      </trkpt>
      <trkpt lat="43.6517" lon="6.70888">
        <ele>482.6</ele>
        <time>2009-09-13T08:25:21Z</time>
      </trkpt>
      <trkpt lat="43.65167" lon="6.70878">
        <ele>482.4</ele>
        <time>2009-09-13T08:25:23Z</time>
      </trkpt>
      <trkpt lat="43.65166" lon="6.70872">
        <ele>482.5</ele>
        <time>2009-09-13T08:25:25Z</time>
      </trkpt>
      <trkpt lat="43.65164" lon="6.70866">
        <ele>482.7</ele>
        <time>2009-09-13T08:26:32Z</time>
      </trkpt>
      <trkpt lat="43.65167" lon="6.70859">
        <ele>483.1</ele>
        <time>2009-09-13T08:26:36Z</time>
      </trkpt>
      <trkpt lat="43.65172" lon="6.70857">
        <ele>483.7</ele>
        <time>2009-09-13T08:26:39Z</time>
      </trkpt>
      <trkpt lat="43.65177" lon="6.70854">
        <ele>484.2</ele>
        <time>2009-09-13T08:26:42Z</time>
      </trkpt>
      <trkpt lat="43.65183" lon="6.70852">
        <ele>484.9</ele>
        <time>2009-09-13T08:26:45Z</time>
      </trkpt>
      <trkpt lat="43.65187" lon="6.70852">
        <ele>485.3</ele>
        <time>2009-09-13T08:26:47Z</time>
      </trkpt>
      <trkpt lat="43.65193" lon="6.70849">
        <ele>485.9</ele>
        <time>2009-09-13T08:26:50Z</time>
      </trkpt>
      <trkpt lat="43.652" lon="6.70846">
        <ele>486.2</ele>
        <time>2009-09-13T08:26:53Z</time>
      </trkpt>
      <trkpt lat="43.65204" lon="6.70844">
        <ele>486.3</ele>
        <time>2009-09-13T08:26:55Z</time>
      </trkpt>
      <trkpt lat="43.65209" lon="6.70844">
        <ele>486.4</ele>
        <time>2009-09-13T08:26:57Z</time>
      </trkpt>
      <trkpt lat="43.65214" lon="6.70845">
        <ele>486.6</ele>
        <time>2009-09-13T08:26:59Z</time>
      </trkpt>
      <trkpt lat="43.65219" lon="6.70846">
        <ele>486.8</ele>
        <time>2009-09-13T08:27:01Z</time>
      </trkpt>
      <trkpt lat="43.65224" lon="6.70847">
        <ele>487.1</ele>
        <time>2009-09-13T08:27:03Z</time>
      </trkpt>
      <trkpt lat="43.65229" lon="6.70849">
        <ele>487.4</ele>
        <time>2009-09-13T08:27:05Z</time>
      </trkpt>
      <trkpt lat="43.65235" lon="6.70853">
        <ele>487.9</ele>
        <time>2009-09-13T08:27:08Z</time>
      </trkpt>
      <trkpt lat="43.65238" lon="6.70859">
        <ele>488.4</ele>
        <time>2009-09-13T08:27:11Z</time>
      </trkpt>
      <trkpt lat="43.65237" lon="6.70866">
        <ele>488.9</ele>
        <time>2009-09-13T08:27:14Z</time>
      </trkpt>
      <trkpt lat="43.65237" lon="6.70874">
        <ele>489.7</ele>
        <time>2009-09-13T08:27:18Z</time>
      </trkpt>
      <trkpt lat="43.65239" lon="6.7088">
        <ele>490.4</ele>
        <time>2009-09-13T08:27:21Z</time>
      </trkpt>
      <trkpt lat="43.65243" lon="6.70884">
        <ele>491</ele>
        <time>2009-09-13T08:27:25Z</time>
      </trkpt>
      <trkpt lat="43.65247" lon="6.70888">
        <ele>491.7</ele>
        <time>2009-09-13T08:27:31Z</time>
      </trkpt>
      <trkpt lat="43.65252" lon="6.70892">
        <ele>492.3</ele>
        <time>2009-09-13T08:27:38Z</time>
      </trkpt>
      <trkpt lat="43.65257" lon="6.70896">
        <ele>492.8</ele>
        <time>2009-09-13T08:27:42Z</time>
      </trkpt>
      <trkpt lat="43.65262" lon="6.70897">
        <ele>493.3</ele>
        <time>2009-09-13T08:27:47Z</time>
      </trkpt>
      <trkpt lat="43.65267" lon="6.70898">
        <ele>493.7</ele>
        <time>2009-09-13T08:27:52Z</time>
      </trkpt>
      <trkpt lat="43.65272" lon="6.709">
        <ele>494.2</ele>
        <time>2009-09-13T08:27:57Z</time>
      </trkpt>
      <trkpt lat="43.65277" lon="6.70903">
        <ele>495</ele>
        <time>2009-09-13T08:28:01Z</time>
      </trkpt>
      <trkpt lat="43.65282" lon="6.70907">
        <ele>495.9</ele>
        <time>2009-09-13T08:28:06Z</time>
      </trkpt>
      <trkpt lat="43.65286" lon="6.70912">
        <ele>497</ele>
        <time>2009-09-13T08:28:11Z</time>
      </trkpt>
      <trkpt lat="43.65288" lon="6.70918">
        <ele>497.9</ele>
        <time>2009-09-13T08:28:15Z</time>
      </trkpt>
      <trkpt lat="43.65289" lon="6.70925">
        <ele>498.8</ele>
        <time>2009-09-13T08:28:20Z</time>
      </trkpt>
      <trkpt lat="43.65288" lon="6.70932">
        <ele>499.6</ele>
        <time>2009-09-13T08:28:27Z</time>
      </trkpt>
      <trkpt lat="43.65286" lon="6.70962">
        <ele>503.4</ele>
        <time>2009-09-13T08:29:04Z</time>
      </trkpt>
      <trkpt lat="43.65284" lon="6.70969">
        <ele>504.1</ele>
        <time>2009-09-13T08:29:08Z</time>
      </trkpt>
      <trkpt lat="43.65282" lon="6.70976">
        <ele>504.7</ele>
        <time>2009-09-13T08:29:12Z</time>
      </trkpt>
      <trkpt lat="43.65285" lon="6.70983">
        <ele>505.5</ele>
        <time>2009-09-13T08:29:16Z</time>
      </trkpt>
      <trkpt lat="43.6529" lon="6.70985">
        <ele>506.2</ele>
        <time>2009-09-13T08:29:20Z</time>
      </trkpt>
      <trkpt lat="43.65295" lon="6.70984">
        <ele>506.8</ele>
        <time>2009-09-13T08:29:24Z</time>
      </trkpt>
      <trkpt lat="43.65304" lon="6.70983">
        <ele>507.6</ele>
        <time>2009-09-13T08:29:32Z</time>
      </trkpt>
      <trkpt lat="43.65309" lon="6.70984">
        <ele>508.1</ele>
        <time>2009-09-13T08:29:35Z</time>
      </trkpt>
      <trkpt lat="43.65314" lon="6.70982">
        <ele>508.6</ele>
        <time>2009-09-13T08:29:39Z</time>
      </trkpt>
      <trkpt lat="43.65319" lon="6.70979">
        <ele>508.9</ele>
        <time>2009-09-13T08:29:43Z</time>
      </trkpt>
      <trkpt lat="43.65324" lon="6.70978">
        <ele>509.4</ele>
        <time>2009-09-13T08:29:46Z</time>
      </trkpt>
      <trkpt lat="43.65329" lon="6.70976">
        <ele>509.8</ele>
        <time>2009-09-13T08:29:49Z</time>
      </trkpt>
      <trkpt lat="43.65333" lon="6.70974">
        <ele>510.2</ele>
        <time>2009-09-13T08:29:52Z</time>
      </trkpt>
      <trkpt lat="43.65338" lon="6.70972">
        <ele>510.7</ele>
        <time>2009-09-13T08:29:55Z</time>
      </trkpt>
      <trkpt lat="43.65343" lon="6.70968">
        <ele>511</ele>
        <time>2009-09-13T08:29:58Z</time>
      </trkpt>
      <trkpt lat="43.65349" lon="6.70965">
        <ele>511.4</ele>
        <time>2009-09-13T08:30:01Z</time>
      </trkpt>
      <trkpt lat="43.65354" lon="6.7096">
        <ele>511.6</ele>
        <time>2009-09-13T08:30:04Z</time>
      </trkpt>
      <trkpt lat="43.65358" lon="6.70955">
        <ele>511.7</ele>
        <time>2009-09-13T08:30:07Z</time>
      </trkpt>
      <trkpt lat="43.65362" lon="6.70948">
        <ele>511.5</ele>
        <time>2009-09-13T08:30:10Z</time>
      </trkpt>
      <trkpt lat="43.65365" lon="6.70943">
        <ele>511.2</ele>
        <time>2009-09-13T08:30:12Z</time>
      </trkpt>
      <trkpt lat="43.6537" lon="6.70938">
        <ele>511.4</ele>
        <time>2009-09-13T08:30:14Z</time>
      </trkpt>
      <trkpt lat="43.65378" lon="6.70936">
        <ele>511.7</ele>
        <time>2009-09-13T08:30:16Z</time>
      </trkpt>
      <trkpt lat="43.65386" lon="6.70936">
        <ele>512</ele>
        <time>2009-09-13T08:30:18Z</time>
      </trkpt>
      <trkpt lat="43.65393" lon="6.70937">
        <ele>512.1</ele>
        <time>2009-09-13T08:30:20Z</time>
      </trkpt>
      <trkpt lat="43.65401" lon="6.70939">
        <ele>512.1</ele>
        <time>2009-09-13T08:30:22Z</time>
      </trkpt>
      <trkpt lat="43.65408" lon="6.70943">
        <ele>512.2</ele>
        <time>2009-09-13T08:30:24Z</time>
      </trkpt>
      <trkpt lat="43.65415" lon="6.70947">
        <ele>512.4</ele>
        <time>2009-09-13T08:30:26Z</time>
      </trkpt>
      <trkpt lat="43.6542" lon="6.70951">
        <ele>513</ele>
        <time>2009-09-13T08:30:28Z</time>
      </trkpt>
      <trkpt lat="43.65425" lon="6.70957">
        <ele>513.7</ele>
        <time>2009-09-13T08:30:30Z</time>
      </trkpt>
      <trkpt lat="43.6543" lon="6.70962">
        <ele>514.1</ele>
        <time>2009-09-13T08:30:32Z</time>
      </trkpt>
      <trkpt lat="43.65433" lon="6.70968">
        <ele>514.5</ele>
        <time>2009-09-13T08:30:34Z</time>
      </trkpt>
      <trkpt lat="43.65437" lon="6.70974">
        <ele>514.8</ele>
        <time>2009-09-13T08:30:37Z</time>
      </trkpt>
      <trkpt lat="43.65441" lon="6.70979">
        <ele>515.2</ele>
        <time>2009-09-13T08:30:40Z</time>
      </trkpt>
      <trkpt lat="43.65444" lon="6.70986">
        <ele>516</ele>
        <time>2009-09-13T08:30:44Z</time>
      </trkpt>
      <trkpt lat="43.65448" lon="6.70992">
        <ele>516.6</ele>
        <time>2009-09-13T08:30:48Z</time>
      </trkpt>
      <trkpt lat="43.65452" lon="6.70998">
        <ele>517.2</ele>
        <time>2009-09-13T08:30:52Z</time>
      </trkpt>
      <trkpt lat="43.65456" lon="6.71007">
        <ele>518</ele>
        <time>2009-09-13T08:30:59Z</time>
      </trkpt>
      <trkpt lat="43.6546" lon="6.71012">
        <ele>518.4</ele>
        <time>2009-09-13T08:31:03Z</time>
      </trkpt>
      <trkpt lat="43.65464" lon="6.71018">
        <ele>519</ele>
        <time>2009-09-13T08:31:07Z</time>
      </trkpt>
      <trkpt lat="43.65468" lon="6.71025">
        <ele>519.8</ele>
        <time>2009-09-13T08:31:11Z</time>
      </trkpt>
      <trkpt lat="43.65471" lon="6.71032">
        <ele>520.6</ele>
        <time>2009-09-13T08:31:15Z</time>
      </trkpt>
      <trkpt lat="43.65476" lon="6.71037">
        <ele>521.1</ele>
        <time>2009-09-13T08:31:19Z</time>
      </trkpt>
      <trkpt lat="43.65479" lon="6.71043">
        <ele>521.7</ele>
        <time>2009-09-13T08:31:23Z</time>
      </trkpt>
      <trkpt lat="43.65482" lon="6.71049">
        <ele>522.3</ele>
        <time>2009-09-13T08:31:27Z</time>
      </trkpt>
      <trkpt lat="43.65484" lon="6.71054">
        <ele>523</ele>
        <time>2009-09-13T08:31:31Z</time>
      </trkpt>
      <trkpt lat="43.65487" lon="6.71061">
        <ele>523.6</ele>
        <time>2009-09-13T08:31:35Z</time>
      </trkpt>
      <trkpt lat="43.6549" lon="6.71066">
        <ele>524.1</ele>
        <time>2009-09-13T08:31:39Z</time>
      </trkpt>
      <trkpt lat="43.65492" lon="6.71073">
        <ele>524.9</ele>
        <time>2009-09-13T08:31:44Z</time>
      </trkpt>
      <trkpt lat="43.65495" lon="6.71079">
        <ele>525.6</ele>
        <time>2009-09-13T08:31:48Z</time>
      </trkpt>
      <trkpt lat="43.65497" lon="6.71085">
        <ele>526.3</ele>
        <time>2009-09-13T08:31:52Z</time>
      </trkpt>
      <trkpt lat="43.65499" lon="6.71092">
        <ele>527</ele>
        <time>2009-09-13T08:31:57Z</time>
      </trkpt>
      <trkpt lat="43.65501" lon="6.71098">
        <ele>527.5</ele>
        <time>2009-09-13T08:32:02Z</time>
      </trkpt>
      <trkpt lat="43.65504" lon="6.71104">
        <ele>527.9</ele>
        <time>2009-09-13T08:32:06Z</time>
      </trkpt>
      <trkpt lat="43.65505" lon="6.71111">
        <ele>528.6</ele>
        <time>2009-09-13T08:32:10Z</time>
      </trkpt>
      <trkpt lat="43.65508" lon="6.71118">
        <ele>529.4</ele>
        <time>2009-09-13T08:32:15Z</time>
      </trkpt>
      <trkpt lat="43.6551" lon="6.71125">
        <ele>530.2</ele>
        <time>2009-09-13T08:32:20Z</time>
      </trkpt>
      <trkpt lat="43.65512" lon="6.71132">
        <ele>531.1</ele>
        <time>2009-09-13T08:32:25Z</time>
      </trkpt>
      <trkpt lat="43.65515" lon="6.71138">
        <ele>531.8</ele>
        <time>2009-09-13T08:32:29Z</time>
      </trkpt>
      <trkpt lat="43.65517" lon="6.71144">
        <ele>532.6</ele>
        <time>2009-09-13T08:32:33Z</time>
      </trkpt>
      <trkpt lat="43.65519" lon="6.7115">
        <ele>533.3</ele>
        <time>2009-09-13T08:32:37Z</time>
      </trkpt>
      <trkpt lat="43.65522" lon="6.71156">
        <ele>533.8</ele>
        <time>2009-09-13T08:32:41Z</time>
      </trkpt>
      <trkpt lat="43.65524" lon="6.71162">
        <ele>534.6</ele>
        <time>2009-09-13T08:32:45Z</time>
      </trkpt>
      <trkpt lat="43.65528" lon="6.71168">
        <ele>535.4</ele>
        <time>2009-09-13T08:32:50Z</time>
      </trkpt>
      <trkpt lat="43.65531" lon="6.71174">
        <ele>536.7</ele>
        <time>2009-09-13T08:32:55Z</time>
      </trkpt>
      <trkpt lat="43.65534" lon="6.71179">
        <ele>537.6</ele>
        <time>2009-09-13T08:33:08Z</time>
      </trkpt>
      <trkpt lat="43.65537" lon="6.71185">
        <ele>538.4</ele>
        <time>2009-09-13T08:33:15Z</time>
      </trkpt>
      <trkpt lat="43.65541" lon="6.71189">
        <ele>539</ele>
        <time>2009-09-13T08:33:24Z</time>
      </trkpt>
      <trkpt lat="43.65544" lon="6.71194">
        <ele>539.5</ele>
        <time>2009-09-13T08:33:28Z</time>
      </trkpt>
      <trkpt lat="43.65548" lon="6.71198">
        <ele>539.7</ele>
        <time>2009-09-13T08:33:32Z</time>
      </trkpt>
      <trkpt lat="43.65551" lon="6.71204">
        <ele>540.1</ele>
        <time>2009-09-13T08:33:37Z</time>
      </trkpt>
      <trkpt lat="43.65555" lon="6.71209">
        <ele>540.2</ele>
        <time>2009-09-13T08:33:42Z</time>
      </trkpt>
      <trkpt lat="43.65559" lon="6.71215">
        <ele>540.4</ele>
        <time>2009-09-13T08:33:46Z</time>
      </trkpt>
      <trkpt lat="43.65562" lon="6.7122">
        <ele>540.5</ele>
        <time>2009-09-13T08:33:50Z</time>
      </trkpt>
      <trkpt lat="43.65566" lon="6.71226">
        <ele>540.8</ele>
        <time>2009-09-13T08:33:54Z</time>
      </trkpt>
      <trkpt lat="43.65569" lon="6.71231">
        <ele>541.1</ele>
        <time>2009-09-13T08:33:58Z</time>
      </trkpt>
      <trkpt lat="43.65572" lon="6.71237">
        <ele>541.7</ele>
        <time>2009-09-13T08:34:03Z</time>
      </trkpt>
      <trkpt lat="43.65575" lon="6.71244">
        <ele>542.2</ele>
        <time>2009-09-13T08:34:06Z</time>
      </trkpt>
      <trkpt lat="43.65577" lon="6.7125">
        <ele>542.7</ele>
        <time>2009-09-13T08:34:09Z</time>
      </trkpt>
      <trkpt lat="43.65579" lon="6.71256">
        <ele>543</ele>
        <time>2009-09-13T08:34:12Z</time>
      </trkpt>
      <trkpt lat="43.65582" lon="6.71261">
        <ele>543</ele>
        <time>2009-09-13T08:34:14Z</time>
      </trkpt>
      <trkpt lat="43.65585" lon="6.71267">
        <ele>543</ele>
        <time>2009-09-13T08:34:16Z</time>
      </trkpt>
      <trkpt lat="43.65588" lon="6.71272">
        <ele>543.1</ele>
        <time>2009-09-13T08:34:18Z</time>
      </trkpt>
      <trkpt lat="43.65592" lon="6.71279">
        <ele>543.2</ele>
        <time>2009-09-13T08:34:21Z</time>
      </trkpt>
      <trkpt lat="43.65596" lon="6.71286">
        <ele>543.5</ele>
        <time>2009-09-13T08:34:24Z</time>
      </trkpt>
      <trkpt lat="43.656" lon="6.71291">
        <ele>543.5</ele>
        <time>2009-09-13T08:34:26Z</time>
      </trkpt>
      <trkpt lat="43.65603" lon="6.71296">
        <ele>543.6</ele>
        <time>2009-09-13T08:34:28Z</time>
      </trkpt>
      <trkpt lat="43.65607" lon="6.71303">
        <ele>543.6</ele>
        <time>2009-09-13T08:34:31Z</time>
      </trkpt>
      <trkpt lat="43.6561" lon="6.71307">
        <ele>543.6</ele>
        <time>2009-09-13T08:34:33Z</time>
      </trkpt>
      <trkpt lat="43.65614" lon="6.71312">
        <ele>543.9</ele>
        <time>2009-09-13T08:34:35Z</time>
      </trkpt>
      <trkpt lat="43.65617" lon="6.71318">
        <ele>544.6</ele>
        <time>2009-09-13T08:34:38Z</time>
      </trkpt>
      <trkpt lat="43.65621" lon="6.71324">
        <ele>545.4</ele>
        <time>2009-09-13T08:34:41Z</time>
      </trkpt>
      <trkpt lat="43.65624" lon="6.71331">
        <ele>546.1</ele>
        <time>2009-09-13T08:34:44Z</time>
      </trkpt>
      <trkpt lat="43.65627" lon="6.71336">
        <ele>546.5</ele>
        <time>2009-09-13T08:34:47Z</time>
      </trkpt>
      <trkpt lat="43.65631" lon="6.71343">
        <ele>547</ele>
        <time>2009-09-13T08:34:51Z</time>
      </trkpt>
      <trkpt lat="43.65634" lon="6.71351">
        <ele>547.5</ele>
        <time>2009-09-13T08:34:55Z</time>
      </trkpt>
      <trkpt lat="43.65638" lon="6.71355">
        <ele>547.5</ele>
        <time>2009-09-13T08:34:58Z</time>
      </trkpt>
      <trkpt lat="43.65642" lon="6.71358">
        <ele>547.6</ele>
        <time>2009-09-13T08:35:01Z</time>
      </trkpt>
      <trkpt lat="43.65647" lon="6.7136">
        <ele>547.9</ele>
        <time>2009-09-13T08:35:04Z</time>
      </trkpt>
      <trkpt lat="43.65652" lon="6.71362">
        <ele>548.2</ele>
        <time>2009-09-13T08:35:07Z</time>
      </trkpt>
      <trkpt lat="43.65656" lon="6.71366">
        <ele>548.7</ele>
        <time>2009-09-13T08:35:10Z</time>
      </trkpt>
      <trkpt lat="43.6566" lon="6.71371">
        <ele>549.3</ele>
        <time>2009-09-13T08:35:13Z</time>
      </trkpt>
      <trkpt lat="43.65663" lon="6.71376">
        <ele>549.8</ele>
        <time>2009-09-13T08:35:16Z</time>
      </trkpt>
      <trkpt lat="43.65666" lon="6.71382">
        <ele>550.3</ele>
        <time>2009-09-13T08:35:19Z</time>
      </trkpt>
      <trkpt lat="43.6567" lon="6.71388">
        <ele>551</ele>
        <time>2009-09-13T08:35:24Z</time>
      </trkpt>
      <trkpt lat="43.65674" lon="6.71393">
        <ele>551.9</ele>
        <time>2009-09-13T08:35:27Z</time>
      </trkpt>
      <trkpt lat="43.65678" lon="6.71397">
        <ele>552.6</ele>
        <time>2009-09-13T08:35:31Z</time>
      </trkpt>
      <trkpt lat="43.65682" lon="6.71401">
        <ele>553.3</ele>
        <time>2009-09-13T08:35:41Z</time>
      </trkpt>
      <trkpt lat="43.65686" lon="6.71404">
        <ele>553.6</ele>
        <time>2009-09-13T08:35:52Z</time>
      </trkpt>
      <trkpt lat="43.6569" lon="6.71408">
        <ele>554.1</ele>
        <time>2009-09-13T08:36:05Z</time>
      </trkpt>
      <trkpt lat="43.65699" lon="6.71415">
        <ele>555.4</ele>
        <time>2009-09-13T08:39:42Z</time>
      </trkpt>
      <trkpt lat="43.65705" lon="6.71414">
        <ele>556.2</ele>
        <time>2009-09-13T08:39:46Z</time>
      </trkpt>
      <trkpt lat="43.6571" lon="6.71411">
        <ele>556.6</ele>
        <time>2009-09-13T08:39:49Z</time>
      </trkpt>
      <trkpt lat="43.65715" lon="6.71408">
        <ele>556.9</ele>
        <time>2009-09-13T08:39:52Z</time>
      </trkpt>
      <trkpt lat="43.65719" lon="6.71404">
        <ele>557.1</ele>
        <time>2009-09-13T08:39:55Z</time>
      </trkpt>
      <trkpt lat="43.65723" lon="6.71399">
        <ele>557.3</ele>
        <time>2009-09-13T08:39:58Z</time>
      </trkpt>
      <trkpt lat="43.65727" lon="6.71395">
        <ele>557.7</ele>
        <time>2009-09-13T08:40:01Z</time>
      </trkpt>
      <trkpt lat="43.6573" lon="6.71388">
        <ele>557.8</ele>
        <time>2009-09-13T08:40:06Z</time>
      </trkpt>
      <trkpt lat="43.65733" lon="6.71383">
        <ele>558.2</ele>
        <time>2009-09-13T08:40:09Z</time>
      </trkpt>
      <trkpt lat="43.65737" lon="6.71377">
        <ele>558.8</ele>
        <time>2009-09-13T08:40:13Z</time>
      </trkpt>
      <trkpt lat="43.65741" lon="6.71371">
        <ele>559.3</ele>
        <time>2009-09-13T08:40:17Z</time>
      </trkpt>
      <trkpt lat="43.65745" lon="6.71366">
        <ele>560</ele>
        <time>2009-09-13T08:40:21Z</time>
      </trkpt>
      <trkpt lat="43.65749" lon="6.71361">
        <ele>560.8</ele>
        <time>2009-09-13T08:40:25Z</time>
      </trkpt>
      <trkpt lat="43.65752" lon="6.71355">
        <ele>561.6</ele>
        <time>2009-09-13T08:40:29Z</time>
      </trkpt>
      <trkpt lat="43.65756" lon="6.71351">
        <ele>562.6</ele>
        <time>2009-09-13T08:40:33Z</time>
      </trkpt>
      <trkpt lat="43.6576" lon="6.71346">
        <ele>563.5</ele>
        <time>2009-09-13T08:40:37Z</time>
      </trkpt>
      <trkpt lat="43.65764" lon="6.71341">
        <ele>564.6</ele>
        <time>2009-09-13T08:40:41Z</time>
      </trkpt>
      <trkpt lat="43.65767" lon="6.71335">
        <ele>565.3</ele>
        <time>2009-09-13T08:40:45Z</time>
      </trkpt>
      <trkpt lat="43.6577" lon="6.7133">
        <ele>566</ele>
        <time>2009-09-13T08:40:49Z</time>
      </trkpt>
      <trkpt lat="43.65773" lon="6.71324">
        <ele>566.6</ele>
        <time>2009-09-13T08:40:53Z</time>
      </trkpt>
      <trkpt lat="43.65777" lon="6.71319">
        <ele>567.3</ele>
        <time>2009-09-13T08:40:57Z</time>
      </trkpt>
      <trkpt lat="43.65782" lon="6.71314">
        <ele>568</ele>
        <time>2009-09-13T08:41:01Z</time>
      </trkpt>
      <trkpt lat="43.65786" lon="6.7131">
        <ele>568.7</ele>
        <time>2009-09-13T08:41:05Z</time>
      </trkpt>
      <trkpt lat="43.6579" lon="6.71305">
        <ele>569.1</ele>
        <time>2009-09-13T08:41:09Z</time>
      </trkpt>
      <trkpt lat="43.65793" lon="6.71301">
        <ele>569.5</ele>
        <time>2009-09-13T08:41:13Z</time>
      </trkpt>
      <trkpt lat="43.65797" lon="6.71297">
        <ele>569.9</ele>
        <time>2009-09-13T08:41:17Z</time>
      </trkpt>
      <trkpt lat="43.65802" lon="6.71292">
        <ele>570.4</ele>
        <time>2009-09-13T08:41:21Z</time>
      </trkpt>
      <trkpt lat="43.65806" lon="6.71288">
        <ele>570.7</ele>
        <time>2009-09-13T08:41:25Z</time>
      </trkpt>
      <trkpt lat="43.6581" lon="6.71283">
        <ele>570.9</ele>
        <time>2009-09-13T08:41:29Z</time>
      </trkpt>
      <trkpt lat="43.65815" lon="6.71279">
        <ele>571.2</ele>
        <time>2009-09-13T08:41:33Z</time>
      </trkpt>
      <trkpt lat="43.65821" lon="6.71275">
        <ele>571.4</ele>
        <time>2009-09-13T08:41:36Z</time>
      </trkpt>
      <trkpt lat="43.65826" lon="6.7127">
        <ele>571.4</ele>
        <time>2009-09-13T08:41:39Z</time>
      </trkpt>
      <trkpt lat="43.6583" lon="6.71266">
        <ele>571.4</ele>
        <time>2009-09-13T08:41:41Z</time>
      </trkpt>
      <trkpt lat="43.65834" lon="6.71261">
        <ele>571.2</ele>
        <time>2009-09-13T08:41:43Z</time>
      </trkpt>
      <trkpt lat="43.65838" lon="6.71257">
        <ele>571.1</ele>
        <time>2009-09-13T08:41:45Z</time>
      </trkpt>
      <trkpt lat="43.65843" lon="6.71252">
        <ele>571</ele>
        <time>2009-09-13T08:41:47Z</time>
      </trkpt>
      <trkpt lat="43.65848" lon="6.71248">
        <ele>570.9</ele>
        <time>2009-09-13T08:41:49Z</time>
      </trkpt>
      <trkpt lat="43.65854" lon="6.71242">
        <ele>570.9</ele>
        <time>2009-09-13T08:41:51Z</time>
      </trkpt>
      <trkpt lat="43.6586" lon="6.71237">
        <ele>571</ele>
        <time>2009-09-13T08:41:53Z</time>
      </trkpt>
      <trkpt lat="43.65867" lon="6.71231">
        <ele>570.8</ele>
        <time>2009-09-13T08:41:55Z</time>
      </trkpt>
      <trkpt lat="43.65873" lon="6.71225">
        <ele>570.6</ele>
        <time>2009-09-13T08:41:57Z</time>
      </trkpt>
      <trkpt lat="43.6588" lon="6.71218">
        <ele>570.4</ele>
        <time>2009-09-13T08:41:59Z</time>
      </trkpt>
      <trkpt lat="43.65887" lon="6.71211">
        <ele>570.2</ele>
        <time>2009-09-13T08:42:01Z</time>
      </trkpt>
      <trkpt lat="43.65894" lon="6.71205">
        <ele>570</ele>
        <time>2009-09-13T08:42:03Z</time>
      </trkpt>
      <trkpt lat="43.65902" lon="6.71198">
        <ele>570.1</ele>
        <time>2009-09-13T08:42:05Z</time>
      </trkpt>
      <trkpt lat="43.65907" lon="6.71193">
        <ele>570.3</ele>
        <time>2009-09-13T08:42:07Z</time>
      </trkpt>
      <trkpt lat="43.65912" lon="6.7119">
        <ele>570.6</ele>
        <time>2009-09-13T08:42:09Z</time>
      </trkpt>
      <trkpt lat="43.65917" lon="6.71189">
        <ele>571</ele>
        <time>2009-09-13T08:42:12Z</time>
      </trkpt>
      <trkpt lat="43.65919" lon="6.71196">
        <ele>571.2</ele>
        <time>2009-09-13T08:42:15Z</time>
      </trkpt>
      <trkpt lat="43.65921" lon="6.71203">
        <ele>571.6</ele>
        <time>2009-09-13T08:42:18Z</time>
      </trkpt>
      <trkpt lat="43.65925" lon="6.71211">
        <ele>572</ele>
        <time>2009-09-13T08:42:21Z</time>
      </trkpt>
      <trkpt lat="43.65929" lon="6.71218">
        <ele>572.4</ele>
        <time>2009-09-13T08:42:24Z</time>
      </trkpt>
      <trkpt lat="43.65932" lon="6.71224">
        <ele>572.6</ele>
        <time>2009-09-13T08:42:26Z</time>
      </trkpt>
      <trkpt lat="43.65936" lon="6.71232">
        <ele>573.1</ele>
        <time>2009-09-13T08:42:29Z</time>
      </trkpt>
      <trkpt lat="43.65938" lon="6.71239">
        <ele>573.5</ele>
        <time>2009-09-13T08:42:32Z</time>
      </trkpt>
      <trkpt lat="43.65938" lon="6.71247">
        <ele>573.8</ele>
        <time>2009-09-13T08:42:36Z</time>
      </trkpt>
      <trkpt lat="43.65943" lon="6.7125">
        <ele>574</ele>
        <time>2009-09-13T08:42:40Z</time>
      </trkpt>
      <trkpt lat="43.65948" lon="6.71254">
        <ele>574.4</ele>
        <time>2009-09-13T08:43:28Z</time>
      </trkpt>
      <trkpt lat="43.65952" lon="6.71258">
        <ele>574.7</ele>
        <time>2009-09-13T08:43:32Z</time>
      </trkpt>
      <trkpt lat="43.65957" lon="6.71263">
        <ele>575</ele>
        <time>2009-09-13T08:43:48Z</time>
      </trkpt>
      <trkpt lat="43.65961" lon="6.71266">
        <ele>575.1</ele>
        <time>2009-09-13T08:43:51Z</time>
      </trkpt>
      <trkpt lat="43.65967" lon="6.71268">
        <ele>575.1</ele>
        <time>2009-09-13T08:43:54Z</time>
      </trkpt>
      <trkpt lat="43.65973" lon="6.71269">
        <ele>574.9</ele>
        <time>2009-09-13T08:43:57Z</time>
      </trkpt>
      <trkpt lat="43.65979" lon="6.71268">
        <ele>574.5</ele>
        <time>2009-09-13T08:43:59Z</time>
      </trkpt>
      <trkpt lat="43.65985" lon="6.71268">
        <ele>574.1</ele>
        <time>2009-09-13T08:44:01Z</time>
      </trkpt>
      <trkpt lat="43.65993" lon="6.71268">
        <ele>573.5</ele>
        <time>2009-09-13T08:44:03Z</time>
      </trkpt>
      <trkpt lat="43.66001" lon="6.71268">
        <ele>572.9</ele>
        <time>2009-09-13T08:44:05Z</time>
      </trkpt>
      <trkpt lat="43.6601" lon="6.71268">
        <ele>572.1</ele>
        <time>2009-09-13T08:44:07Z</time>
      </trkpt>
      <trkpt lat="43.66015" lon="6.7127">
        <ele>571.8</ele>
        <time>2009-09-13T08:44:08Z</time>
      </trkpt>
      <trkpt lat="43.6602" lon="6.71272">
        <ele>571.4</ele>
        <time>2009-09-13T08:44:09Z</time>
      </trkpt>
      <trkpt lat="43.66025" lon="6.71275">
        <ele>571.1</ele>
        <time>2009-09-13T08:44:10Z</time>
      </trkpt>
      <trkpt lat="43.6603" lon="6.71278">
        <ele>570.8</ele>
        <time>2009-09-13T08:44:11Z</time>
      </trkpt>
      <trkpt lat="43.66035" lon="6.71282">
        <ele>570.2</ele>
        <time>2009-09-13T08:44:12Z</time>
      </trkpt>
      <trkpt lat="43.66041" lon="6.71288">
        <ele>569.6</ele>
        <time>2009-09-13T08:44:13Z</time>
      </trkpt>
      <trkpt lat="43.66047" lon="6.71293">
        <ele>568.9</ele>
        <time>2009-09-13T08:44:14Z</time>
      </trkpt>
      <trkpt lat="43.66054" lon="6.713">
        <ele>568.2</ele>
        <time>2009-09-13T08:44:15Z</time>
      </trkpt>
      <trkpt lat="43.66061" lon="6.71306">
        <ele>567.2</ele>
        <time>2009-09-13T08:44:16Z</time>
      </trkpt>
      <trkpt lat="43.66069" lon="6.71313">
        <ele>566.4</ele>
        <time>2009-09-13T08:44:17Z</time>
      </trkpt>
      <trkpt lat="43.66077" lon="6.7132">
        <ele>565.5</ele>
        <time>2009-09-13T08:44:18Z</time>
      </trkpt>
      <trkpt lat="43.66084" lon="6.71327">
        <ele>564.6</ele>
        <time>2009-09-13T08:44:19Z</time>
      </trkpt>
      <trkpt lat="43.66092" lon="6.71335">
        <ele>563.4</ele>
        <time>2009-09-13T08:44:20Z</time>
      </trkpt>
      <trkpt lat="43.661" lon="6.71343">
        <ele>562.2</ele>
        <time>2009-09-13T08:44:21Z</time>
      </trkpt>
      <trkpt lat="43.66109" lon="6.71352">
        <ele>561.1</ele>
        <time>2009-09-13T08:44:22Z</time>
      </trkpt>
      <trkpt lat="43.66117" lon="6.7136">
        <ele>560</ele>
        <time>2009-09-13T08:44:23Z</time>
      </trkpt>
      <trkpt lat="43.66124" lon="6.71369">
        <ele>558.9</ele>
        <time>2009-09-13T08:44:24Z</time>
      </trkpt>
      <trkpt lat="43.66131" lon="6.71378">
        <ele>558</ele>
        <time>2009-09-13T08:44:25Z</time>
      </trkpt>
      <trkpt lat="43.66138" lon="6.71387">
        <ele>557.2</ele>
        <time>2009-09-13T08:44:26Z</time>
      </trkpt>
      <trkpt lat="43.66143" lon="6.71396">
        <ele>556.4</ele>
        <time>2009-09-13T08:44:27Z</time>
      </trkpt>
      <trkpt lat="43.66148" lon="6.71403">
        <ele>555.7</ele>
        <time>2009-09-13T08:44:28Z</time>
      </trkpt>
      <trkpt lat="43.66151" lon="6.71408">
        <ele>555.3</ele>
        <time>2009-09-13T08:44:29Z</time>
      </trkpt>
      <trkpt lat="43.66157" lon="6.71417">
        <ele>554.8</ele>
        <time>2009-09-13T08:44:31Z</time>
      </trkpt>
      <trkpt lat="43.66161" lon="6.71424">
        <ele>554.4</ele>
        <time>2009-09-13T08:44:33Z</time>
      </trkpt>
      <trkpt lat="43.66164" lon="6.71429">
        <ele>553.9</ele>
        <time>2009-09-13T08:44:35Z</time>
      </trkpt>
      <trkpt lat="43.66169" lon="6.71437">
        <ele>553.4</ele>
        <time>2009-09-13T08:44:37Z</time>
      </trkpt>
      <trkpt lat="43.66174" lon="6.71445">
        <ele>553</ele>
        <time>2009-09-13T08:44:39Z</time>
      </trkpt>
      <trkpt lat="43.66178" lon="6.71454">
        <ele>552.3</ele>
        <time>2009-09-13T08:44:41Z</time>
      </trkpt>
      <trkpt lat="43.66183" lon="6.7146">
        <ele>551.6</ele>
        <time>2009-09-13T08:44:43Z</time>
      </trkpt>
      <trkpt lat="43.66189" lon="6.71467">
        <ele>550.7</ele>
        <time>2009-09-13T08:44:45Z</time>
      </trkpt>
      <trkpt lat="43.66197" lon="6.71472">
        <ele>549.9</ele>
        <time>2009-09-13T08:44:47Z</time>
      </trkpt>
      <trkpt lat="43.66204" lon="6.71478">
        <ele>549.7</ele>
        <time>2009-09-13T08:44:49Z</time>
      </trkpt>
      <trkpt lat="43.66211" lon="6.71485">
        <ele>549.5</ele>
        <time>2009-09-13T08:44:51Z</time>
      </trkpt>
      <trkpt lat="43.66217" lon="6.7149">
        <ele>549.2</ele>
        <time>2009-09-13T08:44:53Z</time>
      </trkpt>
      <trkpt lat="43.66223" lon="6.71495">
        <ele>548.7</ele>
        <time>2009-09-13T08:44:55Z</time>
      </trkpt>
      <trkpt lat="43.66228" lon="6.71501">
        <ele>548.6</ele>
        <time>2009-09-13T08:44:57Z</time>
      </trkpt>
      <trkpt lat="43.66234" lon="6.71504">
        <ele>548.5</ele>
        <time>2009-09-13T08:45:00Z</time>
      </trkpt>
      <trkpt lat="43.6624" lon="6.71507">
        <ele>548.3</ele>
        <time>2009-09-13T08:45:02Z</time>
      </trkpt>
      <trkpt lat="43.66247" lon="6.71511">
        <ele>548</ele>
        <time>2009-09-13T08:45:04Z</time>
      </trkpt>
      <trkpt lat="43.66256" lon="6.71515">
        <ele>548</ele>
        <time>2009-09-13T08:45:06Z</time>
      </trkpt>
      <trkpt lat="43.66265" lon="6.71517">
        <ele>547.9</ele>
        <time>2009-09-13T08:45:08Z</time>
      </trkpt>
      <trkpt lat="43.66274" lon="6.71519">
        <ele>547.8</ele>
        <time>2009-09-13T08:45:10Z</time>
      </trkpt>
      <trkpt lat="43.66283" lon="6.7152">
        <ele>547.7</ele>
        <time>2009-09-13T08:45:12Z</time>
      </trkpt>
      <trkpt lat="43.66287" lon="6.71521">
        <ele>547.8</ele>
        <time>2009-09-13T08:45:13Z</time>
      </trkpt>
      <trkpt lat="43.66292" lon="6.71522">
        <ele>547.8</ele>
        <time>2009-09-13T08:45:14Z</time>
      </trkpt>
      <trkpt lat="43.66297" lon="6.71522">
        <ele>547.8</ele>
        <time>2009-09-13T08:45:15Z</time>
      </trkpt>
      <trkpt lat="43.66302" lon="6.71523">
        <ele>547.8</ele>
        <time>2009-09-13T08:45:16Z</time>
      </trkpt>
      <trkpt lat="43.66306" lon="6.71525">
        <ele>547.9</ele>
        <time>2009-09-13T08:45:17Z</time>
      </trkpt>
      <trkpt lat="43.66311" lon="6.71526">
        <ele>547.9</ele>
        <time>2009-09-13T08:45:18Z</time>
      </trkpt>
      <trkpt lat="43.66316" lon="6.71527">
        <ele>548</ele>
        <time>2009-09-13T08:45:19Z</time>
      </trkpt>
      <trkpt lat="43.66321" lon="6.71528">
        <ele>548</ele>
        <time>2009-09-13T08:45:20Z</time>
      </trkpt>
      <trkpt lat="43.66326" lon="6.71528">
        <ele>548</ele>
        <time>2009-09-13T08:45:21Z</time>
      </trkpt>
      <trkpt lat="43.66331" lon="6.71529">
        <ele>548</ele>
        <time>2009-09-13T08:45:22Z</time>
      </trkpt>
      <trkpt lat="43.66335" lon="6.7153">
        <ele>548.1</ele>
        <time>2009-09-13T08:45:23Z</time>
      </trkpt>
      <trkpt lat="43.66344" lon="6.71531">
        <ele>548.5</ele>
        <time>2009-09-13T08:45:25Z</time>
      </trkpt>
      <trkpt lat="43.66351" lon="6.71533">
        <ele>548.7</ele>
        <time>2009-09-13T08:45:27Z</time>
      </trkpt>
      <trkpt lat="43.66357" lon="6.71535">
        <ele>548.9</ele>
        <time>2009-09-13T08:45:29Z</time>
      </trkpt>
      <trkpt lat="43.66363" lon="6.71536">
        <ele>549</ele>
        <time>2009-09-13T08:45:31Z</time>
      </trkpt>
      <trkpt lat="43.66368" lon="6.71538">
        <ele>549.1</ele>
        <time>2009-09-13T08:45:33Z</time>
      </trkpt>
      <trkpt lat="43.66373" lon="6.71539">
        <ele>549.2</ele>
        <time>2009-09-13T08:45:35Z</time>
      </trkpt>
      <trkpt lat="43.66379" lon="6.71539">
        <ele>549.3</ele>
        <time>2009-09-13T08:45:38Z</time>
      </trkpt>
      <trkpt lat="43.66385" lon="6.71544">
        <ele>549.5</ele>
        <time>2009-09-13T08:45:42Z</time>
      </trkpt>
      <trkpt lat="43.66391" lon="6.71545">
        <ele>549.7</ele>
        <time>2009-09-13T08:45:45Z</time>
      </trkpt>
      <trkpt lat="43.66396" lon="6.71545">
        <ele>549.9</ele>
        <time>2009-09-13T08:45:47Z</time>
      </trkpt>
      <trkpt lat="43.66401" lon="6.71547">
        <ele>550.1</ele>
        <time>2009-09-13T08:45:49Z</time>
      </trkpt>
      <trkpt lat="43.66406" lon="6.71553">
        <ele>550.5</ele>
        <time>2009-09-13T08:45:51Z</time>
      </trkpt>
      <trkpt lat="43.66411" lon="6.71558">
        <ele>550.9</ele>
        <time>2009-09-13T08:45:53Z</time>
      </trkpt>
      <trkpt lat="43.66416" lon="6.71564">
        <ele>551.3</ele>
        <time>2009-09-13T08:45:55Z</time>
      </trkpt>
      <trkpt lat="43.66421" lon="6.71572">
        <ele>551.6</ele>
        <time>2009-09-13T08:45:57Z</time>
      </trkpt>
      <trkpt lat="43.66426" lon="6.71579">
        <ele>551.8</ele>
        <time>2009-09-13T08:45:59Z</time>
      </trkpt>
      <trkpt lat="43.66431" lon="6.71585">
        <ele>552.1</ele>
        <time>2009-09-13T08:46:01Z</time>
      </trkpt>
      <trkpt lat="43.66436" lon="6.7159">
        <ele>552.5</ele>
        <time>2009-09-13T08:46:03Z</time>
      </trkpt>
      <trkpt lat="43.6644" lon="6.71595">
        <ele>552.9</ele>
        <time>2009-09-13T08:46:05Z</time>
      </trkpt>
      <trkpt lat="43.66445" lon="6.71601">
        <ele>553.2</ele>
        <time>2009-09-13T08:46:07Z</time>
      </trkpt>
      <trkpt lat="43.66449" lon="6.71606">
        <ele>553.7</ele>
        <time>2009-09-13T08:46:09Z</time>
      </trkpt>
      <trkpt lat="43.66453" lon="6.71611">
        <ele>554</ele>
        <time>2009-09-13T08:46:11Z</time>
      </trkpt>
      <trkpt lat="43.66457" lon="6.71616">
        <ele>554.3</ele>
        <time>2009-09-13T08:46:13Z</time>
      </trkpt>
      <trkpt lat="43.66461" lon="6.71621">
        <ele>554.5</ele>
        <time>2009-09-13T08:46:15Z</time>
      </trkpt>
      <trkpt lat="43.66467" lon="6.71625">
        <ele>554.6</ele>
        <time>2009-09-13T08:46:18Z</time>
      </trkpt>
      <trkpt lat="43.66472" lon="6.71626">
        <ele>554.5</ele>
        <time>2009-09-13T08:46:20Z</time>
      </trkpt>
      <trkpt lat="43.66477" lon="6.71624">
        <ele>554.6</ele>
        <time>2009-09-13T08:46:22Z</time>
      </trkpt>
      <trkpt lat="43.66482" lon="6.71619">
        <ele>554.6</ele>
        <time>2009-09-13T08:46:24Z</time>
      </trkpt>
      <trkpt lat="43.66487" lon="6.71613">
        <ele>554.6</ele>
        <time>2009-09-13T08:46:26Z</time>
      </trkpt>
      <trkpt lat="43.66492" lon="6.71605">
        <ele>554.3</ele>
        <time>2009-09-13T08:46:28Z</time>
      </trkpt>
      <trkpt lat="43.66498" lon="6.71597">
        <ele>553.9</ele>
        <time>2009-09-13T08:46:30Z</time>
      </trkpt>
      <trkpt lat="43.66505" lon="6.7159">
        <ele>553.4</ele>
        <time>2009-09-13T08:46:32Z</time>
      </trkpt>
      <trkpt lat="43.66509" lon="6.71587">
        <ele>553.2</ele>
        <time>2009-09-13T08:46:33Z</time>
      </trkpt>
      <trkpt lat="43.66514" lon="6.71585">
        <ele>553.1</ele>
        <time>2009-09-13T08:46:34Z</time>
      </trkpt>
      <trkpt lat="43.66519" lon="6.71583">
        <ele>553</ele>
        <time>2009-09-13T08:46:35Z</time>
      </trkpt>
      <trkpt lat="43.66524" lon="6.71583">
        <ele>553</ele>
        <time>2009-09-13T08:46:36Z</time>
      </trkpt>
      <trkpt lat="43.6653" lon="6.71583">
        <ele>552.9</ele>
        <time>2009-09-13T08:46:37Z</time>
      </trkpt>
      <trkpt lat="43.66535" lon="6.71585">
        <ele>552.8</ele>
        <time>2009-09-13T08:46:38Z</time>
      </trkpt>
      <trkpt lat="43.6654" lon="6.71587">
        <ele>552.7</ele>
        <time>2009-09-13T08:46:39Z</time>
      </trkpt>
      <trkpt lat="43.66546" lon="6.71589">
        <ele>552.5</ele>
        <time>2009-09-13T08:46:40Z</time>
      </trkpt>
      <trkpt lat="43.66551" lon="6.71591">
        <ele>552.4</ele>
        <time>2009-09-13T08:46:41Z</time>
      </trkpt>
      <trkpt lat="43.66557" lon="6.71594">
        <ele>552.3</ele>
        <time>2009-09-13T08:46:42Z</time>
      </trkpt>
      <trkpt lat="43.66563" lon="6.71597">
        <ele>552.1</ele>
        <time>2009-09-13T08:46:43Z</time>
      </trkpt>
      <trkpt lat="43.66569" lon="6.716">
        <ele>551.9</ele>
        <time>2009-09-13T08:46:44Z</time>
      </trkpt>
      <trkpt lat="43.66574" lon="6.71604">
        <ele>551.6</ele>
        <time>2009-09-13T08:46:45Z</time>
      </trkpt>
      <trkpt lat="43.6658" lon="6.71607">
        <ele>551.2</ele>
        <time>2009-09-13T08:46:46Z</time>
      </trkpt>
      <trkpt lat="43.66586" lon="6.7161">
        <ele>550.9</ele>
        <time>2009-09-13T08:46:47Z</time>
      </trkpt>
      <trkpt lat="43.66592" lon="6.71614">
        <ele>550.7</ele>
        <time>2009-09-13T08:46:48Z</time>
      </trkpt>
      <trkpt lat="43.66598" lon="6.71617">
        <ele>550.6</ele>
        <time>2009-09-13T08:46:49Z</time>
      </trkpt>
      <trkpt lat="43.66603" lon="6.7162">
        <ele>550.4</ele>
        <time>2009-09-13T08:46:50Z</time>
      </trkpt>
      <trkpt lat="43.66609" lon="6.71623">
        <ele>550.1</ele>
        <time>2009-09-13T08:46:51Z</time>
      </trkpt>
      <trkpt lat="43.66615" lon="6.71626">
        <ele>549.9</ele>
        <time>2009-09-13T08:46:52Z</time>
      </trkpt>
      <trkpt lat="43.66621" lon="6.71629">
        <ele>549.8</ele>
        <time>2009-09-13T08:46:53Z</time>
      </trkpt>
      <trkpt lat="43.66626" lon="6.71632">
        <ele>549.6</ele>
        <time>2009-09-13T08:46:54Z</time>
      </trkpt>
      <trkpt lat="43.66631" lon="6.71635">
        <ele>549.4</ele>
        <time>2009-09-13T08:46:55Z</time>
      </trkpt>
      <trkpt lat="43.66635" lon="6.71641">
        <ele>549.2</ele>
        <time>2009-09-13T08:46:56Z</time>
      </trkpt>
      <trkpt lat="43.66637" lon="6.71647">
        <ele>549.1</ele>
        <time>2009-09-13T08:46:57Z</time>
      </trkpt>
      <trkpt lat="43.66639" lon="6.71655">
        <ele>549</ele>
        <time>2009-09-13T08:46:58Z</time>
      </trkpt>
      <trkpt lat="43.66641" lon="6.71663">
        <ele>548.9</ele>
        <time>2009-09-13T08:46:59Z</time>
      </trkpt>
      <trkpt lat="43.66643" lon="6.71671">
        <ele>548.9</ele>
        <time>2009-09-13T08:47:00Z</time>
      </trkpt>
      <trkpt lat="43.66644" lon="6.71678">
        <ele>548.7</ele>
        <time>2009-09-13T08:47:01Z</time>
      </trkpt>
      <trkpt lat="43.66645" lon="6.71685">
        <ele>548.6</ele>
        <time>2009-09-13T08:47:02Z</time>
      </trkpt>
      <trkpt lat="43.66647" lon="6.71691">
        <ele>548.4</ele>
        <time>2009-09-13T08:47:03Z</time>
      </trkpt>
      <trkpt lat="43.6665" lon="6.71696">
        <ele>548.3</ele>
        <time>2009-09-13T08:47:04Z</time>
      </trkpt>
      <trkpt lat="43.66653" lon="6.71701">
        <ele>548.2</ele>
        <time>2009-09-13T08:47:05Z</time>
      </trkpt>
      <trkpt lat="43.66656" lon="6.71707">
        <ele>548.2</ele>
        <time>2009-09-13T08:47:06Z</time>
      </trkpt>
      <trkpt lat="43.66661" lon="6.71716">
        <ele>548.2</ele>
        <time>2009-09-13T08:47:08Z</time>
      </trkpt>
      <trkpt lat="43.66667" lon="6.71721">
        <ele>547.9</ele>
        <time>2009-09-13T08:47:10Z</time>
      </trkpt>
      <trkpt lat="43.66672" lon="6.71726">
        <ele>547.7</ele>
        <time>2009-09-13T08:47:12Z</time>
      </trkpt>
      <trkpt lat="43.66677" lon="6.71732">
        <ele>547.6</ele>
        <time>2009-09-13T08:47:14Z</time>
      </trkpt>
      <trkpt lat="43.66682" lon="6.71738">
        <ele>547.5</ele>
        <time>2009-09-13T08:47:16Z</time>
      </trkpt>
      <trkpt lat="43.66687" lon="6.71742">
        <ele>547.3</ele>
        <time>2009-09-13T08:47:18Z</time>
      </trkpt>
      <trkpt lat="43.66694" lon="6.71746">
        <ele>546.9</ele>
        <time>2009-09-13T08:47:20Z</time>
      </trkpt>
      <trkpt lat="43.66701" lon="6.71752">
        <ele>546.7</ele>
        <time>2009-09-13T08:47:22Z</time>
      </trkpt>
      <trkpt lat="43.66706" lon="6.71757">
        <ele>546.6</ele>
        <time>2009-09-13T08:47:24Z</time>
      </trkpt>
      <trkpt lat="43.66712" lon="6.71757">
        <ele>546.3</ele>
        <time>2009-09-13T08:47:26Z</time>
      </trkpt>
      <trkpt lat="43.66718" lon="6.71758">
        <ele>545.9</ele>
        <time>2009-09-13T08:47:28Z</time>
      </trkpt>
      <trkpt lat="43.66724" lon="6.71762">
        <ele>545.7</ele>
        <time>2009-09-13T08:47:30Z</time>
      </trkpt>
      <trkpt lat="43.6673" lon="6.71765">
        <ele>545.1</ele>
        <time>2009-09-13T08:47:32Z</time>
      </trkpt>
      <trkpt lat="43.66738" lon="6.71767">
        <ele>544.3</ele>
        <time>2009-09-13T08:47:34Z</time>
      </trkpt>
      <trkpt lat="43.66745" lon="6.71768">
        <ele>543.6</ele>
        <time>2009-09-13T08:47:36Z</time>
      </trkpt>
      <trkpt lat="43.66753" lon="6.7177">
        <ele>542.8</ele>
        <time>2009-09-13T08:47:38Z</time>
      </trkpt>
      <trkpt lat="43.66758" lon="6.71772">
        <ele>542.4</ele>
        <time>2009-09-13T08:47:39Z</time>
      </trkpt>
      <trkpt lat="43.66762" lon="6.71774">
        <ele>541.9</ele>
        <time>2009-09-13T08:47:40Z</time>
      </trkpt>
      <trkpt lat="43.66767" lon="6.71776">
        <ele>541.5</ele>
        <time>2009-09-13T08:47:41Z</time>
      </trkpt>
      <trkpt lat="43.66775" lon="6.71776">
        <ele>540.3</ele>
        <time>2009-09-13T08:47:43Z</time>
      </trkpt>
      <trkpt lat="43.66784" lon="6.71776">
        <ele>539.3</ele>
        <time>2009-09-13T08:47:45Z</time>
      </trkpt>
      <trkpt lat="43.66792" lon="6.71774">
        <ele>538.6</ele>
        <time>2009-09-13T08:47:47Z</time>
      </trkpt>
      <trkpt lat="43.668" lon="6.71775">
        <ele>537.8</ele>
        <time>2009-09-13T08:47:49Z</time>
      </trkpt>
      <trkpt lat="43.66808" lon="6.71779">
        <ele>537</ele>
        <time>2009-09-13T08:47:51Z</time>
      </trkpt>
      <trkpt lat="43.66813" lon="6.71781">
        <ele>537</ele>
        <time>2009-09-13T08:47:52Z</time>
      </trkpt>
      <trkpt lat="43.66817" lon="6.71783">
        <ele>536.9</ele>
        <time>2009-09-13T08:47:53Z</time>
      </trkpt>
      <trkpt lat="43.66826" lon="6.71788">
        <ele>536.8</ele>
        <time>2009-09-13T08:47:55Z</time>
      </trkpt>
      <trkpt lat="43.66831" lon="6.7179">
        <ele>536.6</ele>
        <time>2009-09-13T08:47:56Z</time>
      </trkpt>
      <trkpt lat="43.66836" lon="6.71793">
        <ele>536.4</ele>
        <time>2009-09-13T08:47:57Z</time>
      </trkpt>
      <trkpt lat="43.66841" lon="6.71796">
        <ele>536.2</ele>
        <time>2009-09-13T08:47:58Z</time>
      </trkpt>
      <trkpt lat="43.66845" lon="6.71798">
        <ele>535.8</ele>
        <time>2009-09-13T08:47:59Z</time>
      </trkpt>
      <trkpt lat="43.6685" lon="6.718">
        <ele>535.2</ele>
        <time>2009-09-13T08:48:00Z</time>
      </trkpt>
      <trkpt lat="43.66854" lon="6.71803">
        <ele>534.4</ele>
        <time>2009-09-13T08:48:01Z</time>
      </trkpt>
      <trkpt lat="43.66859" lon="6.71806">
        <ele>533.4</ele>
        <time>2009-09-13T08:48:02Z</time>
      </trkpt>
      <trkpt lat="43.66864" lon="6.71809">
        <ele>533.4</ele>
        <time>2009-09-13T08:48:03Z</time>
      </trkpt>
      <trkpt lat="43.66869" lon="6.71813">
        <ele>533.4</ele>
        <time>2009-09-13T08:48:04Z</time>
      </trkpt>
      <trkpt lat="43.66874" lon="6.71816">
        <ele>533.3</ele>
        <time>2009-09-13T08:48:05Z</time>
      </trkpt>
      <trkpt lat="43.66879" lon="6.7182">
        <ele>533</ele>
        <time>2009-09-13T08:48:06Z</time>
      </trkpt>
      <trkpt lat="43.66884" lon="6.71825">
        <ele>532.6</ele>
        <time>2009-09-13T08:48:07Z</time>
      </trkpt>
      <trkpt lat="43.66889" lon="6.71829">
        <ele>531.9</ele>
        <time>2009-09-13T08:48:08Z</time>
      </trkpt>
      <trkpt lat="43.66893" lon="6.71834">
        <ele>532</ele>
        <time>2009-09-13T08:48:09Z</time>
      </trkpt>
      <trkpt lat="43.66898" lon="6.7184">
        <ele>532.1</ele>
        <time>2009-09-13T08:48:10Z</time>
      </trkpt>
      <trkpt lat="43.66901" lon="6.71846">
        <ele>531.9</ele>
        <time>2009-09-13T08:48:11Z</time>
      </trkpt>
      <trkpt lat="43.66905" lon="6.71852">
        <ele>531.4</ele>
        <time>2009-09-13T08:48:12Z</time>
      </trkpt>
      <trkpt lat="43.66908" lon="6.71858">
        <ele>530.5</ele>
        <time>2009-09-13T08:48:13Z</time>
      </trkpt>
      <trkpt lat="43.66911" lon="6.71864">
        <ele>529.7</ele>
        <time>2009-09-13T08:48:14Z</time>
      </trkpt>
      <trkpt lat="43.66913" lon="6.7187">
        <ele>529.4</ele>
        <time>2009-09-13T08:48:15Z</time>
      </trkpt>
      <trkpt lat="43.66915" lon="6.71877">
        <ele>529</ele>
        <time>2009-09-13T08:48:16Z</time>
      </trkpt>
      <trkpt lat="43.66917" lon="6.71885">
        <ele>528.8</ele>
        <time>2009-09-13T08:48:17Z</time>
      </trkpt>
      <trkpt lat="43.66919" lon="6.71892">
        <ele>529</ele>
        <time>2009-09-13T08:48:18Z</time>
      </trkpt>
      <trkpt lat="43.66921" lon="6.719">
        <ele>529</ele>
        <time>2009-09-13T08:48:19Z</time>
      </trkpt>
      <trkpt lat="43.66922" lon="6.71908">
        <ele>528.9</ele>
        <time>2009-09-13T08:48:20Z</time>
      </trkpt>
      <trkpt lat="43.66923" lon="6.71916">
        <ele>528.6</ele>
        <time>2009-09-13T08:48:21Z</time>
      </trkpt>
      <trkpt lat="43.66924" lon="6.71923">
        <ele>528.4</ele>
        <time>2009-09-13T08:48:22Z</time>
      </trkpt>
      <trkpt lat="43.66926" lon="6.7193">
        <ele>528</ele>
        <time>2009-09-13T08:48:23Z</time>
      </trkpt>
      <trkpt lat="43.66928" lon="6.71937">
        <ele>527.3</ele>
        <time>2009-09-13T08:48:24Z</time>
      </trkpt>
      <trkpt lat="43.6693" lon="6.71945">
        <ele>526.9</ele>
        <time>2009-09-13T08:48:25Z</time>
      </trkpt>
      <trkpt lat="43.66931" lon="6.71953">
        <ele>526.7</ele>
        <time>2009-09-13T08:48:26Z</time>
      </trkpt>
      <trkpt lat="43.66932" lon="6.71961">
        <ele>526.6</ele>
        <time>2009-09-13T08:48:27Z</time>
      </trkpt>
      <trkpt lat="43.66933" lon="6.71969">
        <ele>526.6</ele>
        <time>2009-09-13T08:48:28Z</time>
      </trkpt>
      <trkpt lat="43.66933" lon="6.71977">
        <ele>526.6</ele>
        <time>2009-09-13T08:48:29Z</time>
      </trkpt>
      <trkpt lat="43.66933" lon="6.71986">
        <ele>526.7</ele>
        <time>2009-09-13T08:48:30Z</time>
      </trkpt>
      <trkpt lat="43.66933" lon="6.71994">
        <ele>526.9</ele>
        <time>2009-09-13T08:48:31Z</time>
      </trkpt>
      <trkpt lat="43.66933" lon="6.72002">
        <ele>527.2</ele>
        <time>2009-09-13T08:48:32Z</time>
      </trkpt>
      <trkpt lat="43.66933" lon="6.7201">
        <ele>527.1</ele>
        <time>2009-09-13T08:48:33Z</time>
      </trkpt>
      <trkpt lat="43.66933" lon="6.72017">
        <ele>526.9</ele>
        <time>2009-09-13T08:48:34Z</time>
      </trkpt>
      <trkpt lat="43.66933" lon="6.72025">
        <ele>526.9</ele>
        <time>2009-09-13T08:48:35Z</time>
      </trkpt>
      <trkpt lat="43.66932" lon="6.72032">
        <ele>526.9</ele>
        <time>2009-09-13T08:48:36Z</time>
      </trkpt>
      <trkpt lat="43.66932" lon="6.72039">
        <ele>526.8</ele>
        <time>2009-09-13T08:48:37Z</time>
      </trkpt>
      <trkpt lat="43.66932" lon="6.72045">
        <ele>526.9</ele>
        <time>2009-09-13T08:48:38Z</time>
      </trkpt>
      <trkpt lat="43.66931" lon="6.72057">
        <ele>526.8</ele>
        <time>2009-09-13T08:48:40Z</time>
      </trkpt>
      <trkpt lat="43.66933" lon="6.72067">
        <ele>526.6</ele>
        <time>2009-09-13T08:48:42Z</time>
      </trkpt>
      <trkpt lat="43.66933" lon="6.72076">
        <ele>526.7</ele>
        <time>2009-09-13T08:48:44Z</time>
      </trkpt>
      <trkpt lat="43.66934" lon="6.72086">
        <ele>526.6</ele>
        <time>2009-09-13T08:48:46Z</time>
      </trkpt>
      <trkpt lat="43.66933" lon="6.72096">
        <ele>526.7</ele>
        <time>2009-09-13T08:48:48Z</time>
      </trkpt>
      <trkpt lat="43.66933" lon="6.72105">
        <ele>526.6</ele>
        <time>2009-09-13T08:48:50Z</time>
      </trkpt>
      <trkpt lat="43.66933" lon="6.72112">
        <ele>526.4</ele>
        <time>2009-09-13T08:48:52Z</time>
      </trkpt>
      <trkpt lat="43.66931" lon="6.72121">
        <ele>525.9</ele>
        <time>2009-09-13T08:48:54Z</time>
      </trkpt>
      <trkpt lat="43.66928" lon="6.72129">
        <ele>525.5</ele>
        <time>2009-09-13T08:48:56Z</time>
      </trkpt>
      <trkpt lat="43.66924" lon="6.72137">
        <ele>525.1</ele>
        <time>2009-09-13T08:48:58Z</time>
      </trkpt>
      <trkpt lat="43.6692" lon="6.72144">
        <ele>524.9</ele>
        <time>2009-09-13T08:49:00Z</time>
      </trkpt>
      <trkpt lat="43.66916" lon="6.72152">
        <ele>524.7</ele>
        <time>2009-09-13T08:49:02Z</time>
      </trkpt>
      <trkpt lat="43.66911" lon="6.72159">
        <ele>524.3</ele>
        <time>2009-09-13T08:49:04Z</time>
      </trkpt>
      <trkpt lat="43.66904" lon="6.72167">
        <ele>523.9</ele>
        <time>2009-09-13T08:49:06Z</time>
      </trkpt>
      <trkpt lat="43.66898" lon="6.72174">
        <ele>523.2</ele>
        <time>2009-09-13T08:49:08Z</time>
      </trkpt>
      <trkpt lat="43.66892" lon="6.7218">
        <ele>522.5</ele>
        <time>2009-09-13T08:49:10Z</time>
      </trkpt>
      <trkpt lat="43.66886" lon="6.72188">
        <ele>521.4</ele>
        <time>2009-09-13T08:49:12Z</time>
      </trkpt>
      <trkpt lat="43.66883" lon="6.72193">
        <ele>520.9</ele>
        <time>2009-09-13T08:49:13Z</time>
      </trkpt>
      <trkpt lat="43.66876" lon="6.72201">
        <ele>520.5</ele>
        <time>2009-09-13T08:49:15Z</time>
      </trkpt>
      <trkpt lat="43.66872" lon="6.72206">
        <ele>520.2</ele>
        <time>2009-09-13T08:49:16Z</time>
      </trkpt>
      <trkpt lat="43.66866" lon="6.72215">
        <ele>519.5</ele>
        <time>2009-09-13T08:49:18Z</time>
      </trkpt>
      <trkpt lat="43.66861" lon="6.72226">
        <ele>518.6</ele>
        <time>2009-09-13T08:49:20Z</time>
      </trkpt>
      <trkpt lat="43.66857" lon="6.72236">
        <ele>518.1</ele>
        <time>2009-09-13T08:49:22Z</time>
      </trkpt>
      <trkpt lat="43.66853" lon="6.72245">
        <ele>517.7</ele>
        <time>2009-09-13T08:49:24Z</time>
      </trkpt>
      <trkpt lat="43.66849" lon="6.72255">
        <ele>517.2</ele>
        <time>2009-09-13T08:49:26Z</time>
      </trkpt>
      <trkpt lat="43.66845" lon="6.72265">
        <ele>516.5</ele>
        <time>2009-09-13T08:49:28Z</time>
      </trkpt>
      <trkpt lat="43.6684" lon="6.72275">
        <ele>516.2</ele>
        <time>2009-09-13T08:49:30Z</time>
      </trkpt>
      <trkpt lat="43.66836" lon="6.72285">
        <ele>515.7</ele>
        <time>2009-09-13T08:49:32Z</time>
      </trkpt>
      <trkpt lat="43.66832" lon="6.72294">
        <ele>515.5</ele>
        <time>2009-09-13T08:49:34Z</time>
      </trkpt>
      <trkpt lat="43.66831" lon="6.72302">
        <ele>514.9</ele>
        <time>2009-09-13T08:49:37Z</time>
      </trkpt>
      <trkpt lat="43.6684" lon="6.72307">
        <ele>512.7</ele>
        <time>2009-09-13T08:57:42Z</time>
      </trkpt>
      <trkpt lat="43.66837" lon="6.72302">
        <ele>513.7</ele>
        <time>2009-09-13T09:00:39Z</time>
      </trkpt>
      <trkpt lat="43.66845" lon="6.72305">
        <ele>512.1</ele>
        <time>2009-09-13T09:02:06Z</time>
      </trkpt>
      <trkpt lat="43.66849" lon="6.72305">
        <ele>511.1</ele>
        <time>2009-09-13T09:02:19Z</time>
      </trkpt>
      <trkpt lat="43.66841" lon="6.72297">
        <ele>513.7</ele>
        <time>2009-09-13T09:03:44Z</time>
      </trkpt>
      <trkpt lat="43.66846" lon="6.72291">
        <ele>513.3</ele>
        <time>2009-09-13T09:03:47Z</time>
      </trkpt>
      <trkpt lat="43.66851" lon="6.72285">
        <ele>513.1</ele>
        <time>2009-09-13T09:03:49Z</time>
      </trkpt>
      <trkpt lat="43.66854" lon="6.72279">
        <ele>513.1</ele>
        <time>2009-09-13T09:03:51Z</time>
      </trkpt>
      <trkpt lat="43.66859" lon="6.72273">
        <ele>513.2</ele>
        <time>2009-09-13T09:03:53Z</time>
      </trkpt>
      <trkpt lat="43.66863" lon="6.72266">
        <ele>513.3</ele>
        <time>2009-09-13T09:03:55Z</time>
      </trkpt>
      <trkpt lat="43.66868" lon="6.72261">
        <ele>513.5</ele>
        <time>2009-09-13T09:03:57Z</time>
      </trkpt>
      <trkpt lat="43.66871" lon="6.72255">
        <ele>513.9</ele>
        <time>2009-09-13T09:03:59Z</time>
      </trkpt>
      <trkpt lat="43.66875" lon="6.72249">
        <ele>514.2</ele>
        <time>2009-09-13T09:04:01Z</time>
      </trkpt>
      <trkpt lat="43.6688" lon="6.72244">
        <ele>514.1</ele>
        <time>2009-09-13T09:04:03Z</time>
      </trkpt>
      <trkpt lat="43.66885" lon="6.72238">
        <ele>514.3</ele>
        <time>2009-09-13T09:04:05Z</time>
      </trkpt>
      <trkpt lat="43.66891" lon="6.72235">
        <ele>514.1</ele>
        <time>2009-09-13T09:04:07Z</time>
      </trkpt>
      <trkpt lat="43.66898" lon="6.72233">
        <ele>514</ele>
        <time>2009-09-13T09:04:09Z</time>
      </trkpt>
      <trkpt lat="43.66907" lon="6.72233">
        <ele>513.6</ele>
        <time>2009-09-13T09:04:11Z</time>
      </trkpt>
      <trkpt lat="43.66912" lon="6.72233">
        <ele>513.3</ele>
        <time>2009-09-13T09:04:12Z</time>
      </trkpt>
      <trkpt lat="43.66917" lon="6.72233">
        <ele>513.1</ele>
        <time>2009-09-13T09:04:13Z</time>
      </trkpt>
      <trkpt lat="43.66925" lon="6.72231">
        <ele>513.2</ele>
        <time>2009-09-13T09:04:15Z</time>
      </trkpt>
      <trkpt lat="43.6693" lon="6.72228">
        <ele>513.4</ele>
        <time>2009-09-13T09:04:17Z</time>
      </trkpt>
      <trkpt lat="43.66937" lon="6.72227">
        <ele>513.5</ele>
        <time>2009-09-13T09:04:19Z</time>
      </trkpt>
      <trkpt lat="43.66944" lon="6.72226">
        <ele>513.4</ele>
        <time>2009-09-13T09:04:21Z</time>
      </trkpt>
      <trkpt lat="43.66952" lon="6.72222">
        <ele>512.7</ele>
        <time>2009-09-13T09:04:23Z</time>
      </trkpt>
      <trkpt lat="43.66958" lon="6.72217">
        <ele>512</ele>
        <time>2009-09-13T09:04:25Z</time>
      </trkpt>
      <trkpt lat="43.66963" lon="6.72209">
        <ele>511.6</ele>
        <time>2009-09-13T09:04:27Z</time>
      </trkpt>
      <trkpt lat="43.66965" lon="6.72201">
        <ele>511.6</ele>
        <time>2009-09-13T09:04:29Z</time>
      </trkpt>
      <trkpt lat="43.66967" lon="6.72193">
        <ele>511.7</ele>
        <time>2009-09-13T09:04:31Z</time>
      </trkpt>
      <trkpt lat="43.66967" lon="6.72183">
        <ele>512.1</ele>
        <time>2009-09-13T09:04:33Z</time>
      </trkpt>
      <trkpt lat="43.66968" lon="6.72172">
        <ele>512.1</ele>
        <time>2009-09-13T09:04:35Z</time>
      </trkpt>
      <trkpt lat="43.6697" lon="6.72162">
        <ele>511.7</ele>
        <time>2009-09-13T09:04:37Z</time>
      </trkpt>
      <trkpt lat="43.66971" lon="6.72152">
        <ele>511.5</ele>
        <time>2009-09-13T09:04:39Z</time>
      </trkpt>
      <trkpt lat="43.66972" lon="6.7214">
        <ele>511.2</ele>
        <time>2009-09-13T09:04:41Z</time>
      </trkpt>
      <trkpt lat="43.66973" lon="6.72129">
        <ele>510.8</ele>
        <time>2009-09-13T09:04:43Z</time>
      </trkpt>
      <trkpt lat="43.66972" lon="6.72117">
        <ele>511.1</ele>
        <time>2009-09-13T09:04:45Z</time>
      </trkpt>
      <trkpt lat="43.66973" lon="6.72106">
        <ele>510.4</ele>
        <time>2009-09-13T09:04:47Z</time>
      </trkpt>
      <trkpt lat="43.66973" lon="6.72094">
        <ele>509.4</ele>
        <time>2009-09-13T09:04:49Z</time>
      </trkpt>
      <trkpt lat="43.66971" lon="6.72083">
        <ele>509.6</ele>
        <time>2009-09-13T09:04:51Z</time>
      </trkpt>
      <trkpt lat="43.66969" lon="6.72072">
        <ele>509.9</ele>
        <time>2009-09-13T09:04:53Z</time>
      </trkpt>
      <trkpt lat="43.66969" lon="6.72061">
        <ele>509.4</ele>
        <time>2009-09-13T09:04:55Z</time>
      </trkpt>
      <trkpt lat="43.66968" lon="6.72051">
        <ele>509.6</ele>
        <time>2009-09-13T09:04:57Z</time>
      </trkpt>
      <trkpt lat="43.66967" lon="6.72044">
        <ele>509.9</ele>
        <time>2009-09-13T09:04:59Z</time>
      </trkpt>
      <trkpt lat="43.66967" lon="6.72037">
        <ele>510.1</ele>
        <time>2009-09-13T09:05:01Z</time>
      </trkpt>
      <trkpt lat="43.66967" lon="6.72031">
        <ele>509.8</ele>
        <time>2009-09-13T09:05:04Z</time>
      </trkpt>
      <trkpt lat="43.66968" lon="6.72017">
        <ele>511.2</ele>
        <time>2009-09-13T09:05:34Z</time>
      </trkpt>
      <trkpt lat="43.66972" lon="6.72012">
        <ele>510.1</ele>
        <time>2009-09-13T09:05:38Z</time>
      </trkpt>
      <trkpt lat="43.66978" lon="6.72013">
        <ele>512.2</ele>
        <time>2009-09-13T09:05:41Z</time>
      </trkpt>
      <trkpt lat="43.66984" lon="6.72015">
        <ele>514</ele>
        <time>2009-09-13T09:05:43Z</time>
      </trkpt>
      <trkpt lat="43.6699" lon="6.72021">
        <ele>514.8</ele>
        <time>2009-09-13T09:05:45Z</time>
      </trkpt>
      <trkpt lat="43.66996" lon="6.72028">
        <ele>514.6</ele>
        <time>2009-09-13T09:05:47Z</time>
      </trkpt>
      <trkpt lat="43.67003" lon="6.72036">
        <ele>513.4</ele>
        <time>2009-09-13T09:05:49Z</time>
      </trkpt>
      <trkpt lat="43.67011" lon="6.72043">
        <ele>512.5</ele>
        <time>2009-09-13T09:05:51Z</time>
      </trkpt>
      <trkpt lat="43.67018" lon="6.72048">
        <ele>512.4</ele>
        <time>2009-09-13T09:05:53Z</time>
      </trkpt>
      <trkpt lat="43.67026" lon="6.72052">
        <ele>512.6</ele>
        <time>2009-09-13T09:05:55Z</time>
      </trkpt>
      <trkpt lat="43.67034" lon="6.72057">
        <ele>513.5</ele>
        <time>2009-09-13T09:05:57Z</time>
      </trkpt>
      <trkpt lat="43.6704" lon="6.72062">
        <ele>513.7</ele>
        <time>2009-09-13T09:05:59Z</time>
      </trkpt>
      <trkpt lat="43.67046" lon="6.72067">
        <ele>514.3</ele>
        <time>2009-09-13T09:06:01Z</time>
      </trkpt>
      <trkpt lat="43.67052" lon="6.7207">
        <ele>515.3</ele>
        <time>2009-09-13T09:06:03Z</time>
      </trkpt>
      <trkpt lat="43.67056" lon="6.72072">
        <ele>516.6</ele>
        <time>2009-09-13T09:06:05Z</time>
      </trkpt>
      <trkpt lat="43.67062" lon="6.72075">
        <ele>516.8</ele>
        <time>2009-09-13T09:06:09Z</time>
      </trkpt>
      <trkpt lat="43.67067" lon="6.72075">
        <ele>518.2</ele>
        <time>2009-09-13T09:06:13Z</time>
      </trkpt>
      <trkpt lat="43.67072" lon="6.72078">
        <ele>518.3</ele>
        <time>2009-09-13T09:06:17Z</time>
      </trkpt>
      <trkpt lat="43.67087" lon="6.72097">
        <ele>511.1</ele>
        <time>2009-09-13T09:09:30Z</time>
      </trkpt>
      <trkpt lat="43.67093" lon="6.72084">
        <ele>520.6</ele>
        <time>2009-09-13T09:10:36Z</time>
      </trkpt>
      <trkpt lat="43.671" lon="6.72083">
        <ele>521.3</ele>
        <time>2009-09-13T09:10:39Z</time>
      </trkpt>
      <trkpt lat="43.67107" lon="6.72082">
        <ele>522.2</ele>
        <time>2009-09-13T09:10:41Z</time>
      </trkpt>
      <trkpt lat="43.67115" lon="6.72081">
        <ele>521.4</ele>
        <time>2009-09-13T09:10:43Z</time>
      </trkpt>
      <trkpt lat="43.67124" lon="6.72078">
        <ele>518.9</ele>
        <time>2009-09-13T09:10:45Z</time>
      </trkpt>
      <trkpt lat="43.67129" lon="6.72076">
        <ele>518</ele>
        <time>2009-09-13T09:10:46Z</time>
      </trkpt>
      <trkpt lat="43.67133" lon="6.72074">
        <ele>517.6</ele>
        <time>2009-09-13T09:10:47Z</time>
      </trkpt>
      <trkpt lat="43.67138" lon="6.72072">
        <ele>517.3</ele>
        <time>2009-09-13T09:10:48Z</time>
      </trkpt>
      <trkpt lat="43.67143" lon="6.72069">
        <ele>516.8</ele>
        <time>2009-09-13T09:10:49Z</time>
      </trkpt>
      <trkpt lat="43.67148" lon="6.72065">
        <ele>517.2</ele>
        <time>2009-09-13T09:10:50Z</time>
      </trkpt>
      <trkpt lat="43.67153" lon="6.72062">
        <ele>518.1</ele>
        <time>2009-09-13T09:10:51Z</time>
      </trkpt>
      <trkpt lat="43.67159" lon="6.72059">
        <ele>518.9</ele>
        <time>2009-09-13T09:10:52Z</time>
      </trkpt>
      <trkpt lat="43.67164" lon="6.72055">
        <ele>519.9</ele>
        <time>2009-09-13T09:10:53Z</time>
      </trkpt>
      <trkpt lat="43.6717" lon="6.72052">
        <ele>519.8</ele>
        <time>2009-09-13T09:10:54Z</time>
      </trkpt>
      <trkpt lat="43.67177" lon="6.7205">
        <ele>519.6</ele>
        <time>2009-09-13T09:10:55Z</time>
      </trkpt>
      <trkpt lat="43.67184" lon="6.72049">
        <ele>518.9</ele>
        <time>2009-09-13T09:10:56Z</time>
      </trkpt>
      <trkpt lat="43.67191" lon="6.7205">
        <ele>517.2</ele>
        <time>2009-09-13T09:10:57Z</time>
      </trkpt>
      <trkpt lat="43.67198" lon="6.72053">
        <ele>516.2</ele>
        <time>2009-09-13T09:10:58Z</time>
      </trkpt>
      <trkpt lat="43.67205" lon="6.72056">
        <ele>516.1</ele>
        <time>2009-09-13T09:10:59Z</time>
      </trkpt>
      <trkpt lat="43.67211" lon="6.72059">
        <ele>515.8</ele>
        <time>2009-09-13T09:11:00Z</time>
      </trkpt>
      <trkpt lat="43.67217" lon="6.72063">
        <ele>515.8</ele>
        <time>2009-09-13T09:11:01Z</time>
      </trkpt>
      <trkpt lat="43.67223" lon="6.72066">
        <ele>516.1</ele>
        <time>2009-09-13T09:11:02Z</time>
      </trkpt>
      <trkpt lat="43.67229" lon="6.72068">
        <ele>515.5</ele>
        <time>2009-09-13T09:11:03Z</time>
      </trkpt>
      <trkpt lat="43.67236" lon="6.72071">
        <ele>514.8</ele>
        <time>2009-09-13T09:11:04Z</time>
      </trkpt>
      <trkpt lat="43.67242" lon="6.72074">
        <ele>514.1</ele>
        <time>2009-09-13T09:11:05Z</time>
      </trkpt>
      <trkpt lat="43.67248" lon="6.72076">
        <ele>513.3</ele>
        <time>2009-09-13T09:11:06Z</time>
      </trkpt>
      <trkpt lat="43.67253" lon="6.72078">
        <ele>513</ele>
        <time>2009-09-13T09:11:07Z</time>
      </trkpt>
      <trkpt lat="43.67258" lon="6.7208">
        <ele>512.9</ele>
        <time>2009-09-13T09:11:08Z</time>
      </trkpt>
      <trkpt lat="43.67266" lon="6.72083">
        <ele>512.8</ele>
        <time>2009-09-13T09:11:10Z</time>
      </trkpt>
      <trkpt lat="43.67274" lon="6.72083">
        <ele>513.6</ele>
        <time>2009-09-13T09:11:12Z</time>
      </trkpt>
      <trkpt lat="43.67279" lon="6.72082">
        <ele>514.6</ele>
        <time>2009-09-13T09:11:14Z</time>
      </trkpt>
      <trkpt lat="43.67284" lon="6.72081">
        <ele>514.1</ele>
        <time>2009-09-13T09:11:17Z</time>
      </trkpt>
      <trkpt lat="43.67292" lon="6.72079">
        <ele>513.5</ele>
        <time>2009-09-13T09:11:25Z</time>
      </trkpt>
      <trkpt lat="43.67297" lon="6.72078">
        <ele>513</ele>
        <time>2009-09-13T09:11:29Z</time>
      </trkpt>
      <trkpt lat="43.67302" lon="6.72076">
        <ele>512.7</ele>
        <time>2009-09-13T09:11:33Z</time>
      </trkpt>
      <trkpt lat="43.6731" lon="6.72067">
        <ele>512.2</ele>
        <time>2009-09-13T09:11:51Z</time>
      </trkpt>
      <trkpt lat="43.67314" lon="6.72061">
        <ele>512</ele>
        <time>2009-09-13T09:11:55Z</time>
      </trkpt>
      <trkpt lat="43.67319" lon="6.72056">
        <ele>511.8</ele>
        <time>2009-09-13T09:11:59Z</time>
      </trkpt>
      <trkpt lat="43.67323" lon="6.72053">
        <ele>510.9</ele>
        <time>2009-09-13T09:12:02Z</time>
      </trkpt>
      <trkpt lat="43.67328" lon="6.72052">
        <ele>509.7</ele>
        <time>2009-09-13T09:12:05Z</time>
      </trkpt>
      <trkpt lat="43.67334" lon="6.72051">
        <ele>508.2</ele>
        <time>2009-09-13T09:12:08Z</time>
      </trkpt>
      <trkpt lat="43.67338" lon="6.72048">
        <ele>507.9</ele>
        <time>2009-09-13T09:12:10Z</time>
      </trkpt>
      <trkpt lat="43.67344" lon="6.72045">
        <ele>507.3</ele>
        <time>2009-09-13T09:12:12Z</time>
      </trkpt>
      <trkpt lat="43.67349" lon="6.7204">
        <ele>508.1</ele>
        <time>2009-09-13T09:12:14Z</time>
      </trkpt>
      <trkpt lat="43.67355" lon="6.72036">
        <ele>508.7</ele>
        <time>2009-09-13T09:12:16Z</time>
      </trkpt>
      <trkpt lat="43.6736" lon="6.72031">
        <ele>510.5</ele>
        <time>2009-09-13T09:12:18Z</time>
      </trkpt>
      <trkpt lat="43.67365" lon="6.72023">
        <ele>511.6</ele>
        <time>2009-09-13T09:12:20Z</time>
      </trkpt>
      <trkpt lat="43.6737" lon="6.72019">
        <ele>510.9</ele>
        <time>2009-09-13T09:12:22Z</time>
      </trkpt>
      <trkpt lat="43.67374" lon="6.72011">
        <ele>511.6</ele>
        <time>2009-09-13T09:12:24Z</time>
      </trkpt>
      <trkpt lat="43.67378" lon="6.72004">
        <ele>512.8</ele>
        <time>2009-09-13T09:12:26Z</time>
      </trkpt>
      <trkpt lat="43.67382" lon="6.71998">
        <ele>513.1</ele>
        <time>2009-09-13T09:12:28Z</time>
      </trkpt>
      <trkpt lat="43.67388" lon="6.71993">
        <ele>512.8</ele>
        <time>2009-09-13T09:12:30Z</time>
      </trkpt>
      <trkpt lat="43.67394" lon="6.71986">
        <ele>512.1</ele>
        <time>2009-09-13T09:12:32Z</time>
      </trkpt>
      <trkpt lat="43.67401" lon="6.7198">
        <ele>510.9</ele>
        <time>2009-09-13T09:12:34Z</time>
      </trkpt>
      <trkpt lat="43.67404" lon="6.71976">
        <ele>510.9</ele>
        <time>2009-09-13T09:12:35Z</time>
      </trkpt>
      <trkpt lat="43.67411" lon="6.71968">
        <ele>510.9</ele>
        <time>2009-09-13T09:12:37Z</time>
      </trkpt>
      <trkpt lat="43.67415" lon="6.71961">
        <ele>511.2</ele>
        <time>2009-09-13T09:12:39Z</time>
      </trkpt>
      <trkpt lat="43.67421" lon="6.71954">
        <ele>511</ele>
        <time>2009-09-13T09:12:41Z</time>
      </trkpt>
      <trkpt lat="43.67427" lon="6.71946">
        <ele>510.8</ele>
        <time>2009-09-13T09:12:43Z</time>
      </trkpt>
      <trkpt lat="43.67432" lon="6.71937">
        <ele>510.4</ele>
        <time>2009-09-13T09:12:45Z</time>
      </trkpt>
      <trkpt lat="43.67437" lon="6.71929">
        <ele>509.6</ele>
        <time>2009-09-13T09:12:47Z</time>
      </trkpt>
      <trkpt lat="43.67439" lon="6.71921">
        <ele>510.2</ele>
        <time>2009-09-13T09:12:50Z</time>
      </trkpt>
      <trkpt lat="43.67439" lon="6.71914">
        <ele>511.6</ele>
        <time>2009-09-13T09:12:52Z</time>
      </trkpt>
      <trkpt lat="43.67439" lon="6.71907">
        <ele>512.4</ele>
        <time>2009-09-13T09:12:54Z</time>
      </trkpt>
      <trkpt lat="43.67442" lon="6.71898">
        <ele>512.2</ele>
        <time>2009-09-13T09:12:56Z</time>
      </trkpt>
      <trkpt lat="43.67447" lon="6.71888">
        <ele>510.8</ele>
        <time>2009-09-13T09:12:58Z</time>
      </trkpt>
      <trkpt lat="43.67449" lon="6.71882">
        <ele>510.8</ele>
        <time>2009-09-13T09:12:59Z</time>
      </trkpt>
      <trkpt lat="43.67452" lon="6.71876">
        <ele>510</ele>
        <time>2009-09-13T09:13:00Z</time>
      </trkpt>
      <trkpt lat="43.67455" lon="6.71869">
        <ele>509.3</ele>
        <time>2009-09-13T09:13:02Z</time>
      </trkpt>
      <trkpt lat="43.67457" lon="6.71863">
        <ele>508.9</ele>
        <time>2009-09-13T09:13:05Z</time>
      </trkpt>
      <trkpt lat="43.67459" lon="6.71856">
        <ele>509.6</ele>
        <time>2009-09-13T09:13:08Z</time>
      </trkpt>
      <trkpt lat="43.67461" lon="6.7185">
        <ele>509.8</ele>
        <time>2009-09-13T09:13:10Z</time>
      </trkpt>
      <trkpt lat="43.67465" lon="6.71842">
        <ele>509.5</ele>
        <time>2009-09-13T09:13:12Z</time>
      </trkpt>
      <trkpt lat="43.67469" lon="6.71834">
        <ele>509.2</ele>
        <time>2009-09-13T09:13:14Z</time>
      </trkpt>
      <trkpt lat="43.67473" lon="6.71826">
        <ele>509</ele>
        <time>2009-09-13T09:13:16Z</time>
      </trkpt>
      <trkpt lat="43.67476" lon="6.71819">
        <ele>508.8</ele>
        <time>2009-09-13T09:13:18Z</time>
      </trkpt>
      <trkpt lat="43.6748" lon="6.71811">
        <ele>508.9</ele>
        <time>2009-09-13T09:13:21Z</time>
      </trkpt>
      <trkpt lat="43.67484" lon="6.71806">
        <ele>508.1</ele>
        <time>2009-09-13T09:13:23Z</time>
      </trkpt>
      <trkpt lat="43.67488" lon="6.71797">
        <ele>508.8</ele>
        <time>2009-09-13T09:13:25Z</time>
      </trkpt>
      <trkpt lat="43.67492" lon="6.71789">
        <ele>509.1</ele>
        <time>2009-09-13T09:13:27Z</time>
      </trkpt>
      <trkpt lat="43.67498" lon="6.7178">
        <ele>508.8</ele>
        <time>2009-09-13T09:13:29Z</time>
      </trkpt>
      <trkpt lat="43.675" lon="6.71773">
        <ele>509.3</ele>
        <time>2009-09-13T09:13:31Z</time>
      </trkpt>
      <trkpt lat="43.67502" lon="6.71765">
        <ele>510.4</ele>
        <time>2009-09-13T09:13:34Z</time>
      </trkpt>
      <trkpt lat="43.67504" lon="6.71757">
        <ele>511.4</ele>
        <time>2009-09-13T09:13:36Z</time>
      </trkpt>
      <trkpt lat="43.67507" lon="6.7175">
        <ele>511.8</ele>
        <time>2009-09-13T09:13:38Z</time>
      </trkpt>
      <trkpt lat="43.67509" lon="6.71741">
        <ele>512.5</ele>
        <time>2009-09-13T09:13:40Z</time>
      </trkpt>
      <trkpt lat="43.67511" lon="6.71734">
        <ele>513.5</ele>
        <time>2009-09-13T09:13:42Z</time>
      </trkpt>
      <trkpt lat="43.67512" lon="6.71726">
        <ele>515</ele>
        <time>2009-09-13T09:13:45Z</time>
      </trkpt>
      <trkpt lat="43.67515" lon="6.71721">
        <ele>515.4</ele>
        <time>2009-09-13T09:13:48Z</time>
      </trkpt>
      <trkpt lat="43.67521" lon="6.71723">
        <ele>514</ele>
        <time>2009-09-13T09:13:51Z</time>
      </trkpt>
      <trkpt lat="43.67527" lon="6.71728">
        <ele>511</ele>
        <time>2009-09-13T09:13:54Z</time>
      </trkpt>
      <trkpt lat="43.67533" lon="6.71733">
        <ele>510.5</ele>
        <time>2009-09-13T09:13:57Z</time>
      </trkpt>
      <trkpt lat="43.67539" lon="6.71736">
        <ele>510.7</ele>
        <time>2009-09-13T09:14:00Z</time>
      </trkpt>
      <trkpt lat="43.67543" lon="6.71739">
        <ele>510.5</ele>
        <time>2009-09-13T09:14:02Z</time>
      </trkpt>
      <trkpt lat="43.67549" lon="6.71742">
        <ele>510.7</ele>
        <time>2009-09-13T09:14:05Z</time>
      </trkpt>
      <trkpt lat="43.67554" lon="6.71745">
        <ele>510.5</ele>
        <time>2009-09-13T09:14:07Z</time>
      </trkpt>
      <trkpt lat="43.67558" lon="6.71748">
        <ele>509.9</ele>
        <time>2009-09-13T09:14:09Z</time>
      </trkpt>
      <trkpt lat="43.67564" lon="6.71752">
        <ele>509.2</ele>
        <time>2009-09-13T09:14:12Z</time>
      </trkpt>
      <trkpt lat="43.67568" lon="6.71754">
        <ele>509.5</ele>
        <time>2009-09-13T09:14:14Z</time>
      </trkpt>
      <trkpt lat="43.67573" lon="6.71756">
        <ele>510.3</ele>
        <time>2009-09-13T09:14:16Z</time>
      </trkpt>
      <trkpt lat="43.67579" lon="6.71758">
        <ele>510.7</ele>
        <time>2009-09-13T09:14:18Z</time>
      </trkpt>
      <trkpt lat="43.67585" lon="6.71761">
        <ele>510.1</ele>
        <time>2009-09-13T09:14:20Z</time>
      </trkpt>
      <trkpt lat="43.67593" lon="6.71763">
        <ele>508.8</ele>
        <time>2009-09-13T09:14:22Z</time>
      </trkpt>
      <trkpt lat="43.676" lon="6.71762">
        <ele>508.7</ele>
        <time>2009-09-13T09:14:24Z</time>
      </trkpt>
      <trkpt lat="43.67606" lon="6.71759">
        <ele>510.5</ele>
        <time>2009-09-13T09:14:26Z</time>
      </trkpt>
      <trkpt lat="43.67611" lon="6.71755">
        <ele>512.6</ele>
        <time>2009-09-13T09:14:28Z</time>
      </trkpt>
      <trkpt lat="43.67617" lon="6.7175">
        <ele>512.9</ele>
        <time>2009-09-13T09:14:30Z</time>
      </trkpt>
      <trkpt lat="43.67622" lon="6.71745">
        <ele>512.9</ele>
        <time>2009-09-13T09:14:32Z</time>
      </trkpt>
      <trkpt lat="43.67628" lon="6.71742">
        <ele>512.2</ele>
        <time>2009-09-13T09:14:34Z</time>
      </trkpt>
      <trkpt lat="43.67632" lon="6.71738">
        <ele>512</ele>
        <time>2009-09-13T09:14:36Z</time>
      </trkpt>
      <trkpt lat="43.67638" lon="6.71735">
        <ele>511.2</ele>
        <time>2009-09-13T09:14:39Z</time>
      </trkpt>
      <trkpt lat="43.67643" lon="6.71732">
        <ele>510.2</ele>
        <time>2009-09-13T09:14:43Z</time>
      </trkpt>
      <trkpt lat="43.67647" lon="6.71725">
        <ele>510.6</ele>
        <time>2009-09-13T09:14:47Z</time>
      </trkpt>
      <trkpt lat="43.67651" lon="6.71719">
        <ele>510.8</ele>
        <time>2009-09-13T09:14:50Z</time>
      </trkpt>
      <trkpt lat="43.67655" lon="6.71713">
        <ele>511.1</ele>
        <time>2009-09-13T09:14:52Z</time>
      </trkpt>
      <trkpt lat="43.6766" lon="6.71706">
        <ele>510.5</ele>
        <time>2009-09-13T09:14:54Z</time>
      </trkpt>
      <trkpt lat="43.67664" lon="6.717">
        <ele>510.5</ele>
        <time>2009-09-13T09:14:56Z</time>
      </trkpt>
      <trkpt lat="43.67668" lon="6.71694">
        <ele>510.4</ele>
        <time>2009-09-13T09:14:58Z</time>
      </trkpt>
      <trkpt lat="43.67673" lon="6.71688">
        <ele>510.4</ele>
        <time>2009-09-13T09:15:00Z</time>
      </trkpt>
      <trkpt lat="43.67677" lon="6.7168">
        <ele>510.6</ele>
        <time>2009-09-13T09:15:02Z</time>
      </trkpt>
      <trkpt lat="43.67683" lon="6.71673">
        <ele>510.7</ele>
        <time>2009-09-13T09:15:04Z</time>
      </trkpt>
      <trkpt lat="43.67687" lon="6.71664">
        <ele>511.4</ele>
        <time>2009-09-13T09:15:06Z</time>
      </trkpt>
      <trkpt lat="43.67692" lon="6.71656">
        <ele>511.5</ele>
        <time>2009-09-13T09:15:08Z</time>
      </trkpt>
      <trkpt lat="43.67696" lon="6.71648">
        <ele>511.5</ele>
        <time>2009-09-13T09:15:10Z</time>
      </trkpt>
      <trkpt lat="43.677" lon="6.71639">
        <ele>511.6</ele>
        <time>2009-09-13T09:15:12Z</time>
      </trkpt>
      <trkpt lat="43.67705" lon="6.71631">
        <ele>511.8</ele>
        <time>2009-09-13T09:15:14Z</time>
      </trkpt>
      <trkpt lat="43.6771" lon="6.71623">
        <ele>511.9</ele>
        <time>2009-09-13T09:15:16Z</time>
      </trkpt>
      <trkpt lat="43.67715" lon="6.71617">
        <ele>511.2</ele>
        <time>2009-09-13T09:15:18Z</time>
      </trkpt>
      <trkpt lat="43.6772" lon="6.71612">
        <ele>510.7</ele>
        <time>2009-09-13T09:15:20Z</time>
      </trkpt>
      <trkpt lat="43.67726" lon="6.71608">
        <ele>510.1</ele>
        <time>2009-09-13T09:15:22Z</time>
      </trkpt>
      <trkpt lat="43.6773" lon="6.71602">
        <ele>510.8</ele>
        <time>2009-09-13T09:15:25Z</time>
      </trkpt>
      <trkpt lat="43.67736" lon="6.71597">
        <ele>511.2</ele>
        <time>2009-09-13T09:15:28Z</time>
      </trkpt>
      <trkpt lat="43.67741" lon="6.71593">
        <ele>511.2</ele>
        <time>2009-09-13T09:15:30Z</time>
      </trkpt>
      <trkpt lat="43.67748" lon="6.71588">
        <ele>511</ele>
        <time>2009-09-13T09:15:32Z</time>
      </trkpt>
      <trkpt lat="43.67752" lon="6.71582">
        <ele>511.6</ele>
        <time>2009-09-13T09:15:34Z</time>
      </trkpt>
      <trkpt lat="43.67757" lon="6.71577">
        <ele>511.6</ele>
        <time>2009-09-13T09:15:36Z</time>
      </trkpt>
      <trkpt lat="43.67764" lon="6.71573">
        <ele>511.1</ele>
        <time>2009-09-13T09:15:38Z</time>
      </trkpt>
      <trkpt lat="43.6777" lon="6.71569">
        <ele>510.6</ele>
        <time>2009-09-13T09:15:40Z</time>
      </trkpt>
      <trkpt lat="43.67775" lon="6.71565">
        <ele>510.6</ele>
        <time>2009-09-13T09:15:42Z</time>
      </trkpt>
      <trkpt lat="43.67781" lon="6.71559">
        <ele>511.6</ele>
        <time>2009-09-13T09:15:44Z</time>
      </trkpt>
      <trkpt lat="43.67786" lon="6.71556">
        <ele>511.6</ele>
        <time>2009-09-13T09:15:46Z</time>
      </trkpt>
      <trkpt lat="43.67793" lon="6.71552">
        <ele>511.6</ele>
        <time>2009-09-13T09:15:48Z</time>
      </trkpt>
      <trkpt lat="43.67798" lon="6.71548">
        <ele>511.8</ele>
        <time>2009-09-13T09:15:50Z</time>
      </trkpt>
      <trkpt lat="43.67803" lon="6.71545">
        <ele>511.9</ele>
        <time>2009-09-13T09:15:52Z</time>
      </trkpt>
      <trkpt lat="43.67808" lon="6.71541">
        <ele>512</ele>
        <time>2009-09-13T09:15:54Z</time>
      </trkpt>
      <trkpt lat="43.67813" lon="6.71536">
        <ele>512.5</ele>
        <time>2009-09-13T09:15:56Z</time>
      </trkpt>
      <trkpt lat="43.67819" lon="6.71531">
        <ele>512.5</ele>
        <time>2009-09-13T09:15:58Z</time>
      </trkpt>
      <trkpt lat="43.67826" lon="6.71527">
        <ele>512</ele>
        <time>2009-09-13T09:16:00Z</time>
      </trkpt>
      <trkpt lat="43.67832" lon="6.71521">
        <ele>512</ele>
        <time>2009-09-13T09:16:02Z</time>
      </trkpt>
      <trkpt lat="43.67839" lon="6.71516">
        <ele>512.1</ele>
        <time>2009-09-13T09:16:04Z</time>
      </trkpt>
      <trkpt lat="43.67844" lon="6.71511">
        <ele>512.3</ele>
        <time>2009-09-13T09:16:06Z</time>
      </trkpt>
      <trkpt lat="43.67848" lon="6.71507">
        <ele>512.6</ele>
        <time>2009-09-13T09:16:08Z</time>
      </trkpt>
      <trkpt lat="43.67853" lon="6.71503">
        <ele>512.5</ele>
        <time>2009-09-13T09:16:10Z</time>
      </trkpt>
      <trkpt lat="43.67858" lon="6.71499">
        <ele>512.3</ele>
        <time>2009-09-13T09:16:12Z</time>
      </trkpt>
      <trkpt lat="43.67863" lon="6.71496">
        <ele>511.9</ele>
        <time>2009-09-13T09:16:14Z</time>
      </trkpt>
      <trkpt lat="43.67868" lon="6.71491">
        <ele>511.8</ele>
        <time>2009-09-13T09:16:16Z</time>
      </trkpt>
      <trkpt lat="43.67873" lon="6.71485">
        <ele>511.9</ele>
        <time>2009-09-13T09:16:18Z</time>
      </trkpt>
      <trkpt lat="43.6788" lon="6.7148">
        <ele>511.6</ele>
        <time>2009-09-13T09:16:20Z</time>
      </trkpt>
      <trkpt lat="43.67886" lon="6.71473">
        <ele>511.7</ele>
        <time>2009-09-13T09:16:22Z</time>
      </trkpt>
      <trkpt lat="43.67892" lon="6.71467">
        <ele>511.3</ele>
        <time>2009-09-13T09:16:24Z</time>
      </trkpt>
      <trkpt lat="43.67898" lon="6.71461">
        <ele>510.7</ele>
        <time>2009-09-13T09:16:26Z</time>
      </trkpt>
      <trkpt lat="43.67903" lon="6.71455">
        <ele>510.1</ele>
        <time>2009-09-13T09:16:27Z</time>
      </trkpt>
      <trkpt lat="43.67907" lon="6.7145">
        <ele>509.4</ele>
        <time>2009-09-13T09:16:28Z</time>
      </trkpt>
      <trkpt lat="43.67911" lon="6.71446">
        <ele>508.9</ele>
        <time>2009-09-13T09:16:29Z</time>
      </trkpt>
      <trkpt lat="43.67914" lon="6.7144">
        <ele>508.8</ele>
        <time>2009-09-13T09:16:30Z</time>
      </trkpt>
      <trkpt lat="43.67918" lon="6.71432">
        <ele>508.8</ele>
        <time>2009-09-13T09:16:32Z</time>
      </trkpt>
      <trkpt lat="43.67921" lon="6.71424">
        <ele>509.5</ele>
        <time>2009-09-13T09:16:34Z</time>
      </trkpt>
      <trkpt lat="43.67926" lon="6.71415">
        <ele>509.6</ele>
        <time>2009-09-13T09:16:36Z</time>
      </trkpt>
      <trkpt lat="43.67932" lon="6.71408">
        <ele>509.3</ele>
        <time>2009-09-13T09:16:38Z</time>
      </trkpt>
      <trkpt lat="43.67936" lon="6.71399">
        <ele>510.1</ele>
        <time>2009-09-13T09:16:40Z</time>
      </trkpt>
      <trkpt lat="43.67942" lon="6.71391">
        <ele>510</ele>
        <time>2009-09-13T09:16:42Z</time>
      </trkpt>
      <trkpt lat="43.67948" lon="6.71385">
        <ele>510.7</ele>
        <time>2009-09-13T09:16:44Z</time>
      </trkpt>
      <trkpt lat="43.67954" lon="6.7138">
        <ele>510.9</ele>
        <time>2009-09-13T09:16:46Z</time>
      </trkpt>
      <trkpt lat="43.67962" lon="6.71375">
        <ele>511.2</ele>
        <time>2009-09-13T09:16:48Z</time>
      </trkpt>
      <trkpt lat="43.67968" lon="6.71369">
        <ele>511.6</ele>
        <time>2009-09-13T09:16:50Z</time>
      </trkpt>
      <trkpt lat="43.67974" lon="6.71366">
        <ele>511.2</ele>
        <time>2009-09-13T09:16:52Z</time>
      </trkpt>
      <trkpt lat="43.67979" lon="6.71362">
        <ele>511.3</ele>
        <time>2009-09-13T09:16:54Z</time>
      </trkpt>
      <trkpt lat="43.67985" lon="6.71356">
        <ele>511.3</ele>
        <time>2009-09-13T09:16:56Z</time>
      </trkpt>
      <trkpt lat="43.67991" lon="6.71348">
        <ele>511.5</ele>
        <time>2009-09-13T09:16:58Z</time>
      </trkpt>
      <trkpt lat="43.67995" lon="6.71343">
        <ele>511.9</ele>
        <time>2009-09-13T09:16:59Z</time>
      </trkpt>
      <trkpt lat="43.67998" lon="6.71338">
        <ele>512.2</ele>
        <time>2009-09-13T09:17:00Z</time>
      </trkpt>
      <trkpt lat="43.68004" lon="6.71331">
        <ele>511.4</ele>
        <time>2009-09-13T09:17:02Z</time>
      </trkpt>
      <trkpt lat="43.68008" lon="6.71326">
        <ele>510.1</ele>
        <time>2009-09-13T09:17:04Z</time>
      </trkpt>
      <trkpt lat="43.68011" lon="6.71318">
        <ele>510.4</ele>
        <time>2009-09-13T09:17:09Z</time>
      </trkpt>
      <trkpt lat="43.68015" lon="6.71311">
        <ele>510.8</ele>
        <time>2009-09-13T09:17:11Z</time>
      </trkpt>
      <trkpt lat="43.68019" lon="6.71303">
        <ele>511.1</ele>
        <time>2009-09-13T09:17:13Z</time>
      </trkpt>
      <trkpt lat="43.68022" lon="6.71295">
        <ele>511.2</ele>
        <time>2009-09-13T09:17:15Z</time>
      </trkpt>
      <trkpt lat="43.68028" lon="6.71287">
        <ele>510.4</ele>
        <time>2009-09-13T09:17:17Z</time>
      </trkpt>
      <trkpt lat="43.68033" lon="6.7128">
        <ele>510.1</ele>
        <time>2009-09-13T09:17:19Z</time>
      </trkpt>
      <trkpt lat="43.68038" lon="6.71274">
        <ele>510.3</ele>
        <time>2009-09-13T09:17:21Z</time>
      </trkpt>
      <trkpt lat="43.68045" lon="6.71268">
        <ele>509.8</ele>
        <time>2009-09-13T09:17:23Z</time>
      </trkpt>
      <trkpt lat="43.68051" lon="6.71262">
        <ele>510</ele>
        <time>2009-09-13T09:17:25Z</time>
      </trkpt>
      <trkpt lat="43.68057" lon="6.71256">
        <ele>510.1</ele>
        <time>2009-09-13T09:17:27Z</time>
      </trkpt>
      <trkpt lat="43.68063" lon="6.71252">
        <ele>510.4</ele>
        <time>2009-09-13T09:17:29Z</time>
      </trkpt>
      <trkpt lat="43.68067" lon="6.71248">
        <ele>510.5</ele>
        <time>2009-09-13T09:17:31Z</time>
      </trkpt>
      <trkpt lat="43.68072" lon="6.71242">
        <ele>510.9</ele>
        <time>2009-09-13T09:17:33Z</time>
      </trkpt>
      <trkpt lat="43.68077" lon="6.71236">
        <ele>511.1</ele>
        <time>2009-09-13T09:17:35Z</time>
      </trkpt>
      <trkpt lat="43.6808" lon="6.7123">
        <ele>511.9</ele>
        <time>2009-09-13T09:17:37Z</time>
      </trkpt>
      <trkpt lat="43.68084" lon="6.71214">
        <ele>514.4</ele>
        <time>2009-09-13T09:17:58Z</time>
      </trkpt>
      <trkpt lat="43.68084" lon="6.71207">
        <ele>515.3</ele>
        <time>2009-09-13T09:18:20Z</time>
      </trkpt>
      <trkpt lat="43.68087" lon="6.712">
        <ele>515.2</ele>
        <time>2009-09-13T09:19:39Z</time>
      </trkpt>
      <trkpt lat="43.68093" lon="6.71194">
        <ele>513.3</ele>
        <time>2009-09-13T09:19:42Z</time>
      </trkpt>
      <trkpt lat="43.68098" lon="6.7119">
        <ele>511.4</ele>
        <time>2009-09-13T09:19:45Z</time>
      </trkpt>
      <trkpt lat="43.681" lon="6.71185">
        <ele>511.3</ele>
        <time>2009-09-13T09:19:48Z</time>
      </trkpt>
      <trkpt lat="43.68101" lon="6.71176">
        <ele>512.7</ele>
        <time>2009-09-13T09:19:51Z</time>
      </trkpt>
      <trkpt lat="43.68102" lon="6.71169">
        <ele>513.7</ele>
        <time>2009-09-13T09:19:53Z</time>
      </trkpt>
      <trkpt lat="43.68103" lon="6.7116">
        <ele>513.8</ele>
        <time>2009-09-13T09:19:55Z</time>
      </trkpt>
      <trkpt lat="43.68105" lon="6.7115">
        <ele>513.8</ele>
        <time>2009-09-13T09:19:57Z</time>
      </trkpt>
      <trkpt lat="43.68107" lon="6.71143">
        <ele>513.4</ele>
        <time>2009-09-13T09:19:59Z</time>
      </trkpt>
      <trkpt lat="43.68108" lon="6.71137">
        <ele>513.4</ele>
        <time>2009-09-13T09:20:01Z</time>
      </trkpt>
      <trkpt lat="43.68111" lon="6.71129">
        <ele>513.5</ele>
        <time>2009-09-13T09:20:03Z</time>
      </trkpt>
      <trkpt lat="43.68114" lon="6.7112">
        <ele>514.1</ele>
        <time>2009-09-13T09:20:05Z</time>
      </trkpt>
      <trkpt lat="43.68116" lon="6.7111">
        <ele>514.8</ele>
        <time>2009-09-13T09:20:07Z</time>
      </trkpt>
      <trkpt lat="43.68119" lon="6.71101">
        <ele>515</ele>
        <time>2009-09-13T09:20:09Z</time>
      </trkpt>
      <trkpt lat="43.6812" lon="6.71091">
        <ele>515.4</ele>
        <time>2009-09-13T09:20:11Z</time>
      </trkpt>
      <trkpt lat="43.68122" lon="6.71082">
        <ele>515.8</ele>
        <time>2009-09-13T09:20:13Z</time>
      </trkpt>
      <trkpt lat="43.68123" lon="6.71071">
        <ele>515.8</ele>
        <time>2009-09-13T09:20:15Z</time>
      </trkpt>
      <trkpt lat="43.68123" lon="6.71062">
        <ele>516</ele>
        <time>2009-09-13T09:20:17Z</time>
      </trkpt>
      <trkpt lat="43.68123" lon="6.71049">
        <ele>516.2</ele>
        <time>2009-09-13T09:20:19Z</time>
      </trkpt>
      <trkpt lat="43.68124" lon="6.71043">
        <ele>516.1</ele>
        <time>2009-09-13T09:20:20Z</time>
      </trkpt>
      <trkpt lat="43.68125" lon="6.71036">
        <ele>515.9</ele>
        <time>2009-09-13T09:20:21Z</time>
      </trkpt>
      <trkpt lat="43.68126" lon="6.7103">
        <ele>515.6</ele>
        <time>2009-09-13T09:20:22Z</time>
      </trkpt>
      <trkpt lat="43.68129" lon="6.7102">
        <ele>514.9</ele>
        <time>2009-09-13T09:20:24Z</time>
      </trkpt>
      <trkpt lat="43.68132" lon="6.71013">
        <ele>514</ele>
        <time>2009-09-13T09:20:26Z</time>
      </trkpt>
      <trkpt lat="43.68134" lon="6.71002">
        <ele>513.8</ele>
        <time>2009-09-13T09:20:28Z</time>
      </trkpt>
      <trkpt lat="43.68136" lon="6.7099">
        <ele>514</ele>
        <time>2009-09-13T09:20:30Z</time>
      </trkpt>
      <trkpt lat="43.68139" lon="6.70979">
        <ele>514.4</ele>
        <time>2009-09-13T09:20:32Z</time>
      </trkpt>
      <trkpt lat="43.68142" lon="6.70968">
        <ele>514.4</ele>
        <time>2009-09-13T09:20:34Z</time>
      </trkpt>
      <trkpt lat="43.68147" lon="6.70958">
        <ele>514.1</ele>
        <time>2009-09-13T09:20:36Z</time>
      </trkpt>
      <trkpt lat="43.68152" lon="6.70949">
        <ele>513.8</ele>
        <time>2009-09-13T09:20:38Z</time>
      </trkpt>
      <trkpt lat="43.68157" lon="6.70942">
        <ele>513.3</ele>
        <time>2009-09-13T09:20:40Z</time>
      </trkpt>
      <trkpt lat="43.68162" lon="6.70934">
        <ele>513.3</ele>
        <time>2009-09-13T09:20:42Z</time>
      </trkpt>
      <trkpt lat="43.68166" lon="6.70927">
        <ele>513.3</ele>
        <time>2009-09-13T09:20:44Z</time>
      </trkpt>
      <trkpt lat="43.68171" lon="6.70921">
        <ele>513.3</ele>
        <time>2009-09-13T09:20:46Z</time>
      </trkpt>
      <trkpt lat="43.68176" lon="6.70914">
        <ele>513.6</ele>
        <time>2009-09-13T09:20:48Z</time>
      </trkpt>
      <trkpt lat="43.6818" lon="6.70907">
        <ele>514.1</ele>
        <time>2009-09-13T09:20:50Z</time>
      </trkpt>
      <trkpt lat="43.68185" lon="6.70901">
        <ele>514.5</ele>
        <time>2009-09-13T09:20:52Z</time>
      </trkpt>
      <trkpt lat="43.6819" lon="6.70894">
        <ele>515.5</ele>
        <time>2009-09-13T09:20:54Z</time>
      </trkpt>
      <trkpt lat="43.68193" lon="6.70885">
        <ele>516.4</ele>
        <time>2009-09-13T09:20:56Z</time>
      </trkpt>
      <trkpt lat="43.68196" lon="6.70876">
        <ele>516.2</ele>
        <time>2009-09-13T09:20:58Z</time>
      </trkpt>
      <trkpt lat="43.68196" lon="6.70866">
        <ele>516.5</ele>
        <time>2009-09-13T09:21:00Z</time>
      </trkpt>
      <trkpt lat="43.68196" lon="6.70857">
        <ele>516.7</ele>
        <time>2009-09-13T09:21:02Z</time>
      </trkpt>
      <trkpt lat="43.68194" lon="6.70847">
        <ele>516.6</ele>
        <time>2009-09-13T09:21:04Z</time>
      </trkpt>
      <trkpt lat="43.68192" lon="6.70838">
        <ele>516.8</ele>
        <time>2009-09-13T09:21:06Z</time>
      </trkpt>
      <trkpt lat="43.6819" lon="6.70831">
        <ele>517.1</ele>
        <time>2009-09-13T09:21:08Z</time>
      </trkpt>
      <trkpt lat="43.68183" lon="6.70816">
        <ele>518</ele>
        <time>2009-09-13T09:21:34Z</time>
      </trkpt>
      <trkpt lat="43.68183" lon="6.70808">
        <ele>517.6</ele>
        <time>2009-09-13T09:21:37Z</time>
      </trkpt>
      <trkpt lat="43.68183" lon="6.70801">
        <ele>517.4</ele>
        <time>2009-09-13T09:21:39Z</time>
      </trkpt>
      <trkpt lat="43.68185" lon="6.70792">
        <ele>517</ele>
        <time>2009-09-13T09:21:41Z</time>
      </trkpt>
      <trkpt lat="43.68187" lon="6.70785">
        <ele>516.2</ele>
        <time>2009-09-13T09:21:43Z</time>
      </trkpt>
      <trkpt lat="43.68189" lon="6.70777">
        <ele>515.6</ele>
        <time>2009-09-13T09:21:45Z</time>
      </trkpt>
      <trkpt lat="43.6819" lon="6.7077">
        <ele>515</ele>
        <time>2009-09-13T09:21:47Z</time>
      </trkpt>
      <trkpt lat="43.68191" lon="6.70764">
        <ele>514.8</ele>
        <time>2009-09-13T09:21:49Z</time>
      </trkpt>
      <trkpt lat="43.6819" lon="6.70756">
        <ele>514.8</ele>
        <time>2009-09-13T09:21:51Z</time>
      </trkpt>
      <trkpt lat="43.68189" lon="6.70749">
        <ele>514.8</ele>
        <time>2009-09-13T09:21:52Z</time>
      </trkpt>
      <trkpt lat="43.68187" lon="6.70742">
        <ele>514.4</ele>
        <time>2009-09-13T09:21:53Z</time>
      </trkpt>
      <trkpt lat="43.68186" lon="6.70735">
        <ele>514</ele>
        <time>2009-09-13T09:21:54Z</time>
      </trkpt>
      <trkpt lat="43.68184" lon="6.70729">
        <ele>513.7</ele>
        <time>2009-09-13T09:21:55Z</time>
      </trkpt>
      <trkpt lat="43.68182" lon="6.70718">
        <ele>513.4</ele>
        <time>2009-09-13T09:21:57Z</time>
      </trkpt>
      <trkpt lat="43.6818" lon="6.7071">
        <ele>513.4</ele>
        <time>2009-09-13T09:21:59Z</time>
      </trkpt>
      <trkpt lat="43.68177" lon="6.70701">
        <ele>513.4</ele>
        <time>2009-09-13T09:22:01Z</time>
      </trkpt>
      <trkpt lat="43.68174" lon="6.7069">
        <ele>512.7</ele>
        <time>2009-09-13T09:22:03Z</time>
      </trkpt>
      <trkpt lat="43.68173" lon="6.70678">
        <ele>511.3</ele>
        <time>2009-09-13T09:22:05Z</time>
      </trkpt>
      <trkpt lat="43.68171" lon="6.70666">
        <ele>509.7</ele>
        <time>2009-09-13T09:22:07Z</time>
      </trkpt>
      <trkpt lat="43.6817" lon="6.70658">
        <ele>510.2</ele>
        <time>2009-09-13T09:22:09Z</time>
      </trkpt>
      <trkpt lat="43.68169" lon="6.70648">
        <ele>510.9</ele>
        <time>2009-09-13T09:22:11Z</time>
      </trkpt>
      <trkpt lat="43.68168" lon="6.70638">
        <ele>511.3</ele>
        <time>2009-09-13T09:22:13Z</time>
      </trkpt>
      <trkpt lat="43.68165" lon="6.70628">
        <ele>512.3</ele>
        <time>2009-09-13T09:22:15Z</time>
      </trkpt>
      <trkpt lat="43.68163" lon="6.7062">
        <ele>513.5</ele>
        <time>2009-09-13T09:22:17Z</time>
      </trkpt>
      <trkpt lat="43.68163" lon="6.70611">
        <ele>513.9</ele>
        <time>2009-09-13T09:22:19Z</time>
      </trkpt>
      <trkpt lat="43.68165" lon="6.70605">
        <ele>513.9</ele>
        <time>2009-09-13T09:22:21Z</time>
      </trkpt>
      <trkpt lat="43.68168" lon="6.70597">
        <ele>514.7</ele>
        <time>2009-09-13T09:22:23Z</time>
      </trkpt>
      <trkpt lat="43.68171" lon="6.70592">
        <ele>515.7</ele>
        <time>2009-09-13T09:22:25Z</time>
      </trkpt>
      <trkpt lat="43.68175" lon="6.70586">
        <ele>516.4</ele>
        <time>2009-09-13T09:22:28Z</time>
      </trkpt>
      <trkpt lat="43.68178" lon="6.7058">
        <ele>516.9</ele>
        <time>2009-09-13T09:22:30Z</time>
      </trkpt>
      <trkpt lat="43.68181" lon="6.70574">
        <ele>517.1</ele>
        <time>2009-09-13T09:22:33Z</time>
      </trkpt>
      <trkpt lat="43.68183" lon="6.70569">
        <ele>517.3</ele>
        <time>2009-09-13T09:22:37Z</time>
      </trkpt>
      <trkpt lat="43.68188" lon="6.70571">
        <ele>516.7</ele>
        <time>2009-09-13T09:23:15Z</time>
      </trkpt>
      <trkpt lat="43.6819" lon="6.70564">
        <ele>516.6</ele>
        <time>2009-09-13T09:23:30Z</time>
      </trkpt>
      <trkpt lat="43.68163" lon="6.70596">
        <ele>516.8</ele>
        <time>2009-09-13T09:24:10Z</time>
      </trkpt>
      <trkpt lat="43.68161" lon="6.70636">
        <ele>514.4</ele>
        <time>2009-09-13T09:24:23Z</time>
      </trkpt>
      <trkpt lat="43.6815" lon="6.70656">
        <ele>519.2</ele>
        <time>2009-09-13T09:24:59Z</time>
      </trkpt>
      <trkpt lat="43.68154" lon="6.70661">
        <ele>516.5</ele>
        <time>2009-09-13T09:25:01Z</time>
      </trkpt>
      <trkpt lat="43.68158" lon="6.70667">
        <ele>513.9</ele>
        <time>2009-09-13T09:25:03Z</time>
      </trkpt>
      <trkpt lat="43.68165" lon="6.70675">
        <ele>512.1</ele>
        <time>2009-09-13T09:25:05Z</time>
      </trkpt>
      <trkpt lat="43.68168" lon="6.7068">
        <ele>511.7</ele>
        <time>2009-09-13T09:25:06Z</time>
      </trkpt>
      <trkpt lat="43.68177" lon="6.70694">
        <ele>512.4</ele>
        <time>2009-09-13T09:25:09Z</time>
      </trkpt>
      <trkpt lat="43.68186" lon="6.70714">
        <ele>511.4</ele>
        <time>2009-09-13T09:25:13Z</time>
      </trkpt>
      <trkpt lat="43.68189" lon="6.70723">
        <ele>510.7</ele>
        <time>2009-09-13T09:25:15Z</time>
      </trkpt>
      <trkpt lat="43.68192" lon="6.70733">
        <ele>511.2</ele>
        <time>2009-09-13T09:25:17Z</time>
      </trkpt>
      <trkpt lat="43.68187" lon="6.70812">
        <ele>516.9</ele>
        <time>2009-09-13T09:25:56Z</time>
      </trkpt>
      <trkpt lat="43.68189" lon="6.70819">
        <ele>516.8</ele>
        <time>2009-09-13T09:25:59Z</time>
      </trkpt>
      <trkpt lat="43.68191" lon="6.70876">
        <ele>517.1</ele>
        <time>2009-09-13T09:26:10Z</time>
      </trkpt>
      <trkpt lat="43.68189" lon="6.70881">
        <ele>517.3</ele>
        <time>2009-09-13T09:26:11Z</time>
      </trkpt>
      <trkpt lat="43.68182" lon="6.70891">
        <ele>517.2</ele>
        <time>2009-09-13T09:26:13Z</time>
      </trkpt>
      <trkpt lat="43.68179" lon="6.70896">
        <ele>516.7</ele>
        <time>2009-09-13T09:26:14Z</time>
      </trkpt>
      <trkpt lat="43.68176" lon="6.70903">
        <ele>515.8</ele>
        <time>2009-09-13T09:26:15Z</time>
      </trkpt>
      <trkpt lat="43.68173" lon="6.70908">
        <ele>515.4</ele>
        <time>2009-09-13T09:26:16Z</time>
      </trkpt>
      <trkpt lat="43.68169" lon="6.70913">
        <ele>515.1</ele>
        <time>2009-09-13T09:26:17Z</time>
      </trkpt>
      <trkpt lat="43.68165" lon="6.70919">
        <ele>515.2</ele>
        <time>2009-09-13T09:26:19Z</time>
      </trkpt>
      <trkpt lat="43.6816" lon="6.70926">
        <ele>515.4</ele>
        <time>2009-09-13T09:26:21Z</time>
      </trkpt>
      <trkpt lat="43.68152" lon="6.70941">
        <ele>514.9</ele>
        <time>2009-09-13T09:26:24Z</time>
      </trkpt>
      <trkpt lat="43.68147" lon="6.7095">
        <ele>515.1</ele>
        <time>2009-09-13T09:26:26Z</time>
      </trkpt>
      <trkpt lat="43.68137" lon="6.7097">
        <ele>515.8</ele>
        <time>2009-09-13T09:26:30Z</time>
      </trkpt>
      <trkpt lat="43.68128" lon="6.71009">
        <ele>515.7</ele>
        <time>2009-09-13T09:26:37Z</time>
      </trkpt>
      <trkpt lat="43.68094" lon="6.71187">
        <ele>514.1</ele>
        <time>2009-09-13T09:27:10Z</time>
      </trkpt>
      <trkpt lat="43.6808" lon="6.71219">
        <ele>514.7</ele>
        <time>2009-09-13T09:27:21Z</time>
      </trkpt>
      <trkpt lat="43.68075" lon="6.71229">
        <ele>514</ele>
        <time>2009-09-13T09:27:24Z</time>
      </trkpt>
      <trkpt lat="43.6807" lon="6.71234">
        <ele>514</ele>
        <time>2009-09-13T09:27:26Z</time>
      </trkpt>
      <trkpt lat="43.68066" lon="6.71238">
        <ele>514.1</ele>
        <time>2009-09-13T09:27:28Z</time>
      </trkpt>
      <trkpt lat="43.6806" lon="6.71242">
        <ele>514.3</ele>
        <time>2009-09-13T09:27:30Z</time>
      </trkpt>
      <trkpt lat="43.68055" lon="6.71247">
        <ele>514.4</ele>
        <time>2009-09-13T09:27:32Z</time>
      </trkpt>
      <trkpt lat="43.6805" lon="6.71252">
        <ele>514.4</ele>
        <time>2009-09-13T09:27:34Z</time>
      </trkpt>
      <trkpt lat="43.68045" lon="6.71257">
        <ele>514.2</ele>
        <time>2009-09-13T09:27:36Z</time>
      </trkpt>
      <trkpt lat="43.68039" lon="6.71262">
        <ele>514.5</ele>
        <time>2009-09-13T09:27:38Z</time>
      </trkpt>
      <trkpt lat="43.68033" lon="6.71267">
        <ele>515.1</ele>
        <time>2009-09-13T09:27:40Z</time>
      </trkpt>
      <trkpt lat="43.68029" lon="6.71275">
        <ele>513.6</ele>
        <time>2009-09-13T09:27:42Z</time>
      </trkpt>
      <trkpt lat="43.68023" lon="6.71286">
        <ele>513.4</ele>
        <time>2009-09-13T09:27:45Z</time>
      </trkpt>
      <trkpt lat="43.67694" lon="6.71665">
        <ele>507.9</ele>
        <time>2009-09-13T09:29:47Z</time>
      </trkpt>
      <trkpt lat="43.67691" lon="6.71671">
        <ele>507.2</ele>
        <time>2009-09-13T09:29:49Z</time>
      </trkpt>
      <trkpt lat="43.67686" lon="6.71678">
        <ele>507</ele>
        <time>2009-09-13T09:29:51Z</time>
      </trkpt>
      <trkpt lat="43.67602" lon="6.71754">
        <ele>513.1</ele>
        <time>2009-09-13T09:30:29Z</time>
      </trkpt>
      <trkpt lat="43.67597" lon="6.71754">
        <ele>513.2</ele>
        <time>2009-09-13T09:30:30Z</time>
      </trkpt>
      <trkpt lat="43.67588" lon="6.71754">
        <ele>513.7</ele>
        <time>2009-09-13T09:30:32Z</time>
      </trkpt>
      <trkpt lat="43.67496" lon="6.71769">
        <ele>513</ele>
        <time>2009-09-13T09:34:04Z</time>
      </trkpt>
      <trkpt lat="43.67432" lon="6.71929">
        <ele>512.3</ele>
        <time>2009-09-13T09:34:48Z</time>
      </trkpt>
      <trkpt lat="43.67421" lon="6.71947">
        <ele>513.2</ele>
        <time>2009-09-13T09:34:53Z</time>
      </trkpt>
      <trkpt lat="43.67416" lon="6.71954">
        <ele>513.3</ele>
        <time>2009-09-13T09:34:55Z</time>
      </trkpt>
      <trkpt lat="43.67355" lon="6.7203">
        <ele>512.5</ele>
        <time>2009-09-13T09:35:19Z</time>
      </trkpt>
      <trkpt lat="43.67344" lon="6.72038">
        <ele>511.1</ele>
        <time>2009-09-13T09:35:22Z</time>
      </trkpt>
      <trkpt lat="43.67338" lon="6.7204">
        <ele>511.7</ele>
        <time>2009-09-13T09:35:24Z</time>
      </trkpt>
      <trkpt lat="43.67333" lon="6.7204">
        <ele>513.4</ele>
        <time>2009-09-13T09:35:26Z</time>
      </trkpt>
      <trkpt lat="43.67327" lon="6.72041">
        <ele>515</ele>
        <time>2009-09-13T09:35:28Z</time>
      </trkpt>
      <trkpt lat="43.67323" lon="6.72045">
        <ele>514.7</ele>
        <time>2009-09-13T09:35:30Z</time>
      </trkpt>
      <trkpt lat="43.67304" lon="6.72068">
        <ele>514.2</ele>
        <time>2009-09-13T09:37:35Z</time>
      </trkpt>
      <trkpt lat="43.67263" lon="6.72075">
        <ele>516</ele>
        <time>2009-09-13T09:38:06Z</time>
      </trkpt>
      <trkpt lat="43.67248" lon="6.7207">
        <ele>516.3</ele>
        <time>2009-09-13T09:38:12Z</time>
      </trkpt>
      <trkpt lat="43.6724" lon="6.72067">
        <ele>516.7</ele>
        <time>2009-09-13T09:38:15Z</time>
      </trkpt>
      <trkpt lat="43.67233" lon="6.72065">
        <ele>517.4</ele>
        <time>2009-09-13T09:38:18Z</time>
      </trkpt>
      <trkpt lat="43.67227" lon="6.72061">
        <ele>518.5</ele>
        <time>2009-09-13T09:38:21Z</time>
      </trkpt>
      <trkpt lat="43.67222" lon="6.72057">
        <ele>519.4</ele>
        <time>2009-09-13T09:38:24Z</time>
      </trkpt>
      <trkpt lat="43.67215" lon="6.72054">
        <ele>519.1</ele>
        <time>2009-09-13T09:38:27Z</time>
      </trkpt>
      <trkpt lat="43.6721" lon="6.72053">
        <ele>518.9</ele>
        <time>2009-09-13T09:38:29Z</time>
      </trkpt>
      <trkpt lat="43.67205" lon="6.72049">
        <ele>519.4</ele>
        <time>2009-09-13T09:38:32Z</time>
      </trkpt>
      <trkpt lat="43.67198" lon="6.72046">
        <ele>519.6</ele>
        <time>2009-09-13T09:38:35Z</time>
      </trkpt>
      <trkpt lat="43.67188" lon="6.72044">
        <ele>520.3</ele>
        <time>2009-09-13T09:38:40Z</time>
      </trkpt>
      <trkpt lat="43.67119" lon="6.72078">
        <ele>520.8</ele>
        <time>2009-09-13T09:39:17Z</time>
      </trkpt>
      <trkpt lat="43.67096" lon="6.72089">
        <ele>515.2</ele>
        <time>2009-09-13T09:39:29Z</time>
      </trkpt>
      <trkpt lat="43.67101" lon="6.72092">
        <ele>511.8</ele>
        <time>2009-09-13T09:39:41Z</time>
      </trkpt>
      <trkpt lat="43.67089" lon="6.7208">
        <ele>521.8</ele>
        <time>2009-09-13T09:40:30Z</time>
      </trkpt>
      <trkpt lat="43.67082" lon="6.72081">
        <ele>520.6</ele>
        <time>2009-09-13T09:40:48Z</time>
      </trkpt>
      <trkpt lat="43.67064" lon="6.72083">
        <ele>513.6</ele>
        <time>2009-09-13T09:40:52Z</time>
      </trkpt>
      <trkpt lat="43.67059" lon="6.72082">
        <ele>512.2</ele>
        <time>2009-09-13T09:40:53Z</time>
      </trkpt>
      <trkpt lat="43.67054" lon="6.7208">
        <ele>511.3</ele>
        <time>2009-09-13T09:40:54Z</time>
      </trkpt>
      <trkpt lat="43.6705" lon="6.72077">
        <ele>510.1</ele>
        <time>2009-09-13T09:40:55Z</time>
      </trkpt>
      <trkpt lat="43.67045" lon="6.72074">
        <ele>509.1</ele>
        <time>2009-09-13T09:40:56Z</time>
      </trkpt>
      <trkpt lat="43.6704" lon="6.72071">
        <ele>508.8</ele>
        <time>2009-09-13T09:40:57Z</time>
      </trkpt>
      <trkpt lat="43.67036" lon="6.72067">
        <ele>508.7</ele>
        <time>2009-09-13T09:40:58Z</time>
      </trkpt>
      <trkpt lat="43.67029" lon="6.72061">
        <ele>508.2</ele>
        <time>2009-09-13T09:41:00Z</time>
      </trkpt>
      <trkpt lat="43.67023" lon="6.72057">
        <ele>508.8</ele>
        <time>2009-09-13T09:41:02Z</time>
      </trkpt>
      <trkpt lat="43.66965" lon="6.72025">
        <ele>511.4</ele>
        <time>2009-09-13T09:41:25Z</time>
      </trkpt>
      <trkpt lat="43.66967" lon="6.72147">
        <ele>512.9</ele>
        <time>2009-09-13T09:42:16Z</time>
      </trkpt>
      <trkpt lat="43.66958" lon="6.7221">
        <ele>512.7</ele>
        <time>2009-09-13T09:42:31Z</time>
      </trkpt>
      <trkpt lat="43.66948" lon="6.72219">
        <ele>513.9</ele>
        <time>2009-09-13T09:42:34Z</time>
      </trkpt>
      <trkpt lat="43.6694" lon="6.7222">
        <ele>514.4</ele>
        <time>2009-09-13T09:42:36Z</time>
      </trkpt>
      <trkpt lat="43.66835" lon="6.72313">
        <ele>513.2</ele>
        <time>2009-09-13T09:43:06Z</time>
      </trkpt>
      <trkpt lat="43.66833" lon="6.72325">
        <ele>512.8</ele>
        <time>2009-09-13T09:43:08Z</time>
      </trkpt>
      <trkpt lat="43.66831" lon="6.72335">
        <ele>512.6</ele>
        <time>2009-09-13T09:43:10Z</time>
      </trkpt>
      <trkpt lat="43.6683" lon="6.72346">
        <ele>513.1</ele>
        <time>2009-09-13T09:43:12Z</time>
      </trkpt>
      <trkpt lat="43.6683" lon="6.72357">
        <ele>513.4</ele>
        <time>2009-09-13T09:43:14Z</time>
      </trkpt>
      <trkpt lat="43.6683" lon="6.72368">
        <ele>513.7</ele>
        <time>2009-09-13T09:43:16Z</time>
      </trkpt>
      <trkpt lat="43.66828" lon="6.72379">
        <ele>514</ele>
        <time>2009-09-13T09:43:18Z</time>
      </trkpt>
      <trkpt lat="43.66826" lon="6.7239">
        <ele>514.4</ele>
        <time>2009-09-13T09:43:20Z</time>
      </trkpt>
      <trkpt lat="43.66826" lon="6.72401">
        <ele>514.3</ele>
        <time>2009-09-13T09:43:22Z</time>
      </trkpt>
      <trkpt lat="43.66831" lon="6.72411">
        <ele>513.5</ele>
        <time>2009-09-13T09:43:24Z</time>
      </trkpt>
      <trkpt lat="43.66836" lon="6.7242">
        <ele>512.8</ele>
        <time>2009-09-13T09:43:26Z</time>
      </trkpt>
      <trkpt lat="43.6684" lon="6.72429">
        <ele>512.6</ele>
        <time>2009-09-13T09:43:28Z</time>
      </trkpt>
      <trkpt lat="43.66844" lon="6.72439">
        <ele>513</ele>
        <time>2009-09-13T09:43:30Z</time>
      </trkpt>
      <trkpt lat="43.66847" lon="6.7245">
        <ele>513.3</ele>
        <time>2009-09-13T09:43:32Z</time>
      </trkpt>
      <trkpt lat="43.66849" lon="6.72461">
        <ele>513.3</ele>
        <time>2009-09-13T09:43:34Z</time>
      </trkpt>
      <trkpt lat="43.66852" lon="6.72472">
        <ele>513.4</ele>
        <time>2009-09-13T09:43:36Z</time>
      </trkpt>
      <trkpt lat="43.66854" lon="6.72485">
        <ele>513</ele>
        <time>2009-09-13T09:43:38Z</time>
      </trkpt>
      <trkpt lat="43.66854" lon="6.72498">
        <ele>513</ele>
        <time>2009-09-13T09:43:40Z</time>
      </trkpt>
      <trkpt lat="43.66853" lon="6.72504">
        <ele>513.1</ele>
        <time>2009-09-13T09:43:41Z</time>
      </trkpt>
      <trkpt lat="43.66853" lon="6.72511">
        <ele>513.1</ele>
        <time>2009-09-13T09:43:42Z</time>
      </trkpt>
      <trkpt lat="43.66853" lon="6.72518">
        <ele>513.2</ele>
        <time>2009-09-13T09:43:43Z</time>
      </trkpt>
      <trkpt lat="43.66853" lon="6.72525">
        <ele>513.2</ele>
        <time>2009-09-13T09:43:44Z</time>
      </trkpt>
      <trkpt lat="43.66852" lon="6.72532">
        <ele>513</ele>
        <time>2009-09-13T09:43:45Z</time>
      </trkpt>
      <trkpt lat="43.66851" lon="6.72539">
        <ele>512.8</ele>
        <time>2009-09-13T09:43:46Z</time>
      </trkpt>
      <trkpt lat="43.6685" lon="6.72546">
        <ele>512.6</ele>
        <time>2009-09-13T09:43:47Z</time>
      </trkpt>
      <trkpt lat="43.66848" lon="6.72552">
        <ele>512.6</ele>
        <time>2009-09-13T09:43:48Z</time>
      </trkpt>
      <trkpt lat="43.66846" lon="6.72558">
        <ele>512.4</ele>
        <time>2009-09-13T09:43:49Z</time>
      </trkpt>
      <trkpt lat="43.66843" lon="6.72569">
        <ele>512</ele>
        <time>2009-09-13T09:43:51Z</time>
      </trkpt>
      <trkpt lat="43.6684" lon="6.7258">
        <ele>512</ele>
        <time>2009-09-13T09:43:53Z</time>
      </trkpt>
      <trkpt lat="43.66838" lon="6.72586">
        <ele>512.2</ele>
        <time>2009-09-13T09:43:54Z</time>
      </trkpt>
      <trkpt lat="43.66836" lon="6.72593">
        <ele>512.1</ele>
        <time>2009-09-13T09:43:55Z</time>
      </trkpt>
      <trkpt lat="43.66835" lon="6.726">
        <ele>512.2</ele>
        <time>2009-09-13T09:43:56Z</time>
      </trkpt>
      <trkpt lat="43.66833" lon="6.72606">
        <ele>512.5</ele>
        <time>2009-09-13T09:43:57Z</time>
      </trkpt>
      <trkpt lat="43.66831" lon="6.72612">
        <ele>512.5</ele>
        <time>2009-09-13T09:43:58Z</time>
      </trkpt>
      <trkpt lat="43.66827" lon="6.72623">
        <ele>511.8</ele>
        <time>2009-09-13T09:44:00Z</time>
      </trkpt>
      <trkpt lat="43.66824" lon="6.72634">
        <ele>511.3</ele>
        <time>2009-09-13T09:44:02Z</time>
      </trkpt>
      <trkpt lat="43.66822" lon="6.7264">
        <ele>511.2</ele>
        <time>2009-09-13T09:44:03Z</time>
      </trkpt>
      <trkpt lat="43.6682" lon="6.72646">
        <ele>511.4</ele>
        <time>2009-09-13T09:44:04Z</time>
      </trkpt>
      <trkpt lat="43.66816" lon="6.72657">
        <ele>511.8</ele>
        <time>2009-09-13T09:44:06Z</time>
      </trkpt>
      <trkpt lat="43.66814" lon="6.72669">
        <ele>512</ele>
        <time>2009-09-13T09:44:08Z</time>
      </trkpt>
      <trkpt lat="43.66812" lon="6.72679">
        <ele>511.7</ele>
        <time>2009-09-13T09:44:10Z</time>
      </trkpt>
      <trkpt lat="43.66812" lon="6.7269">
        <ele>510.6</ele>
        <time>2009-09-13T09:44:12Z</time>
      </trkpt>
      <trkpt lat="43.66811" lon="6.72699">
        <ele>510.3</ele>
        <time>2009-09-13T09:44:14Z</time>
      </trkpt>
      <trkpt lat="43.66807" lon="6.72705">
        <ele>511.7</ele>
        <time>2009-09-13T09:44:16Z</time>
      </trkpt>
      <trkpt lat="43.66802" lon="6.72711">
        <ele>512.7</ele>
        <time>2009-09-13T09:44:18Z</time>
      </trkpt>
      <trkpt lat="43.66798" lon="6.72716">
        <ele>513.3</ele>
        <time>2009-09-13T09:44:20Z</time>
      </trkpt>
      <trkpt lat="43.66795" lon="6.72723">
        <ele>513.5</ele>
        <time>2009-09-13T09:44:22Z</time>
      </trkpt>
      <trkpt lat="43.66793" lon="6.72733">
        <ele>513</ele>
        <time>2009-09-13T09:44:24Z</time>
      </trkpt>
      <trkpt lat="43.66791" lon="6.72742">
        <ele>512.8</ele>
        <time>2009-09-13T09:44:26Z</time>
      </trkpt>
      <trkpt lat="43.6679" lon="6.72752">
        <ele>511.8</ele>
        <time>2009-09-13T09:44:28Z</time>
      </trkpt>
      <trkpt lat="43.66791" lon="6.72763">
        <ele>511.3</ele>
        <time>2009-09-13T09:44:30Z</time>
      </trkpt>
      <trkpt lat="43.66791" lon="6.72775">
        <ele>511</ele>
        <time>2009-09-13T09:44:32Z</time>
      </trkpt>
      <trkpt lat="43.66792" lon="6.72787">
        <ele>510.9</ele>
        <time>2009-09-13T09:44:34Z</time>
      </trkpt>
      <trkpt lat="43.66794" lon="6.72799">
        <ele>510.6</ele>
        <time>2009-09-13T09:44:36Z</time>
      </trkpt>
      <trkpt lat="43.66795" lon="6.72808">
        <ele>510.9</ele>
        <time>2009-09-13T09:44:38Z</time>
      </trkpt>
      <trkpt lat="43.66796" lon="6.72815">
        <ele>511.2</ele>
        <time>2009-09-13T09:44:40Z</time>
      </trkpt>
      <trkpt lat="43.66797" lon="6.72823">
        <ele>511.1</ele>
        <time>2009-09-13T09:44:42Z</time>
      </trkpt>
      <trkpt lat="43.66798" lon="6.72831">
        <ele>511.5</ele>
        <time>2009-09-13T09:44:44Z</time>
      </trkpt>
      <trkpt lat="43.66799" lon="6.72839">
        <ele>510.7</ele>
        <time>2009-09-13T09:44:46Z</time>
      </trkpt>
      <trkpt lat="43.668" lon="6.72847">
        <ele>510.1</ele>
        <time>2009-09-13T09:44:48Z</time>
      </trkpt>
      <trkpt lat="43.66798" lon="6.72854">
        <ele>510.9</ele>
        <time>2009-09-13T09:44:50Z</time>
      </trkpt>
      <trkpt lat="43.66794" lon="6.7286">
        <ele>512.3</ele>
        <time>2009-09-13T09:44:52Z</time>
      </trkpt>
      <trkpt lat="43.66788" lon="6.72866">
        <ele>512.2</ele>
        <time>2009-09-13T09:44:54Z</time>
      </trkpt>
      <trkpt lat="43.66783" lon="6.72872">
        <ele>511.8</ele>
        <time>2009-09-13T09:44:56Z</time>
      </trkpt>
      <trkpt lat="43.66778" lon="6.72878">
        <ele>511.5</ele>
        <time>2009-09-13T09:44:58Z</time>
      </trkpt>
      <trkpt lat="43.66772" lon="6.72883">
        <ele>509.6</ele>
        <time>2009-09-13T09:45:00Z</time>
      </trkpt>
      <trkpt lat="43.66766" lon="6.72884">
        <ele>509.2</ele>
        <time>2009-09-13T09:45:02Z</time>
      </trkpt>
      <trkpt lat="43.66761" lon="6.72883">
        <ele>509.9</ele>
        <time>2009-09-13T09:45:05Z</time>
      </trkpt>
      <trkpt lat="43.66753" lon="6.72878">
        <ele>513.5</ele>
        <time>2009-09-13T09:46:09Z</time>
      </trkpt>
      <trkpt lat="43.66748" lon="6.72878">
        <ele>513.6</ele>
        <time>2009-09-13T09:46:12Z</time>
      </trkpt>
      <trkpt lat="43.66741" lon="6.72875">
        <ele>514.5</ele>
        <time>2009-09-13T09:46:15Z</time>
      </trkpt>
      <trkpt lat="43.66735" lon="6.72874">
        <ele>514.6</ele>
        <time>2009-09-13T09:46:17Z</time>
      </trkpt>
      <trkpt lat="43.66731" lon="6.72876">
        <ele>513.4</ele>
        <time>2009-09-13T09:46:19Z</time>
      </trkpt>
      <trkpt lat="43.66726" lon="6.72878">
        <ele>511.4</ele>
        <time>2009-09-13T09:46:21Z</time>
      </trkpt>
      <trkpt lat="43.66719" lon="6.72882">
        <ele>509.2</ele>
        <time>2009-09-13T09:46:23Z</time>
      </trkpt>
      <trkpt lat="43.66713" lon="6.72883">
        <ele>510.3</ele>
        <time>2009-09-13T09:46:25Z</time>
      </trkpt>
      <trkpt lat="43.66707" lon="6.72884">
        <ele>511.2</ele>
        <time>2009-09-13T09:46:27Z</time>
      </trkpt>
      <trkpt lat="43.66702" lon="6.72889">
        <ele>509.8</ele>
        <time>2009-09-13T09:46:29Z</time>
      </trkpt>
      <trkpt lat="43.66697" lon="6.72896">
        <ele>509</ele>
        <time>2009-09-13T09:46:31Z</time>
      </trkpt>
      <trkpt lat="43.66695" lon="6.72901">
        <ele>508</ele>
        <time>2009-09-13T09:46:33Z</time>
      </trkpt>
      <trkpt lat="43.66691" lon="6.72908">
        <ele>507.7</ele>
        <time>2009-09-13T09:46:35Z</time>
      </trkpt>
      <trkpt lat="43.66687" lon="6.72914">
        <ele>507.8</ele>
        <time>2009-09-13T09:46:37Z</time>
      </trkpt>
      <trkpt lat="43.66683" lon="6.72921">
        <ele>506.6</ele>
        <time>2009-09-13T09:46:39Z</time>
      </trkpt>
      <trkpt lat="43.6668" lon="6.72927">
        <ele>505.8</ele>
        <time>2009-09-13T09:46:41Z</time>
      </trkpt>
      <trkpt lat="43.66676" lon="6.72932">
        <ele>505.5</ele>
        <time>2009-09-13T09:46:43Z</time>
      </trkpt>
      <trkpt lat="43.66673" lon="6.72937">
        <ele>505.3</ele>
        <time>2009-09-13T09:46:45Z</time>
      </trkpt>
      <trkpt lat="43.6667" lon="6.72943">
        <ele>504.5</ele>
        <time>2009-09-13T09:46:47Z</time>
      </trkpt>
      <trkpt lat="43.66667" lon="6.72951">
        <ele>502.1</ele>
        <time>2009-09-13T09:46:50Z</time>
      </trkpt>
      <trkpt lat="43.66662" lon="6.72957">
        <ele>501.9</ele>
        <time>2009-09-13T09:46:53Z</time>
      </trkpt>
      <trkpt lat="43.66657" lon="6.72963">
        <ele>502.2</ele>
        <time>2009-09-13T09:46:55Z</time>
      </trkpt>
      <trkpt lat="43.66652" lon="6.7297">
        <ele>502.4</ele>
        <time>2009-09-13T09:46:57Z</time>
      </trkpt>
      <trkpt lat="43.66648" lon="6.72974">
        <ele>503.1</ele>
        <time>2009-09-13T09:46:59Z</time>
      </trkpt>
      <trkpt lat="43.66643" lon="6.72979">
        <ele>504.3</ele>
        <time>2009-09-13T09:47:01Z</time>
      </trkpt>
      <trkpt lat="43.66639" lon="6.72984">
        <ele>504</ele>
        <time>2009-09-13T09:47:03Z</time>
      </trkpt>
      <trkpt lat="43.66635" lon="6.7299">
        <ele>503.8</ele>
        <time>2009-09-13T09:47:06Z</time>
      </trkpt>
      <trkpt lat="43.6663" lon="6.73003">
        <ele>501.9</ele>
        <time>2009-09-13T09:47:34Z</time>
      </trkpt>
      <trkpt lat="43.66628" lon="6.73011">
        <ele>501.2</ele>
        <time>2009-09-13T09:47:37Z</time>
      </trkpt>
      <trkpt lat="43.66625" lon="6.73018">
        <ele>501.8</ele>
        <time>2009-09-13T09:47:40Z</time>
      </trkpt>
      <trkpt lat="43.66622" lon="6.73025">
        <ele>502.3</ele>
        <time>2009-09-13T09:47:43Z</time>
      </trkpt>
      <trkpt lat="43.6662" lon="6.73031">
        <ele>502.6</ele>
        <time>2009-09-13T09:47:45Z</time>
      </trkpt>
      <trkpt lat="43.66617" lon="6.73038">
        <ele>502.5</ele>
        <time>2009-09-13T09:47:47Z</time>
      </trkpt>
      <trkpt lat="43.66613" lon="6.73045">
        <ele>502.5</ele>
        <time>2009-09-13T09:47:49Z</time>
      </trkpt>
      <trkpt lat="43.66609" lon="6.73053">
        <ele>501.2</ele>
        <time>2009-09-13T09:47:51Z</time>
      </trkpt>
      <trkpt lat="43.66604" lon="6.7306">
        <ele>500.3</ele>
        <time>2009-09-13T09:47:53Z</time>
      </trkpt>
      <trkpt lat="43.666" lon="6.73068">
        <ele>500.8</ele>
        <time>2009-09-13T09:47:55Z</time>
      </trkpt>
      <trkpt lat="43.66595" lon="6.73072">
        <ele>503.3</ele>
        <time>2009-09-13T09:47:57Z</time>
      </trkpt>
      <trkpt lat="43.66591" lon="6.73077">
        <ele>506.6</ele>
        <time>2009-09-13T09:48:00Z</time>
      </trkpt>
      <trkpt lat="43.66588" lon="6.73083">
        <ele>508</ele>
        <time>2009-09-13T09:48:02Z</time>
      </trkpt>
      <trkpt lat="43.66586" lon="6.73089">
        <ele>510.5</ele>
        <time>2009-09-13T09:48:04Z</time>
      </trkpt>
      <trkpt lat="43.66582" lon="6.73097">
        <ele>513.1</ele>
        <time>2009-09-13T09:48:07Z</time>
      </trkpt>
      <trkpt lat="43.66582" lon="6.73104">
        <ele>513.1</ele>
        <time>2009-09-13T09:48:12Z</time>
      </trkpt>
      <trkpt lat="43.6658" lon="6.73112">
        <ele>512.8</ele>
        <time>2009-09-13T09:48:18Z</time>
      </trkpt>
      <trkpt lat="43.6658" lon="6.73119">
        <ele>509.9</ele>
        <time>2009-09-13T09:48:21Z</time>
      </trkpt>
      <trkpt lat="43.66578" lon="6.73127">
        <ele>507</ele>
        <time>2009-09-13T09:48:24Z</time>
      </trkpt>
      <trkpt lat="43.66575" lon="6.73132">
        <ele>506.2</ele>
        <time>2009-09-13T09:48:26Z</time>
      </trkpt>
      <trkpt lat="43.66572" lon="6.73138">
        <ele>505.5</ele>
        <time>2009-09-13T09:48:28Z</time>
      </trkpt>
      <trkpt lat="43.66568" lon="6.73143">
        <ele>506.5</ele>
        <time>2009-09-13T09:48:31Z</time>
      </trkpt>
      <trkpt lat="43.66564" lon="6.73147">
        <ele>508.1</ele>
        <time>2009-09-13T09:48:34Z</time>
      </trkpt>
      <trkpt lat="43.66559" lon="6.73151">
        <ele>511</ele>
        <time>2009-09-13T09:48:37Z</time>
      </trkpt>
      <trkpt lat="43.66554" lon="6.73156">
        <ele>513</ele>
        <time>2009-09-13T09:48:40Z</time>
      </trkpt>
      <trkpt lat="43.66551" lon="6.73161">
        <ele>513</ele>
        <time>2009-09-13T09:48:44Z</time>
      </trkpt>
      <trkpt lat="43.66547" lon="6.73167">
        <ele>513</ele>
        <time>2009-09-13T09:48:52Z</time>
      </trkpt>
      <trkpt lat="43.66541" lon="6.73169">
        <ele>513</ele>
        <time>2009-09-13T09:48:56Z</time>
      </trkpt>
      <trkpt lat="43.66536" lon="6.73171">
        <ele>513</ele>
        <time>2009-09-13T09:49:00Z</time>
      </trkpt>
      <trkpt lat="43.66532" lon="6.73175">
        <ele>513.2</ele>
        <time>2009-09-13T09:49:03Z</time>
      </trkpt>
      <trkpt lat="43.66527" lon="6.73179">
        <ele>513.4</ele>
        <time>2009-09-13T09:49:06Z</time>
      </trkpt>
      <trkpt lat="43.66522" lon="6.73183">
        <ele>513.4</ele>
        <time>2009-09-13T09:49:08Z</time>
      </trkpt>
      <trkpt lat="43.66517" lon="6.73187">
        <ele>513.2</ele>
        <time>2009-09-13T09:49:11Z</time>
      </trkpt>
      <trkpt lat="43.66513" lon="6.73192">
        <ele>512.9</ele>
        <time>2009-09-13T09:49:14Z</time>
      </trkpt>
      <trkpt lat="43.66509" lon="6.73198">
        <ele>512.7</ele>
        <time>2009-09-13T09:49:18Z</time>
      </trkpt>
      <trkpt lat="43.66507" lon="6.73204">
        <ele>512.6</ele>
        <time>2009-09-13T09:49:22Z</time>
      </trkpt>
      <trkpt lat="43.66502" lon="6.73207">
        <ele>512.5</ele>
        <time>2009-09-13T09:49:25Z</time>
      </trkpt>
      <trkpt lat="43.66497" lon="6.73206">
        <ele>512.4</ele>
        <time>2009-09-13T09:49:27Z</time>
      </trkpt>
      <trkpt lat="43.66492" lon="6.73205">
        <ele>512.3</ele>
        <time>2009-09-13T09:49:29Z</time>
      </trkpt>
      <trkpt lat="43.66485" lon="6.73202">
        <ele>512.1</ele>
        <time>2009-09-13T09:49:31Z</time>
      </trkpt>
      <trkpt lat="43.66479" lon="6.73198">
        <ele>512</ele>
        <time>2009-09-13T09:49:33Z</time>
      </trkpt>
      <trkpt lat="43.66473" lon="6.73196">
        <ele>512</ele>
        <time>2009-09-13T09:49:35Z</time>
      </trkpt>
      <trkpt lat="43.66467" lon="6.73193">
        <ele>512</ele>
        <time>2009-09-13T09:49:37Z</time>
      </trkpt>
      <trkpt lat="43.66462" lon="6.73192">
        <ele>512</ele>
        <time>2009-09-13T09:49:39Z</time>
      </trkpt>
      <trkpt lat="43.66456" lon="6.73189">
        <ele>512</ele>
        <time>2009-09-13T09:49:41Z</time>
      </trkpt>
      <trkpt lat="43.66451" lon="6.73185">
        <ele>511.8</ele>
        <time>2009-09-13T09:49:43Z</time>
      </trkpt>
      <trkpt lat="43.66448" lon="6.73179">
        <ele>511.6</ele>
        <time>2009-09-13T09:49:45Z</time>
      </trkpt>
      <trkpt lat="43.6645" lon="6.73172">
        <ele>511.5</ele>
        <time>2009-09-13T09:49:47Z</time>
      </trkpt>
      <trkpt lat="43.66453" lon="6.73165">
        <ele>511.5</ele>
        <time>2009-09-13T09:49:49Z</time>
      </trkpt>
      <trkpt lat="43.66458" lon="6.7316">
        <ele>511.6</ele>
        <time>2009-09-13T09:49:51Z</time>
      </trkpt>
      <trkpt lat="43.66462" lon="6.73155">
        <ele>511.7</ele>
        <time>2009-09-13T09:49:53Z</time>
      </trkpt>
      <trkpt lat="43.66466" lon="6.73149">
        <ele>511.8</ele>
        <time>2009-09-13T09:49:56Z</time>
      </trkpt>
      <trkpt lat="43.66476" lon="6.73139">
        <ele>512.3</ele>
        <time>2009-09-13T09:50:24Z</time>
      </trkpt>
      <trkpt lat="43.66479" lon="6.73133">
        <ele>512.1</ele>
        <time>2009-09-13T09:50:28Z</time>
      </trkpt>
      <trkpt lat="43.6648" lon="6.73126">
        <ele>511.8</ele>
        <time>2009-09-13T09:50:31Z</time>
      </trkpt>
      <trkpt lat="43.6648" lon="6.7312">
        <ele>511.4</ele>
        <time>2009-09-13T09:50:33Z</time>
      </trkpt>
      <trkpt lat="43.66478" lon="6.73111">
        <ele>510.7</ele>
        <time>2009-09-13T09:50:35Z</time>
      </trkpt>
      <trkpt lat="43.66473" lon="6.73102">
        <ele>510.7</ele>
        <time>2009-09-13T09:50:37Z</time>
      </trkpt>
      <trkpt lat="43.66467" lon="6.73093">
        <ele>511.1</ele>
        <time>2009-09-13T09:50:39Z</time>
      </trkpt>
      <trkpt lat="43.66462" lon="6.73086">
        <ele>511.4</ele>
        <time>2009-09-13T09:50:41Z</time>
      </trkpt>
      <trkpt lat="43.66458" lon="6.73079">
        <ele>511.7</ele>
        <time>2009-09-13T09:50:43Z</time>
      </trkpt>
      <trkpt lat="43.66454" lon="6.73072">
        <ele>511.9</ele>
        <time>2009-09-13T09:50:45Z</time>
      </trkpt>
      <trkpt lat="43.6645" lon="6.73065">
        <ele>512</ele>
        <time>2009-09-13T09:50:47Z</time>
      </trkpt>
      <trkpt lat="43.66445" lon="6.73058">
        <ele>511.9</ele>
        <time>2009-09-13T09:50:49Z</time>
      </trkpt>
      <trkpt lat="43.66439" lon="6.73053">
        <ele>511.6</ele>
        <time>2009-09-13T09:50:51Z</time>
      </trkpt>
      <trkpt lat="43.66434" lon="6.73046">
        <ele>511.5</ele>
        <time>2009-09-13T09:50:53Z</time>
      </trkpt>
      <trkpt lat="43.66431" lon="6.73038">
        <ele>511.5</ele>
        <time>2009-09-13T09:50:55Z</time>
      </trkpt>
      <trkpt lat="43.66428" lon="6.73032">
        <ele>511.5</ele>
        <time>2009-09-13T09:50:57Z</time>
      </trkpt>
      <trkpt lat="43.66423" lon="6.73028">
        <ele>510.9</ele>
        <time>2009-09-13T09:51:00Z</time>
      </trkpt>
      <trkpt lat="43.66418" lon="6.73029">
        <ele>510.2</ele>
        <time>2009-09-13T09:51:04Z</time>
      </trkpt>
      <trkpt lat="43.66413" lon="6.73027">
        <ele>509.6</ele>
        <time>2009-09-13T09:51:06Z</time>
      </trkpt>
      <trkpt lat="43.66406" lon="6.73026">
        <ele>509</ele>
        <time>2009-09-13T09:51:08Z</time>
      </trkpt>
      <trkpt lat="43.66401" lon="6.73026">
        <ele>508.3</ele>
        <time>2009-09-13T09:51:10Z</time>
      </trkpt>
      <trkpt lat="43.66395" lon="6.73026">
        <ele>507.7</ele>
        <time>2009-09-13T09:51:13Z</time>
      </trkpt>
      <trkpt lat="43.66391" lon="6.73028">
        <ele>507.2</ele>
        <time>2009-09-13T09:51:16Z</time>
      </trkpt>
      <trkpt lat="43.66375" lon="6.73032">
        <ele>503.4</ele>
        <time>2009-09-13T09:51:31Z</time>
      </trkpt>
      <trkpt lat="43.6637" lon="6.7303">
        <ele>502.2</ele>
        <time>2009-09-13T09:51:34Z</time>
      </trkpt>
      <trkpt lat="43.66365" lon="6.73027">
        <ele>500.9</ele>
        <time>2009-09-13T09:51:37Z</time>
      </trkpt>
      <trkpt lat="43.6636" lon="6.73023">
        <ele>500.3</ele>
        <time>2009-09-13T09:51:40Z</time>
      </trkpt>
      <trkpt lat="43.66355" lon="6.73017">
        <ele>500.1</ele>
        <time>2009-09-13T09:51:58Z</time>
      </trkpt>
      <trkpt lat="43.66352" lon="6.73008">
        <ele>500.2</ele>
        <time>2009-09-13T09:52:01Z</time>
      </trkpt>
      <trkpt lat="43.66347" lon="6.72999">
        <ele>500</ele>
        <time>2009-09-13T09:52:03Z</time>
      </trkpt>
      <trkpt lat="43.66343" lon="6.72993">
        <ele>500</ele>
        <time>2009-09-13T09:52:05Z</time>
      </trkpt>
      <trkpt lat="43.6634" lon="6.72986">
        <ele>500.1</ele>
        <time>2009-09-13T09:52:07Z</time>
      </trkpt>
      <trkpt lat="43.66338" lon="6.72979">
        <ele>500.4</ele>
        <time>2009-09-13T09:52:09Z</time>
      </trkpt>
      <trkpt lat="43.66334" lon="6.72974">
        <ele>500.1</ele>
        <time>2009-09-13T09:52:11Z</time>
      </trkpt>
      <trkpt lat="43.66329" lon="6.7297">
        <ele>500.2</ele>
        <time>2009-09-13T09:52:13Z</time>
      </trkpt>
      <trkpt lat="43.66322" lon="6.72969">
        <ele>500.2</ele>
        <time>2009-09-13T09:52:15Z</time>
      </trkpt>
      <trkpt lat="43.66316" lon="6.72968">
        <ele>500.2</ele>
        <time>2009-09-13T09:52:17Z</time>
      </trkpt>
      <trkpt lat="43.66311" lon="6.72971">
        <ele>500.1</ele>
        <time>2009-09-13T09:52:19Z</time>
      </trkpt>
      <trkpt lat="43.66307" lon="6.72977">
        <ele>499.7</ele>
        <time>2009-09-13T09:52:21Z</time>
      </trkpt>
      <trkpt lat="43.66304" lon="6.72985">
        <ele>499.3</ele>
        <time>2009-09-13T09:52:23Z</time>
      </trkpt>
      <trkpt lat="43.66301" lon="6.72994">
        <ele>499.1</ele>
        <time>2009-09-13T09:52:25Z</time>
      </trkpt>
      <trkpt lat="43.66298" lon="6.73002">
        <ele>498.9</ele>
        <time>2009-09-13T09:52:27Z</time>
      </trkpt>
      <trkpt lat="43.66295" lon="6.73011">
        <ele>498.8</ele>
        <time>2009-09-13T09:52:29Z</time>
      </trkpt>
      <trkpt lat="43.66291" lon="6.73019">
        <ele>498.8</ele>
        <time>2009-09-13T09:52:31Z</time>
      </trkpt>
      <trkpt lat="43.66287" lon="6.73024">
        <ele>499</ele>
        <time>2009-09-13T09:52:33Z</time>
      </trkpt>
      <trkpt lat="43.66282" lon="6.7303">
        <ele>499.2</ele>
        <time>2009-09-13T09:52:36Z</time>
      </trkpt>
      <trkpt lat="43.66276" lon="6.73036">
        <ele>499.2</ele>
        <time>2009-09-13T09:52:38Z</time>
      </trkpt>
      <trkpt lat="43.66271" lon="6.73042">
        <ele>499.1</ele>
        <time>2009-09-13T09:52:40Z</time>
      </trkpt>
      <trkpt lat="43.66265" lon="6.73048">
        <ele>499.1</ele>
        <time>2009-09-13T09:52:42Z</time>
      </trkpt>
      <trkpt lat="43.66259" lon="6.73054">
        <ele>499.2</ele>
        <time>2009-09-13T09:52:44Z</time>
      </trkpt>
      <trkpt lat="43.66252" lon="6.73059">
        <ele>499.4</ele>
        <time>2009-09-13T09:52:46Z</time>
      </trkpt>
      <trkpt lat="43.66245" lon="6.73064">
        <ele>499.3</ele>
        <time>2009-09-13T09:52:48Z</time>
      </trkpt>
      <trkpt lat="43.66239" lon="6.73068">
        <ele>499.1</ele>
        <time>2009-09-13T09:52:50Z</time>
      </trkpt>
      <trkpt lat="43.66231" lon="6.7307">
        <ele>499.1</ele>
        <time>2009-09-13T09:52:52Z</time>
      </trkpt>
      <trkpt lat="43.66223" lon="6.73072">
        <ele>499.2</ele>
        <time>2009-09-13T09:52:54Z</time>
      </trkpt>
      <trkpt lat="43.66215" lon="6.73074">
        <ele>499.3</ele>
        <time>2009-09-13T09:52:56Z</time>
      </trkpt>
      <trkpt lat="43.66207" lon="6.73076">
        <ele>499.3</ele>
        <time>2009-09-13T09:52:58Z</time>
      </trkpt>
      <trkpt lat="43.662" lon="6.7308">
        <ele>499.2</ele>
        <time>2009-09-13T09:53:00Z</time>
      </trkpt>
      <trkpt lat="43.66193" lon="6.7308">
        <ele>499.3</ele>
        <time>2009-09-13T09:53:02Z</time>
      </trkpt>
      <trkpt lat="43.66185" lon="6.73078">
        <ele>499.3</ele>
        <time>2009-09-13T09:53:04Z</time>
      </trkpt>
      <trkpt lat="43.66178" lon="6.73076">
        <ele>499.2</ele>
        <time>2009-09-13T09:53:06Z</time>
      </trkpt>
      <trkpt lat="43.66171" lon="6.73074">
        <ele>499.2</ele>
        <time>2009-09-13T09:53:08Z</time>
      </trkpt>
      <trkpt lat="43.66164" lon="6.7307">
        <ele>499.1</ele>
        <time>2009-09-13T09:53:10Z</time>
      </trkpt>
      <trkpt lat="43.66157" lon="6.73065">
        <ele>498.9</ele>
        <time>2009-09-13T09:53:12Z</time>
      </trkpt>
      <trkpt lat="43.66151" lon="6.73059">
        <ele>498.8</ele>
        <time>2009-09-13T09:53:14Z</time>
      </trkpt>
      <trkpt lat="43.66146" lon="6.73055">
        <ele>498.8</ele>
        <time>2009-09-13T09:53:16Z</time>
      </trkpt>
      <trkpt lat="43.66141" lon="6.73052">
        <ele>498.9</ele>
        <time>2009-09-13T09:53:18Z</time>
      </trkpt>
      <trkpt lat="43.66137" lon="6.73048">
        <ele>499.2</ele>
        <time>2009-09-13T09:53:20Z</time>
      </trkpt>
      <trkpt lat="43.66133" lon="6.73043">
        <ele>499.8</ele>
        <time>2009-09-13T09:53:23Z</time>
      </trkpt>
      <trkpt lat="43.66135" lon="6.73037">
        <ele>500.9</ele>
        <time>2009-09-13T10:00:05Z</time>
      </trkpt>
      <trkpt lat="43.6613" lon="6.73037">
        <ele>500.4</ele>
        <time>2009-09-13T10:01:19Z</time>
      </trkpt>
      <trkpt lat="43.66125" lon="6.73037">
        <ele>500</ele>
        <time>2009-09-13T10:08:09Z</time>
      </trkpt>
      <trkpt lat="43.66119" lon="6.73035">
        <ele>499.7</ele>
        <time>2009-09-13T10:08:12Z</time>
      </trkpt>
      <trkpt lat="43.66114" lon="6.73034">
        <ele>499.4</ele>
        <time>2009-09-13T10:08:14Z</time>
      </trkpt>
      <trkpt lat="43.66109" lon="6.73034">
        <ele>499.5</ele>
        <time>2009-09-13T10:08:19Z</time>
      </trkpt>
      <trkpt lat="43.66103" lon="6.73043">
        <ele>499.5</ele>
        <time>2009-09-13T10:08:39Z</time>
      </trkpt>
      <trkpt lat="43.66102" lon="6.73051">
        <ele>499</ele>
        <time>2009-09-13T10:08:42Z</time>
      </trkpt>
      <trkpt lat="43.66104" lon="6.7306">
        <ele>498.1</ele>
        <time>2009-09-13T10:08:45Z</time>
      </trkpt>
      <trkpt lat="43.66104" lon="6.73067">
        <ele>497.7</ele>
        <time>2009-09-13T10:08:48Z</time>
      </trkpt>
      <trkpt lat="43.66105" lon="6.73075">
        <ele>497.4</ele>
        <time>2009-09-13T10:08:51Z</time>
      </trkpt>
      <trkpt lat="43.66106" lon="6.73084">
        <ele>496.9</ele>
        <time>2009-09-13T10:08:54Z</time>
      </trkpt>
      <trkpt lat="43.66106" lon="6.73094">
        <ele>497.1</ele>
        <time>2009-09-13T10:08:57Z</time>
      </trkpt>
      <trkpt lat="43.66106" lon="6.73101">
        <ele>497.2</ele>
        <time>2009-09-13T10:08:59Z</time>
      </trkpt>
      <trkpt lat="43.66106" lon="6.73108">
        <ele>497.1</ele>
        <time>2009-09-13T10:09:01Z</time>
      </trkpt>
      <trkpt lat="43.66106" lon="6.73116">
        <ele>497.3</ele>
        <time>2009-09-13T10:09:03Z</time>
      </trkpt>
      <trkpt lat="43.66105" lon="6.73124">
        <ele>497.8</ele>
        <time>2009-09-13T10:09:05Z</time>
      </trkpt>
      <trkpt lat="43.66104" lon="6.73132">
        <ele>498.2</ele>
        <time>2009-09-13T10:09:07Z</time>
      </trkpt>
      <trkpt lat="43.66102" lon="6.7314">
        <ele>498.7</ele>
        <time>2009-09-13T10:09:09Z</time>
      </trkpt>
      <trkpt lat="43.66099" lon="6.73147">
        <ele>498.7</ele>
        <time>2009-09-13T10:09:11Z</time>
      </trkpt>
      <trkpt lat="43.66096" lon="6.73153">
        <ele>498.8</ele>
        <time>2009-09-13T10:09:13Z</time>
      </trkpt>
      <trkpt lat="43.6609" lon="6.73157">
        <ele>499.1</ele>
        <time>2009-09-13T10:09:16Z</time>
      </trkpt>
      <trkpt lat="43.66083" lon="6.7316">
        <ele>499.7</ele>
        <time>2009-09-13T10:09:19Z</time>
      </trkpt>
      <trkpt lat="43.66079" lon="6.73162">
        <ele>499.8</ele>
        <time>2009-09-13T10:09:21Z</time>
      </trkpt>
      <trkpt lat="43.66073" lon="6.73164">
        <ele>499.8</ele>
        <time>2009-09-13T10:09:23Z</time>
      </trkpt>
      <trkpt lat="43.66068" lon="6.73165">
        <ele>499.8</ele>
        <time>2009-09-13T10:09:25Z</time>
      </trkpt>
      <trkpt lat="43.66063" lon="6.73167">
        <ele>499.7</ele>
        <time>2009-09-13T10:09:27Z</time>
      </trkpt>
      <trkpt lat="43.66058" lon="6.7317">
        <ele>500</ele>
        <time>2009-09-13T10:09:30Z</time>
      </trkpt>
      <trkpt lat="43.66008" lon="6.73182">
        <ele>508.8</ele>
        <time>2009-09-13T10:11:03Z</time>
      </trkpt>
      <trkpt lat="43.66005" lon="6.73178">
        <ele>508.9</ele>
        <time>2009-09-13T10:11:06Z</time>
      </trkpt>
      <trkpt lat="43.65975" lon="6.73177">
        <ele>513.9</ele>
        <time>2009-09-13T10:11:59Z</time>
      </trkpt>
      <trkpt lat="43.65969" lon="6.73178">
        <ele>514.5</ele>
        <time>2009-09-13T10:12:02Z</time>
      </trkpt>
      <trkpt lat="43.65965" lon="6.73183">
        <ele>514.8</ele>
        <time>2009-09-13T10:12:04Z</time>
      </trkpt>
      <trkpt lat="43.6596" lon="6.73186">
        <ele>515.1</ele>
        <time>2009-09-13T10:12:06Z</time>
      </trkpt>
      <trkpt lat="43.65955" lon="6.73188">
        <ele>515.4</ele>
        <time>2009-09-13T10:12:08Z</time>
      </trkpt>
      <trkpt lat="43.65951" lon="6.73191">
        <ele>515.6</ele>
        <time>2009-09-13T10:12:10Z</time>
      </trkpt>
      <trkpt lat="43.65944" lon="6.73192">
        <ele>515.9</ele>
        <time>2009-09-13T10:12:13Z</time>
      </trkpt>
      <trkpt lat="43.6594" lon="6.73189">
        <ele>515.7</ele>
        <time>2009-09-13T10:12:15Z</time>
      </trkpt>
      <trkpt lat="43.65935" lon="6.7319">
        <ele>515.6</ele>
        <time>2009-09-13T10:12:17Z</time>
      </trkpt>
      <trkpt lat="43.6593" lon="6.73194">
        <ele>515.5</ele>
        <time>2009-09-13T10:12:19Z</time>
      </trkpt>
      <trkpt lat="43.65927" lon="6.732">
        <ele>515.5</ele>
        <time>2009-09-13T10:12:21Z</time>
      </trkpt>
      <trkpt lat="43.65923" lon="6.73207">
        <ele>515.4</ele>
        <time>2009-09-13T10:12:23Z</time>
      </trkpt>
      <trkpt lat="43.65917" lon="6.73212">
        <ele>515.1</ele>
        <time>2009-09-13T10:12:25Z</time>
      </trkpt>
      <trkpt lat="43.65911" lon="6.73217">
        <ele>514.5</ele>
        <time>2009-09-13T10:12:27Z</time>
      </trkpt>
      <trkpt lat="43.65904" lon="6.73222">
        <ele>513.6</ele>
        <time>2009-09-13T10:12:29Z</time>
      </trkpt>
      <trkpt lat="43.65895" lon="6.73227">
        <ele>512.6</ele>
        <time>2009-09-13T10:12:31Z</time>
      </trkpt>
      <trkpt lat="43.6589" lon="6.73231">
        <ele>511.8</ele>
        <time>2009-09-13T10:12:32Z</time>
      </trkpt>
      <trkpt lat="43.65884" lon="6.73234">
        <ele>510.7</ele>
        <time>2009-09-13T10:12:33Z</time>
      </trkpt>
      <trkpt lat="43.65879" lon="6.73237">
        <ele>509.6</ele>
        <time>2009-09-13T10:12:34Z</time>
      </trkpt>
      <trkpt lat="43.65874" lon="6.73238">
        <ele>508.7</ele>
        <time>2009-09-13T10:12:35Z</time>
      </trkpt>
      <trkpt lat="43.65869" lon="6.73239">
        <ele>507.8</ele>
        <time>2009-09-13T10:12:36Z</time>
      </trkpt>
      <trkpt lat="43.65862" lon="6.73241">
        <ele>506.4</ele>
        <time>2009-09-13T10:12:38Z</time>
      </trkpt>
      <trkpt lat="43.65857" lon="6.73245">
        <ele>505.7</ele>
        <time>2009-09-13T10:12:40Z</time>
      </trkpt>
      <trkpt lat="43.65853" lon="6.73249">
        <ele>504.9</ele>
        <time>2009-09-13T10:12:42Z</time>
      </trkpt>
      <trkpt lat="43.65847" lon="6.7325">
        <ele>504</ele>
        <time>2009-09-13T10:12:44Z</time>
      </trkpt>
      <trkpt lat="43.6584" lon="6.73249">
        <ele>503</ele>
        <time>2009-09-13T10:12:46Z</time>
      </trkpt>
      <trkpt lat="43.65831" lon="6.73251">
        <ele>501.7</ele>
        <time>2009-09-13T10:12:48Z</time>
      </trkpt>
      <trkpt lat="43.65827" lon="6.73253">
        <ele>501.2</ele>
        <time>2009-09-13T10:12:49Z</time>
      </trkpt>
      <trkpt lat="43.65822" lon="6.73254">
        <ele>500.6</ele>
        <time>2009-09-13T10:12:50Z</time>
      </trkpt>
      <trkpt lat="43.65817" lon="6.73254">
        <ele>500.1</ele>
        <time>2009-09-13T10:12:51Z</time>
      </trkpt>
      <trkpt lat="43.65813" lon="6.73251">
        <ele>499.7</ele>
        <time>2009-09-13T10:12:52Z</time>
      </trkpt>
      <trkpt lat="43.65808" lon="6.73249">
        <ele>499.4</ele>
        <time>2009-09-13T10:12:53Z</time>
      </trkpt>
      <trkpt lat="43.65803" lon="6.73247">
        <ele>499.3</ele>
        <time>2009-09-13T10:12:54Z</time>
      </trkpt>
      <trkpt lat="43.65798" lon="6.73246">
        <ele>499.2</ele>
        <time>2009-09-13T10:12:55Z</time>
      </trkpt>
      <trkpt lat="43.65789" lon="6.73246">
        <ele>498.9</ele>
        <time>2009-09-13T10:12:57Z</time>
      </trkpt>
      <trkpt lat="43.65784" lon="6.73246">
        <ele>498.7</ele>
        <time>2009-09-13T10:12:58Z</time>
      </trkpt>
      <trkpt lat="43.65779" lon="6.73246">
        <ele>498.6</ele>
        <time>2009-09-13T10:12:59Z</time>
      </trkpt>
      <trkpt lat="43.65771" lon="6.73246">
        <ele>498.8</ele>
        <time>2009-09-13T10:13:01Z</time>
      </trkpt>
      <trkpt lat="43.65764" lon="6.73246">
        <ele>499</ele>
        <time>2009-09-13T10:13:03Z</time>
      </trkpt>
      <trkpt lat="43.65757" lon="6.73247">
        <ele>499.1</ele>
        <time>2009-09-13T10:13:05Z</time>
      </trkpt>
      <trkpt lat="43.65751" lon="6.73248">
        <ele>499.2</ele>
        <time>2009-09-13T10:13:07Z</time>
      </trkpt>
      <trkpt lat="43.65746" lon="6.7325">
        <ele>499</ele>
        <time>2009-09-13T10:13:09Z</time>
      </trkpt>
      <trkpt lat="43.65741" lon="6.73254">
        <ele>498.8</ele>
        <time>2009-09-13T10:13:12Z</time>
      </trkpt>
      <trkpt lat="43.65736" lon="6.73251">
        <ele>499</ele>
        <time>2009-09-13T10:14:13Z</time>
      </trkpt>
      <trkpt lat="43.65732" lon="6.73247">
        <ele>499.3</ele>
        <time>2009-09-13T10:14:28Z</time>
      </trkpt>
      <trkpt lat="43.65735" lon="6.73242">
        <ele>499.9</ele>
        <time>2009-09-13T10:15:27Z</time>
      </trkpt>
      <trkpt lat="43.65732" lon="6.73255">
        <ele>498.7</ele>
        <time>2009-09-13T10:16:17Z</time>
      </trkpt>
      <trkpt lat="43.65727" lon="6.73257">
        <ele>498.7</ele>
        <time>2009-09-13T10:16:20Z</time>
      </trkpt>
      <trkpt lat="43.6572" lon="6.73258">
        <ele>498.8</ele>
        <time>2009-09-13T10:16:23Z</time>
      </trkpt>
      <trkpt lat="43.65715" lon="6.7326">
        <ele>498.8</ele>
        <time>2009-09-13T10:16:25Z</time>
      </trkpt>
      <trkpt lat="43.6571" lon="6.73262">
        <ele>498.8</ele>
        <time>2009-09-13T10:16:27Z</time>
      </trkpt>
      <trkpt lat="43.65702" lon="6.73264">
        <ele>498.9</ele>
        <time>2009-09-13T10:16:29Z</time>
      </trkpt>
      <trkpt lat="43.65695" lon="6.73267">
        <ele>498.8</ele>
        <time>2009-09-13T10:16:31Z</time>
      </trkpt>
      <trkpt lat="43.65688" lon="6.73271">
        <ele>498.8</ele>
        <time>2009-09-13T10:16:33Z</time>
      </trkpt>
      <trkpt lat="43.65682" lon="6.73275">
        <ele>498.8</ele>
        <time>2009-09-13T10:16:35Z</time>
      </trkpt>
      <trkpt lat="43.65674" lon="6.73279">
        <ele>498.6</ele>
        <time>2009-09-13T10:16:37Z</time>
      </trkpt>
      <trkpt lat="43.65666" lon="6.73284">
        <ele>498.4</ele>
        <time>2009-09-13T10:16:39Z</time>
      </trkpt>
      <trkpt lat="43.65659" lon="6.73288">
        <ele>498.4</ele>
        <time>2009-09-13T10:16:41Z</time>
      </trkpt>
      <trkpt lat="43.65653" lon="6.73292">
        <ele>498.3</ele>
        <time>2009-09-13T10:16:43Z</time>
      </trkpt>
      <trkpt lat="43.65647" lon="6.73293">
        <ele>498.4</ele>
        <time>2009-09-13T10:16:45Z</time>
      </trkpt>
      <trkpt lat="43.65641" lon="6.73297">
        <ele>498.2</ele>
        <time>2009-09-13T10:16:47Z</time>
      </trkpt>
      <trkpt lat="43.65636" lon="6.733">
        <ele>498.1</ele>
        <time>2009-09-13T10:16:49Z</time>
      </trkpt>
      <trkpt lat="43.65631" lon="6.733">
        <ele>498.4</ele>
        <time>2009-09-13T10:16:51Z</time>
      </trkpt>
      <trkpt lat="43.65626" lon="6.73301">
        <ele>498.6</ele>
        <time>2009-09-13T10:16:53Z</time>
      </trkpt>
      <trkpt lat="43.65622" lon="6.73305">
        <ele>498.4</ele>
        <time>2009-09-13T10:16:55Z</time>
      </trkpt>
      <trkpt lat="43.65617" lon="6.7331">
        <ele>498.2</ele>
        <time>2009-09-13T10:16:57Z</time>
      </trkpt>
      <trkpt lat="43.65611" lon="6.73316">
        <ele>497.9</ele>
        <time>2009-09-13T10:16:59Z</time>
      </trkpt>
      <trkpt lat="43.65605" lon="6.7332">
        <ele>497.9</ele>
        <time>2009-09-13T10:17:01Z</time>
      </trkpt>
      <trkpt lat="43.65599" lon="6.73323">
        <ele>498</ele>
        <time>2009-09-13T10:17:03Z</time>
      </trkpt>
      <trkpt lat="43.65593" lon="6.73326">
        <ele>498.1</ele>
        <time>2009-09-13T10:17:05Z</time>
      </trkpt>
      <trkpt lat="43.65588" lon="6.73331">
        <ele>498</ele>
        <time>2009-09-13T10:17:07Z</time>
      </trkpt>
      <trkpt lat="43.65582" lon="6.73335">
        <ele>498</ele>
        <time>2009-09-13T10:17:09Z</time>
      </trkpt>
      <trkpt lat="43.65576" lon="6.73339">
        <ele>498.3</ele>
        <time>2009-09-13T10:17:11Z</time>
      </trkpt>
      <trkpt lat="43.65571" lon="6.73342">
        <ele>498.4</ele>
        <time>2009-09-13T10:17:13Z</time>
      </trkpt>
      <trkpt lat="43.65566" lon="6.73344">
        <ele>498.7</ele>
        <time>2009-09-13T10:17:15Z</time>
      </trkpt>
      <trkpt lat="43.6556" lon="6.73346">
        <ele>498.8</ele>
        <time>2009-09-13T10:17:17Z</time>
      </trkpt>
      <trkpt lat="43.65553" lon="6.73349">
        <ele>498.8</ele>
        <time>2009-09-13T10:17:19Z</time>
      </trkpt>
      <trkpt lat="43.65545" lon="6.73352">
        <ele>498.9</ele>
        <time>2009-09-13T10:17:21Z</time>
      </trkpt>
      <trkpt lat="43.65538" lon="6.73352">
        <ele>499.1</ele>
        <time>2009-09-13T10:17:23Z</time>
      </trkpt>
      <trkpt lat="43.65531" lon="6.73352">
        <ele>499.5</ele>
        <time>2009-09-13T10:17:25Z</time>
      </trkpt>
      <trkpt lat="43.65525" lon="6.73351">
        <ele>499.8</ele>
        <time>2009-09-13T10:17:27Z</time>
      </trkpt>
      <trkpt lat="43.65518" lon="6.73348">
        <ele>500.2</ele>
        <time>2009-09-13T10:17:30Z</time>
      </trkpt>
      <trkpt lat="43.65512" lon="6.73345">
        <ele>500.4</ele>
        <time>2009-09-13T10:17:32Z</time>
      </trkpt>
      <trkpt lat="43.65505" lon="6.73341">
        <ele>500.7</ele>
        <time>2009-09-13T10:17:34Z</time>
      </trkpt>
      <trkpt lat="43.655" lon="6.73338">
        <ele>500.8</ele>
        <time>2009-09-13T10:17:36Z</time>
      </trkpt>
      <trkpt lat="43.65496" lon="6.73335">
        <ele>500.9</ele>
        <time>2009-09-13T10:17:38Z</time>
      </trkpt>
      <trkpt lat="43.65491" lon="6.73332">
        <ele>501.1</ele>
        <time>2009-09-13T10:17:40Z</time>
      </trkpt>
      <trkpt lat="43.65485" lon="6.73331">
        <ele>501.1</ele>
        <time>2009-09-13T10:17:42Z</time>
      </trkpt>
      <trkpt lat="43.6548" lon="6.7333">
        <ele>501.1</ele>
        <time>2009-09-13T10:17:45Z</time>
      </trkpt>
      <trkpt lat="43.65474" lon="6.73328">
        <ele>501</ele>
        <time>2009-09-13T10:17:48Z</time>
      </trkpt>
      <trkpt lat="43.65452" lon="6.73313">
        <ele>499</ele>
        <time>2009-09-13T10:18:24Z</time>
      </trkpt>
      <trkpt lat="43.65443" lon="6.73311">
        <ele>498.1</ele>
        <time>2009-09-13T10:18:26Z</time>
      </trkpt>
      <trkpt lat="43.65439" lon="6.7331">
        <ele>497.7</ele>
        <time>2009-09-13T10:18:27Z</time>
      </trkpt>
      <trkpt lat="43.65428" lon="6.73311">
        <ele>496.9</ele>
        <time>2009-09-13T10:18:29Z</time>
      </trkpt>
      <trkpt lat="43.65423" lon="6.73312">
        <ele>496.5</ele>
        <time>2009-09-13T10:18:30Z</time>
      </trkpt>
      <trkpt lat="43.65417" lon="6.73313">
        <ele>496</ele>
        <time>2009-09-13T10:18:31Z</time>
      </trkpt>
      <trkpt lat="43.65411" lon="6.73314">
        <ele>495.7</ele>
        <time>2009-09-13T10:18:32Z</time>
      </trkpt>
      <trkpt lat="43.65406" lon="6.73315">
        <ele>495.5</ele>
        <time>2009-09-13T10:18:33Z</time>
      </trkpt>
      <trkpt lat="43.65398" lon="6.73316">
        <ele>495.1</ele>
        <time>2009-09-13T10:18:35Z</time>
      </trkpt>
      <trkpt lat="43.65392" lon="6.73316">
        <ele>494.8</ele>
        <time>2009-09-13T10:18:37Z</time>
      </trkpt>
      <trkpt lat="43.65386" lon="6.73319">
        <ele>494.3</ele>
        <time>2009-09-13T10:18:39Z</time>
      </trkpt>
      <trkpt lat="43.6538" lon="6.73326">
        <ele>493.6</ele>
        <time>2009-09-13T10:18:41Z</time>
      </trkpt>
      <trkpt lat="43.65373" lon="6.73334">
        <ele>492.8</ele>
        <time>2009-09-13T10:18:43Z</time>
      </trkpt>
      <trkpt lat="43.65364" lon="6.73334">
        <ele>492.2</ele>
        <time>2009-09-13T10:18:45Z</time>
      </trkpt>
      <trkpt lat="43.65356" lon="6.73331">
        <ele>491.7</ele>
        <time>2009-09-13T10:18:47Z</time>
      </trkpt>
      <trkpt lat="43.65348" lon="6.73328">
        <ele>491.3</ele>
        <time>2009-09-13T10:18:49Z</time>
      </trkpt>
      <trkpt lat="43.65339" lon="6.73326">
        <ele>490.7</ele>
        <time>2009-09-13T10:18:51Z</time>
      </trkpt>
      <trkpt lat="43.65334" lon="6.73324">
        <ele>490.4</ele>
        <time>2009-09-13T10:18:52Z</time>
      </trkpt>
      <trkpt lat="43.65329" lon="6.73321">
        <ele>490.1</ele>
        <time>2009-09-13T10:18:53Z</time>
      </trkpt>
      <trkpt lat="43.65324" lon="6.73318">
        <ele>489.7</ele>
        <time>2009-09-13T10:18:54Z</time>
      </trkpt>
      <trkpt lat="43.65319" lon="6.73314">
        <ele>489.3</ele>
        <time>2009-09-13T10:18:55Z</time>
      </trkpt>
      <trkpt lat="43.65314" lon="6.7331">
        <ele>488.8</ele>
        <time>2009-09-13T10:18:56Z</time>
      </trkpt>
      <trkpt lat="43.65308" lon="6.73306">
        <ele>488.2</ele>
        <time>2009-09-13T10:18:57Z</time>
      </trkpt>
      <trkpt lat="43.65302" lon="6.73302">
        <ele>487.8</ele>
        <time>2009-09-13T10:18:58Z</time>
      </trkpt>
      <trkpt lat="43.65297" lon="6.73297">
        <ele>487.3</ele>
        <time>2009-09-13T10:18:59Z</time>
      </trkpt>
      <trkpt lat="43.65291" lon="6.73292">
        <ele>486.9</ele>
        <time>2009-09-13T10:19:00Z</time>
      </trkpt>
      <trkpt lat="43.65285" lon="6.73289">
        <ele>486.5</ele>
        <time>2009-09-13T10:19:01Z</time>
      </trkpt>
      <trkpt lat="43.65279" lon="6.73286">
        <ele>486.1</ele>
        <time>2009-09-13T10:19:02Z</time>
      </trkpt>
      <trkpt lat="43.65272" lon="6.73284">
        <ele>485.4</ele>
        <time>2009-09-13T10:19:03Z</time>
      </trkpt>
      <trkpt lat="43.65266" lon="6.7328">
        <ele>484.7</ele>
        <time>2009-09-13T10:19:04Z</time>
      </trkpt>
      <trkpt lat="43.65259" lon="6.73276">
        <ele>483.9</ele>
        <time>2009-09-13T10:19:05Z</time>
      </trkpt>
      <trkpt lat="43.65253" lon="6.73272">
        <ele>482.8</ele>
        <time>2009-09-13T10:19:06Z</time>
      </trkpt>
      <trkpt lat="43.65246" lon="6.73267">
        <ele>482</ele>
        <time>2009-09-13T10:19:07Z</time>
      </trkpt>
      <trkpt lat="43.65239" lon="6.73262">
        <ele>481.3</ele>
        <time>2009-09-13T10:19:08Z</time>
      </trkpt>
      <trkpt lat="43.65233" lon="6.73259">
        <ele>480.8</ele>
        <time>2009-09-13T10:19:09Z</time>
      </trkpt>
      <trkpt lat="43.65228" lon="6.73254">
        <ele>480.4</ele>
        <time>2009-09-13T10:19:10Z</time>
      </trkpt>
      <trkpt lat="43.65222" lon="6.7325">
        <ele>480</ele>
        <time>2009-09-13T10:19:11Z</time>
      </trkpt>
      <trkpt lat="43.65218" lon="6.73247">
        <ele>479.3</ele>
        <time>2009-09-13T10:19:12Z</time>
      </trkpt>
      <trkpt lat="43.65213" lon="6.73244">
        <ele>478.7</ele>
        <time>2009-09-13T10:19:13Z</time>
      </trkpt>
      <trkpt lat="43.65208" lon="6.73241">
        <ele>477.9</ele>
        <time>2009-09-13T10:19:14Z</time>
      </trkpt>
      <trkpt lat="43.65203" lon="6.73239">
        <ele>477.4</ele>
        <time>2009-09-13T10:19:15Z</time>
      </trkpt>
      <trkpt lat="43.65198" lon="6.73238">
        <ele>476.9</ele>
        <time>2009-09-13T10:19:16Z</time>
      </trkpt>
      <trkpt lat="43.65192" lon="6.73237">
        <ele>476.3</ele>
        <time>2009-09-13T10:19:17Z</time>
      </trkpt>
      <trkpt lat="43.65186" lon="6.73236">
        <ele>475.5</ele>
        <time>2009-09-13T10:19:18Z</time>
      </trkpt>
      <trkpt lat="43.65179" lon="6.73234">
        <ele>474.7</ele>
        <time>2009-09-13T10:19:19Z</time>
      </trkpt>
      <trkpt lat="43.65173" lon="6.73233">
        <ele>473.8</ele>
        <time>2009-09-13T10:19:20Z</time>
      </trkpt>
      <trkpt lat="43.65165" lon="6.73232">
        <ele>473</ele>
        <time>2009-09-13T10:19:21Z</time>
      </trkpt>
      <trkpt lat="43.65157" lon="6.73231">
        <ele>472.2</ele>
        <time>2009-09-13T10:19:22Z</time>
      </trkpt>
      <trkpt lat="43.6515" lon="6.73231">
        <ele>471.5</ele>
        <time>2009-09-13T10:19:23Z</time>
      </trkpt>
      <trkpt lat="43.65142" lon="6.7323">
        <ele>470.8</ele>
        <time>2009-09-13T10:19:24Z</time>
      </trkpt>
      <trkpt lat="43.65134" lon="6.7323">
        <ele>469.8</ele>
        <time>2009-09-13T10:19:25Z</time>
      </trkpt>
      <trkpt lat="43.65128" lon="6.7323">
        <ele>468.9</ele>
        <time>2009-09-13T10:19:26Z</time>
      </trkpt>
      <trkpt lat="43.65121" lon="6.7323">
        <ele>468</ele>
        <time>2009-09-13T10:19:27Z</time>
      </trkpt>
      <trkpt lat="43.65114" lon="6.7323">
        <ele>467</ele>
        <time>2009-09-13T10:19:28Z</time>
      </trkpt>
      <trkpt lat="43.65106" lon="6.7323">
        <ele>465.9</ele>
        <time>2009-09-13T10:19:29Z</time>
      </trkpt>
      <trkpt lat="43.65099" lon="6.73229">
        <ele>464.8</ele>
        <time>2009-09-13T10:19:30Z</time>
      </trkpt>
      <trkpt lat="43.65092" lon="6.73229">
        <ele>463.7</ele>
        <time>2009-09-13T10:19:31Z</time>
      </trkpt>
      <trkpt lat="43.65084" lon="6.73228">
        <ele>462.5</ele>
        <time>2009-09-13T10:19:32Z</time>
      </trkpt>
      <trkpt lat="43.65076" lon="6.73227">
        <ele>461.5</ele>
        <time>2009-09-13T10:19:33Z</time>
      </trkpt>
      <trkpt lat="43.65068" lon="6.73227">
        <ele>460.5</ele>
        <time>2009-09-13T10:19:34Z</time>
      </trkpt>
      <trkpt lat="43.6506" lon="6.73227">
        <ele>459.6</ele>
        <time>2009-09-13T10:19:35Z</time>
      </trkpt>
      <trkpt lat="43.65052" lon="6.73227">
        <ele>458.7</ele>
        <time>2009-09-13T10:19:36Z</time>
      </trkpt>
      <trkpt lat="43.65045" lon="6.73228">
        <ele>457.7</ele>
        <time>2009-09-13T10:19:37Z</time>
      </trkpt>
      <trkpt lat="43.65038" lon="6.73228">
        <ele>456.9</ele>
        <time>2009-09-13T10:19:38Z</time>
      </trkpt>
      <trkpt lat="43.65032" lon="6.73229">
        <ele>456.1</ele>
        <time>2009-09-13T10:19:39Z</time>
      </trkpt>
      <trkpt lat="43.65025" lon="6.73229">
        <ele>455.1</ele>
        <time>2009-09-13T10:19:40Z</time>
      </trkpt>
      <trkpt lat="43.65018" lon="6.73228">
        <ele>454</ele>
        <time>2009-09-13T10:19:41Z</time>
      </trkpt>
      <trkpt lat="43.65013" lon="6.73227">
        <ele>453.2</ele>
        <time>2009-09-13T10:19:42Z</time>
      </trkpt>
      <trkpt lat="43.65008" lon="6.73226">
        <ele>452.5</ele>
        <time>2009-09-13T10:19:43Z</time>
      </trkpt>
      <trkpt lat="43.65" lon="6.73225">
        <ele>451.2</ele>
        <time>2009-09-13T10:19:45Z</time>
      </trkpt>
      <trkpt lat="43.64991" lon="6.73225">
        <ele>449.5</ele>
        <time>2009-09-13T10:19:47Z</time>
      </trkpt>
      <trkpt lat="43.64985" lon="6.73225">
        <ele>448.5</ele>
        <time>2009-09-13T10:19:48Z</time>
      </trkpt>
      <trkpt lat="43.64979" lon="6.73226">
        <ele>447.4</ele>
        <time>2009-09-13T10:19:49Z</time>
      </trkpt>
      <trkpt lat="43.64974" lon="6.73227">
        <ele>446.5</ele>
        <time>2009-09-13T10:19:50Z</time>
      </trkpt>
      <trkpt lat="43.64968" lon="6.73229">
        <ele>445.9</ele>
        <time>2009-09-13T10:19:52Z</time>
      </trkpt>
      <trkpt lat="43.6496" lon="6.73235">
        <ele>445.2</ele>
        <time>2009-09-13T10:20:27Z</time>
      </trkpt>
      <trkpt lat="43.64954" lon="6.73234">
        <ele>444.5</ele>
        <time>2009-09-13T10:20:30Z</time>
      </trkpt>
      <trkpt lat="43.64946" lon="6.73236">
        <ele>443.7</ele>
        <time>2009-09-13T10:20:32Z</time>
      </trkpt>
      <trkpt lat="43.64942" lon="6.73237">
        <ele>443.2</ele>
        <time>2009-09-13T10:20:33Z</time>
      </trkpt>
      <trkpt lat="43.64937" lon="6.73238">
        <ele>442.7</ele>
        <time>2009-09-13T10:20:34Z</time>
      </trkpt>
      <trkpt lat="43.64932" lon="6.73239">
        <ele>442.2</ele>
        <time>2009-09-13T10:20:35Z</time>
      </trkpt>
      <trkpt lat="43.64927" lon="6.7324">
        <ele>441.7</ele>
        <time>2009-09-13T10:20:36Z</time>
      </trkpt>
      <trkpt lat="43.64921" lon="6.73241">
        <ele>441.1</ele>
        <time>2009-09-13T10:20:37Z</time>
      </trkpt>
      <trkpt lat="43.64915" lon="6.73242">
        <ele>440.6</ele>
        <time>2009-09-13T10:20:38Z</time>
      </trkpt>
      <trkpt lat="43.6491" lon="6.73243">
        <ele>440.4</ele>
        <time>2009-09-13T10:20:39Z</time>
      </trkpt>
      <trkpt lat="43.64904" lon="6.73245">
        <ele>440.1</ele>
        <time>2009-09-13T10:20:40Z</time>
      </trkpt>
      <trkpt lat="43.64898" lon="6.73247">
        <ele>439.7</ele>
        <time>2009-09-13T10:20:41Z</time>
      </trkpt>
      <trkpt lat="43.64893" lon="6.7325">
        <ele>439.2</ele>
        <time>2009-09-13T10:20:42Z</time>
      </trkpt>
      <trkpt lat="43.64888" lon="6.73254">
        <ele>439.1</ele>
        <time>2009-09-13T10:20:43Z</time>
      </trkpt>
      <trkpt lat="43.64884" lon="6.73258">
        <ele>439.2</ele>
        <time>2009-09-13T10:20:44Z</time>
      </trkpt>
      <trkpt lat="43.64879" lon="6.73261">
        <ele>439.1</ele>
        <time>2009-09-13T10:20:45Z</time>
      </trkpt>
      <trkpt lat="43.64875" lon="6.73265">
        <ele>438.7</ele>
        <time>2009-09-13T10:20:46Z</time>
      </trkpt>
      <trkpt lat="43.64871" lon="6.73268">
        <ele>438.2</ele>
        <time>2009-09-13T10:20:47Z</time>
      </trkpt>
      <trkpt lat="43.64863" lon="6.73273">
        <ele>436.9</ele>
        <time>2009-09-13T10:20:49Z</time>
      </trkpt>
      <trkpt lat="43.64856" lon="6.73276">
        <ele>435.7</ele>
        <time>2009-09-13T10:20:51Z</time>
      </trkpt>
      <trkpt lat="43.64851" lon="6.73276">
        <ele>435.2</ele>
        <time>2009-09-13T10:20:52Z</time>
      </trkpt>
      <trkpt lat="43.64846" lon="6.73277">
        <ele>434.6</ele>
        <time>2009-09-13T10:20:53Z</time>
      </trkpt>
      <trkpt lat="43.64841" lon="6.73278">
        <ele>433.9</ele>
        <time>2009-09-13T10:20:54Z</time>
      </trkpt>
      <trkpt lat="43.64836" lon="6.7328">
        <ele>433.6</ele>
        <time>2009-09-13T10:20:55Z</time>
      </trkpt>
      <trkpt lat="43.64829" lon="6.73283">
        <ele>433.5</ele>
        <time>2009-09-13T10:20:57Z</time>
      </trkpt>
      <trkpt lat="43.64823" lon="6.73286">
        <ele>433.3</ele>
        <time>2009-09-13T10:20:59Z</time>
      </trkpt>
      <trkpt lat="43.64818" lon="6.73287">
        <ele>432.9</ele>
        <time>2009-09-13T10:21:01Z</time>
      </trkpt>
      <trkpt lat="43.64811" lon="6.73287">
        <ele>432.4</ele>
        <time>2009-09-13T10:21:04Z</time>
      </trkpt>
      <trkpt lat="43.64806" lon="6.73289">
        <ele>431.6</ele>
        <time>2009-09-13T10:21:07Z</time>
      </trkpt>
      <trkpt lat="43.64794" lon="6.73294">
        <ele>431</ele>
        <time>2009-09-13T10:21:28Z</time>
      </trkpt>
      <trkpt lat="43.64789" lon="6.73295">
        <ele>431.1</ele>
        <time>2009-09-13T10:21:32Z</time>
      </trkpt>
      <trkpt lat="43.64782" lon="6.73297">
        <ele>431</ele>
        <time>2009-09-13T10:21:35Z</time>
      </trkpt>
      <trkpt lat="43.64775" lon="6.73299">
        <ele>430.7</ele>
        <time>2009-09-13T10:21:37Z</time>
      </trkpt>
      <trkpt lat="43.64768" lon="6.73301">
        <ele>430.2</ele>
        <time>2009-09-13T10:21:39Z</time>
      </trkpt>
      <trkpt lat="43.64761" lon="6.73302">
        <ele>429.7</ele>
        <time>2009-09-13T10:21:41Z</time>
      </trkpt>
      <trkpt lat="43.64753" lon="6.73304">
        <ele>429.3</ele>
        <time>2009-09-13T10:21:43Z</time>
      </trkpt>
      <trkpt lat="43.64748" lon="6.73304">
        <ele>429.3</ele>
        <time>2009-09-13T10:21:44Z</time>
      </trkpt>
      <trkpt lat="43.64743" lon="6.73305">
        <ele>429.2</ele>
        <time>2009-09-13T10:21:45Z</time>
      </trkpt>
      <trkpt lat="43.64738" lon="6.73306">
        <ele>429</ele>
        <time>2009-09-13T10:21:46Z</time>
      </trkpt>
      <trkpt lat="43.64729" lon="6.73308">
        <ele>428.6</ele>
        <time>2009-09-13T10:21:48Z</time>
      </trkpt>
      <trkpt lat="43.64724" lon="6.73309">
        <ele>428.4</ele>
        <time>2009-09-13T10:21:49Z</time>
      </trkpt>
      <trkpt lat="43.64718" lon="6.7331">
        <ele>428.1</ele>
        <time>2009-09-13T10:21:50Z</time>
      </trkpt>
      <trkpt lat="43.64713" lon="6.73311">
        <ele>427.7</ele>
        <time>2009-09-13T10:21:51Z</time>
      </trkpt>
      <trkpt lat="43.64708" lon="6.73312">
        <ele>427.3</ele>
        <time>2009-09-13T10:21:52Z</time>
      </trkpt>
      <trkpt lat="43.64701" lon="6.73314">
        <ele>426.7</ele>
        <time>2009-09-13T10:21:54Z</time>
      </trkpt>
      <trkpt lat="43.64696" lon="6.73314">
        <ele>426.5</ele>
        <time>2009-09-13T10:21:56Z</time>
      </trkpt>
      <trkpt lat="43.64689" lon="6.73314">
        <ele>426.4</ele>
        <time>2009-09-13T10:22:00Z</time>
      </trkpt>
      <trkpt lat="43.64686" lon="6.73319">
        <ele>425.6</ele>
        <time>2009-09-13T10:22:03Z</time>
      </trkpt>
      <trkpt lat="43.64679" lon="6.73322">
        <ele>425.1</ele>
        <time>2009-09-13T10:22:06Z</time>
      </trkpt>
      <trkpt lat="43.64672" lon="6.73324">
        <ele>424.7</ele>
        <time>2009-09-13T10:22:08Z</time>
      </trkpt>
      <trkpt lat="43.64665" lon="6.73327">
        <ele>424.2</ele>
        <time>2009-09-13T10:22:10Z</time>
      </trkpt>
      <trkpt lat="43.64656" lon="6.7333">
        <ele>423.9</ele>
        <time>2009-09-13T10:22:12Z</time>
      </trkpt>
      <trkpt lat="43.64652" lon="6.73332">
        <ele>423.9</ele>
        <time>2009-09-13T10:22:13Z</time>
      </trkpt>
      <trkpt lat="43.64643" lon="6.73334">
        <ele>423.8</ele>
        <time>2009-09-13T10:22:15Z</time>
      </trkpt>
      <trkpt lat="43.64635" lon="6.73334">
        <ele>424</ele>
        <time>2009-09-13T10:22:17Z</time>
      </trkpt>
      <trkpt lat="43.64627" lon="6.73335">
        <ele>424.2</ele>
        <time>2009-09-13T10:22:19Z</time>
      </trkpt>
      <trkpt lat="43.64618" lon="6.73336">
        <ele>424.3</ele>
        <time>2009-09-13T10:22:21Z</time>
      </trkpt>
      <trkpt lat="43.64613" lon="6.73336">
        <ele>424.4</ele>
        <time>2009-09-13T10:22:22Z</time>
      </trkpt>
      <trkpt lat="43.64608" lon="6.73337">
        <ele>424.3</ele>
        <time>2009-09-13T10:22:23Z</time>
      </trkpt>
      <trkpt lat="43.64603" lon="6.73338">
        <ele>424.2</ele>
        <time>2009-09-13T10:22:24Z</time>
      </trkpt>
      <trkpt lat="43.64598" lon="6.73339">
        <ele>424.1</ele>
        <time>2009-09-13T10:22:25Z</time>
      </trkpt>
      <trkpt lat="43.64593" lon="6.73339">
        <ele>424.1</ele>
        <time>2009-09-13T10:22:26Z</time>
      </trkpt>
      <trkpt lat="43.64587" lon="6.7334">
        <ele>424.1</ele>
        <time>2009-09-13T10:22:27Z</time>
      </trkpt>
      <trkpt lat="43.64581" lon="6.7334">
        <ele>423.9</ele>
        <time>2009-09-13T10:22:28Z</time>
      </trkpt>
      <trkpt lat="43.64574" lon="6.7334">
        <ele>423.5</ele>
        <time>2009-09-13T10:22:29Z</time>
      </trkpt>
      <trkpt lat="43.64567" lon="6.7334">
        <ele>423</ele>
        <time>2009-09-13T10:22:30Z</time>
      </trkpt>
      <trkpt lat="43.6456" lon="6.7334">
        <ele>422.6</ele>
        <time>2009-09-13T10:22:31Z</time>
      </trkpt>
      <trkpt lat="43.64553" lon="6.7334">
        <ele>422.2</ele>
        <time>2009-09-13T10:22:32Z</time>
      </trkpt>
      <trkpt lat="43.64545" lon="6.7334">
        <ele>421.9</ele>
        <time>2009-09-13T10:22:33Z</time>
      </trkpt>
      <trkpt lat="43.64538" lon="6.7334">
        <ele>421.6</ele>
        <time>2009-09-13T10:22:34Z</time>
      </trkpt>
      <trkpt lat="43.64532" lon="6.7334">
        <ele>421.3</ele>
        <time>2009-09-13T10:22:35Z</time>
      </trkpt>
      <trkpt lat="43.64526" lon="6.73339">
        <ele>421</ele>
        <time>2009-09-13T10:22:36Z</time>
      </trkpt>
      <trkpt lat="43.6452" lon="6.7334">
        <ele>420.7</ele>
        <time>2009-09-13T10:22:37Z</time>
      </trkpt>
      <trkpt lat="43.64514" lon="6.73339">
        <ele>420.3</ele>
        <time>2009-09-13T10:22:38Z</time>
      </trkpt>
      <trkpt lat="43.64507" lon="6.73339">
        <ele>420</ele>
        <time>2009-09-13T10:22:39Z</time>
      </trkpt>
      <trkpt lat="43.645" lon="6.73339">
        <ele>419.6</ele>
        <time>2009-09-13T10:22:40Z</time>
      </trkpt>
      <trkpt lat="43.64492" lon="6.73338">
        <ele>419</ele>
        <time>2009-09-13T10:22:41Z</time>
      </trkpt>
      <trkpt lat="43.64485" lon="6.73338">
        <ele>418.5</ele>
        <time>2009-09-13T10:22:42Z</time>
      </trkpt>
      <trkpt lat="43.64479" lon="6.73339">
        <ele>417.9</ele>
        <time>2009-09-13T10:22:43Z</time>
      </trkpt>
      <trkpt lat="43.64474" lon="6.73341">
        <ele>417.4</ele>
        <time>2009-09-13T10:22:44Z</time>
      </trkpt>
      <trkpt lat="43.64466" lon="6.73343">
        <ele>417</ele>
        <time>2009-09-13T10:22:46Z</time>
      </trkpt>
      <trkpt lat="43.6446" lon="6.73346">
        <ele>416.7</ele>
        <time>2009-09-13T10:22:48Z</time>
      </trkpt>
      <trkpt lat="43.64455" lon="6.73348">
        <ele>416.4</ele>
        <time>2009-09-13T10:22:50Z</time>
      </trkpt>
      <trkpt lat="43.6445" lon="6.73352">
        <ele>415.7</ele>
        <time>2009-09-13T10:22:52Z</time>
      </trkpt>
      <trkpt lat="43.64443" lon="6.73357">
        <ele>414.9</ele>
        <time>2009-09-13T10:22:54Z</time>
      </trkpt>
      <trkpt lat="43.64436" lon="6.7336">
        <ele>415.4</ele>
        <time>2009-09-13T10:22:56Z</time>
      </trkpt>
      <trkpt lat="43.64429" lon="6.73363">
        <ele>415.9</ele>
        <time>2009-09-13T10:22:58Z</time>
      </trkpt>
      <trkpt lat="43.64423" lon="6.73367">
        <ele>416</ele>
        <time>2009-09-13T10:23:00Z</time>
      </trkpt>
      <trkpt lat="43.64417" lon="6.7337">
        <ele>416.1</ele>
        <time>2009-09-13T10:23:02Z</time>
      </trkpt>
      <trkpt lat="43.6441" lon="6.73372">
        <ele>416.3</ele>
        <time>2009-09-13T10:23:04Z</time>
      </trkpt>
      <trkpt lat="43.64405" lon="6.73376">
        <ele>416.2</ele>
        <time>2009-09-13T10:23:06Z</time>
      </trkpt>
      <trkpt lat="43.64399" lon="6.73378">
        <ele>416.2</ele>
        <time>2009-09-13T10:23:08Z</time>
      </trkpt>
      <trkpt lat="43.64393" lon="6.73381">
        <ele>416.2</ele>
        <time>2009-09-13T10:23:10Z</time>
      </trkpt>
      <trkpt lat="43.64388" lon="6.73385">
        <ele>415.8</ele>
        <time>2009-09-13T10:23:12Z</time>
      </trkpt>
      <trkpt lat="43.64382" lon="6.73388">
        <ele>415.6</ele>
        <time>2009-09-13T10:23:14Z</time>
      </trkpt>
      <trkpt lat="43.64375" lon="6.7339">
        <ele>415.8</ele>
        <time>2009-09-13T10:23:16Z</time>
      </trkpt>
      <trkpt lat="43.64368" lon="6.73391">
        <ele>416.1</ele>
        <time>2009-09-13T10:23:18Z</time>
      </trkpt>
      <trkpt lat="43.6436" lon="6.73392">
        <ele>416.2</ele>
        <time>2009-09-13T10:23:20Z</time>
      </trkpt>
      <trkpt lat="43.64355" lon="6.73393">
        <ele>416.2</ele>
        <time>2009-09-13T10:23:21Z</time>
      </trkpt>
      <trkpt lat="43.6435" lon="6.73393">
        <ele>416.2</ele>
        <time>2009-09-13T10:23:22Z</time>
      </trkpt>
      <trkpt lat="43.64345" lon="6.73393">
        <ele>416.1</ele>
        <time>2009-09-13T10:23:23Z</time>
      </trkpt>
      <trkpt lat="43.64341" lon="6.73394">
        <ele>416</ele>
        <time>2009-09-13T10:23:24Z</time>
      </trkpt>
      <trkpt lat="43.64336" lon="6.73396">
        <ele>415.7</ele>
        <time>2009-09-13T10:23:25Z</time>
      </trkpt>
      <trkpt lat="43.64331" lon="6.73397">
        <ele>415.6</ele>
        <time>2009-09-13T10:23:26Z</time>
      </trkpt>
      <trkpt lat="43.64326" lon="6.73399">
        <ele>415.4</ele>
        <time>2009-09-13T10:23:27Z</time>
      </trkpt>
      <trkpt lat="43.64318" lon="6.73402">
        <ele>414.9</ele>
        <time>2009-09-13T10:23:29Z</time>
      </trkpt>
      <trkpt lat="43.64309" lon="6.73405">
        <ele>414.5</ele>
        <time>2009-09-13T10:23:31Z</time>
      </trkpt>
      <trkpt lat="43.64301" lon="6.73406">
        <ele>414.3</ele>
        <time>2009-09-13T10:23:33Z</time>
      </trkpt>
      <trkpt lat="43.64294" lon="6.73407">
        <ele>414.4</ele>
        <time>2009-09-13T10:23:35Z</time>
      </trkpt>
      <trkpt lat="43.64287" lon="6.73407">
        <ele>414.6</ele>
        <time>2009-09-13T10:23:38Z</time>
      </trkpt>
      <trkpt lat="43.64282" lon="6.73406">
        <ele>414.8</ele>
        <time>2009-09-13T10:23:40Z</time>
      </trkpt>
      <trkpt lat="43.64275" lon="6.73405">
        <ele>414.8</ele>
        <time>2009-09-13T10:23:42Z</time>
      </trkpt>
      <trkpt lat="43.64268" lon="6.73404">
        <ele>414.5</ele>
        <time>2009-09-13T10:23:44Z</time>
      </trkpt>
      <trkpt lat="43.64261" lon="6.73402">
        <ele>414.5</ele>
        <time>2009-09-13T10:23:46Z</time>
      </trkpt>
      <trkpt lat="43.64256" lon="6.734">
        <ele>414.4</ele>
        <time>2009-09-13T10:23:48Z</time>
      </trkpt>
      <trkpt lat="43.64241" lon="6.73394">
        <ele>414.2</ele>
        <time>2009-09-13T10:24:58Z</time>
      </trkpt>
      <trkpt lat="43.64235" lon="6.73394">
        <ele>413.5</ele>
        <time>2009-09-13T10:25:01Z</time>
      </trkpt>
      <trkpt lat="43.6423" lon="6.73397">
        <ele>412.7</ele>
        <time>2009-09-13T10:25:04Z</time>
      </trkpt>
      <trkpt lat="43.64224" lon="6.73401">
        <ele>411.5</ele>
        <time>2009-09-13T10:25:07Z</time>
      </trkpt>
      <trkpt lat="43.64217" lon="6.73406">
        <ele>410.3</ele>
        <time>2009-09-13T10:25:09Z</time>
      </trkpt>
      <trkpt lat="43.6421" lon="6.7341">
        <ele>409.3</ele>
        <time>2009-09-13T10:25:11Z</time>
      </trkpt>
      <trkpt lat="43.64203" lon="6.73416">
        <ele>408.4</ele>
        <time>2009-09-13T10:25:13Z</time>
      </trkpt>
      <trkpt lat="43.64198" lon="6.73419">
        <ele>407.8</ele>
        <time>2009-09-13T10:25:14Z</time>
      </trkpt>
      <trkpt lat="43.64193" lon="6.73422">
        <ele>407.1</ele>
        <time>2009-09-13T10:25:15Z</time>
      </trkpt>
      <trkpt lat="43.64188" lon="6.73425">
        <ele>406.4</ele>
        <time>2009-09-13T10:25:16Z</time>
      </trkpt>
      <trkpt lat="43.64182" lon="6.73428">
        <ele>405.8</ele>
        <time>2009-09-13T10:25:17Z</time>
      </trkpt>
      <trkpt lat="43.64175" lon="6.73432">
        <ele>405.2</ele>
        <time>2009-09-13T10:25:18Z</time>
      </trkpt>
      <trkpt lat="43.64169" lon="6.73435">
        <ele>404.7</ele>
        <time>2009-09-13T10:25:19Z</time>
      </trkpt>
      <trkpt lat="43.64161" lon="6.73439">
        <ele>403.8</ele>
        <time>2009-09-13T10:25:20Z</time>
      </trkpt>
      <trkpt lat="43.64154" lon="6.73441">
        <ele>402.9</ele>
        <time>2009-09-13T10:25:21Z</time>
      </trkpt>
      <trkpt lat="43.64148" lon="6.73443">
        <ele>402</ele>
        <time>2009-09-13T10:25:22Z</time>
      </trkpt>
      <trkpt lat="43.64142" lon="6.73446">
        <ele>401.3</ele>
        <time>2009-09-13T10:25:23Z</time>
      </trkpt>
      <trkpt lat="43.64137" lon="6.73448">
        <ele>400.5</ele>
        <time>2009-09-13T10:25:24Z</time>
      </trkpt>
      <trkpt lat="43.64131" lon="6.7345">
        <ele>399.4</ele>
        <time>2009-09-13T10:25:25Z</time>
      </trkpt>
      <trkpt lat="43.64126" lon="6.73452">
        <ele>398.5</ele>
        <time>2009-09-13T10:25:26Z</time>
      </trkpt>
      <trkpt lat="43.64117" lon="6.73455">
        <ele>396.7</ele>
        <time>2009-09-13T10:25:28Z</time>
      </trkpt>
      <trkpt lat="43.64113" lon="6.73457">
        <ele>395.8</ele>
        <time>2009-09-13T10:25:29Z</time>
      </trkpt>
      <trkpt lat="43.64108" lon="6.73459">
        <ele>394.9</ele>
        <time>2009-09-13T10:25:30Z</time>
      </trkpt>
      <trkpt lat="43.64099" lon="6.73461">
        <ele>393.1</ele>
        <time>2009-09-13T10:25:32Z</time>
      </trkpt>
      <trkpt lat="43.64094" lon="6.73463">
        <ele>392</ele>
        <time>2009-09-13T10:25:33Z</time>
      </trkpt>
      <trkpt lat="43.64088" lon="6.73465">
        <ele>390.9</ele>
        <time>2009-09-13T10:25:34Z</time>
      </trkpt>
      <trkpt lat="43.64082" lon="6.73467">
        <ele>389.7</ele>
        <time>2009-09-13T10:25:35Z</time>
      </trkpt>
      <trkpt lat="43.64075" lon="6.7347">
        <ele>388.5</ele>
        <time>2009-09-13T10:25:36Z</time>
      </trkpt>
      <trkpt lat="43.64068" lon="6.73473">
        <ele>387.2</ele>
        <time>2009-09-13T10:25:37Z</time>
      </trkpt>
      <trkpt lat="43.6406" lon="6.73475">
        <ele>385.9</ele>
        <time>2009-09-13T10:25:38Z</time>
      </trkpt>
      <trkpt lat="43.64052" lon="6.73479">
        <ele>385.1</ele>
        <time>2009-09-13T10:25:39Z</time>
      </trkpt>
      <trkpt lat="43.64043" lon="6.73483">
        <ele>384.5</ele>
        <time>2009-09-13T10:25:40Z</time>
      </trkpt>
      <trkpt lat="43.64034" lon="6.73486">
        <ele>383.6</ele>
        <time>2009-09-13T10:25:41Z</time>
      </trkpt>
      <trkpt lat="43.64024" lon="6.73489">
        <ele>382.7</ele>
        <time>2009-09-13T10:25:42Z</time>
      </trkpt>
      <trkpt lat="43.64015" lon="6.73491">
        <ele>381.7</ele>
        <time>2009-09-13T10:25:43Z</time>
      </trkpt>
      <trkpt lat="43.64005" lon="6.73494">
        <ele>380.7</ele>
        <time>2009-09-13T10:25:44Z</time>
      </trkpt>
      <trkpt lat="43.63996" lon="6.73497">
        <ele>379.9</ele>
        <time>2009-09-13T10:25:45Z</time>
      </trkpt>
      <trkpt lat="43.63986" lon="6.735">
        <ele>379.5</ele>
        <time>2009-09-13T10:25:46Z</time>
      </trkpt>
      <trkpt lat="43.63977" lon="6.73503">
        <ele>379.2</ele>
        <time>2009-09-13T10:25:47Z</time>
      </trkpt>
      <trkpt lat="43.63967" lon="6.73506">
        <ele>378.6</ele>
        <time>2009-09-13T10:25:48Z</time>
      </trkpt>
      <trkpt lat="43.63957" lon="6.73509">
        <ele>377.9</ele>
        <time>2009-09-13T10:25:49Z</time>
      </trkpt>
      <trkpt lat="43.63946" lon="6.73514">
        <ele>377.1</ele>
        <time>2009-09-13T10:25:50Z</time>
      </trkpt>
      <trkpt lat="43.63935" lon="6.73519">
        <ele>376.8</ele>
        <time>2009-09-13T10:25:51Z</time>
      </trkpt>
      <trkpt lat="43.63925" lon="6.73523">
        <ele>376.4</ele>
        <time>2009-09-13T10:25:52Z</time>
      </trkpt>
      <trkpt lat="43.63917" lon="6.73528">
        <ele>376</ele>
        <time>2009-09-13T10:25:53Z</time>
      </trkpt>
      <trkpt lat="43.63908" lon="6.73534">
        <ele>375.6</ele>
        <time>2009-09-13T10:25:54Z</time>
      </trkpt>
      <trkpt lat="43.639" lon="6.73541">
        <ele>375.1</ele>
        <time>2009-09-13T10:25:55Z</time>
      </trkpt>
      <trkpt lat="43.63892" lon="6.73548">
        <ele>374.5</ele>
        <time>2009-09-13T10:25:56Z</time>
      </trkpt>
      <trkpt lat="43.63885" lon="6.73555">
        <ele>374</ele>
        <time>2009-09-13T10:25:57Z</time>
      </trkpt>
      <trkpt lat="43.63877" lon="6.73562">
        <ele>374.1</ele>
        <time>2009-09-13T10:25:58Z</time>
      </trkpt>
      <trkpt lat="43.6387" lon="6.73569">
        <ele>374.1</ele>
        <time>2009-09-13T10:25:59Z</time>
      </trkpt>
      <trkpt lat="43.63863" lon="6.73575">
        <ele>374</ele>
        <time>2009-09-13T10:26:00Z</time>
      </trkpt>
      <trkpt lat="43.63856" lon="6.73581">
        <ele>373.8</ele>
        <time>2009-09-13T10:26:01Z</time>
      </trkpt>
      <trkpt lat="43.63849" lon="6.73586">
        <ele>373.6</ele>
        <time>2009-09-13T10:26:02Z</time>
      </trkpt>
      <trkpt lat="43.63844" lon="6.7359">
        <ele>373.4</ele>
        <time>2009-09-13T10:26:03Z</time>
      </trkpt>
      <trkpt lat="43.63837" lon="6.73596">
        <ele>373.1</ele>
        <time>2009-09-13T10:26:05Z</time>
      </trkpt>
      <trkpt lat="43.63832" lon="6.736">
        <ele>373.1</ele>
        <time>2009-09-13T10:26:07Z</time>
      </trkpt>
      <trkpt lat="43.63829" lon="6.73606">
        <ele>373.1</ele>
        <time>2009-09-13T10:26:09Z</time>
      </trkpt>
      <trkpt lat="43.63825" lon="6.73611">
        <ele>373</ele>
        <time>2009-09-13T10:26:12Z</time>
      </trkpt>
      <trkpt lat="43.63814" lon="6.73608">
        <ele>373.1</ele>
        <time>2009-09-13T10:27:13Z</time>
      </trkpt>
      <trkpt lat="43.63811" lon="6.73614">
        <ele>372.8</ele>
        <time>2009-09-13T10:27:16Z</time>
      </trkpt>
      <trkpt lat="43.63809" lon="6.7362">
        <ele>372.4</ele>
        <time>2009-09-13T10:27:18Z</time>
      </trkpt>
      <trkpt lat="43.63808" lon="6.73632">
        <ele>371.6</ele>
        <time>2009-09-13T10:27:20Z</time>
      </trkpt>
      <trkpt lat="43.63808" lon="6.73639">
        <ele>371.1</ele>
        <time>2009-09-13T10:27:21Z</time>
      </trkpt>
      <trkpt lat="43.63808" lon="6.73647">
        <ele>370.8</ele>
        <time>2009-09-13T10:27:22Z</time>
      </trkpt>
      <trkpt lat="43.63807" lon="6.73655">
        <ele>370.6</ele>
        <time>2009-09-13T10:27:23Z</time>
      </trkpt>
      <trkpt lat="43.63807" lon="6.73662">
        <ele>370.3</ele>
        <time>2009-09-13T10:27:24Z</time>
      </trkpt>
      <trkpt lat="43.63807" lon="6.73669">
        <ele>370.1</ele>
        <time>2009-09-13T10:27:25Z</time>
      </trkpt>
      <trkpt lat="43.63806" lon="6.73676">
        <ele>370.1</ele>
        <time>2009-09-13T10:27:26Z</time>
      </trkpt>
      <trkpt lat="43.63806" lon="6.73688">
        <ele>370.1</ele>
        <time>2009-09-13T10:27:28Z</time>
      </trkpt>
      <trkpt lat="43.63804" lon="6.73698">
        <ele>370.1</ele>
        <time>2009-09-13T10:27:30Z</time>
      </trkpt>
      <trkpt lat="43.63801" lon="6.73707">
        <ele>370.4</ele>
        <time>2009-09-13T10:27:32Z</time>
      </trkpt>
      <trkpt lat="43.63797" lon="6.73714">
        <ele>370.6</ele>
        <time>2009-09-13T10:27:34Z</time>
      </trkpt>
      <trkpt lat="43.63794" lon="6.7372">
        <ele>370.9</ele>
        <time>2009-09-13T10:27:37Z</time>
      </trkpt>
      <trkpt lat="43.63791" lon="6.73727">
        <ele>371.6</ele>
        <time>2009-09-13T10:27:41Z</time>
      </trkpt>
      <trkpt lat="43.63789" lon="6.73735">
        <ele>372.4</ele>
        <time>2009-09-13T10:27:45Z</time>
      </trkpt>
      <trkpt lat="43.63786" lon="6.73742">
        <ele>373.1</ele>
        <time>2009-09-13T10:27:48Z</time>
      </trkpt>
      <trkpt lat="43.63784" lon="6.73748">
        <ele>373.8</ele>
        <time>2009-09-13T10:27:51Z</time>
      </trkpt>
      <trkpt lat="43.63784" lon="6.73755">
        <ele>374</ele>
        <time>2009-09-13T10:27:55Z</time>
      </trkpt>
      <trkpt lat="43.63782" lon="6.73761">
        <ele>374.1</ele>
        <time>2009-09-13T10:27:58Z</time>
      </trkpt>
      <trkpt lat="43.63779" lon="6.73767">
        <ele>374</ele>
        <time>2009-09-13T10:28:01Z</time>
      </trkpt>
      <trkpt lat="43.63777" lon="6.73774">
        <ele>374</ele>
        <time>2009-09-13T10:28:03Z</time>
      </trkpt>
      <trkpt lat="43.63776" lon="6.73781">
        <ele>374</ele>
        <time>2009-09-13T10:28:05Z</time>
      </trkpt>
      <trkpt lat="43.63774" lon="6.73788">
        <ele>374</ele>
        <time>2009-09-13T10:28:07Z</time>
      </trkpt>
      <trkpt lat="43.63773" lon="6.73796">
        <ele>373.9</ele>
        <time>2009-09-13T10:28:09Z</time>
      </trkpt>
      <trkpt lat="43.63773" lon="6.73803">
        <ele>373.8</ele>
        <time>2009-09-13T10:28:11Z</time>
      </trkpt>
      <trkpt lat="43.63772" lon="6.73812">
        <ele>374</ele>
        <time>2009-09-13T10:28:13Z</time>
      </trkpt>
      <trkpt lat="43.63771" lon="6.7382">
        <ele>374.2</ele>
        <time>2009-09-13T10:28:15Z</time>
      </trkpt>
      <trkpt lat="43.63773" lon="6.73829">
        <ele>374.5</ele>
        <time>2009-09-13T10:28:17Z</time>
      </trkpt>
      <trkpt lat="43.63775" lon="6.73837">
        <ele>374.8</ele>
        <time>2009-09-13T10:28:19Z</time>
      </trkpt>
      <trkpt lat="43.63776" lon="6.73845">
        <ele>374.9</ele>
        <time>2009-09-13T10:28:21Z</time>
      </trkpt>
      <trkpt lat="43.63776" lon="6.73852">
        <ele>374.9</ele>
        <time>2009-09-13T10:28:23Z</time>
      </trkpt>
      <trkpt lat="43.63777" lon="6.7386">
        <ele>374.9</ele>
        <time>2009-09-13T10:28:25Z</time>
      </trkpt>
      <trkpt lat="43.63777" lon="6.73868">
        <ele>375.2</ele>
        <time>2009-09-13T10:28:27Z</time>
      </trkpt>
      <trkpt lat="43.63779" lon="6.73875">
        <ele>375.6</ele>
        <time>2009-09-13T10:28:30Z</time>
      </trkpt>
      <trkpt lat="43.63783" lon="6.73879">
        <ele>376</ele>
        <time>2009-09-13T10:28:35Z</time>
      </trkpt>
      <trkpt lat="43.63787" lon="6.73878">
        <ele>376.3</ele>
        <time>2009-09-13T10:28:39Z</time>
      </trkpt>
      <trkpt lat="43.63792" lon="6.73883">
        <ele>376.8</ele>
        <time>2009-09-13T10:28:43Z</time>
      </trkpt>
      <trkpt lat="43.63796" lon="6.73888">
        <ele>377.3</ele>
        <time>2009-09-13T10:28:46Z</time>
      </trkpt>
      <trkpt lat="43.63794" lon="6.73895">
        <ele>377</ele>
        <time>2009-09-13T10:28:50Z</time>
      </trkpt>
      <trkpt lat="43.6379" lon="6.73899">
        <ele>376.7</ele>
        <time>2009-09-13T10:28:53Z</time>
      </trkpt>
      <trkpt lat="43.63786" lon="6.73905">
        <ele>376.4</ele>
        <time>2009-09-13T10:28:56Z</time>
      </trkpt>
      <trkpt lat="43.63782" lon="6.7391">
        <ele>376.2</ele>
        <time>2009-09-13T10:28:58Z</time>
      </trkpt>
      <trkpt lat="43.63778" lon="6.73916">
        <ele>376</ele>
        <time>2009-09-13T10:29:00Z</time>
      </trkpt>
      <trkpt lat="43.63776" lon="6.73925">
        <ele>375.9</ele>
        <time>2009-09-13T10:29:02Z</time>
      </trkpt>
      <trkpt lat="43.63774" lon="6.73934">
        <ele>375.8</ele>
        <time>2009-09-13T10:29:04Z</time>
      </trkpt>
      <trkpt lat="43.63774" lon="6.73944">
        <ele>375.7</ele>
        <time>2009-09-13T10:29:06Z</time>
      </trkpt>
      <trkpt lat="43.63775" lon="6.73954">
        <ele>376.1</ele>
        <time>2009-09-13T10:29:08Z</time>
      </trkpt>
      <trkpt lat="43.63777" lon="6.73962">
        <ele>376.6</ele>
        <time>2009-09-13T10:29:10Z</time>
      </trkpt>
      <trkpt lat="43.63778" lon="6.73969">
        <ele>376.9</ele>
        <time>2009-09-13T10:29:12Z</time>
      </trkpt>
      <trkpt lat="43.63777" lon="6.73977">
        <ele>376.9</ele>
        <time>2009-09-13T10:29:14Z</time>
      </trkpt>
      <trkpt lat="43.63773" lon="6.73984">
        <ele>376.7</ele>
        <time>2009-09-13T10:29:16Z</time>
      </trkpt>
      <trkpt lat="43.63769" lon="6.73991">
        <ele>376.6</ele>
        <time>2009-09-13T10:29:18Z</time>
      </trkpt>
      <trkpt lat="43.63767" lon="6.74">
        <ele>376.6</ele>
        <time>2009-09-13T10:29:20Z</time>
      </trkpt>
      <trkpt lat="43.63765" lon="6.74008">
        <ele>376.8</ele>
        <time>2009-09-13T10:29:22Z</time>
      </trkpt>
      <trkpt lat="43.63763" lon="6.74016">
        <ele>377</ele>
        <time>2009-09-13T10:29:24Z</time>
      </trkpt>
      <trkpt lat="43.63759" lon="6.74022">
        <ele>377.1</ele>
        <time>2009-09-13T10:29:26Z</time>
      </trkpt>
      <trkpt lat="43.63755" lon="6.74029">
        <ele>377.2</ele>
        <time>2009-09-13T10:29:28Z</time>
      </trkpt>
      <trkpt lat="43.63751" lon="6.74037">
        <ele>377.3</ele>
        <time>2009-09-13T10:29:30Z</time>
      </trkpt>
      <trkpt lat="43.63748" lon="6.74046">
        <ele>377.6</ele>
        <time>2009-09-13T10:29:32Z</time>
      </trkpt>
      <trkpt lat="43.63745" lon="6.74056">
        <ele>377.8</ele>
        <time>2009-09-13T10:29:34Z</time>
      </trkpt>
      <trkpt lat="43.6374" lon="6.74066">
        <ele>377.1</ele>
        <time>2009-09-13T10:29:36Z</time>
      </trkpt>
      <trkpt lat="43.63737" lon="6.74071">
        <ele>376.7</ele>
        <time>2009-09-13T10:29:37Z</time>
      </trkpt>
      <trkpt lat="43.63734" lon="6.74077">
        <ele>376.3</ele>
        <time>2009-09-13T10:29:38Z</time>
      </trkpt>
      <trkpt lat="43.63731" lon="6.74083">
        <ele>376</ele>
        <time>2009-09-13T10:29:39Z</time>
      </trkpt>
      <trkpt lat="43.63728" lon="6.74089">
        <ele>375.6</ele>
        <time>2009-09-13T10:29:40Z</time>
      </trkpt>
      <trkpt lat="43.63722" lon="6.74099">
        <ele>374.9</ele>
        <time>2009-09-13T10:29:42Z</time>
      </trkpt>
      <trkpt lat="43.63716" lon="6.74106">
        <ele>374.1</ele>
        <time>2009-09-13T10:29:44Z</time>
      </trkpt>
      <trkpt lat="43.63714" lon="6.74113">
        <ele>373.4</ele>
        <time>2009-09-13T10:29:46Z</time>
      </trkpt>
      <trkpt lat="43.63716" lon="6.74123">
        <ele>371.9</ele>
        <time>2009-09-13T10:29:49Z</time>
      </trkpt>
      <trkpt lat="43.63717" lon="6.74133">
        <ele>370.2</ele>
        <time>2009-09-13T10:29:51Z</time>
      </trkpt>
      <trkpt lat="43.63716" lon="6.74143">
        <ele>369</ele>
        <time>2009-09-13T10:29:53Z</time>
      </trkpt>
      <trkpt lat="43.63715" lon="6.74156">
        <ele>368.3</ele>
        <time>2009-09-13T10:29:55Z</time>
      </trkpt>
      <trkpt lat="43.63713" lon="6.74166">
        <ele>367.7</ele>
        <time>2009-09-13T10:29:57Z</time>
      </trkpt>
      <trkpt lat="43.6371" lon="6.74171">
        <ele>367.8</ele>
        <time>2009-09-13T10:30:01Z</time>
      </trkpt>
      <trkpt lat="43.63718" lon="6.74179">
        <ele>369</ele>
        <time>2009-09-13T10:30:37Z</time>
      </trkpt>
      <trkpt lat="43.63715" lon="6.74188">
        <ele>369.5</ele>
        <time>2009-09-13T10:30:40Z</time>
      </trkpt>
      <trkpt lat="43.63717" lon="6.74195">
        <ele>370.2</ele>
        <time>2009-09-13T10:30:42Z</time>
      </trkpt>
      <trkpt lat="43.63718" lon="6.74202">
        <ele>370</ele>
        <time>2009-09-13T10:30:44Z</time>
      </trkpt>
      <trkpt lat="43.63717" lon="6.7421">
        <ele>369.3</ele>
        <time>2009-09-13T10:30:46Z</time>
      </trkpt>
      <trkpt lat="43.63716" lon="6.74219">
        <ele>368.7</ele>
        <time>2009-09-13T10:30:48Z</time>
      </trkpt>
      <trkpt lat="43.63716" lon="6.74226">
        <ele>368.5</ele>
        <time>2009-09-13T10:30:50Z</time>
      </trkpt>
      <trkpt lat="43.63715" lon="6.74233">
        <ele>368.3</ele>
        <time>2009-09-13T10:30:52Z</time>
      </trkpt>
      <trkpt lat="43.63712" lon="6.74241">
        <ele>368.1</ele>
        <time>2009-09-13T10:30:54Z</time>
      </trkpt>
      <trkpt lat="43.63709" lon="6.74249">
        <ele>368</ele>
        <time>2009-09-13T10:30:56Z</time>
      </trkpt>
      <trkpt lat="43.63705" lon="6.74257">
        <ele>368.8</ele>
        <time>2009-09-13T10:30:58Z</time>
      </trkpt>
      <trkpt lat="43.63702" lon="6.74264">
        <ele>369.6</ele>
        <time>2009-09-13T10:31:00Z</time>
      </trkpt>
      <trkpt lat="43.63697" lon="6.7427">
        <ele>370.2</ele>
        <time>2009-09-13T10:31:02Z</time>
      </trkpt>
      <trkpt lat="43.63692" lon="6.74273">
        <ele>370.4</ele>
        <time>2009-09-13T10:31:05Z</time>
      </trkpt>
      <trkpt lat="43.63684" lon="6.74274">
        <ele>370</ele>
        <time>2009-09-13T10:31:11Z</time>
      </trkpt>
      <trkpt lat="43.63681" lon="6.74279">
        <ele>370.1</ele>
        <time>2009-09-13T10:31:15Z</time>
      </trkpt>
      <trkpt lat="43.63679" lon="6.74285">
        <ele>370.3</ele>
        <time>2009-09-13T10:31:18Z</time>
      </trkpt>
      <trkpt lat="43.63678" lon="6.74292">
        <ele>370.4</ele>
        <time>2009-09-13T10:31:20Z</time>
      </trkpt>
      <trkpt lat="43.63675" lon="6.74298">
        <ele>370.3</ele>
        <time>2009-09-13T10:31:22Z</time>
      </trkpt>
      <trkpt lat="43.63672" lon="6.74303">
        <ele>369.9</ele>
        <time>2009-09-13T10:31:24Z</time>
      </trkpt>
      <trkpt lat="43.63668" lon="6.74307">
        <ele>369.3</ele>
        <time>2009-09-13T10:31:26Z</time>
      </trkpt>
      <trkpt lat="43.63663" lon="6.74312">
        <ele>369.8</ele>
        <time>2009-09-13T10:31:28Z</time>
      </trkpt>
      <trkpt lat="43.63659" lon="6.74318">
        <ele>370.4</ele>
        <time>2009-09-13T10:31:30Z</time>
      </trkpt>
      <trkpt lat="43.63656" lon="6.74326">
        <ele>370.8</ele>
        <time>2009-09-13T10:31:32Z</time>
      </trkpt>
      <trkpt lat="43.63655" lon="6.74334">
        <ele>371</ele>
        <time>2009-09-13T10:31:34Z</time>
      </trkpt>
      <trkpt lat="43.63653" lon="6.74341">
        <ele>371.4</ele>
        <time>2009-09-13T10:31:36Z</time>
      </trkpt>
      <trkpt lat="43.63651" lon="6.74347">
        <ele>371.6</ele>
        <time>2009-09-13T10:31:39Z</time>
      </trkpt>
      <trkpt lat="43.63654" lon="6.74353">
        <ele>372.1</ele>
        <time>2009-09-13T10:31:43Z</time>
      </trkpt>
      <trkpt lat="43.63656" lon="6.74358">
        <ele>372.7</ele>
        <time>2009-09-13T10:31:46Z</time>
      </trkpt>
      <trkpt lat="43.63656" lon="6.74366">
        <ele>372.9</ele>
        <time>2009-09-13T10:31:48Z</time>
      </trkpt>
      <trkpt lat="43.63655" lon="6.74373">
        <ele>372.7</ele>
        <time>2009-09-13T10:31:50Z</time>
      </trkpt>
      <trkpt lat="43.63655" lon="6.74381">
        <ele>372.7</ele>
        <time>2009-09-13T10:31:54Z</time>
      </trkpt>
      <trkpt lat="43.63658" lon="6.74387">
        <ele>373</ele>
        <time>2009-09-13T10:31:57Z</time>
      </trkpt>
      <trkpt lat="43.63662" lon="6.74401">
        <ele>373.1</ele>
        <time>2009-09-13T10:32:10Z</time>
      </trkpt>
      <trkpt lat="43.63663" lon="6.74408">
        <ele>372.8</ele>
        <time>2009-09-13T10:32:13Z</time>
      </trkpt>
      <trkpt lat="43.63664" lon="6.74416">
        <ele>372.3</ele>
        <time>2009-09-13T10:32:16Z</time>
      </trkpt>
      <trkpt lat="43.63665" lon="6.74423">
        <ele>372.4</ele>
        <time>2009-09-13T10:32:19Z</time>
      </trkpt>
      <trkpt lat="43.63667" lon="6.74432">
        <ele>372.6</ele>
        <time>2009-09-13T10:32:22Z</time>
      </trkpt>
      <trkpt lat="43.63667" lon="6.74441">
        <ele>373</ele>
        <time>2009-09-13T10:32:25Z</time>
      </trkpt>
      <trkpt lat="43.63666" lon="6.74448">
        <ele>373.1</ele>
        <time>2009-09-13T10:32:27Z</time>
      </trkpt>
      <trkpt lat="43.63665" lon="6.74455">
        <ele>373.3</ele>
        <time>2009-09-13T10:32:30Z</time>
      </trkpt>
      <trkpt lat="43.63664" lon="6.74462">
        <ele>373.6</ele>
        <time>2009-09-13T10:32:32Z</time>
      </trkpt>
      <trkpt lat="43.63664" lon="6.74469">
        <ele>373.6</ele>
        <time>2009-09-13T10:32:36Z</time>
      </trkpt>
      <trkpt lat="43.63662" lon="6.74478">
        <ele>374.1</ele>
        <time>2009-09-13T10:32:46Z</time>
      </trkpt>
      <trkpt lat="43.63662" lon="6.74486">
        <ele>374.1</ele>
        <time>2009-09-13T10:32:50Z</time>
      </trkpt>
      <trkpt lat="43.63662" lon="6.74493">
        <ele>374.1</ele>
        <time>2009-09-13T10:32:53Z</time>
      </trkpt>
      <trkpt lat="43.63662" lon="6.745">
        <ele>374.2</ele>
        <time>2009-09-13T10:32:55Z</time>
      </trkpt>
      <trkpt lat="43.63661" lon="6.74508">
        <ele>374.5</ele>
        <time>2009-09-13T10:32:58Z</time>
      </trkpt>
      <trkpt lat="43.63659" lon="6.74514">
        <ele>375</ele>
        <time>2009-09-13T10:33:00Z</time>
      </trkpt>
      <trkpt lat="43.63657" lon="6.74521">
        <ele>375.4</ele>
        <time>2009-09-13T10:33:03Z</time>
      </trkpt>
      <trkpt lat="43.63658" lon="6.7453">
        <ele>375.2</ele>
        <time>2009-09-13T10:33:26Z</time>
      </trkpt>
      <trkpt lat="43.63656" lon="6.74539">
        <ele>375.5</ele>
        <time>2009-09-13T10:33:29Z</time>
      </trkpt>
      <trkpt lat="43.63656" lon="6.74547">
        <ele>375.5</ele>
        <time>2009-09-13T10:33:31Z</time>
      </trkpt>
      <trkpt lat="43.63656" lon="6.74554">
        <ele>375.4</ele>
        <time>2009-09-13T10:33:33Z</time>
      </trkpt>
      <trkpt lat="43.63659" lon="6.74561">
        <ele>375.4</ele>
        <time>2009-09-13T10:33:35Z</time>
      </trkpt>
      <trkpt lat="43.63662" lon="6.74566">
        <ele>375.3</ele>
        <time>2009-09-13T10:33:37Z</time>
      </trkpt>
      <trkpt lat="43.63665" lon="6.74574">
        <ele>375.1</ele>
        <time>2009-09-13T10:33:39Z</time>
      </trkpt>
      <trkpt lat="43.63668" lon="6.74582">
        <ele>375.2</ele>
        <time>2009-09-13T10:33:41Z</time>
      </trkpt>
      <trkpt lat="43.6367" lon="6.7459">
        <ele>375.7</ele>
        <time>2009-09-13T10:33:43Z</time>
      </trkpt>
      <trkpt lat="43.63672" lon="6.74599">
        <ele>376.3</ele>
        <time>2009-09-13T10:33:45Z</time>
      </trkpt>
      <trkpt lat="43.63674" lon="6.74607">
        <ele>376.9</ele>
        <time>2009-09-13T10:33:47Z</time>
      </trkpt>
      <trkpt lat="43.63674" lon="6.74615">
        <ele>377.1</ele>
        <time>2009-09-13T10:33:49Z</time>
      </trkpt>
      <trkpt lat="43.6367" lon="6.74623">
        <ele>376.6</ele>
        <time>2009-09-13T10:33:51Z</time>
      </trkpt>
      <trkpt lat="43.63665" lon="6.74628">
        <ele>376.2</ele>
        <time>2009-09-13T10:33:54Z</time>
      </trkpt>
      <trkpt lat="43.63664" lon="6.74635">
        <ele>376.3</ele>
        <time>2009-09-13T10:33:57Z</time>
      </trkpt>
      <trkpt lat="43.63659" lon="6.74643">
        <ele>376.9</ele>
        <time>2009-09-13T10:34:00Z</time>
      </trkpt>
      <trkpt lat="43.63656" lon="6.74649">
        <ele>377.3</ele>
        <time>2009-09-13T10:34:02Z</time>
      </trkpt>
      <trkpt lat="43.63651" lon="6.74655">
        <ele>377.6</ele>
        <time>2009-09-13T10:34:05Z</time>
      </trkpt>
      <trkpt lat="43.63648" lon="6.74664">
        <ele>377.7</ele>
        <time>2009-09-13T10:34:08Z</time>
      </trkpt>
      <trkpt lat="43.63647" lon="6.74671">
        <ele>377.8</ele>
        <time>2009-09-13T10:34:10Z</time>
      </trkpt>
      <trkpt lat="43.63645" lon="6.7468">
        <ele>378</ele>
        <time>2009-09-13T10:34:12Z</time>
      </trkpt>
      <trkpt lat="43.63644" lon="6.74688">
        <ele>378.1</ele>
        <time>2009-09-13T10:34:14Z</time>
      </trkpt>
      <trkpt lat="43.63642" lon="6.74696">
        <ele>378.1</ele>
        <time>2009-09-13T10:34:16Z</time>
      </trkpt>
      <trkpt lat="43.6364" lon="6.74704">
        <ele>378.4</ele>
        <time>2009-09-13T10:34:18Z</time>
      </trkpt>
      <trkpt lat="43.63638" lon="6.74712">
        <ele>378.7</ele>
        <time>2009-09-13T10:34:20Z</time>
      </trkpt>
      <trkpt lat="43.63636" lon="6.74719">
        <ele>378.9</ele>
        <time>2009-09-13T10:34:22Z</time>
      </trkpt>
      <trkpt lat="43.63634" lon="6.74726">
        <ele>379.2</ele>
        <time>2009-09-13T10:34:24Z</time>
      </trkpt>
      <trkpt lat="43.6363" lon="6.74733">
        <ele>379.5</ele>
        <time>2009-09-13T10:34:26Z</time>
      </trkpt>
      <trkpt lat="43.63624" lon="6.74738">
        <ele>379.5</ele>
        <time>2009-09-13T10:34:28Z</time>
      </trkpt>
      <trkpt lat="43.63618" lon="6.74743">
        <ele>379.3</ele>
        <time>2009-09-13T10:34:30Z</time>
      </trkpt>
      <trkpt lat="43.63611" lon="6.74749">
        <ele>379</ele>
        <time>2009-09-13T10:34:32Z</time>
      </trkpt>
      <trkpt lat="43.63604" lon="6.74755">
        <ele>379.6</ele>
        <time>2009-09-13T10:34:34Z</time>
      </trkpt>
      <trkpt lat="43.63599" lon="6.74759">
        <ele>380</ele>
        <time>2009-09-13T10:34:36Z</time>
      </trkpt>
      <trkpt lat="43.63594" lon="6.74766">
        <ele>380.3</ele>
        <time>2009-09-13T10:34:38Z</time>
      </trkpt>
      <trkpt lat="43.6359" lon="6.74773">
        <ele>380.3</ele>
        <time>2009-09-13T10:34:40Z</time>
      </trkpt>
      <trkpt lat="43.63589" lon="6.7478">
        <ele>380.6</ele>
        <time>2009-09-13T10:34:42Z</time>
      </trkpt>
      <trkpt lat="43.63595" lon="6.748">
        <ele>383.2</ele>
        <time>2009-09-13T10:36:04Z</time>
      </trkpt>
      <trkpt lat="43.63601" lon="6.74801">
        <ele>383.8</ele>
        <time>2009-09-13T10:36:07Z</time>
      </trkpt>
      <trkpt lat="43.63606" lon="6.74805">
        <ele>384.6</ele>
        <time>2009-09-13T10:36:09Z</time>
      </trkpt>
      <trkpt lat="43.63586" lon="6.74822">
        <ele>384.4</ele>
        <time>2009-09-13T10:36:22Z</time>
      </trkpt>
      <trkpt lat="43.6358" lon="6.74826">
        <ele>384.3</ele>
        <time>2009-09-13T10:36:24Z</time>
      </trkpt>
      <trkpt lat="43.63574" lon="6.74828">
        <ele>384.3</ele>
        <time>2009-09-13T10:36:26Z</time>
      </trkpt>
      <trkpt lat="43.63567" lon="6.74831">
        <ele>384.2</ele>
        <time>2009-09-13T10:36:28Z</time>
      </trkpt>
      <trkpt lat="43.63561" lon="6.74835">
        <ele>384.3</ele>
        <time>2009-09-13T10:36:30Z</time>
      </trkpt>
      <trkpt lat="43.63555" lon="6.74839">
        <ele>384.4</ele>
        <time>2009-09-13T10:36:32Z</time>
      </trkpt>
      <trkpt lat="43.63549" lon="6.74843">
        <ele>384.5</ele>
        <time>2009-09-13T10:36:34Z</time>
      </trkpt>
      <trkpt lat="43.63543" lon="6.74847">
        <ele>384.7</ele>
        <time>2009-09-13T10:36:36Z</time>
      </trkpt>
      <trkpt lat="43.63535" lon="6.74851">
        <ele>385</ele>
        <time>2009-09-13T10:36:38Z</time>
      </trkpt>
      <trkpt lat="43.63528" lon="6.74855">
        <ele>385.3</ele>
        <time>2009-09-13T10:36:40Z</time>
      </trkpt>
      <trkpt lat="43.63521" lon="6.74859">
        <ele>385.6</ele>
        <time>2009-09-13T10:36:42Z</time>
      </trkpt>
      <trkpt lat="43.63514" lon="6.74863">
        <ele>385.6</ele>
        <time>2009-09-13T10:36:44Z</time>
      </trkpt>
      <trkpt lat="43.63507" lon="6.74868">
        <ele>385.5</ele>
        <time>2009-09-13T10:36:46Z</time>
      </trkpt>
      <trkpt lat="43.63499" lon="6.74872">
        <ele>385.3</ele>
        <time>2009-09-13T10:36:48Z</time>
      </trkpt>
      <trkpt lat="43.63491" lon="6.74875">
        <ele>385.2</ele>
        <time>2009-09-13T10:36:50Z</time>
      </trkpt>
      <trkpt lat="43.63483" lon="6.74879">
        <ele>385</ele>
        <time>2009-09-13T10:36:52Z</time>
      </trkpt>
      <trkpt lat="43.63475" lon="6.74884">
        <ele>384.9</ele>
        <time>2009-09-13T10:36:54Z</time>
      </trkpt>
      <trkpt lat="43.63469" lon="6.7489">
        <ele>385.1</ele>
        <time>2009-09-13T10:36:56Z</time>
      </trkpt>
      <trkpt lat="43.63462" lon="6.74894">
        <ele>385.3</ele>
        <time>2009-09-13T10:36:58Z</time>
      </trkpt>
      <trkpt lat="43.63456" lon="6.749">
        <ele>385.5</ele>
        <time>2009-09-13T10:37:00Z</time>
      </trkpt>
      <trkpt lat="43.63428" lon="6.74963">
        <ele>388.3</ele>
        <time>2009-09-13T10:37:15Z</time>
      </trkpt>
      <trkpt lat="43.63286" lon="6.75288">
        <ele>397.8</ele>
        <time>2009-09-13T10:38:49Z</time>
      </trkpt>
      <trkpt lat="43.63283" lon="6.75295">
        <ele>397.9</ele>
        <time>2009-09-13T10:38:51Z</time>
      </trkpt>
      <trkpt lat="43.6328" lon="6.75303">
        <ele>398</ele>
        <time>2009-09-13T10:38:53Z</time>
      </trkpt>
      <trkpt lat="43.63277" lon="6.7531">
        <ele>398.2</ele>
        <time>2009-09-13T10:38:55Z</time>
      </trkpt>
      <trkpt lat="43.63275" lon="6.75318">
        <ele>398.4</ele>
        <time>2009-09-13T10:38:57Z</time>
      </trkpt>
      <trkpt lat="43.63271" lon="6.75326">
        <ele>398.6</ele>
        <time>2009-09-13T10:38:59Z</time>
      </trkpt>
      <trkpt lat="43.63268" lon="6.75334">
        <ele>398.7</ele>
        <time>2009-09-13T10:39:01Z</time>
      </trkpt>
      <trkpt lat="43.63266" lon="6.75343">
        <ele>398.7</ele>
        <time>2009-09-13T10:39:03Z</time>
      </trkpt>
      <trkpt lat="43.63262" lon="6.75352">
        <ele>398.8</ele>
        <time>2009-09-13T10:39:05Z</time>
      </trkpt>
      <trkpt lat="43.63259" lon="6.75361">
        <ele>399</ele>
        <time>2009-09-13T10:39:07Z</time>
      </trkpt>
      <trkpt lat="43.63255" lon="6.75371">
        <ele>399.1</ele>
        <time>2009-09-13T10:39:09Z</time>
      </trkpt>
      <trkpt lat="43.63251" lon="6.7538">
        <ele>399</ele>
        <time>2009-09-13T10:39:11Z</time>
      </trkpt>
      <trkpt lat="43.63246" lon="6.7539">
        <ele>398.9</ele>
        <time>2009-09-13T10:39:13Z</time>
      </trkpt>
      <trkpt lat="43.6324" lon="6.75402">
        <ele>398.9</ele>
        <time>2009-09-13T10:39:16Z</time>
      </trkpt>
      <trkpt lat="43.63177" lon="6.755">
        <ele>401</ele>
        <time>2009-09-13T10:39:42Z</time>
      </trkpt>
      <trkpt lat="43.63177" lon="6.75507">
        <ele>401.1</ele>
        <time>2009-09-13T10:39:44Z</time>
      </trkpt>
      <trkpt lat="43.63177" lon="6.75514">
        <ele>401.2</ele>
        <time>2009-09-13T10:39:46Z</time>
      </trkpt>
      <trkpt lat="43.63177" lon="6.75522">
        <ele>401.3</ele>
        <time>2009-09-13T10:39:48Z</time>
      </trkpt>
      <trkpt lat="43.63177" lon="6.75528">
        <ele>401.4</ele>
        <time>2009-09-13T10:39:50Z</time>
      </trkpt>
      <trkpt lat="43.63176" lon="6.75537">
        <ele>401.6</ele>
        <time>2009-09-13T10:39:52Z</time>
      </trkpt>
      <trkpt lat="43.63173" lon="6.75546">
        <ele>401.7</ele>
        <time>2009-09-13T10:39:54Z</time>
      </trkpt>
      <trkpt lat="43.63148" lon="6.75573">
        <ele>401.1</ele>
        <time>2009-09-13T10:40:02Z</time>
      </trkpt>
      <trkpt lat="43.63144" lon="6.75576">
        <ele>401</ele>
        <time>2009-09-13T10:40:03Z</time>
      </trkpt>
      <trkpt lat="43.63139" lon="6.75579">
        <ele>401</ele>
        <time>2009-09-13T10:40:04Z</time>
      </trkpt>
      <trkpt lat="43.63135" lon="6.75582">
        <ele>400.9</ele>
        <time>2009-09-13T10:40:05Z</time>
      </trkpt>
      <trkpt lat="43.6305" lon="6.75699">
        <ele>400.1</ele>
        <time>2009-09-13T10:40:36Z</time>
      </trkpt>
      <trkpt lat="43.63005" lon="6.75847">
        <ele>393.2</ele>
        <time>2009-09-13T10:40:53Z</time>
      </trkpt>
      <trkpt lat="43.63001" lon="6.75869">
        <ele>392.7</ele>
        <time>2009-09-13T10:40:59Z</time>
      </trkpt>
      <trkpt lat="43.63" lon="6.75895">
        <ele>391.8</ele>
        <time>2009-09-13T10:41:04Z</time>
      </trkpt>
      <trkpt lat="43.62999" lon="6.75905">
        <ele>391.4</ele>
        <time>2009-09-13T10:41:06Z</time>
      </trkpt>
      <trkpt lat="43.62997" lon="6.75915">
        <ele>391.1</ele>
        <time>2009-09-13T10:41:08Z</time>
      </trkpt>
      <trkpt lat="43.62764" lon="6.76651">
        <ele>387.3</ele>
        <time>2009-09-13T10:43:14Z</time>
      </trkpt>
      <trkpt lat="43.623" lon="6.77813">
        <ele>380.2</ele>
        <time>2009-09-13T10:46:19Z</time>
      </trkpt>
      <trkpt lat="43.62296" lon="6.77822">
        <ele>380.1</ele>
        <time>2009-09-13T10:46:21Z</time>
      </trkpt>
      <trkpt lat="43.62293" lon="6.77833">
        <ele>380</ele>
        <time>2009-09-13T10:46:23Z</time>
      </trkpt>
      <trkpt lat="43.6229" lon="6.77844">
        <ele>379.4</ele>
        <time>2009-09-13T10:46:25Z</time>
      </trkpt>
      <trkpt lat="43.62287" lon="6.77854">
        <ele>378.5</ele>
        <time>2009-09-13T10:46:27Z</time>
      </trkpt>
      <trkpt lat="43.62283" lon="6.77862">
        <ele>377.5</ele>
        <time>2009-09-13T10:46:29Z</time>
      </trkpt>
      <trkpt lat="43.62252" lon="6.77836">
        <ele>380.1</ele>
        <time>2009-09-13T10:46:43Z</time>
      </trkpt>
      <trkpt lat="43.62233" lon="6.77802">
        <ele>382.4</ele>
        <time>2009-09-13T10:46:57Z</time>
      </trkpt>
      <trkpt lat="43.6223" lon="6.77795">
        <ele>382.9</ele>
        <time>2009-09-13T10:47:00Z</time>
      </trkpt>
      <trkpt lat="43.62227" lon="6.77789">
        <ele>383.3</ele>
        <time>2009-09-13T10:47:03Z</time>
      </trkpt>
      <trkpt lat="43.62225" lon="6.77784">
        <ele>383.7</ele>
        <time>2009-09-13T10:47:06Z</time>
      </trkpt>
      <trkpt lat="43.62222" lon="6.77778">
        <ele>384.1</ele>
        <time>2009-09-13T10:47:10Z</time>
      </trkpt>
      <trkpt lat="43.62219" lon="6.77771">
        <ele>385.1</ele>
        <time>2009-09-13T10:47:14Z</time>
      </trkpt>
      <trkpt lat="43.62216" lon="6.77765">
        <ele>386</ele>
        <time>2009-09-13T10:47:17Z</time>
      </trkpt>
      <trkpt lat="43.62214" lon="6.77758">
        <ele>386.8</ele>
        <time>2009-09-13T10:47:20Z</time>
      </trkpt>
      <trkpt lat="43.62212" lon="6.77752">
        <ele>387.5</ele>
        <time>2009-09-13T10:47:23Z</time>
      </trkpt>
      <trkpt lat="43.62209" lon="6.77747">
        <ele>388.1</ele>
        <time>2009-09-13T10:47:26Z</time>
      </trkpt>
      <trkpt lat="43.62207" lon="6.77741">
        <ele>388.6</ele>
        <time>2009-09-13T10:47:29Z</time>
      </trkpt>
      <trkpt lat="43.62204" lon="6.77735">
        <ele>389.3</ele>
        <time>2009-09-13T10:47:32Z</time>
      </trkpt>
      <trkpt lat="43.622" lon="6.77729">
        <ele>390</ele>
        <time>2009-09-13T10:47:35Z</time>
      </trkpt>
      <trkpt lat="43.62198" lon="6.77723">
        <ele>390.6</ele>
        <time>2009-09-13T10:47:38Z</time>
      </trkpt>
      <trkpt lat="43.62196" lon="6.77717">
        <ele>391.1</ele>
        <time>2009-09-13T10:47:41Z</time>
      </trkpt>
      <trkpt lat="43.62193" lon="6.77711">
        <ele>391.5</ele>
        <time>2009-09-13T10:47:44Z</time>
      </trkpt>
      <trkpt lat="43.62191" lon="6.77705">
        <ele>391.9</ele>
        <time>2009-09-13T10:47:47Z</time>
      </trkpt>
      <trkpt lat="43.62187" lon="6.77698">
        <ele>392.4</ele>
        <time>2009-09-13T10:47:51Z</time>
      </trkpt>
      <trkpt lat="43.62183" lon="6.77693">
        <ele>392.9</ele>
        <time>2009-09-13T10:47:55Z</time>
      </trkpt>
      <trkpt lat="43.62179" lon="6.77688">
        <ele>393.2</ele>
        <time>2009-09-13T10:47:58Z</time>
      </trkpt>
      <trkpt lat="43.62176" lon="6.77683">
        <ele>393.5</ele>
        <time>2009-09-13T10:48:01Z</time>
      </trkpt>
      <trkpt lat="43.62172" lon="6.77678">
        <ele>393.7</ele>
        <time>2009-09-13T10:48:04Z</time>
      </trkpt>
      <trkpt lat="43.62168" lon="6.77674">
        <ele>393.9</ele>
        <time>2009-09-13T10:48:07Z</time>
      </trkpt>
      <trkpt lat="43.62164" lon="6.7767">
        <ele>394.2</ele>
        <time>2009-09-13T10:48:10Z</time>
      </trkpt>
      <trkpt lat="43.6216" lon="6.77665">
        <ele>394.4</ele>
        <time>2009-09-13T10:48:13Z</time>
      </trkpt>
      <trkpt lat="43.62156" lon="6.7766">
        <ele>394.6</ele>
        <time>2009-09-13T10:48:16Z</time>
      </trkpt>
      <trkpt lat="43.62151" lon="6.77656">
        <ele>394.7</ele>
        <time>2009-09-13T10:48:19Z</time>
      </trkpt>
      <trkpt lat="43.62146" lon="6.77652">
        <ele>394.9</ele>
        <time>2009-09-13T10:48:22Z</time>
      </trkpt>
      <trkpt lat="43.62142" lon="6.77647">
        <ele>395.1</ele>
        <time>2009-09-13T10:48:25Z</time>
      </trkpt>
      <trkpt lat="43.62137" lon="6.77642">
        <ele>395.2</ele>
        <time>2009-09-13T10:48:28Z</time>
      </trkpt>
      <trkpt lat="43.62132" lon="6.77637">
        <ele>395.5</ele>
        <time>2009-09-13T10:48:31Z</time>
      </trkpt>
      <trkpt lat="43.62127" lon="6.77633">
        <ele>395.8</ele>
        <time>2009-09-13T10:48:34Z</time>
      </trkpt>
      <trkpt lat="43.62124" lon="6.77628">
        <ele>395.9</ele>
        <time>2009-09-13T10:48:38Z</time>
      </trkpt>
      <trkpt lat="43.62118" lon="6.77625">
        <ele>396.1</ele>
        <time>2009-09-13T10:48:53Z</time>
      </trkpt>
      <trkpt lat="43.62113" lon="6.77619">
        <ele>396.2</ele>
        <time>2009-09-13T10:48:56Z</time>
      </trkpt>
      <trkpt lat="43.62109" lon="6.77615">
        <ele>396.2</ele>
        <time>2009-09-13T10:48:58Z</time>
      </trkpt>
      <trkpt lat="43.62105" lon="6.77611">
        <ele>396.2</ele>
        <time>2009-09-13T10:49:00Z</time>
      </trkpt>
      <trkpt lat="43.62102" lon="6.77605">
        <ele>396.1</ele>
        <time>2009-09-13T10:49:02Z</time>
      </trkpt>
      <trkpt lat="43.62099" lon="6.77599">
        <ele>396</ele>
        <time>2009-09-13T10:49:04Z</time>
      </trkpt>
      <trkpt lat="43.62096" lon="6.77592">
        <ele>395.9</ele>
        <time>2009-09-13T10:49:06Z</time>
      </trkpt>
      <trkpt lat="43.62093" lon="6.77585">
        <ele>395.7</ele>
        <time>2009-09-13T10:49:08Z</time>
      </trkpt>
      <trkpt lat="43.62091" lon="6.77578">
        <ele>395.6</ele>
        <time>2009-09-13T10:49:10Z</time>
      </trkpt>
      <trkpt lat="43.62089" lon="6.77571">
        <ele>395.4</ele>
        <time>2009-09-13T10:49:12Z</time>
      </trkpt>
      <trkpt lat="43.62086" lon="6.77564">
        <ele>395.2</ele>
        <time>2009-09-13T10:49:14Z</time>
      </trkpt>
      <trkpt lat="43.62085" lon="6.77558">
        <ele>395</ele>
        <time>2009-09-13T10:49:16Z</time>
      </trkpt>
      <trkpt lat="43.62085" lon="6.77548">
        <ele>395</ele>
        <time>2009-09-13T10:49:19Z</time>
      </trkpt>
      <trkpt lat="43.62087" lon="6.77541">
        <ele>394.9</ele>
        <time>2009-09-13T10:49:21Z</time>
      </trkpt>
      <trkpt lat="43.62089" lon="6.77533">
        <ele>394.8</ele>
        <time>2009-09-13T10:49:23Z</time>
      </trkpt>
      <trkpt lat="43.62091" lon="6.77525">
        <ele>394.6</ele>
        <time>2009-09-13T10:49:25Z</time>
      </trkpt>
      <trkpt lat="43.62094" lon="6.77517">
        <ele>394.3</ele>
        <time>2009-09-13T10:49:27Z</time>
      </trkpt>
      <trkpt lat="43.62095" lon="6.77511">
        <ele>394</ele>
        <time>2009-09-13T10:49:29Z</time>
      </trkpt>
      <trkpt lat="43.62097" lon="6.77504">
        <ele>393.7</ele>
        <time>2009-09-13T10:49:31Z</time>
      </trkpt>
      <trkpt lat="43.621" lon="6.77496">
        <ele>393.3</ele>
        <time>2009-09-13T10:49:33Z</time>
      </trkpt>
      <trkpt lat="43.62104" lon="6.77486">
        <ele>392.8</ele>
        <time>2009-09-13T10:49:35Z</time>
      </trkpt>
      <trkpt lat="43.62106" lon="6.77481">
        <ele>392.5</ele>
        <time>2009-09-13T10:49:36Z</time>
      </trkpt>
      <trkpt lat="43.62108" lon="6.77475">
        <ele>392.2</ele>
        <time>2009-09-13T10:49:37Z</time>
      </trkpt>
      <trkpt lat="43.62111" lon="6.77469">
        <ele>391.9</ele>
        <time>2009-09-13T10:49:38Z</time>
      </trkpt>
      <trkpt lat="43.62114" lon="6.77462">
        <ele>391.5</ele>
        <time>2009-09-13T10:49:39Z</time>
      </trkpt>
      <trkpt lat="43.62117" lon="6.77456">
        <ele>391.2</ele>
        <time>2009-09-13T10:49:40Z</time>
      </trkpt>
      <trkpt lat="43.6212" lon="6.77451">
        <ele>390.9</ele>
        <time>2009-09-13T10:49:41Z</time>
      </trkpt>
      <trkpt lat="43.62123" lon="6.77445">
        <ele>390.6</ele>
        <time>2009-09-13T10:49:42Z</time>
      </trkpt>
      <trkpt lat="43.62126" lon="6.77441">
        <ele>390.2</ele>
        <time>2009-09-13T10:49:43Z</time>
      </trkpt>
      <trkpt lat="43.62131" lon="6.77436">
        <ele>389.9</ele>
        <time>2009-09-13T10:49:44Z</time>
      </trkpt>
      <trkpt lat="43.62136" lon="6.77432">
        <ele>389.6</ele>
        <time>2009-09-13T10:49:45Z</time>
      </trkpt>
      <trkpt lat="43.62141" lon="6.77429">
        <ele>389.4</ele>
        <time>2009-09-13T10:49:46Z</time>
      </trkpt>
      <trkpt lat="43.62147" lon="6.77427">
        <ele>389.1</ele>
        <time>2009-09-13T10:49:47Z</time>
      </trkpt>
      <trkpt lat="43.62155" lon="6.77426">
        <ele>388.7</ele>
        <time>2009-09-13T10:49:49Z</time>
      </trkpt>
      <trkpt lat="43.6216" lon="6.77428">
        <ele>388.7</ele>
        <time>2009-09-13T10:49:50Z</time>
      </trkpt>
      <trkpt lat="43.62164" lon="6.77439">
        <ele>388.9</ele>
        <time>2009-09-13T10:49:52Z</time>
      </trkpt>
      <trkpt lat="43.62164" lon="6.77449">
        <ele>389.1</ele>
        <time>2009-09-13T10:49:54Z</time>
      </trkpt>
      <trkpt lat="43.62163" lon="6.77458">
        <ele>389.2</ele>
        <time>2009-09-13T10:49:56Z</time>
      </trkpt>
      <trkpt lat="43.62159" lon="6.77465">
        <ele>389.5</ele>
        <time>2009-09-13T10:49:58Z</time>
      </trkpt>
      <trkpt lat="43.62154" lon="6.77469">
        <ele>389.9</ele>
        <time>2009-09-13T10:50:00Z</time>
      </trkpt>
      <trkpt lat="43.62148" lon="6.77472">
        <ele>390.4</ele>
        <time>2009-09-13T10:50:02Z</time>
      </trkpt>
      <trkpt lat="43.62143" lon="6.77472">
        <ele>390.7</ele>
        <time>2009-09-13T10:50:04Z</time>
      </trkpt>
      <trkpt lat="43.62138" lon="6.77472">
        <ele>391</ele>
        <time>2009-09-13T10:50:09Z</time>
      </trkpt>
    </trkseg>
  </trk>
</gpx>